<?xml version="1.0" encoding="UTF-8" standalone="no" ?>
<gpx xmlns="http://www.topografix.com/GPX/1/1" xmlns:xsi="http://www.w3.org/2001/XMLSchema-instance" xsi:schemaLocation="http://www.topografix.com/GPX/1/1 http://www.topografix.com/GPX/1/1/gpx.xsd" version="1.1" creator="VisuGPX - https://www.visugpx.com">
  <metadata>
    <name>4x4 Jour 7</name>
  </metadata>
  <trk>
    <name><![CDATA[Fin]]></name>
    <extensions>
      <line xmlns="http://www.topografix.com/GPX/gpx_style/0/2">
        <color>0000FF</color>
        <width>4</width>
      </line>
    </extensions>
    <trkseg>
      <trkpt lat="42.58343" lon="-1.36291">
        <ele>485.56</ele>
        <time>2021-08-05T07:56:48Z</time>
      </trkpt>
      <trkpt lat="42.58398" lon="-1.36284">
        <ele>489.03</ele>
        <time>2021-08-05T07:56:52Z</time>
      </trkpt>
      <trkpt lat="42.58443" lon="-1.36273">
        <ele>489.81</ele>
        <time>2021-08-05T07:56:55Z</time>
      </trkpt>
      <trkpt lat="42.58507" lon="-1.36278">
        <ele>493.13</ele>
        <time>2021-08-05T07:56:59Z</time>
      </trkpt>
      <trkpt lat="42.5858" lon="-1.363">
        <ele>497.45</ele>
        <time>2021-08-05T07:57:03Z</time>
      </trkpt>
      <trkpt lat="42.58639" lon="-1.3632">
        <ele>500.61</ele>
        <time>2021-08-05T07:57:06Z</time>
      </trkpt>
      <trkpt lat="42.58716" lon="-1.3635">
        <ele>504.19</ele>
        <time>2021-08-05T07:57:10Z</time>
      </trkpt>
      <trkpt lat="42.58817" lon="-1.36389">
        <ele>507.44</ele>
        <time>2021-08-05T07:57:16Z</time>
      </trkpt>
      <trkpt lat="42.58922" lon="-1.36427">
        <ele>508.54</ele>
        <time>2021-08-05T07:57:23Z</time>
      </trkpt>
      <trkpt lat="42.59013" lon="-1.3643">
        <ele>510.32</ele>
        <time>2021-08-05T07:57:31Z</time>
      </trkpt>
      <trkpt lat="42.59016" lon="-1.36429">
        <ele>510.93</ele>
        <time>2021-08-05T07:57:37Z</time>
      </trkpt>
      <trkpt lat="42.59026" lon="-1.36432">
        <ele>511.24</ele>
        <time>2021-08-05T07:57:41Z</time>
      </trkpt>
      <trkpt lat="42.59096" lon="-1.36469">
        <ele>512.33</ele>
        <time>2021-08-05T07:57:49Z</time>
      </trkpt>
      <trkpt lat="42.59218" lon="-1.36528">
        <ele>515.68</ele>
        <time>2021-08-05T07:57:57Z</time>
      </trkpt>
      <trkpt lat="42.59252" lon="-1.36546">
        <ele>516.92</ele>
        <time>2021-08-05T07:57:59Z</time>
      </trkpt>
      <trkpt lat="42.59314" lon="-1.36582">
        <ele>520.12</ele>
        <time>2021-08-05T07:58:03Z</time>
      </trkpt>
      <trkpt lat="42.59342" lon="-1.36594">
        <ele>521.14</ele>
        <time>2021-08-05T07:58:05Z</time>
      </trkpt>
      <trkpt lat="42.59421" lon="-1.36679">
        <ele>523.76</ele>
        <time>2021-08-05T07:58:12Z</time>
      </trkpt>
      <trkpt lat="42.59528" lon="-1.36815">
        <ele>526.96</ele>
        <time>2021-08-05T07:58:20Z</time>
      </trkpt>
      <trkpt lat="42.59634" lon="-1.36942">
        <ele>529.97</ele>
        <time>2021-08-05T07:58:27Z</time>
      </trkpt>
      <trkpt lat="42.59772" lon="-1.37109">
        <ele>532.99</ele>
        <time>2021-08-05T07:58:36Z</time>
      </trkpt>
      <trkpt lat="42.5984" lon="-1.37222">
        <ele>535.81</ele>
        <time>2021-08-05T07:58:42Z</time>
      </trkpt>
      <trkpt lat="42.59893" lon="-1.37329">
        <ele>538.94</ele>
        <time>2021-08-05T07:58:47Z</time>
      </trkpt>
      <trkpt lat="42.59924" lon="-1.37431">
        <ele>542.13</ele>
        <time>2021-08-05T07:58:52Z</time>
      </trkpt>
      <trkpt lat="42.59977" lon="-1.37611">
        <ele>545.36</ele>
        <time>2021-08-05T07:59:01Z</time>
      </trkpt>
      <trkpt lat="42.60027" lon="-1.37778">
        <ele>548.71</ele>
        <time>2021-08-05T07:59:08Z</time>
      </trkpt>
      <trkpt lat="42.60057" lon="-1.3788">
        <ele>551.76</ele>
        <time>2021-08-05T07:59:12Z</time>
      </trkpt>
      <trkpt lat="42.60087" lon="-1.37985">
        <ele>555.12</ele>
        <time>2021-08-05T07:59:16Z</time>
      </trkpt>
      <trkpt lat="42.60117" lon="-1.38093">
        <ele>558.5</ele>
        <time>2021-08-05T07:59:20Z</time>
      </trkpt>
      <trkpt lat="42.60144" lon="-1.38187">
        <ele>561.58</ele>
        <time>2021-08-05T07:59:24Z</time>
      </trkpt>
      <trkpt lat="42.6015" lon="-1.38208">
        <ele>562.17</ele>
        <time>2021-08-05T07:59:25Z</time>
      </trkpt>
      <trkpt lat="42.60149" lon="-1.38288">
        <ele>564.48</ele>
        <time>2021-08-05T07:59:29Z</time>
      </trkpt>
      <trkpt lat="42.60143" lon="-1.38324">
        <ele>565.54</ele>
        <time>2021-08-05T07:59:31Z</time>
      </trkpt>
      <trkpt lat="42.60165" lon="-1.38426">
        <ele>567.9</ele>
        <time>2021-08-05T07:59:37Z</time>
      </trkpt>
      <trkpt lat="42.6022" lon="-1.38474">
        <ele>568.36</ele>
        <time>2021-08-05T07:59:42Z</time>
      </trkpt>
      <trkpt lat="42.60237" lon="-1.38523">
        <ele>567.89</ele>
        <time>2021-08-05T07:59:45Z</time>
      </trkpt>
      <trkpt lat="42.60283" lon="-1.38744">
        <ele>565.5</ele>
        <time>2021-08-05T07:59:55Z</time>
      </trkpt>
      <trkpt lat="42.60296" lon="-1.38834">
        <ele>565.04</ele>
        <time>2021-08-05T07:59:59Z</time>
      </trkpt>
      <trkpt lat="42.60276" lon="-1.38982">
        <ele>565.06</ele>
        <time>2021-08-05T08:00:06Z</time>
      </trkpt>
      <trkpt lat="42.60263" lon="-1.39123">
        <ele>566</ele>
        <time>2021-08-05T08:00:13Z</time>
      </trkpt>
      <trkpt lat="42.60301" lon="-1.39186">
        <ele>565.57</ele>
        <time>2021-08-05T08:00:19Z</time>
      </trkpt>
      <trkpt lat="42.60331" lon="-1.39203">
        <ele>565.3</ele>
        <time>2021-08-05T08:00:22Z</time>
      </trkpt>
      <trkpt lat="42.60363" lon="-1.39247">
        <ele>564.81</ele>
        <time>2021-08-05T08:00:26Z</time>
      </trkpt>
      <trkpt lat="42.60438" lon="-1.39419">
        <ele>565.24</ele>
        <time>2021-08-05T08:00:36Z</time>
      </trkpt>
      <trkpt lat="42.60476" lon="-1.3954">
        <ele>566.93</ele>
        <time>2021-08-05T08:00:43Z</time>
      </trkpt>
      <trkpt lat="42.6053" lon="-1.39798">
        <ele>570.08</ele>
        <time>2021-08-05T08:00:55Z</time>
      </trkpt>
      <trkpt lat="42.60582" lon="-1.39999">
        <ele>573.12</ele>
        <time>2021-08-05T08:01:05Z</time>
      </trkpt>
      <trkpt lat="42.60627" lon="-1.40131">
        <ele>576.4</ele>
        <time>2021-08-05T08:01:13Z</time>
      </trkpt>
      <trkpt lat="42.60672" lon="-1.40269">
        <ele>579.85</ele>
        <time>2021-08-05T08:01:21Z</time>
      </trkpt>
      <trkpt lat="42.60703" lon="-1.40363">
        <ele>582.96</ele>
        <time>2021-08-05T08:01:27Z</time>
      </trkpt>
      <trkpt lat="42.6071" lon="-1.40388">
        <ele>584.07</ele>
        <time>2021-08-05T08:01:29Z</time>
      </trkpt>
      <trkpt lat="42.60701" lon="-1.40462">
        <ele>586.56</ele>
        <time>2021-08-05T08:01:35Z</time>
      </trkpt>
      <trkpt lat="42.60695" lon="-1.40472">
        <ele>586.94</ele>
        <time>2021-08-05T08:01:36Z</time>
      </trkpt>
      <trkpt lat="42.60683" lon="-1.40489">
        <ele>587.57</ele>
        <time>2021-08-05T08:01:38Z</time>
      </trkpt>
      <trkpt lat="42.60678" lon="-1.40544">
        <ele>589.49</ele>
        <time>2021-08-05T08:01:44Z</time>
      </trkpt>
      <trkpt lat="42.6071" lon="-1.40669">
        <ele>591.68</ele>
        <time>2021-08-05T08:01:56Z</time>
      </trkpt>
      <trkpt lat="42.60712" lon="-1.40682">
        <ele>591.81</ele>
        <time>2021-08-05T08:01:58Z</time>
      </trkpt>
      <trkpt lat="42.6071" lon="-1.40707">
        <ele>591.77</ele>
        <time>2021-08-05T08:02:08Z</time>
      </trkpt>
      <trkpt lat="42.60704" lon="-1.40735">
        <ele>592.01</ele>
        <time>2021-08-05T08:02:19Z</time>
      </trkpt>
      <trkpt lat="42.60702" lon="-1.40786">
        <ele>593.17</ele>
        <time>2021-08-05T08:02:34Z</time>
      </trkpt>
      <trkpt lat="42.60703" lon="-1.40824">
        <ele>593.52</ele>
        <time>2021-08-05T08:02:43Z</time>
      </trkpt>
      <trkpt lat="42.60712" lon="-1.40828">
        <ele>593.33</ele>
        <time>2021-08-05T08:02:47Z</time>
      </trkpt>
      <trkpt lat="42.60777" lon="-1.40842">
        <ele>595.54</ele>
        <time>2021-08-05T08:02:57Z</time>
      </trkpt>
      <trkpt lat="42.60806" lon="-1.40846">
        <ele>598.8</ele>
        <time>2021-08-05T08:03:05Z</time>
      </trkpt>
      <trkpt lat="42.60813" lon="-1.40844">
        <ele>599.81</ele>
        <time>2021-08-05T08:03:08Z</time>
      </trkpt>
      <trkpt lat="42.60828" lon="-1.40822">
        <ele>601.88</ele>
        <time>2021-08-05T08:03:15Z</time>
      </trkpt>
      <trkpt lat="42.60842" lon="-1.40815">
        <ele>602.23</ele>
        <time>2021-08-05T08:03:18Z</time>
      </trkpt>
      <trkpt lat="42.6086" lon="-1.40795">
        <ele>603.26</ele>
        <time>2021-08-05T08:03:25Z</time>
      </trkpt>
      <trkpt lat="42.60853" lon="-1.40757">
        <ele>603.05</ele>
        <time>2021-08-05T08:03:30Z</time>
      </trkpt>
      <trkpt lat="42.60836" lon="-1.40722">
        <ele>602.14</ele>
        <time>2021-08-05T08:03:35Z</time>
      </trkpt>
      <trkpt lat="42.60845" lon="-1.40711">
        <ele>600.9</ele>
        <time>2021-08-05T08:03:39Z</time>
      </trkpt>
      <trkpt lat="42.60869" lon="-1.40686">
        <ele>600.82</ele>
        <time>2021-08-05T08:03:48Z</time>
      </trkpt>
      <trkpt lat="42.60874" lon="-1.40637">
        <ele>603.04</ele>
        <time>2021-08-05T08:03:58Z</time>
      </trkpt>
      <trkpt lat="42.60914" lon="-1.40599">
        <ele>604.49</ele>
        <time>2021-08-05T08:04:05Z</time>
      </trkpt>
      <trkpt lat="42.60988" lon="-1.40536">
        <ele>607.93</ele>
        <time>2021-08-05T08:04:13Z</time>
      </trkpt>
      <trkpt lat="42.61043" lon="-1.40491">
        <ele>611.11</ele>
        <time>2021-08-05T08:04:18Z</time>
      </trkpt>
      <trkpt lat="42.61093" lon="-1.40438">
        <ele>614.83</ele>
        <time>2021-08-05T08:04:23Z</time>
      </trkpt>
      <trkpt lat="42.61128" lon="-1.40404">
        <ele>617.78</ele>
        <time>2021-08-05T08:04:27Z</time>
      </trkpt>
      <trkpt lat="42.6117" lon="-1.40385">
        <ele>621.2</ele>
        <time>2021-08-05T08:04:31Z</time>
      </trkpt>
      <trkpt lat="42.61227" lon="-1.40375">
        <ele>627.3</ele>
        <time>2021-08-05T08:04:36Z</time>
      </trkpt>
      <trkpt lat="42.61259" lon="-1.4037">
        <ele>630.32</ele>
        <time>2021-08-05T08:04:39Z</time>
      </trkpt>
      <trkpt lat="42.61307" lon="-1.40364">
        <ele>634.02</ele>
        <time>2021-08-05T08:04:43Z</time>
      </trkpt>
      <trkpt lat="42.61332" lon="-1.40359">
        <ele>635.89</ele>
        <time>2021-08-05T08:04:45Z</time>
      </trkpt>
      <trkpt lat="42.61378" lon="-1.40369">
        <ele>639.22</ele>
        <time>2021-08-05T08:04:49Z</time>
      </trkpt>
      <trkpt lat="42.61421" lon="-1.40399">
        <ele>642.96</ele>
        <time>2021-08-05T08:04:53Z</time>
      </trkpt>
      <trkpt lat="42.61471" lon="-1.40418">
        <ele>647.47</ele>
        <time>2021-08-05T08:04:57Z</time>
      </trkpt>
      <trkpt lat="42.61484" lon="-1.40421">
        <ele>648.73</ele>
        <time>2021-08-05T08:04:58Z</time>
      </trkpt>
      <trkpt lat="42.61535" lon="-1.40417">
        <ele>653.91</ele>
        <time>2021-08-05T08:05:02Z</time>
      </trkpt>
      <trkpt lat="42.61571" lon="-1.40402">
        <ele>658.17</ele>
        <time>2021-08-05T08:05:05Z</time>
      </trkpt>
      <trkpt lat="42.61603" lon="-1.40386">
        <ele>662.67</ele>
        <time>2021-08-05T08:05:08Z</time>
      </trkpt>
      <trkpt lat="42.61622" lon="-1.40376">
        <ele>665.8</ele>
        <time>2021-08-05T08:05:10Z</time>
      </trkpt>
      <trkpt lat="42.6164" lon="-1.40366">
        <ele>668.81</ele>
        <time>2021-08-05T08:05:12Z</time>
      </trkpt>
      <trkpt lat="42.61665" lon="-1.40351">
        <ele>673.12</ele>
        <time>2021-08-05T08:05:15Z</time>
      </trkpt>
      <trkpt lat="42.61691" lon="-1.40336">
        <ele>677.05</ele>
        <time>2021-08-05T08:05:18Z</time>
      </trkpt>
      <trkpt lat="42.61722" lon="-1.40321">
        <ele>680.59</ele>
        <time>2021-08-05T08:05:21Z</time>
      </trkpt>
      <trkpt lat="42.61744" lon="-1.40308">
        <ele>682.68</ele>
        <time>2021-08-05T08:05:23Z</time>
      </trkpt>
      <trkpt lat="42.61788" lon="-1.40302">
        <ele>687.7</ele>
        <time>2021-08-05T08:05:27Z</time>
      </trkpt>
      <trkpt lat="42.61814" lon="-1.40324">
        <ele>691.55</ele>
        <time>2021-08-05T08:05:30Z</time>
      </trkpt>
      <trkpt lat="42.61845" lon="-1.40355">
        <ele>697.1</ele>
        <time>2021-08-05T08:05:34Z</time>
      </trkpt>
      <trkpt lat="42.61846" lon="-1.40376">
        <ele>702.32</ele>
        <time>2021-08-05T08:05:38Z</time>
      </trkpt>
      <trkpt lat="42.61837" lon="-1.40379">
        <ele>703.5</ele>
        <time>2021-08-05T08:05:39Z</time>
      </trkpt>
      <trkpt lat="42.61817" lon="-1.40383">
        <ele>705.63</ele>
        <time>2021-08-05T08:05:41Z</time>
      </trkpt>
      <trkpt lat="42.6176" lon="-1.40427">
        <ele>709.7</ele>
        <time>2021-08-05T08:05:46Z</time>
      </trkpt>
      <trkpt lat="42.61745" lon="-1.40476">
        <ele>711.56</ele>
        <time>2021-08-05T08:05:49Z</time>
      </trkpt>
      <trkpt lat="42.61722" lon="-1.40554">
        <ele>715.6</ele>
        <time>2021-08-05T08:05:54Z</time>
      </trkpt>
      <trkpt lat="42.617" lon="-1.40615">
        <ele>721.06</ele>
        <time>2021-08-05T08:05:59Z</time>
      </trkpt>
      <trkpt lat="42.61706" lon="-1.40647">
        <ele>724.22</ele>
        <time>2021-08-05T08:06:02Z</time>
      </trkpt>
      <trkpt lat="42.61713" lon="-1.4066">
        <ele>726.27</ele>
        <time>2021-08-05T08:06:04Z</time>
      </trkpt>
      <trkpt lat="42.61729" lon="-1.40684">
        <ele>730.8</ele>
        <time>2021-08-05T08:06:09Z</time>
      </trkpt>
      <trkpt lat="42.61744" lon="-1.40711">
        <ele>734.14</ele>
        <time>2021-08-05T08:06:13Z</time>
      </trkpt>
      <trkpt lat="42.61755" lon="-1.40731">
        <ele>737.57</ele>
        <time>2021-08-05T08:06:16Z</time>
      </trkpt>
      <trkpt lat="42.61771" lon="-1.4076">
        <ele>740.7</ele>
        <time>2021-08-05T08:06:20Z</time>
      </trkpt>
      <trkpt lat="42.61785" lon="-1.40783">
        <ele>743.22</ele>
        <time>2021-08-05T08:06:23Z</time>
      </trkpt>
      <trkpt lat="42.61805" lon="-1.4081">
        <ele>747.43</ele>
        <time>2021-08-05T08:06:28Z</time>
      </trkpt>
      <trkpt lat="42.61805" lon="-1.40798">
        <ele>748.95</ele>
        <time>2021-08-05T08:06:30Z</time>
      </trkpt>
      <trkpt lat="42.61798" lon="-1.40738">
        <ele>752.64</ele>
        <time>2021-08-05T08:06:35Z</time>
      </trkpt>
      <trkpt lat="42.61802" lon="-1.40696">
        <ele>754.94</ele>
        <time>2021-08-05T08:06:38Z</time>
      </trkpt>
      <trkpt lat="42.61808" lon="-1.40629">
        <ele>759.21</ele>
        <time>2021-08-05T08:06:43Z</time>
      </trkpt>
      <trkpt lat="42.61839" lon="-1.406">
        <ele>763.16</ele>
        <time>2021-08-05T08:06:47Z</time>
      </trkpt>
      <trkpt lat="42.61873" lon="-1.40596">
        <ele>766.34</ele>
        <time>2021-08-05T08:06:50Z</time>
      </trkpt>
      <trkpt lat="42.61884" lon="-1.40597">
        <ele>767.47</ele>
        <time>2021-08-05T08:06:51Z</time>
      </trkpt>
      <trkpt lat="42.61925" lon="-1.40602">
        <ele>772.03</ele>
        <time>2021-08-05T08:06:55Z</time>
      </trkpt>
      <trkpt lat="42.61956" lon="-1.40604">
        <ele>775.2</ele>
        <time>2021-08-05T08:06:58Z</time>
      </trkpt>
      <trkpt lat="42.61989" lon="-1.40611">
        <ele>778.61</ele>
        <time>2021-08-05T08:07:01Z</time>
      </trkpt>
      <trkpt lat="42.62001" lon="-1.40613">
        <ele>779.65</ele>
        <time>2021-08-05T08:07:02Z</time>
      </trkpt>
      <trkpt lat="42.62038" lon="-1.4061">
        <ele>783.42</ele>
        <time>2021-08-05T08:07:06Z</time>
      </trkpt>
      <trkpt lat="42.62063" lon="-1.40608">
        <ele>787.8</ele>
        <time>2021-08-05T08:07:11Z</time>
      </trkpt>
      <trkpt lat="42.62082" lon="-1.40608">
        <ele>790.19</ele>
        <time>2021-08-05T08:07:14Z</time>
      </trkpt>
      <trkpt lat="42.6211" lon="-1.40612">
        <ele>792.58</ele>
        <time>2021-08-05T08:07:17Z</time>
      </trkpt>
      <trkpt lat="42.6216" lon="-1.40611">
        <ele>797.13</ele>
        <time>2021-08-05T08:07:22Z</time>
      </trkpt>
      <trkpt lat="42.62205" lon="-1.40612">
        <ele>801.02</ele>
        <time>2021-08-05T08:07:26Z</time>
      </trkpt>
      <trkpt lat="42.62254" lon="-1.40617">
        <ele>805.11</ele>
        <time>2021-08-05T08:07:30Z</time>
      </trkpt>
      <trkpt lat="42.62288" lon="-1.40622">
        <ele>808.99</ele>
        <time>2021-08-05T08:07:33Z</time>
      </trkpt>
      <trkpt lat="42.62297" lon="-1.40623">
        <ele>810.31</ele>
        <time>2021-08-05T08:07:34Z</time>
      </trkpt>
      <trkpt lat="42.62334" lon="-1.40616">
        <ele>815.19</ele>
        <time>2021-08-05T08:07:38Z</time>
      </trkpt>
      <trkpt lat="42.62344" lon="-1.40614">
        <ele>816.27</ele>
        <time>2021-08-05T08:07:39Z</time>
      </trkpt>
      <trkpt lat="42.62369" lon="-1.40574">
        <ele>820.53</ele>
        <time>2021-08-05T08:07:43Z</time>
      </trkpt>
      <trkpt lat="42.62368" lon="-1.40541">
        <ele>822.64</ele>
        <time>2021-08-05T08:07:45Z</time>
      </trkpt>
      <trkpt lat="42.62357" lon="-1.40459">
        <ele>827.23</ele>
        <time>2021-08-05T08:07:50Z</time>
      </trkpt>
      <trkpt lat="42.62347" lon="-1.40381">
        <ele>830.56</ele>
        <time>2021-08-05T08:07:54Z</time>
      </trkpt>
      <trkpt lat="42.6234" lon="-1.40342">
        <ele>831.71</ele>
        <time>2021-08-05T08:07:56Z</time>
      </trkpt>
      <trkpt lat="42.62347" lon="-1.4031">
        <ele>833.68</ele>
        <time>2021-08-05T08:08:00Z</time>
      </trkpt>
      <trkpt lat="42.62347" lon="-1.40315">
        <ele>835.8</ele>
        <time>2021-08-05T08:08:10Z</time>
      </trkpt>
      <trkpt lat="42.62345" lon="-1.40318">
        <ele>835.85</ele>
        <time>2021-08-05T08:08:26Z</time>
      </trkpt>
      <trkpt lat="42.62345" lon="-1.40318">
        <ele>835.79</ele>
        <time>2021-08-05T08:08:29Z</time>
      </trkpt>
      <trkpt lat="42.62373" lon="-1.40332">
        <ele>836.09</ele>
        <time>2021-08-05T08:08:35Z</time>
      </trkpt>
      <trkpt lat="42.62385" lon="-1.40354">
        <ele>836.64</ele>
        <time>2021-08-05T08:08:37Z</time>
      </trkpt>
      <trkpt lat="42.62422" lon="-1.40439">
        <ele>840.19</ele>
        <time>2021-08-05T08:08:43Z</time>
      </trkpt>
      <trkpt lat="42.62437" lon="-1.40472">
        <ele>842.01</ele>
        <time>2021-08-05T08:08:45Z</time>
      </trkpt>
      <trkpt lat="42.62492" lon="-1.40557">
        <ele>846.67</ele>
        <time>2021-08-05T08:08:50Z</time>
      </trkpt>
      <trkpt lat="42.6253" lon="-1.40632">
        <ele>850.53</ele>
        <time>2021-08-05T08:08:54Z</time>
      </trkpt>
      <trkpt lat="42.62555" lon="-1.40687">
        <ele>854.12</ele>
        <time>2021-08-05T08:08:57Z</time>
      </trkpt>
      <trkpt lat="42.62582" lon="-1.40735">
        <ele>858.48</ele>
        <time>2021-08-05T08:09:00Z</time>
      </trkpt>
      <trkpt lat="42.62596" lon="-1.4076">
        <ele>861.68</ele>
        <time>2021-08-05T08:09:02Z</time>
      </trkpt>
      <trkpt lat="42.62624" lon="-1.40774">
        <ele>866.32</ele>
        <time>2021-08-05T08:09:05Z</time>
      </trkpt>
      <trkpt lat="42.62656" lon="-1.40759">
        <ele>870.18</ele>
        <time>2021-08-05T08:09:08Z</time>
      </trkpt>
      <trkpt lat="42.62677" lon="-1.4076">
        <ele>872.18</ele>
        <time>2021-08-05T08:09:10Z</time>
      </trkpt>
      <trkpt lat="42.62765" lon="-1.40788">
        <ele>876.19</ele>
        <time>2021-08-05T08:09:16Z</time>
      </trkpt>
      <trkpt lat="42.62814" lon="-1.40815">
        <ele>877.37</ele>
        <time>2021-08-05T08:09:19Z</time>
      </trkpt>
      <trkpt lat="42.62888" lon="-1.40858">
        <ele>878</ele>
        <time>2021-08-05T08:09:25Z</time>
      </trkpt>
      <trkpt lat="42.62937" lon="-1.40896">
        <ele>878.1</ele>
        <time>2021-08-05T08:09:29Z</time>
      </trkpt>
      <trkpt lat="42.62958" lon="-1.4093">
        <ele>878.63</ele>
        <time>2021-08-05T08:09:31Z</time>
      </trkpt>
      <trkpt lat="42.63006" lon="-1.41023">
        <ele>881.55</ele>
        <time>2021-08-05T08:09:36Z</time>
      </trkpt>
      <trkpt lat="42.6308" lon="-1.41098">
        <ele>885.67</ele>
        <time>2021-08-05T08:09:42Z</time>
      </trkpt>
      <trkpt lat="42.63089" lon="-1.41108">
        <ele>886.05</ele>
        <time>2021-08-05T08:09:43Z</time>
      </trkpt>
      <trkpt lat="42.6315" lon="-1.41128">
        <ele>885.75</ele>
        <time>2021-08-05T08:09:49Z</time>
      </trkpt>
      <trkpt lat="42.63156" lon="-1.4113">
        <ele>885.29</ele>
        <time>2021-08-05T08:09:50Z</time>
      </trkpt>
      <trkpt lat="42.63186" lon="-1.41155">
        <ele>881.5</ele>
        <time>2021-08-05T08:09:57Z</time>
      </trkpt>
      <trkpt lat="42.6321" lon="-1.41173">
        <ele>879.47</ele>
        <time>2021-08-05T08:10:07Z</time>
      </trkpt>
      <trkpt lat="42.63245" lon="-1.41214">
        <ele>879.22</ele>
        <time>2021-08-05T08:10:13Z</time>
      </trkpt>
      <trkpt lat="42.6331" lon="-1.41218">
        <ele>878.59</ele>
        <time>2021-08-05T08:10:19Z</time>
      </trkpt>
      <trkpt lat="42.63431" lon="-1.41117">
        <ele>880.08</ele>
        <time>2021-08-05T08:10:27Z</time>
      </trkpt>
      <trkpt lat="42.63476" lon="-1.41081">
        <ele>882.03</ele>
        <time>2021-08-05T08:10:30Z</time>
      </trkpt>
      <trkpt lat="42.63536" lon="-1.41062">
        <ele>885.85</ele>
        <time>2021-08-05T08:10:34Z</time>
      </trkpt>
      <trkpt lat="42.63581" lon="-1.41064">
        <ele>888.2</ele>
        <time>2021-08-05T08:10:37Z</time>
      </trkpt>
      <trkpt lat="42.63603" lon="-1.41054">
        <ele>888.87</ele>
        <time>2021-08-05T08:10:39Z</time>
      </trkpt>
      <trkpt lat="42.63618" lon="-1.41029">
        <ele>889.32</ele>
        <time>2021-08-05T08:10:41Z</time>
      </trkpt>
      <trkpt lat="42.63654" lon="-1.40964">
        <ele>892.18</ele>
        <time>2021-08-05T08:10:46Z</time>
      </trkpt>
      <trkpt lat="42.63686" lon="-1.40972">
        <ele>896.26</ele>
        <time>2021-08-05T08:10:51Z</time>
      </trkpt>
      <trkpt lat="42.63704" lon="-1.41007">
        <ele>897.75</ele>
        <time>2021-08-05T08:10:54Z</time>
      </trkpt>
      <trkpt lat="42.63742" lon="-1.4099">
        <ele>899.3</ele>
        <time>2021-08-05T08:10:59Z</time>
      </trkpt>
      <trkpt lat="42.63768" lon="-1.40987">
        <ele>899.69</ele>
        <time>2021-08-05T08:11:01Z</time>
      </trkpt>
      <trkpt lat="42.63805" lon="-1.40988">
        <ele>897.71</ele>
        <time>2021-08-05T08:11:07Z</time>
      </trkpt>
      <trkpt lat="42.63806" lon="-1.40988">
        <ele>894.44</ele>
        <time>2021-08-05T08:11:13Z</time>
      </trkpt>
      <trkpt lat="42.63806" lon="-1.40988">
        <ele>893.46</ele>
        <time>2021-08-05T08:11:15Z</time>
      </trkpt>
      <trkpt lat="42.63807" lon="-1.40989">
        <ele>892.53</ele>
        <time>2021-08-05T08:11:32Z</time>
      </trkpt>
      <trkpt lat="42.63823" lon="-1.40991">
        <ele>892.59</ele>
        <time>2021-08-05T08:11:36Z</time>
      </trkpt>
      <trkpt lat="42.63872" lon="-1.40991">
        <ele>892.53</ele>
        <time>2021-08-05T08:11:40Z</time>
      </trkpt>
      <trkpt lat="42.63914" lon="-1.41009">
        <ele>892.02</ele>
        <time>2021-08-05T08:11:43Z</time>
      </trkpt>
      <trkpt lat="42.63998" lon="-1.41003">
        <ele>891.26</ele>
        <time>2021-08-05T08:11:49Z</time>
      </trkpt>
      <trkpt lat="42.64022" lon="-1.40974">
        <ele>891.82</ele>
        <time>2021-08-05T08:11:51Z</time>
      </trkpt>
      <trkpt lat="42.64058" lon="-1.40914">
        <ele>895.18</ele>
        <time>2021-08-05T08:11:55Z</time>
      </trkpt>
      <trkpt lat="42.64083" lon="-1.40889">
        <ele>900.12</ele>
        <time>2021-08-05T08:11:59Z</time>
      </trkpt>
      <trkpt lat="42.6409" lon="-1.40888">
        <ele>901.35</ele>
        <time>2021-08-05T08:12:00Z</time>
      </trkpt>
      <trkpt lat="42.64105" lon="-1.40882">
        <ele>905.67</ele>
        <time>2021-08-05T08:12:05Z</time>
      </trkpt>
      <trkpt lat="42.64105" lon="-1.40883">
        <ele>908.8</ele>
        <time>2021-08-05T08:12:14Z</time>
      </trkpt>
      <trkpt lat="42.6411" lon="-1.4088">
        <ele>909.88</ele>
        <time>2021-08-05T08:16:44Z</time>
      </trkpt>
      <trkpt lat="42.64131" lon="-1.40884">
        <ele>910.44</ele>
        <time>2021-08-05T08:16:49Z</time>
      </trkpt>
      <trkpt lat="42.6414" lon="-1.40889">
        <ele>910.61</ele>
        <time>2021-08-05T08:16:51Z</time>
      </trkpt>
      <trkpt lat="42.64216" lon="-1.40911">
        <ele>907.05</ele>
        <time>2021-08-05T08:17:01Z</time>
      </trkpt>
      <trkpt lat="42.64225" lon="-1.40915">
        <ele>906.28</ele>
        <time>2021-08-05T08:17:02Z</time>
      </trkpt>
      <trkpt lat="42.64258" lon="-1.40953">
        <ele>902.15</ele>
        <time>2021-08-05T08:17:07Z</time>
      </trkpt>
      <trkpt lat="42.64279" lon="-1.41005">
        <ele>897.88</ele>
        <time>2021-08-05T08:17:13Z</time>
      </trkpt>
      <trkpt lat="42.6428" lon="-1.41007">
        <ele>894.55</ele>
        <time>2021-08-05T08:17:18Z</time>
      </trkpt>
      <trkpt lat="42.6428" lon="-1.41007">
        <ele>891.48</ele>
        <time>2021-08-05T08:17:33Z</time>
      </trkpt>
      <trkpt lat="42.64294" lon="-1.4104">
        <ele>890.94</ele>
        <time>2021-08-05T08:17:46Z</time>
      </trkpt>
      <trkpt lat="42.64315" lon="-1.41088">
        <ele>888.24</ele>
        <time>2021-08-05T08:17:51Z</time>
      </trkpt>
      <trkpt lat="42.64341" lon="-1.41127">
        <ele>884.26</ele>
        <time>2021-08-05T08:17:55Z</time>
      </trkpt>
      <trkpt lat="42.64353" lon="-1.41146">
        <ele>881.97</ele>
        <time>2021-08-05T08:17:57Z</time>
      </trkpt>
      <trkpt lat="42.64383" lon="-1.4117">
        <ele>876.6</ele>
        <time>2021-08-05T08:18:01Z</time>
      </trkpt>
      <trkpt lat="42.64392" lon="-1.41173">
        <ele>875.08</ele>
        <time>2021-08-05T08:18:02Z</time>
      </trkpt>
      <trkpt lat="42.6443" lon="-1.41188">
        <ele>869.33</ele>
        <time>2021-08-05T08:18:06Z</time>
      </trkpt>
      <trkpt lat="42.64458" lon="-1.412">
        <ele>865.34</ele>
        <time>2021-08-05T08:18:09Z</time>
      </trkpt>
      <trkpt lat="42.64468" lon="-1.41203">
        <ele>864.02</ele>
        <time>2021-08-05T08:18:10Z</time>
      </trkpt>
      <trkpt lat="42.64505" lon="-1.41207">
        <ele>858.55</ele>
        <time>2021-08-05T08:18:14Z</time>
      </trkpt>
      <trkpt lat="42.64536" lon="-1.41181">
        <ele>853.22</ele>
        <time>2021-08-05T08:18:18Z</time>
      </trkpt>
      <trkpt lat="42.64542" lon="-1.41166">
        <ele>851.96</ele>
        <time>2021-08-05T08:18:19Z</time>
      </trkpt>
      <trkpt lat="42.64562" lon="-1.41108">
        <ele>847.39</ele>
        <time>2021-08-05T08:18:23Z</time>
      </trkpt>
      <trkpt lat="42.64576" lon="-1.41065">
        <ele>844.43</ele>
        <time>2021-08-05T08:18:26Z</time>
      </trkpt>
      <trkpt lat="42.64604" lon="-1.41018">
        <ele>839.85</ele>
        <time>2021-08-05T08:18:31Z</time>
      </trkpt>
      <trkpt lat="42.64621" lon="-1.41011">
        <ele>838.35</ele>
        <time>2021-08-05T08:18:33Z</time>
      </trkpt>
      <trkpt lat="42.64661" lon="-1.41006">
        <ele>835.93</ele>
        <time>2021-08-05T08:18:37Z</time>
      </trkpt>
      <trkpt lat="42.64715" lon="-1.41015">
        <ele>833.29</ele>
        <time>2021-08-05T08:18:43Z</time>
      </trkpt>
      <trkpt lat="42.64728" lon="-1.41081">
        <ele>832.37</ele>
        <time>2021-08-05T08:18:49Z</time>
      </trkpt>
      <trkpt lat="42.64724" lon="-1.41111">
        <ele>831.94</ele>
        <time>2021-08-05T08:18:51Z</time>
      </trkpt>
      <trkpt lat="42.6472" lon="-1.41149">
        <ele>830.81</ele>
        <time>2021-08-05T08:18:54Z</time>
      </trkpt>
      <trkpt lat="42.64683" lon="-1.41187">
        <ele>829.14</ele>
        <time>2021-08-05T08:19:00Z</time>
      </trkpt>
      <trkpt lat="42.64675" lon="-1.4119">
        <ele>828.87</ele>
        <time>2021-08-05T08:19:01Z</time>
      </trkpt>
      <trkpt lat="42.64667" lon="-1.41195">
        <ele>828.57</ele>
        <time>2021-08-05T08:19:02Z</time>
      </trkpt>
      <trkpt lat="42.6466" lon="-1.41203">
        <ele>828.22</ele>
        <time>2021-08-05T08:19:03Z</time>
      </trkpt>
      <trkpt lat="42.64664" lon="-1.41256">
        <ele>826.08</ele>
        <time>2021-08-05T08:19:07Z</time>
      </trkpt>
      <trkpt lat="42.64723" lon="-1.41317">
        <ele>822.79</ele>
        <time>2021-08-05T08:19:13Z</time>
      </trkpt>
      <trkpt lat="42.64777" lon="-1.41314">
        <ele>819.53</ele>
        <time>2021-08-05T08:19:17Z</time>
      </trkpt>
      <trkpt lat="42.64834" lon="-1.41292">
        <ele>815.37</ele>
        <time>2021-08-05T08:19:21Z</time>
      </trkpt>
      <trkpt lat="42.64874" lon="-1.41272">
        <ele>810.59</ele>
        <time>2021-08-05T08:19:24Z</time>
      </trkpt>
      <trkpt lat="42.64887" lon="-1.41264">
        <ele>810.59</ele>
        <time>2021-08-05T08:19:25Z</time>
      </trkpt>
      <trkpt lat="42.64913" lon="-1.41248">
        <ele>808.12</ele>
        <time>2021-08-05T08:19:27Z</time>
      </trkpt>
      <trkpt lat="42.64936" lon="-1.41229">
        <ele>804.38</ele>
        <time>2021-08-05T08:19:29Z</time>
      </trkpt>
      <trkpt lat="42.64969" lon="-1.41199">
        <ele>800.42</ele>
        <time>2021-08-05T08:19:32Z</time>
      </trkpt>
      <trkpt lat="42.6499" lon="-1.41178">
        <ele>797.83</ele>
        <time>2021-08-05T08:19:34Z</time>
      </trkpt>
      <trkpt lat="42.65024" lon="-1.41125">
        <ele>792.63</ele>
        <time>2021-08-05T08:19:38Z</time>
      </trkpt>
      <trkpt lat="42.65042" lon="-1.4108">
        <ele>788.56</ele>
        <time>2021-08-05T08:19:41Z</time>
      </trkpt>
      <trkpt lat="42.65056" lon="-1.41038">
        <ele>784.89</ele>
        <time>2021-08-05T08:19:44Z</time>
      </trkpt>
      <trkpt lat="42.65067" lon="-1.4101">
        <ele>781.35</ele>
        <time>2021-08-05T08:19:47Z</time>
      </trkpt>
      <trkpt lat="42.65077" lon="-1.40994">
        <ele>779.39</ele>
        <time>2021-08-05T08:19:49Z</time>
      </trkpt>
      <trkpt lat="42.65089" lon="-1.4098">
        <ele>777.63</ele>
        <time>2021-08-05T08:19:51Z</time>
      </trkpt>
      <trkpt lat="42.6512" lon="-1.40907">
        <ele>773.39</ele>
        <time>2021-08-05T08:19:58Z</time>
      </trkpt>
      <trkpt lat="42.65183" lon="-1.40824">
        <ele>770.36</ele>
        <time>2021-08-05T08:20:08Z</time>
      </trkpt>
      <trkpt lat="42.65191" lon="-1.40815">
        <ele>770.39</ele>
        <time>2021-08-05T08:20:09Z</time>
      </trkpt>
      <trkpt lat="42.65245" lon="-1.40796">
        <ele>772.52</ele>
        <time>2021-08-05T08:20:15Z</time>
      </trkpt>
      <trkpt lat="42.65293" lon="-1.40789">
        <ele>776.25</ele>
        <time>2021-08-05T08:20:23Z</time>
      </trkpt>
      <trkpt lat="42.65353" lon="-1.4071">
        <ele>779.73</ele>
        <time>2021-08-05T08:20:33Z</time>
      </trkpt>
      <trkpt lat="42.65406" lon="-1.40657">
        <ele>779.75</ele>
        <time>2021-08-05T08:20:39Z</time>
      </trkpt>
      <trkpt lat="42.65442" lon="-1.4059">
        <ele>776.28</ele>
        <time>2021-08-05T08:20:45Z</time>
      </trkpt>
      <trkpt lat="42.65466" lon="-1.40539">
        <ele>772.85</ele>
        <time>2021-08-05T08:20:49Z</time>
      </trkpt>
      <trkpt lat="42.6548" lon="-1.40497">
        <ele>769.71</ele>
        <time>2021-08-05T08:20:52Z</time>
      </trkpt>
      <trkpt lat="42.65496" lon="-1.40459">
        <ele>765.94</ele>
        <time>2021-08-05T08:20:55Z</time>
      </trkpt>
      <trkpt lat="42.65523" lon="-1.40417">
        <ele>759.79</ele>
        <time>2021-08-05T08:20:59Z</time>
      </trkpt>
      <trkpt lat="42.6553" lon="-1.40406">
        <ele>759.79</ele>
        <time>2021-08-05T08:21:00Z</time>
      </trkpt>
      <trkpt lat="42.65548" lon="-1.40376">
        <ele>756.35</ele>
        <time>2021-08-05T08:21:03Z</time>
      </trkpt>
      <trkpt lat="42.65567" lon="-1.40349">
        <ele>752.8</ele>
        <time>2021-08-05T08:21:06Z</time>
      </trkpt>
      <trkpt lat="42.65586" lon="-1.40323">
        <ele>747.94</ele>
        <time>2021-08-05T08:21:09Z</time>
      </trkpt>
      <trkpt lat="42.65601" lon="-1.40302">
        <ele>744.27</ele>
        <time>2021-08-05T08:21:12Z</time>
      </trkpt>
      <trkpt lat="42.65613" lon="-1.40288">
        <ele>740.67</ele>
        <time>2021-08-05T08:21:15Z</time>
      </trkpt>
      <trkpt lat="42.6562" lon="-1.40286">
        <ele>738.32</ele>
        <time>2021-08-05T08:21:17Z</time>
      </trkpt>
      <trkpt lat="42.6563" lon="-1.40322">
        <ele>733.92</ele>
        <time>2021-08-05T08:21:22Z</time>
      </trkpt>
      <trkpt lat="42.65637" lon="-1.40387">
        <ele>729.56</ele>
        <time>2021-08-05T08:21:28Z</time>
      </trkpt>
      <trkpt lat="42.65645" lon="-1.40447">
        <ele>725.87</ele>
        <time>2021-08-05T08:21:33Z</time>
      </trkpt>
      <trkpt lat="42.65646" lon="-1.40488">
        <ele>722.41</ele>
        <time>2021-08-05T08:21:37Z</time>
      </trkpt>
      <trkpt lat="42.65646" lon="-1.40516">
        <ele>719.16</ele>
        <time>2021-08-05T08:21:41Z</time>
      </trkpt>
      <trkpt lat="42.65645" lon="-1.40549">
        <ele>715.72</ele>
        <time>2021-08-05T08:21:47Z</time>
      </trkpt>
      <trkpt lat="42.65649" lon="-1.40579">
        <ele>712.63</ele>
        <time>2021-08-05T08:21:56Z</time>
      </trkpt>
      <trkpt lat="42.65652" lon="-1.40582">
        <ele>711.63</ele>
        <time>2021-08-05T08:22:02Z</time>
      </trkpt>
      <trkpt lat="42.65661" lon="-1.4056">
        <ele>711.2</ele>
        <time>2021-08-05T08:22:09Z</time>
      </trkpt>
      <trkpt lat="42.65657" lon="-1.4039">
        <ele>713.52</ele>
        <time>2021-08-05T08:22:19Z</time>
      </trkpt>
      <trkpt lat="42.65654" lon="-1.40268">
        <ele>716.57</ele>
        <time>2021-08-05T08:22:24Z</time>
      </trkpt>
      <trkpt lat="42.65648" lon="-1.40164">
        <ele>719.58</ele>
        <time>2021-08-05T08:22:28Z</time>
      </trkpt>
      <trkpt lat="42.6565" lon="-1.4006">
        <ele>722.91</ele>
        <time>2021-08-05T08:22:32Z</time>
      </trkpt>
      <trkpt lat="42.65662" lon="-1.39957">
        <ele>726.17</ele>
        <time>2021-08-05T08:22:36Z</time>
      </trkpt>
      <trkpt lat="42.65664" lon="-1.39833">
        <ele>729.27</ele>
        <time>2021-08-05T08:22:41Z</time>
      </trkpt>
      <trkpt lat="42.65635" lon="-1.3961">
        <ele>727.27</ele>
        <time>2021-08-05T08:22:50Z</time>
      </trkpt>
      <trkpt lat="42.65619" lon="-1.39498">
        <ele>723.94</ele>
        <time>2021-08-05T08:22:54Z</time>
      </trkpt>
      <trkpt lat="42.65604" lon="-1.39414">
        <ele>720.7</ele>
        <time>2021-08-05T08:22:57Z</time>
      </trkpt>
      <trkpt lat="42.65591" lon="-1.3933">
        <ele>717.25</ele>
        <time>2021-08-05T08:23:00Z</time>
      </trkpt>
      <trkpt lat="42.65578" lon="-1.39247">
        <ele>713.87</ele>
        <time>2021-08-05T08:23:03Z</time>
      </trkpt>
      <trkpt lat="42.65562" lon="-1.39135">
        <ele>710.1</ele>
        <time>2021-08-05T08:23:07Z</time>
      </trkpt>
      <trkpt lat="42.65554" lon="-1.39056">
        <ele>707.05</ele>
        <time>2021-08-05T08:23:10Z</time>
      </trkpt>
      <trkpt lat="42.6554" lon="-1.38978">
        <ele>703.51</ele>
        <time>2021-08-05T08:23:13Z</time>
      </trkpt>
      <trkpt lat="42.65515" lon="-1.38905">
        <ele>699.59</ele>
        <time>2021-08-05T08:23:16Z</time>
      </trkpt>
      <trkpt lat="42.65485" lon="-1.38833">
        <ele>695.71</ele>
        <time>2021-08-05T08:23:19Z</time>
      </trkpt>
      <trkpt lat="42.65469" lon="-1.38783">
        <ele>693.23</ele>
        <time>2021-08-05T08:23:21Z</time>
      </trkpt>
      <trkpt lat="42.65458" lon="-1.38676">
        <ele>688.27</ele>
        <time>2021-08-05T08:23:25Z</time>
      </trkpt>
      <trkpt lat="42.6546" lon="-1.3865">
        <ele>687.12</ele>
        <time>2021-08-05T08:23:26Z</time>
      </trkpt>
      <trkpt lat="42.6547" lon="-1.38516">
        <ele>682.25</ele>
        <time>2021-08-05T08:23:31Z</time>
      </trkpt>
      <trkpt lat="42.65468" lon="-1.38404">
        <ele>678.81</ele>
        <time>2021-08-05T08:23:35Z</time>
      </trkpt>
      <trkpt lat="42.65441" lon="-1.38298">
        <ele>674.7</ele>
        <time>2021-08-05T08:23:39Z</time>
      </trkpt>
      <trkpt lat="42.65414" lon="-1.38221">
        <ele>671.42</ele>
        <time>2021-08-05T08:23:42Z</time>
      </trkpt>
      <trkpt lat="42.65397" lon="-1.38137">
        <ele>668.04</ele>
        <time>2021-08-05T08:23:45Z</time>
      </trkpt>
      <trkpt lat="42.6539" lon="-1.38049">
        <ele>664.42</ele>
        <time>2021-08-05T08:23:48Z</time>
      </trkpt>
      <trkpt lat="42.65385" lon="-1.37964">
        <ele>660.58</ele>
        <time>2021-08-05T08:23:51Z</time>
      </trkpt>
      <trkpt lat="42.65379" lon="-1.37881">
        <ele>656.27</ele>
        <time>2021-08-05T08:23:54Z</time>
      </trkpt>
      <trkpt lat="42.65373" lon="-1.37796">
        <ele>651.92</ele>
        <time>2021-08-05T08:23:57Z</time>
      </trkpt>
      <trkpt lat="42.65367" lon="-1.37738">
        <ele>648.89</ele>
        <time>2021-08-05T08:23:59Z</time>
      </trkpt>
      <trkpt lat="42.65359" lon="-1.37679">
        <ele>645.79</ele>
        <time>2021-08-05T08:24:01Z</time>
      </trkpt>
      <trkpt lat="42.65347" lon="-1.37619">
        <ele>642.39</ele>
        <time>2021-08-05T08:24:03Z</time>
      </trkpt>
      <trkpt lat="42.65334" lon="-1.37558">
        <ele>638.76</ele>
        <time>2021-08-05T08:24:05Z</time>
      </trkpt>
      <trkpt lat="42.65321" lon="-1.37496">
        <ele>635.13</ele>
        <time>2021-08-05T08:24:07Z</time>
      </trkpt>
      <trkpt lat="42.65307" lon="-1.37433">
        <ele>631.19</ele>
        <time>2021-08-05T08:24:09Z</time>
      </trkpt>
      <trkpt lat="42.65294" lon="-1.3737">
        <ele>627.28</ele>
        <time>2021-08-05T08:24:11Z</time>
      </trkpt>
      <trkpt lat="42.65281" lon="-1.37303">
        <ele>623.43</ele>
        <time>2021-08-05T08:24:13Z</time>
      </trkpt>
      <trkpt lat="42.6527" lon="-1.37235">
        <ele>619.89</ele>
        <time>2021-08-05T08:24:15Z</time>
      </trkpt>
      <trkpt lat="42.65261" lon="-1.37168">
        <ele>615.34</ele>
        <time>2021-08-05T08:24:17Z</time>
      </trkpt>
      <trkpt lat="42.65257" lon="-1.37134">
        <ele>615.34</ele>
        <time>2021-08-05T08:24:18Z</time>
      </trkpt>
      <trkpt lat="42.6525" lon="-1.37042">
        <ele>611.12</ele>
        <time>2021-08-05T08:24:21Z</time>
      </trkpt>
      <trkpt lat="42.65247" lon="-1.36955">
        <ele>605.28</ele>
        <time>2021-08-05T08:24:24Z</time>
      </trkpt>
      <trkpt lat="42.65245" lon="-1.36928">
        <ele>605.28</ele>
        <time>2021-08-05T08:24:25Z</time>
      </trkpt>
      <trkpt lat="42.65241" lon="-1.36877">
        <ele>601.25</ele>
        <time>2021-08-05T08:24:27Z</time>
      </trkpt>
      <trkpt lat="42.65232" lon="-1.36828">
        <ele>598.49</ele>
        <time>2021-08-05T08:24:29Z</time>
      </trkpt>
      <trkpt lat="42.65196" lon="-1.36735">
        <ele>593.72</ele>
        <time>2021-08-05T08:24:33Z</time>
      </trkpt>
      <trkpt lat="42.65169" lon="-1.36697">
        <ele>591.79</ele>
        <time>2021-08-05T08:24:35Z</time>
      </trkpt>
      <trkpt lat="42.65087" lon="-1.366">
        <ele>587.63</ele>
        <time>2021-08-05T08:24:41Z</time>
      </trkpt>
      <trkpt lat="42.64983" lon="-1.36485">
        <ele>584.62</ele>
        <time>2021-08-05T08:24:48Z</time>
      </trkpt>
      <trkpt lat="42.64922" lon="-1.36409">
        <ele>581.59</ele>
        <time>2021-08-05T08:24:52Z</time>
      </trkpt>
      <trkpt lat="42.64895" lon="-1.36362">
        <ele>579.53</ele>
        <time>2021-08-05T08:24:54Z</time>
      </trkpt>
      <trkpt lat="42.64869" lon="-1.36251">
        <ele>575.03</ele>
        <time>2021-08-05T08:24:58Z</time>
      </trkpt>
      <trkpt lat="42.6486" lon="-1.3614">
        <ele>570.77</ele>
        <time>2021-08-05T08:25:02Z</time>
      </trkpt>
      <trkpt lat="42.64846" lon="-1.36005">
        <ele>567.14</ele>
        <time>2021-08-05T08:25:07Z</time>
      </trkpt>
      <trkpt lat="42.64829" lon="-1.3586">
        <ele>563.63</ele>
        <time>2021-08-05T08:25:12Z</time>
      </trkpt>
      <trkpt lat="42.64814" lon="-1.35741">
        <ele>560.53</ele>
        <time>2021-08-05T08:25:16Z</time>
      </trkpt>
      <trkpt lat="42.6479" lon="-1.35624">
        <ele>556.93</ele>
        <time>2021-08-05T08:25:20Z</time>
      </trkpt>
      <trkpt lat="42.64764" lon="-1.3554">
        <ele>553.58</ele>
        <time>2021-08-05T08:25:23Z</time>
      </trkpt>
      <trkpt lat="42.64734" lon="-1.35458">
        <ele>549.33</ele>
        <time>2021-08-05T08:25:26Z</time>
      </trkpt>
      <trkpt lat="42.64701" lon="-1.35376">
        <ele>545.17</ele>
        <time>2021-08-05T08:25:29Z</time>
      </trkpt>
      <trkpt lat="42.64666" lon="-1.3529">
        <ele>540.77</ele>
        <time>2021-08-05T08:25:32Z</time>
      </trkpt>
      <trkpt lat="42.64629" lon="-1.35202">
        <ele>536.49</ele>
        <time>2021-08-05T08:25:35Z</time>
      </trkpt>
      <trkpt lat="42.64592" lon="-1.35118">
        <ele>532.97</ele>
        <time>2021-08-05T08:25:38Z</time>
      </trkpt>
      <trkpt lat="42.64533" lon="-1.34981">
        <ele>529.61</ele>
        <time>2021-08-05T08:25:43Z</time>
      </trkpt>
      <trkpt lat="42.6439" lon="-1.34647">
        <ele>529.14</ele>
        <time>2021-08-05T08:25:56Z</time>
      </trkpt>
      <trkpt lat="42.64258" lon="-1.34355">
        <ele>525.98</ele>
        <time>2021-08-05T08:26:08Z</time>
      </trkpt>
      <trkpt lat="42.64213" lon="-1.34275">
        <ele>523.01</ele>
        <time>2021-08-05T08:26:12Z</time>
      </trkpt>
      <trkpt lat="42.64137" lon="-1.3421">
        <ele>518.5</ele>
        <time>2021-08-05T08:26:17Z</time>
      </trkpt>
      <trkpt lat="42.64083" lon="-1.34194">
        <ele>517.2</ele>
        <time>2021-08-05T08:26:20Z</time>
      </trkpt>
      <trkpt lat="42.64053" lon="-1.34189">
        <ele>516.94</ele>
        <time>2021-08-05T08:26:22Z</time>
      </trkpt>
      <trkpt lat="42.63993" lon="-1.34154">
        <ele>516.51</ele>
        <time>2021-08-05T08:26:28Z</time>
      </trkpt>
      <trkpt lat="42.6395" lon="-1.34101">
        <ele>516.7</ele>
        <time>2021-08-05T08:26:35Z</time>
      </trkpt>
      <trkpt lat="42.63961" lon="-1.34022">
        <ele>516.79</ele>
        <time>2021-08-05T08:26:41Z</time>
      </trkpt>
      <trkpt lat="42.63959" lon="-1.34007">
        <ele>516.65</ele>
        <time>2021-08-05T08:26:42Z</time>
      </trkpt>
      <trkpt lat="42.63957" lon="-1.33977">
        <ele>516.38</ele>
        <time>2021-08-05T08:26:44Z</time>
      </trkpt>
      <trkpt lat="42.63994" lon="-1.33903">
        <ele>515.61</ele>
        <time>2021-08-05T08:26:50Z</time>
      </trkpt>
      <trkpt lat="42.64099" lon="-1.33835">
        <ele>513.44</ele>
        <time>2021-08-05T08:26:59Z</time>
      </trkpt>
      <trkpt lat="42.64144" lon="-1.33787">
        <ele>511.33</ele>
        <time>2021-08-05T08:27:05Z</time>
      </trkpt>
      <trkpt lat="42.642" lon="-1.33794">
        <ele>510.23</ele>
        <time>2021-08-05T08:27:10Z</time>
      </trkpt>
      <trkpt lat="42.64235" lon="-1.33768">
        <ele>509.41</ele>
        <time>2021-08-05T08:27:13Z</time>
      </trkpt>
      <trkpt lat="42.64367" lon="-1.33598">
        <ele>506.25</ele>
        <time>2021-08-05T08:27:24Z</time>
      </trkpt>
      <trkpt lat="42.64457" lon="-1.33474">
        <ele>503.13</ele>
        <time>2021-08-05T08:27:31Z</time>
      </trkpt>
      <trkpt lat="42.64554" lon="-1.33342">
        <ele>500.08</ele>
        <time>2021-08-05T08:27:38Z</time>
      </trkpt>
      <trkpt lat="42.64623" lon="-1.3325">
        <ele>497.4</ele>
        <time>2021-08-05T08:27:43Z</time>
      </trkpt>
      <trkpt lat="42.64693" lon="-1.33178">
        <ele>494.25</ele>
        <time>2021-08-05T08:27:48Z</time>
      </trkpt>
      <trkpt lat="42.64737" lon="-1.33153">
        <ele>490.92</ele>
        <time>2021-08-05T08:27:52Z</time>
      </trkpt>
      <trkpt lat="42.64774" lon="-1.33134">
        <ele>487.15</ele>
        <time>2021-08-05T08:27:56Z</time>
      </trkpt>
      <trkpt lat="42.64832" lon="-1.33105">
        <ele>483.51</ele>
        <time>2021-08-05T08:28:01Z</time>
      </trkpt>
      <trkpt lat="42.64901" lon="-1.3307">
        <ele>480.37</ele>
        <time>2021-08-05T08:28:06Z</time>
      </trkpt>
      <trkpt lat="42.64947" lon="-1.33044">
        <ele>478.64</ele>
        <time>2021-08-05T08:28:09Z</time>
      </trkpt>
      <trkpt lat="42.65021" lon="-1.32934">
        <ele>474.8</ele>
        <time>2021-08-05T08:28:15Z</time>
      </trkpt>
      <trkpt lat="42.65037" lon="-1.32833">
        <ele>471.68</ele>
        <time>2021-08-05T08:28:19Z</time>
      </trkpt>
      <trkpt lat="42.65036" lon="-1.32807">
        <ele>470.65</ele>
        <time>2021-08-05T08:28:20Z</time>
      </trkpt>
      <trkpt lat="42.65029" lon="-1.32675">
        <ele>465.71</ele>
        <time>2021-08-05T08:28:25Z</time>
      </trkpt>
      <trkpt lat="42.65025" lon="-1.3257">
        <ele>462.38</ele>
        <time>2021-08-05T08:28:29Z</time>
      </trkpt>
      <trkpt lat="42.65021" lon="-1.32438">
        <ele>458.8</ele>
        <time>2021-08-05T08:28:34Z</time>
      </trkpt>
      <trkpt lat="42.65009" lon="-1.32308">
        <ele>455.19</ele>
        <time>2021-08-05T08:28:39Z</time>
      </trkpt>
      <trkpt lat="42.64977" lon="-1.32182">
        <ele>451.9</ele>
        <time>2021-08-05T08:28:44Z</time>
      </trkpt>
      <trkpt lat="42.64934" lon="-1.32037">
        <ele>448.62</ele>
        <time>2021-08-05T08:28:50Z</time>
      </trkpt>
      <trkpt lat="42.64909" lon="-1.31946">
        <ele>447.08</ele>
        <time>2021-08-05T08:28:54Z</time>
      </trkpt>
      <trkpt lat="42.64907" lon="-1.31829">
        <ele>445.94</ele>
        <time>2021-08-05T08:28:59Z</time>
      </trkpt>
      <trkpt lat="42.6494" lon="-1.31549">
        <ele>442.28</ele>
        <time>2021-08-05T08:29:11Z</time>
      </trkpt>
      <trkpt lat="42.64956" lon="-1.31439">
        <ele>438.71</ele>
        <time>2021-08-05T08:29:18Z</time>
      </trkpt>
      <trkpt lat="42.64976" lon="-1.31324">
        <ele>437.12</ele>
        <time>2021-08-05T08:29:27Z</time>
      </trkpt>
      <trkpt lat="42.65002" lon="-1.31191">
        <ele>437.07</ele>
        <time>2021-08-05T08:29:37Z</time>
      </trkpt>
      <trkpt lat="42.65051" lon="-1.31088">
        <ele>438.51</ele>
        <time>2021-08-05T08:29:47Z</time>
      </trkpt>
      <trkpt lat="42.65087" lon="-1.31059">
        <ele>439.52</ele>
        <time>2021-08-05T08:29:51Z</time>
      </trkpt>
      <trkpt lat="42.65211" lon="-1.31023">
        <ele>441.82</ele>
        <time>2021-08-05T08:30:02Z</time>
      </trkpt>
      <trkpt lat="42.65316" lon="-1.30988">
        <ele>443.34</ele>
        <time>2021-08-05T08:30:09Z</time>
      </trkpt>
      <trkpt lat="42.6541" lon="-1.30894">
        <ele>444.99</ele>
        <time>2021-08-05T08:30:16Z</time>
      </trkpt>
      <trkpt lat="42.65441" lon="-1.30803">
        <ele>446.87</ele>
        <time>2021-08-05T08:30:20Z</time>
      </trkpt>
      <trkpt lat="42.6546" lon="-1.30629">
        <ele>450.5</ele>
        <time>2021-08-05T08:30:27Z</time>
      </trkpt>
      <trkpt lat="42.65496" lon="-1.30496">
        <ele>452.76</ele>
        <time>2021-08-05T08:30:34Z</time>
      </trkpt>
      <trkpt lat="42.65542" lon="-1.30422">
        <ele>452.14</ele>
        <time>2021-08-05T08:30:41Z</time>
      </trkpt>
      <trkpt lat="42.65548" lon="-1.30415">
        <ele>451.87</ele>
        <time>2021-08-05T08:30:42Z</time>
      </trkpt>
      <trkpt lat="42.65582" lon="-1.30384">
        <ele>451.01</ele>
        <time>2021-08-05T08:30:47Z</time>
      </trkpt>
      <trkpt lat="42.65693" lon="-1.30251">
        <ele>451.98</ele>
        <time>2021-08-05T08:31:00Z</time>
      </trkpt>
      <trkpt lat="42.65781" lon="-1.30155">
        <ele>455.14</ele>
        <time>2021-08-05T08:31:09Z</time>
      </trkpt>
      <trkpt lat="42.65869" lon="-1.30083">
        <ele>456.96</ele>
        <time>2021-08-05T08:31:18Z</time>
      </trkpt>
      <trkpt lat="42.65986" lon="-1.29983">
        <ele>458.86</ele>
        <time>2021-08-05T08:31:27Z</time>
      </trkpt>
      <trkpt lat="42.66133" lon="-1.29862">
        <ele>461.82</ele>
        <time>2021-08-05T08:31:37Z</time>
      </trkpt>
      <trkpt lat="42.663" lon="-1.29758">
        <ele>464.43</ele>
        <time>2021-08-05T08:31:47Z</time>
      </trkpt>
      <trkpt lat="42.6648" lon="-1.2969">
        <ele>464.7</ele>
        <time>2021-08-05T08:31:57Z</time>
      </trkpt>
      <trkpt lat="42.66744" lon="-1.29678">
        <ele>461.61</ele>
        <time>2021-08-05T08:32:10Z</time>
      </trkpt>
      <trkpt lat="42.67167" lon="-1.29655">
        <ele>464.08</ele>
        <time>2021-08-05T08:32:30Z</time>
      </trkpt>
      <trkpt lat="42.67326" lon="-1.29646">
        <ele>467.21</ele>
        <time>2021-08-05T08:32:38Z</time>
      </trkpt>
      <trkpt lat="42.67439" lon="-1.2964">
        <ele>470.26</ele>
        <time>2021-08-05T08:32:44Z</time>
      </trkpt>
      <trkpt lat="42.67535" lon="-1.29635">
        <ele>473.8</ele>
        <time>2021-08-05T08:32:49Z</time>
      </trkpt>
      <trkpt lat="42.67683" lon="-1.29656">
        <ele>476.97</ele>
        <time>2021-08-05T08:32:58Z</time>
      </trkpt>
      <trkpt lat="42.67809" lon="-1.29746">
        <ele>477.9</ele>
        <time>2021-08-05T08:33:06Z</time>
      </trkpt>
      <trkpt lat="42.68034" lon="-1.2992">
        <ele>474.8</ele>
        <time>2021-08-05T08:33:20Z</time>
      </trkpt>
      <trkpt lat="42.68131" lon="-1.29995">
        <ele>471.77</ele>
        <time>2021-08-05T08:33:26Z</time>
      </trkpt>
      <trkpt lat="42.68211" lon="-1.30056">
        <ele>468.55</ele>
        <time>2021-08-05T08:33:31Z</time>
      </trkpt>
      <trkpt lat="42.68291" lon="-1.30124">
        <ele>465.4</ele>
        <time>2021-08-05T08:33:36Z</time>
      </trkpt>
      <trkpt lat="42.68354" lon="-1.30187">
        <ele>462.3</ele>
        <time>2021-08-05T08:33:40Z</time>
      </trkpt>
      <trkpt lat="42.68417" lon="-1.30253">
        <ele>459.12</ele>
        <time>2021-08-05T08:33:44Z</time>
      </trkpt>
      <trkpt lat="42.68477" lon="-1.30317">
        <ele>455.62</ele>
        <time>2021-08-05T08:33:48Z</time>
      </trkpt>
      <trkpt lat="42.68536" lon="-1.30378">
        <ele>452.5</ele>
        <time>2021-08-05T08:33:52Z</time>
      </trkpt>
      <trkpt lat="42.68615" lon="-1.30459">
        <ele>449.45</ele>
        <time>2021-08-05T08:33:58Z</time>
      </trkpt>
      <trkpt lat="42.68668" lon="-1.30523">
        <ele>434.7</ele>
      </trkpt>
      <trkpt lat="42.68654" lon="-1.30543">
        <ele>434.3</ele>
      </trkpt>
      <trkpt lat="42.68631" lon="-1.30591">
        <ele>433.6</ele>
      </trkpt>
      <trkpt lat="42.68616" lon="-1.30622">
        <ele>433.4</ele>
      </trkpt>
      <trkpt lat="42.68614" lon="-1.30627">
        <ele>433.4</ele>
      </trkpt>
      <trkpt lat="42.68612" lon="-1.30638">
        <ele>433.3</ele>
      </trkpt>
      <trkpt lat="42.68613" lon="-1.30651">
        <ele>433.4</ele>
      </trkpt>
      <trkpt lat="42.68617" lon="-1.30661">
        <ele>433.4</ele>
      </trkpt>
      <trkpt lat="42.68644" lon="-1.30705">
        <ele>433.6</ele>
      </trkpt>
      <trkpt lat="42.68658" lon="-1.30729">
        <ele>433.8</ele>
      </trkpt>
      <trkpt lat="42.68671" lon="-1.30759">
        <ele>434.2</ele>
      </trkpt>
      <trkpt lat="42.68689" lon="-1.30808">
        <ele>435</ele>
      </trkpt>
      <trkpt lat="42.68711" lon="-1.30863">
        <ele>435.6</ele>
      </trkpt>
      <trkpt lat="42.68716" lon="-1.30874">
        <ele>435.5</ele>
      </trkpt>
      <trkpt lat="42.68738" lon="-1.30913">
        <ele>435</ele>
      </trkpt>
      <trkpt lat="42.688" lon="-1.31061">
        <ele>434.2</ele>
      </trkpt>
      <trkpt lat="42.68815" lon="-1.31091">
        <ele>434.2</ele>
      </trkpt>
      <trkpt lat="42.68872" lon="-1.31164">
        <ele>432.6</ele>
      </trkpt>
      <trkpt lat="42.68882" lon="-1.31181">
        <ele>432.3</ele>
      </trkpt>
      <trkpt lat="42.68888" lon="-1.31198">
        <ele>432</ele>
      </trkpt>
      <trkpt lat="42.6893" lon="-1.31347">
        <ele>431</ele>
      </trkpt>
      <trkpt lat="42.68932" lon="-1.31364">
        <ele>431.3</ele>
      </trkpt>
      <trkpt lat="42.68932" lon="-1.31366">
        <ele>431.3</ele>
      </trkpt>
    </trkseg>
  </trk>
  <trk>
    <name><![CDATA[4x4 Jour 7_2]]></name>
    <trkseg>
      <trkpt lat="42.68919" lon="-1.31511">
        <ele>448.86</ele>
        <time>2021-08-05T08:42:33Z</time>
      </trkpt>
      <trkpt lat="42.68917" lon="-1.31514">
        <ele>448.25</ele>
        <time>2021-08-05T08:42:34Z</time>
      </trkpt>
      <trkpt lat="42.68916" lon="-1.31579">
        <ele>444.77</ele>
        <time>2021-08-05T08:42:41Z</time>
      </trkpt>
      <trkpt lat="42.68915" lon="-1.31732">
        <ele>444.5</ele>
        <time>2021-08-05T08:42:50Z</time>
      </trkpt>
      <trkpt lat="42.68914" lon="-1.31749">
        <ele>444.57</ele>
        <time>2021-08-05T08:42:51Z</time>
      </trkpt>
      <trkpt lat="42.68878" lon="-1.3193">
        <ele>445.25</ele>
        <time>2021-08-05T08:43:03Z</time>
      </trkpt>
      <trkpt lat="42.6886" lon="-1.32013">
        <ele>445.25</ele>
        <time>2021-08-05T08:43:08Z</time>
      </trkpt>
      <trkpt lat="42.68831" lon="-1.32058">
        <ele>445.27</ele>
        <time>2021-08-05T08:43:12Z</time>
      </trkpt>
      <trkpt lat="42.68786" lon="-1.32123">
        <ele>445.85</ele>
        <time>2021-08-05T08:43:17Z</time>
      </trkpt>
      <trkpt lat="42.6875" lon="-1.32239">
        <ele>449.51</ele>
        <time>2021-08-05T08:43:23Z</time>
      </trkpt>
      <trkpt lat="42.68731" lon="-1.32319">
        <ele>453.53</ele>
        <time>2021-08-05T08:43:27Z</time>
      </trkpt>
      <trkpt lat="42.68726" lon="-1.32385">
        <ele>457.13</ele>
        <time>2021-08-05T08:43:30Z</time>
      </trkpt>
      <trkpt lat="42.68728" lon="-1.32452">
        <ele>460.77</ele>
        <time>2021-08-05T08:43:33Z</time>
      </trkpt>
      <trkpt lat="42.68737" lon="-1.32516">
        <ele>464.74</ele>
        <time>2021-08-05T08:43:36Z</time>
      </trkpt>
      <trkpt lat="42.68743" lon="-1.32575">
        <ele>468.53</ele>
        <time>2021-08-05T08:43:39Z</time>
      </trkpt>
      <trkpt lat="42.68731" lon="-1.32616">
        <ele>473.04</ele>
        <time>2021-08-05T08:43:43Z</time>
      </trkpt>
      <trkpt lat="42.68705" lon="-1.32599">
        <ele>475.5</ele>
        <time>2021-08-05T08:43:46Z</time>
      </trkpt>
      <trkpt lat="42.68667" lon="-1.3256">
        <ele>477.8</ele>
        <time>2021-08-05T08:43:50Z</time>
      </trkpt>
      <trkpt lat="42.68647" lon="-1.3257">
        <ele>479.57</ele>
        <time>2021-08-05T08:43:56Z</time>
      </trkpt>
      <trkpt lat="42.68619" lon="-1.3258">
        <ele>479.86</ele>
        <time>2021-08-05T08:44:02Z</time>
      </trkpt>
      <trkpt lat="42.68607" lon="-1.32595">
        <ele>479.56</ele>
        <time>2021-08-05T08:44:05Z</time>
      </trkpt>
      <trkpt lat="42.68606" lon="-1.32604">
        <ele>479.46</ele>
        <time>2021-08-05T08:44:06Z</time>
      </trkpt>
      <trkpt lat="42.68609" lon="-1.32611">
        <ele>479.4</ele>
        <time>2021-08-05T08:44:07Z</time>
      </trkpt>
      <trkpt lat="42.68614" lon="-1.32618">
        <ele>479.34</ele>
        <time>2021-08-05T08:44:08Z</time>
      </trkpt>
      <trkpt lat="42.68623" lon="-1.32621">
        <ele>479.17</ele>
        <time>2021-08-05T08:44:09Z</time>
      </trkpt>
      <trkpt lat="42.68724" lon="-1.32678">
        <ele>478.03</ele>
        <time>2021-08-05T08:44:17Z</time>
      </trkpt>
      <trkpt lat="42.68802" lon="-1.32728">
        <ele>474.93</ele>
        <time>2021-08-05T08:44:22Z</time>
      </trkpt>
      <trkpt lat="42.68867" lon="-1.3277">
        <ele>471.89</ele>
        <time>2021-08-05T08:44:26Z</time>
      </trkpt>
      <trkpt lat="42.68971" lon="-1.3281">
        <ele>468.51</ele>
        <time>2021-08-05T08:44:32Z</time>
      </trkpt>
      <trkpt lat="42.69049" lon="-1.32833">
        <ele>465.5</ele>
        <time>2021-08-05T08:44:37Z</time>
      </trkpt>
      <trkpt lat="42.6913" lon="-1.32851">
        <ele>462.33</ele>
        <time>2021-08-05T08:44:42Z</time>
      </trkpt>
      <trkpt lat="42.69256" lon="-1.32907">
        <ele>465.37</ele>
        <time>2021-08-05T08:44:50Z</time>
      </trkpt>
      <trkpt lat="42.69299" lon="-1.3293">
        <ele>468.67</ele>
        <time>2021-08-05T08:44:53Z</time>
      </trkpt>
      <trkpt lat="42.69341" lon="-1.32952">
        <ele>472.6</ele>
        <time>2021-08-05T08:44:56Z</time>
      </trkpt>
      <trkpt lat="42.69382" lon="-1.32975">
        <ele>477.11</ele>
        <time>2021-08-05T08:44:59Z</time>
      </trkpt>
      <trkpt lat="42.69409" lon="-1.32989">
        <ele>480.51</ele>
        <time>2021-08-05T08:45:01Z</time>
      </trkpt>
      <trkpt lat="42.69436" lon="-1.33002">
        <ele>484.02</ele>
        <time>2021-08-05T08:45:03Z</time>
      </trkpt>
      <trkpt lat="42.69465" lon="-1.33015">
        <ele>487.61</ele>
        <time>2021-08-05T08:45:05Z</time>
      </trkpt>
      <trkpt lat="42.69494" lon="-1.33029">
        <ele>490.99</ele>
        <time>2021-08-05T08:45:07Z</time>
      </trkpt>
      <trkpt lat="42.69508" lon="-1.33036">
        <ele>492.57</ele>
        <time>2021-08-05T08:45:08Z</time>
      </trkpt>
      <trkpt lat="42.69561" lon="-1.33083">
        <ele>497.79</ele>
        <time>2021-08-05T08:45:12Z</time>
      </trkpt>
      <trkpt lat="42.69635" lon="-1.33167">
        <ele>500.76</ele>
        <time>2021-08-05T08:45:17Z</time>
      </trkpt>
      <trkpt lat="42.69718" lon="-1.33231">
        <ele>501.8</ele>
        <time>2021-08-05T08:45:22Z</time>
      </trkpt>
      <trkpt lat="42.69803" lon="-1.33353">
        <ele>504.71</ele>
        <time>2021-08-05T08:45:29Z</time>
      </trkpt>
      <trkpt lat="42.69855" lon="-1.3343">
        <ele>507.94</ele>
        <time>2021-08-05T08:45:34Z</time>
      </trkpt>
      <trkpt lat="42.69935" lon="-1.33511">
        <ele>511.2</ele>
        <time>2021-08-05T08:45:40Z</time>
      </trkpt>
      <trkpt lat="42.69998" lon="-1.3357">
        <ele>511.65</ele>
        <time>2021-08-05T08:45:45Z</time>
      </trkpt>
      <trkpt lat="42.70097" lon="-1.33612">
        <ele>509.03</ele>
        <time>2021-08-05T08:45:52Z</time>
      </trkpt>
      <trkpt lat="42.70173" lon="-1.33608">
        <ele>505.31</ele>
        <time>2021-08-05T08:45:57Z</time>
      </trkpt>
      <trkpt lat="42.70269" lon="-1.33663">
        <ele>505.21</ele>
        <time>2021-08-05T08:46:04Z</time>
      </trkpt>
      <trkpt lat="42.70354" lon="-1.33709">
        <ele>508.39</ele>
        <time>2021-08-05T08:46:10Z</time>
      </trkpt>
      <trkpt lat="42.70475" lon="-1.33739">
        <ele>511.59</ele>
        <time>2021-08-05T08:46:16Z</time>
      </trkpt>
      <trkpt lat="42.70687" lon="-1.33782">
        <ele>512.5</ele>
        <time>2021-08-05T08:46:27Z</time>
      </trkpt>
      <trkpt lat="42.70704" lon="-1.33786">
        <ele>512.65</ele>
        <time>2021-08-05T08:46:28Z</time>
      </trkpt>
      <trkpt lat="42.70801" lon="-1.33768">
        <ele>516.54</ele>
        <time>2021-08-05T08:46:34Z</time>
      </trkpt>
      <trkpt lat="42.70817" lon="-1.33764">
        <ele>517.48</ele>
        <time>2021-08-05T08:46:35Z</time>
      </trkpt>
      <trkpt lat="42.70908" lon="-1.33797">
        <ele>521.79</ele>
        <time>2021-08-05T08:46:41Z</time>
      </trkpt>
      <trkpt lat="42.70919" lon="-1.33808">
        <ele>522.68</ele>
        <time>2021-08-05T08:46:42Z</time>
      </trkpt>
      <trkpt lat="42.70953" lon="-1.33867">
        <ele>526.94</ele>
        <time>2021-08-05T08:46:46Z</time>
      </trkpt>
      <trkpt lat="42.70982" lon="-1.33926">
        <ele>530.3</ele>
        <time>2021-08-05T08:46:50Z</time>
      </trkpt>
      <trkpt lat="42.71004" lon="-1.33969">
        <ele>532.44</ele>
        <time>2021-08-05T08:46:53Z</time>
      </trkpt>
      <trkpt lat="42.71055" lon="-1.34003">
        <ele>534.85</ele>
        <time>2021-08-05T08:46:57Z</time>
      </trkpt>
      <trkpt lat="42.71087" lon="-1.34007">
        <ele>535.97</ele>
        <time>2021-08-05T08:46:59Z</time>
      </trkpt>
      <trkpt lat="42.71189" lon="-1.34056">
        <ele>538.54</ele>
        <time>2021-08-05T08:47:06Z</time>
      </trkpt>
      <trkpt lat="42.71291" lon="-1.34108">
        <ele>535.27</ele>
        <time>2021-08-05T08:47:15Z</time>
      </trkpt>
      <trkpt lat="42.71308" lon="-1.34115">
        <ele>531.67</ele>
        <time>2021-08-05T08:47:19Z</time>
      </trkpt>
      <trkpt lat="42.71313" lon="-1.34116">
        <ele>528.28</ele>
        <time>2021-08-05T08:47:23Z</time>
      </trkpt>
      <trkpt lat="42.71313" lon="-1.34117">
        <ele>525.22</ele>
        <time>2021-08-05T08:47:30Z</time>
      </trkpt>
      <trkpt lat="42.71314" lon="-1.34117">
        <ele>523.46</ele>
        <time>2021-08-05T08:48:05Z</time>
      </trkpt>
      <trkpt lat="42.71329" lon="-1.34121">
        <ele>523.46</ele>
        <time>2021-08-05T08:48:34Z</time>
      </trkpt>
      <trkpt lat="42.71373" lon="-1.34142">
        <ele>521.5</ele>
        <time>2021-08-05T08:48:42Z</time>
      </trkpt>
      <trkpt lat="42.71396" lon="-1.34145">
        <ele>517.85</ele>
        <time>2021-08-05T08:48:48Z</time>
      </trkpt>
      <trkpt lat="42.71408" lon="-1.34124">
        <ele>515.57</ele>
        <time>2021-08-05T08:48:52Z</time>
      </trkpt>
      <trkpt lat="42.7142" lon="-1.34102">
        <ele>513.86</ele>
        <time>2021-08-05T08:48:55Z</time>
      </trkpt>
      <trkpt lat="42.71453" lon="-1.34066">
        <ele>510.77</ele>
        <time>2021-08-05T08:49:00Z</time>
      </trkpt>
      <trkpt lat="42.71495" lon="-1.34012">
        <ele>507.25</ele>
        <time>2021-08-05T08:49:05Z</time>
      </trkpt>
      <trkpt lat="42.71504" lon="-1.34001">
        <ele>506.49</ele>
        <time>2021-08-05T08:49:06Z</time>
      </trkpt>
      <trkpt lat="42.71525" lon="-1.33983">
        <ele>503.95</ele>
        <time>2021-08-05T08:49:08Z</time>
      </trkpt>
      <trkpt lat="42.71537" lon="-1.33978">
        <ele>503.95</ele>
        <time>2021-08-05T08:49:09Z</time>
      </trkpt>
      <trkpt lat="42.71548" lon="-1.33974">
        <ele>502.96</ele>
        <time>2021-08-05T08:49:10Z</time>
      </trkpt>
    </trkseg>
  </trk>
  <trk>
    <name><![CDATA[4x4 Jour 7_3]]></name>
    <trkseg>
      <trkpt lat="42.71589" lon="-1.33963">
        <ele>486.74</ele>
        <time>2021-08-05T09:10:43Z</time>
      </trkpt>
      <trkpt lat="42.71608" lon="-1.33871">
        <ele>486.2</ele>
        <time>2021-08-05T09:10:51Z</time>
      </trkpt>
      <trkpt lat="42.71645" lon="-1.33703">
        <ele>484.92</ele>
        <time>2021-08-05T09:10:59Z</time>
      </trkpt>
      <trkpt lat="42.717" lon="-1.33439">
        <ele>481.65</ele>
        <time>2021-08-05T09:11:11Z</time>
      </trkpt>
      <trkpt lat="42.71701" lon="-1.33369">
        <ele>478.43</ele>
        <time>2021-08-05T09:11:15Z</time>
      </trkpt>
      <trkpt lat="42.71675" lon="-1.33342">
        <ele>474.09</ele>
        <time>2021-08-05T09:11:19Z</time>
      </trkpt>
      <trkpt lat="42.71651" lon="-1.3335">
        <ele>472.03</ele>
        <time>2021-08-05T09:11:21Z</time>
      </trkpt>
      <trkpt lat="42.7158" lon="-1.33379">
        <ele>467.29</ele>
        <time>2021-08-05T09:11:26Z</time>
      </trkpt>
      <trkpt lat="42.71555" lon="-1.33388">
        <ele>465.24</ele>
        <time>2021-08-05T09:11:28Z</time>
      </trkpt>
      <trkpt lat="42.71512" lon="-1.33372">
        <ele>461.08</ele>
        <time>2021-08-05T09:11:32Z</time>
      </trkpt>
      <trkpt lat="42.715" lon="-1.33319">
        <ele>457.69</ele>
        <time>2021-08-05T09:11:36Z</time>
      </trkpt>
      <trkpt lat="42.71491" lon="-1.33117">
        <ele>455.39</ele>
        <time>2021-08-05T09:11:46Z</time>
      </trkpt>
      <trkpt lat="42.71489" lon="-1.33077">
        <ele>455.34</ele>
        <time>2021-08-05T09:11:48Z</time>
      </trkpt>
      <trkpt lat="42.71522" lon="-1.32926">
        <ele>455.57</ele>
        <time>2021-08-05T09:11:56Z</time>
      </trkpt>
      <trkpt lat="42.71535" lon="-1.32873">
        <ele>455.79</ele>
        <time>2021-08-05T09:11:59Z</time>
      </trkpt>
      <trkpt lat="42.7153" lon="-1.32716">
        <ele>456.7</ele>
        <time>2021-08-05T09:12:07Z</time>
      </trkpt>
      <trkpt lat="42.71548" lon="-1.32638">
        <ele>457.65</ele>
        <time>2021-08-05T09:12:12Z</time>
      </trkpt>
      <trkpt lat="42.71633" lon="-1.3248">
        <ele>461.07</ele>
        <time>2021-08-05T09:12:21Z</time>
      </trkpt>
      <trkpt lat="42.71676" lon="-1.32401">
        <ele>464.28</ele>
        <time>2021-08-05T09:12:25Z</time>
      </trkpt>
      <trkpt lat="42.717" lon="-1.32356">
        <ele>465.7</ele>
        <time>2021-08-05T09:12:28Z</time>
      </trkpt>
      <trkpt lat="42.71707" lon="-1.32333">
        <ele>466.41</ele>
        <time>2021-08-05T09:12:33Z</time>
      </trkpt>
      <trkpt lat="42.71725" lon="-1.32323">
        <ele>466.69</ele>
        <time>2021-08-05T09:12:37Z</time>
      </trkpt>
      <trkpt lat="42.71836" lon="-1.32293">
        <ele>468.81</ele>
        <time>2021-08-05T09:12:46Z</time>
      </trkpt>
      <trkpt lat="42.71921" lon="-1.3228">
        <ele>472.06</ele>
        <time>2021-08-05T09:12:51Z</time>
      </trkpt>
      <trkpt lat="42.72019" lon="-1.32277">
        <ele>475.75</ele>
        <time>2021-08-05T09:12:56Z</time>
      </trkpt>
      <trkpt lat="42.72097" lon="-1.32257">
        <ele>479.34</ele>
        <time>2021-08-05T09:13:00Z</time>
      </trkpt>
      <trkpt lat="42.72155" lon="-1.32234">
        <ele>482.63</ele>
        <time>2021-08-05T09:13:03Z</time>
      </trkpt>
      <trkpt lat="42.72217" lon="-1.32217">
        <ele>485.88</ele>
        <time>2021-08-05T09:13:06Z</time>
      </trkpt>
      <trkpt lat="42.72279" lon="-1.3221">
        <ele>489.6</ele>
        <time>2021-08-05T09:13:09Z</time>
      </trkpt>
      <trkpt lat="42.72342" lon="-1.32213">
        <ele>493.36</ele>
        <time>2021-08-05T09:13:12Z</time>
      </trkpt>
      <trkpt lat="42.72406" lon="-1.32218">
        <ele>496.94</ele>
        <time>2021-08-05T09:13:15Z</time>
      </trkpt>
      <trkpt lat="42.72469" lon="-1.32223">
        <ele>500.02</ele>
        <time>2021-08-05T09:13:18Z</time>
      </trkpt>
      <trkpt lat="42.72554" lon="-1.32229">
        <ele>503.04</ele>
        <time>2021-08-05T09:13:22Z</time>
      </trkpt>
      <trkpt lat="42.7268" lon="-1.32241">
        <ele>506.06</ele>
        <time>2021-08-05T09:13:28Z</time>
      </trkpt>
      <trkpt lat="42.72884" lon="-1.32286">
        <ele>504.46</ele>
        <time>2021-08-05T09:13:38Z</time>
      </trkpt>
      <trkpt lat="42.72947" lon="-1.32328">
        <ele>500.15</ele>
        <time>2021-08-05T09:13:42Z</time>
      </trkpt>
      <trkpt lat="42.72981" lon="-1.32383">
        <ele>496.55</ele>
        <time>2021-08-05T09:13:45Z</time>
      </trkpt>
      <trkpt lat="42.73" lon="-1.32453">
        <ele>493.07</ele>
        <time>2021-08-05T09:13:48Z</time>
      </trkpt>
      <trkpt lat="42.73" lon="-1.32529">
        <ele>489.51</ele>
        <time>2021-08-05T09:13:51Z</time>
      </trkpt>
      <trkpt lat="42.72983" lon="-1.32601">
        <ele>485.71</ele>
        <time>2021-08-05T09:13:54Z</time>
      </trkpt>
      <trkpt lat="42.72947" lon="-1.32663">
        <ele>482.09</ele>
        <time>2021-08-05T09:13:57Z</time>
      </trkpt>
      <trkpt lat="42.7289" lon="-1.32745">
        <ele>477.29</ele>
        <time>2021-08-05T09:14:01Z</time>
      </trkpt>
      <trkpt lat="42.72854" lon="-1.32848">
        <ele>472.24</ele>
        <time>2021-08-05T09:14:05Z</time>
      </trkpt>
      <trkpt lat="42.72846" lon="-1.32904">
        <ele>470.88</ele>
        <time>2021-08-05T09:14:07Z</time>
      </trkpt>
      <trkpt lat="42.7285" lon="-1.33157">
        <ele>468.94</ele>
        <time>2021-08-05T09:14:16Z</time>
      </trkpt>
      <trkpt lat="42.72893" lon="-1.33623">
        <ele>468.26</ele>
        <time>2021-08-05T09:14:32Z</time>
      </trkpt>
      <trkpt lat="42.72959" lon="-1.3377">
        <ele>468.21</ele>
        <time>2021-08-05T09:14:38Z</time>
      </trkpt>
      <trkpt lat="42.72991" lon="-1.33805">
        <ele>468.53</ele>
        <time>2021-08-05T09:14:40Z</time>
      </trkpt>
      <trkpt lat="42.73055" lon="-1.33857">
        <ele>469.68</ele>
        <time>2021-08-05T09:14:46Z</time>
      </trkpt>
    </trkseg>
  </trk>
  <trk>
    <name><![CDATA[4x4 Jour 7_4]]></name>
    <trkseg>
      <trkpt lat="42.73138" lon="-1.33911">
        <ele>471.99</ele>
        <time>2021-08-05T09:31:32Z</time>
      </trkpt>
      <trkpt lat="42.73152" lon="-1.33916">
        <ele>472.29</ele>
        <time>2021-08-05T09:31:33Z</time>
      </trkpt>
      <trkpt lat="42.73217" lon="-1.33941">
        <ele>473.75</ele>
        <time>2021-08-05T09:31:37Z</time>
      </trkpt>
      <trkpt lat="42.73301" lon="-1.34019">
        <ele>474.67</ele>
        <time>2021-08-05T09:31:42Z</time>
      </trkpt>
      <trkpt lat="42.73316" lon="-1.3404">
        <ele>474.73</ele>
        <time>2021-08-05T09:31:43Z</time>
      </trkpt>
      <trkpt lat="42.73372" lon="-1.34133">
        <ele>474.08</ele>
        <time>2021-08-05T09:31:47Z</time>
      </trkpt>
      <trkpt lat="42.73403" lon="-1.34282">
        <ele>472.14</ele>
        <time>2021-08-05T09:31:52Z</time>
      </trkpt>
      <trkpt lat="42.73413" lon="-1.34671">
        <ele>471.19</ele>
        <time>2021-08-05T09:32:04Z</time>
      </trkpt>
      <trkpt lat="42.73437" lon="-1.34858">
        <ele>471.67</ele>
        <time>2021-08-05T09:32:10Z</time>
      </trkpt>
      <trkpt lat="42.73527" lon="-1.35051">
        <ele>471.89</ele>
        <time>2021-08-05T09:32:17Z</time>
      </trkpt>
      <trkpt lat="42.73726" lon="-1.35435">
        <ele>474.97</ele>
        <time>2021-08-05T09:32:31Z</time>
      </trkpt>
      <trkpt lat="42.73741" lon="-1.3546">
        <ele>475.33</ele>
        <time>2021-08-05T09:32:32Z</time>
      </trkpt>
      <trkpt lat="42.73827" lon="-1.35546">
        <ele>476.94</ele>
        <time>2021-08-05T09:32:37Z</time>
      </trkpt>
      <trkpt lat="42.73915" lon="-1.35598">
        <ele>477.27</ele>
        <time>2021-08-05T09:32:42Z</time>
      </trkpt>
      <trkpt lat="42.74028" lon="-1.35598">
        <ele>475.74</ele>
        <time>2021-08-05T09:32:48Z</time>
      </trkpt>
      <trkpt lat="42.74217" lon="-1.35516">
        <ele>473.11</ele>
        <time>2021-08-05T09:32:57Z</time>
      </trkpt>
      <trkpt lat="42.74396" lon="-1.35483">
        <ele>472.41</ele>
        <time>2021-08-05T09:33:05Z</time>
      </trkpt>
      <trkpt lat="42.74439" lon="-1.35477">
        <ele>472.33</ele>
        <time>2021-08-05T09:33:07Z</time>
      </trkpt>
      <trkpt lat="42.74522" lon="-1.35492">
        <ele>472.09</ele>
        <time>2021-08-05T09:33:11Z</time>
      </trkpt>
      <trkpt lat="42.74752" lon="-1.35619">
        <ele>472.52</ele>
        <time>2021-08-05T09:33:22Z</time>
      </trkpt>
      <trkpt lat="42.74808" lon="-1.35653">
        <ele>472.63</ele>
        <time>2021-08-05T09:33:25Z</time>
      </trkpt>
      <trkpt lat="42.74868" lon="-1.3576">
        <ele>472.79</ele>
        <time>2021-08-05T09:33:30Z</time>
      </trkpt>
      <trkpt lat="42.7491" lon="-1.35953">
        <ele>474.52</ele>
        <time>2021-08-05T09:33:37Z</time>
      </trkpt>
      <trkpt lat="42.74984" lon="-1.36145">
        <ele>477.05</ele>
        <time>2021-08-05T09:33:46Z</time>
      </trkpt>
      <trkpt lat="42.74976" lon="-1.36224">
        <ele>476.91</ele>
        <time>2021-08-05T09:33:51Z</time>
      </trkpt>
      <trkpt lat="42.74964" lon="-1.36236">
        <ele>476.91</ele>
        <time>2021-08-05T09:33:52Z</time>
      </trkpt>
      <trkpt lat="42.74887" lon="-1.36335">
        <ele>480.05</ele>
        <time>2021-08-05T09:34:00Z</time>
      </trkpt>
      <trkpt lat="42.74878" lon="-1.36348">
        <ele>480.71</ele>
        <time>2021-08-05T09:34:01Z</time>
      </trkpt>
      <trkpt lat="42.74874" lon="-1.3643">
        <ele>484.52</ele>
        <time>2021-08-05T09:34:07Z</time>
      </trkpt>
      <trkpt lat="42.74882" lon="-1.36449">
        <ele>484.99</ele>
        <time>2021-08-05T09:34:08Z</time>
      </trkpt>
      <trkpt lat="42.7497" lon="-1.36649">
        <ele>484.99</ele>
        <time>2021-08-05T09:34:17Z</time>
      </trkpt>
      <trkpt lat="42.75127" lon="-1.37011">
        <ele>482.84</ele>
        <time>2021-08-05T09:34:32Z</time>
      </trkpt>
      <trkpt lat="42.7529" lon="-1.37386">
        <ele>480.05</ele>
        <time>2021-08-05T09:34:47Z</time>
      </trkpt>
      <trkpt lat="42.75386" lon="-1.3761">
        <ele>478.44</ele>
        <time>2021-08-05T09:34:56Z</time>
      </trkpt>
      <trkpt lat="42.75514" lon="-1.37771">
        <ele>477.84</ele>
        <time>2021-08-05T09:35:04Z</time>
      </trkpt>
      <trkpt lat="42.75562" lon="-1.37828">
        <ele>477.63</ele>
        <time>2021-08-05T09:35:07Z</time>
      </trkpt>
      <trkpt lat="42.75609" lon="-1.37947">
        <ele>477.04</ele>
        <time>2021-08-05T09:35:12Z</time>
      </trkpt>
      <trkpt lat="42.7561" lon="-1.37975">
        <ele>477</ele>
        <time>2021-08-05T09:35:13Z</time>
      </trkpt>
      <trkpt lat="42.75608" lon="-1.38385">
        <ele>477.08</ele>
        <time>2021-08-05T09:35:27Z</time>
      </trkpt>
      <trkpt lat="42.75589" lon="-1.38513">
        <ele>477.48</ele>
        <time>2021-08-05T09:35:32Z</time>
      </trkpt>
      <trkpt lat="42.75595" lon="-1.38691">
        <ele>481.3</ele>
        <time>2021-08-05T09:35:40Z</time>
      </trkpt>
      <trkpt lat="42.75641" lon="-1.3876">
        <ele>485.14</ele>
        <time>2021-08-05T09:35:46Z</time>
      </trkpt>
      <trkpt lat="42.75656" lon="-1.38762">
        <ele>486.05</ele>
        <time>2021-08-05T09:35:48Z</time>
      </trkpt>
      <trkpt lat="42.75694" lon="-1.38765">
        <ele>487.22</ele>
        <time>2021-08-05T09:35:54Z</time>
      </trkpt>
      <trkpt lat="42.75713" lon="-1.3876">
        <ele>487.17</ele>
        <time>2021-08-05T09:36:01Z</time>
      </trkpt>
      <trkpt lat="42.7571" lon="-1.38762">
        <ele>486.63</ele>
        <time>2021-08-05T09:36:16Z</time>
      </trkpt>
      <trkpt lat="42.7571" lon="-1.38762">
        <ele>486.6</ele>
        <time>2021-08-05T09:36:20Z</time>
      </trkpt>
      <trkpt lat="42.7571" lon="-1.38758">
        <ele>486.84</ele>
        <time>2021-08-05T09:36:36Z</time>
      </trkpt>
      <trkpt lat="42.75695" lon="-1.38761">
        <ele>487.09</ele>
        <time>2021-08-05T09:36:40Z</time>
      </trkpt>
      <trkpt lat="42.75659" lon="-1.38755">
        <ele>487.37</ele>
        <time>2021-08-05T09:36:44Z</time>
      </trkpt>
      <trkpt lat="42.75646" lon="-1.38728">
        <ele>487.94</ele>
        <time>2021-08-05T09:36:50Z</time>
      </trkpt>
      <trkpt lat="42.7565" lon="-1.38723">
        <ele>488.02</ele>
        <time>2021-08-05T09:36:51Z</time>
      </trkpt>
      <trkpt lat="42.75667" lon="-1.38676">
        <ele>488.96</ele>
        <time>2021-08-05T09:36:59Z</time>
      </trkpt>
      <trkpt lat="42.75696" lon="-1.38628">
        <ele>489.57</ele>
        <time>2021-08-05T09:37:07Z</time>
      </trkpt>
      <trkpt lat="42.75699" lon="-1.38585">
        <ele>489.93</ele>
        <time>2021-08-05T09:37:11Z</time>
      </trkpt>
      <trkpt lat="42.75693" lon="-1.38476">
        <ele>492</ele>
        <time>2021-08-05T09:37:19Z</time>
      </trkpt>
      <trkpt lat="42.75704" lon="-1.38455">
        <ele>493.09</ele>
        <time>2021-08-05T09:37:23Z</time>
      </trkpt>
      <trkpt lat="42.75779" lon="-1.38398">
        <ele>496</ele>
        <time>2021-08-05T09:37:34Z</time>
      </trkpt>
      <trkpt lat="42.75874" lon="-1.38324">
        <ele>498.27</ele>
        <time>2021-08-05T09:37:43Z</time>
      </trkpt>
      <trkpt lat="42.75928" lon="-1.38284">
        <ele>499</ele>
        <time>2021-08-05T09:37:48Z</time>
      </trkpt>
      <trkpt lat="42.75952" lon="-1.38226">
        <ele>499.03</ele>
        <time>2021-08-05T09:37:54Z</time>
      </trkpt>
      <trkpt lat="42.75972" lon="-1.38063">
        <ele>501.23</ele>
        <time>2021-08-05T09:38:04Z</time>
      </trkpt>
      <trkpt lat="42.75988" lon="-1.37939">
        <ele>504.6</ele>
        <time>2021-08-05T09:38:10Z</time>
      </trkpt>
      <trkpt lat="42.75999" lon="-1.37851">
        <ele>507.75</ele>
        <time>2021-08-05T09:38:14Z</time>
      </trkpt>
      <trkpt lat="42.76017" lon="-1.37715">
        <ele>511.04</ele>
        <time>2021-08-05T09:38:20Z</time>
      </trkpt>
      <trkpt lat="42.76036" lon="-1.37578">
        <ele>512.31</ele>
        <time>2021-08-05T09:38:27Z</time>
      </trkpt>
      <trkpt lat="42.76077" lon="-1.37522">
        <ele>512.46</ele>
        <time>2021-08-05T09:38:32Z</time>
      </trkpt>
      <trkpt lat="42.76254" lon="-1.37409">
        <ele>513.74</ele>
        <time>2021-08-05T09:38:45Z</time>
      </trkpt>
      <trkpt lat="42.76466" lon="-1.37267">
        <ele>516.68</ele>
        <time>2021-08-05T09:39:01Z</time>
      </trkpt>
      <trkpt lat="42.76586" lon="-1.37188">
        <ele>519.99</ele>
        <time>2021-08-05T09:39:10Z</time>
      </trkpt>
      <trkpt lat="42.76653" lon="-1.37137">
        <ele>523.14</ele>
        <time>2021-08-05T09:39:15Z</time>
      </trkpt>
      <trkpt lat="42.76757" lon="-1.37059">
        <ele>526.2</ele>
        <time>2021-08-05T09:39:23Z</time>
      </trkpt>
      <trkpt lat="42.76917" lon="-1.3694">
        <ele>527.22</ele>
        <time>2021-08-05T09:39:36Z</time>
      </trkpt>
      <trkpt lat="42.77071" lon="-1.36823">
        <ele>530.3</ele>
        <time>2021-08-05T09:39:47Z</time>
      </trkpt>
      <trkpt lat="42.77108" lon="-1.36795">
        <ele>531.81</ele>
        <time>2021-08-05T09:39:50Z</time>
      </trkpt>
      <trkpt lat="42.77183" lon="-1.3678">
        <ele>534.07</ele>
        <time>2021-08-05T09:39:56Z</time>
      </trkpt>
      <trkpt lat="42.7724" lon="-1.36783">
        <ele>534.99</ele>
        <time>2021-08-05T09:40:01Z</time>
      </trkpt>
      <trkpt lat="42.77332" lon="-1.36777">
        <ele>536.77</ele>
        <time>2021-08-05T09:40:08Z</time>
      </trkpt>
      <trkpt lat="42.77393" lon="-1.36766">
        <ele>538.63</ele>
        <time>2021-08-05T09:40:15Z</time>
      </trkpt>
      <trkpt lat="42.7744" lon="-1.36761">
        <ele>540.22</ele>
        <time>2021-08-05T09:40:25Z</time>
      </trkpt>
      <trkpt lat="42.77441" lon="-1.36764">
        <ele>541.32</ele>
        <time>2021-08-05T09:40:35Z</time>
      </trkpt>
      <trkpt lat="42.77441" lon="-1.36764">
        <ele>541.62</ele>
        <time>2021-08-05T09:40:42Z</time>
      </trkpt>
      <trkpt lat="42.77484" lon="-1.36751">
        <ele>542.18</ele>
        <time>2021-08-05T09:40:50Z</time>
      </trkpt>
      <trkpt lat="42.77503" lon="-1.36744">
        <ele>542.53</ele>
        <time>2021-08-05T09:40:52Z</time>
      </trkpt>
      <trkpt lat="42.7752" lon="-1.36734">
        <ele>542.98</ele>
        <time>2021-08-05T09:40:54Z</time>
      </trkpt>
      <trkpt lat="42.77548" lon="-1.36743">
        <ele>544.37</ele>
        <time>2021-08-05T09:40:58Z</time>
      </trkpt>
      <trkpt lat="42.77554" lon="-1.36751">
        <ele>544.78</ele>
        <time>2021-08-05T09:40:59Z</time>
      </trkpt>
      <trkpt lat="42.7756" lon="-1.36758">
        <ele>545.18</ele>
        <time>2021-08-05T09:41:00Z</time>
      </trkpt>
      <trkpt lat="42.77567" lon="-1.36763">
        <ele>545.5</ele>
        <time>2021-08-05T09:41:01Z</time>
      </trkpt>
      <trkpt lat="42.77575" lon="-1.36765">
        <ele>545.71</ele>
        <time>2021-08-05T09:41:02Z</time>
      </trkpt>
      <trkpt lat="42.77584" lon="-1.36765">
        <ele>545.81</ele>
        <time>2021-08-05T09:41:03Z</time>
      </trkpt>
      <trkpt lat="42.77594" lon="-1.36764">
        <ele>545.87</ele>
        <time>2021-08-05T09:41:04Z</time>
      </trkpt>
      <trkpt lat="42.77645" lon="-1.36789">
        <ele>543.55</ele>
        <time>2021-08-05T09:41:09Z</time>
      </trkpt>
      <trkpt lat="42.77691" lon="-1.3683">
        <ele>539.14</ele>
        <time>2021-08-05T09:41:13Z</time>
      </trkpt>
      <trkpt lat="42.77729" lon="-1.36848">
        <ele>534.54</ele>
        <time>2021-08-05T09:41:16Z</time>
      </trkpt>
      <trkpt lat="42.77761" lon="-1.36878">
        <ele>528.92</ele>
        <time>2021-08-05T09:41:19Z</time>
      </trkpt>
      <trkpt lat="42.7777" lon="-1.3689">
        <ele>526.99</ele>
        <time>2021-08-05T09:41:20Z</time>
      </trkpt>
      <trkpt lat="42.7779" lon="-1.3693">
        <ele>521.23</ele>
        <time>2021-08-05T09:41:23Z</time>
      </trkpt>
      <trkpt lat="42.77805" lon="-1.36944">
        <ele>517.48</ele>
        <time>2021-08-05T09:41:25Z</time>
      </trkpt>
      <trkpt lat="42.77845" lon="-1.36978">
        <ele>509.49</ele>
        <time>2021-08-05T09:41:30Z</time>
      </trkpt>
      <trkpt lat="42.77853" lon="-1.36987">
        <ele>508.06</ele>
        <time>2021-08-05T09:41:31Z</time>
      </trkpt>
      <trkpt lat="42.77888" lon="-1.3704">
        <ele>503.03</ele>
        <time>2021-08-05T09:41:36Z</time>
      </trkpt>
      <trkpt lat="42.77938" lon="-1.37052">
        <ele>499.57</ele>
        <time>2021-08-05T09:41:43Z</time>
      </trkpt>
      <trkpt lat="42.77946" lon="-1.37046">
        <ele>499.18</ele>
        <time>2021-08-05T09:41:44Z</time>
      </trkpt>
      <trkpt lat="42.77977" lon="-1.37014">
        <ele>498.56</ele>
        <time>2021-08-05T09:41:48Z</time>
      </trkpt>
      <trkpt lat="42.78003" lon="-1.36997">
        <ele>498.72</ele>
        <time>2021-08-05T09:41:52Z</time>
      </trkpt>
      <trkpt lat="42.78033" lon="-1.36972">
        <ele>498.83</ele>
        <time>2021-08-05T09:41:57Z</time>
      </trkpt>
      <trkpt lat="42.78043" lon="-1.36959">
        <ele>498.8</ele>
        <time>2021-08-05T09:41:59Z</time>
      </trkpt>
      <trkpt lat="42.78065" lon="-1.36942">
        <ele>498.52</ele>
        <time>2021-08-05T09:42:02Z</time>
      </trkpt>
      <trkpt lat="42.78143" lon="-1.36851">
        <ele>497.74</ele>
        <time>2021-08-05T09:42:12Z</time>
      </trkpt>
      <trkpt lat="42.7816" lon="-1.36823">
        <ele>497.82</ele>
        <time>2021-08-05T09:42:15Z</time>
      </trkpt>
      <trkpt lat="42.7817" lon="-1.36777">
        <ele>497.85</ele>
        <time>2021-08-05T09:42:22Z</time>
      </trkpt>
      <trkpt lat="42.78199" lon="-1.36789">
        <ele>497.98</ele>
        <time>2021-08-05T09:42:26Z</time>
      </trkpt>
      <trkpt lat="42.78216" lon="-1.36777">
        <ele>497.99</ele>
        <time>2021-08-05T09:42:28Z</time>
      </trkpt>
      <trkpt lat="42.78236" lon="-1.36753">
        <ele>498.21</ele>
        <time>2021-08-05T09:42:31Z</time>
      </trkpt>
      <trkpt lat="42.7829" lon="-1.36713">
        <ele>498.92</ele>
        <time>2021-08-05T09:42:39Z</time>
      </trkpt>
      <trkpt lat="42.78317" lon="-1.36679">
        <ele>497.94</ele>
        <time>2021-08-05T09:42:48Z</time>
      </trkpt>
      <trkpt lat="42.78321" lon="-1.36675">
        <ele>498</ele>
        <time>2021-08-05T09:42:49Z</time>
      </trkpt>
      <trkpt lat="42.78326" lon="-1.36671">
        <ele>498.09</ele>
        <time>2021-08-05T09:42:50Z</time>
      </trkpt>
      <trkpt lat="42.78332" lon="-1.36668">
        <ele>498.17</ele>
        <time>2021-08-05T09:42:51Z</time>
      </trkpt>
      <trkpt lat="42.78338" lon="-1.36668">
        <ele>498.23</ele>
        <time>2021-08-05T09:42:52Z</time>
      </trkpt>
      <trkpt lat="42.78345" lon="-1.36668">
        <ele>498.28</ele>
        <time>2021-08-05T09:42:53Z</time>
      </trkpt>
      <trkpt lat="42.78377" lon="-1.36661">
        <ele>498.62</ele>
        <time>2021-08-05T09:42:57Z</time>
      </trkpt>
      <trkpt lat="42.78385" lon="-1.36657">
        <ele>498.66</ele>
        <time>2021-08-05T09:42:58Z</time>
      </trkpt>
      <trkpt lat="42.78392" lon="-1.36652">
        <ele>498.66</ele>
        <time>2021-08-05T09:42:59Z</time>
      </trkpt>
      <trkpt lat="42.784" lon="-1.36647">
        <ele>498.66</ele>
        <time>2021-08-05T09:43:00Z</time>
      </trkpt>
      <trkpt lat="42.78433" lon="-1.36628">
        <ele>498.24</ele>
        <time>2021-08-05T09:43:07Z</time>
      </trkpt>
      <trkpt lat="42.78446" lon="-1.36609">
        <ele>498.16</ele>
        <time>2021-08-05T09:43:11Z</time>
      </trkpt>
      <trkpt lat="42.78472" lon="-1.36597">
        <ele>498.59</ele>
        <time>2021-08-05T09:43:15Z</time>
      </trkpt>
      <trkpt lat="42.78502" lon="-1.36587">
        <ele>499.29</ele>
        <time>2021-08-05T09:43:19Z</time>
      </trkpt>
      <trkpt lat="42.7853" lon="-1.36589">
        <ele>498.98</ele>
        <time>2021-08-05T09:43:22Z</time>
      </trkpt>
      <trkpt lat="42.78549" lon="-1.36586">
        <ele>497.85</ele>
        <time>2021-08-05T09:43:24Z</time>
      </trkpt>
      <trkpt lat="42.78558" lon="-1.36582">
        <ele>497.12</ele>
        <time>2021-08-05T09:43:25Z</time>
      </trkpt>
      <trkpt lat="42.78568" lon="-1.36577">
        <ele>496.34</ele>
        <time>2021-08-05T09:43:26Z</time>
      </trkpt>
      <trkpt lat="42.78578" lon="-1.36571">
        <ele>495.59</ele>
        <time>2021-08-05T09:43:27Z</time>
      </trkpt>
      <trkpt lat="42.78661" lon="-1.36531">
        <ele>492.65</ele>
        <time>2021-08-05T09:43:36Z</time>
      </trkpt>
      <trkpt lat="42.78714" lon="-1.3651">
        <ele>491.02</ele>
        <time>2021-08-05T09:43:44Z</time>
      </trkpt>
      <trkpt lat="42.78725" lon="-1.36501">
        <ele>489.5</ele>
        <time>2021-08-05T09:43:55Z</time>
      </trkpt>
      <trkpt lat="42.78749" lon="-1.36478">
        <ele>488.7</ele>
        <time>2021-08-05T09:44:08Z</time>
      </trkpt>
      <trkpt lat="42.78796" lon="-1.36444">
        <ele>488.32</ele>
        <time>2021-08-05T09:44:19Z</time>
      </trkpt>
      <trkpt lat="42.78819" lon="-1.36383">
        <ele>490.62</ele>
        <time>2021-08-05T09:44:26Z</time>
      </trkpt>
      <trkpt lat="42.78832" lon="-1.36375">
        <ele>493.06</ele>
        <time>2021-08-05T09:44:30Z</time>
      </trkpt>
      <trkpt lat="42.78844" lon="-1.36374">
        <ele>494.68</ele>
        <time>2021-08-05T09:44:34Z</time>
      </trkpt>
      <trkpt lat="42.78856" lon="-1.36326">
        <ele>497.98</ele>
        <time>2021-08-05T09:44:41Z</time>
      </trkpt>
      <trkpt lat="42.78851" lon="-1.36294">
        <ele>500.65</ele>
        <time>2021-08-05T09:44:44Z</time>
      </trkpt>
      <trkpt lat="42.78851" lon="-1.36282">
        <ele>501.82</ele>
        <time>2021-08-05T09:44:45Z</time>
      </trkpt>
      <trkpt lat="42.78852" lon="-1.36271">
        <ele>503.08</ele>
        <time>2021-08-05T09:44:46Z</time>
      </trkpt>
      <trkpt lat="42.78853" lon="-1.36259">
        <ele>504.29</ele>
        <time>2021-08-05T09:44:47Z</time>
      </trkpt>
      <trkpt lat="42.78854" lon="-1.36223">
        <ele>508.02</ele>
        <time>2021-08-05T09:44:50Z</time>
      </trkpt>
      <trkpt lat="42.78862" lon="-1.36181">
        <ele>513.1</ele>
        <time>2021-08-05T09:44:54Z</time>
      </trkpt>
      <trkpt lat="42.78863" lon="-1.36171">
        <ele>514.55</ele>
        <time>2021-08-05T09:44:55Z</time>
      </trkpt>
      <trkpt lat="42.78863" lon="-1.36142">
        <ele>519.21</ele>
        <time>2021-08-05T09:44:58Z</time>
      </trkpt>
      <trkpt lat="42.7887" lon="-1.36129">
        <ele>522.4</ele>
        <time>2021-08-05T09:45:00Z</time>
      </trkpt>
      <trkpt lat="42.78877" lon="-1.36125">
        <ele>524.01</ele>
        <time>2021-08-05T09:45:01Z</time>
      </trkpt>
      <trkpt lat="42.78911" lon="-1.36105">
        <ele>529.42</ele>
        <time>2021-08-05T09:45:05Z</time>
      </trkpt>
      <trkpt lat="42.78937" lon="-1.36081">
        <ele>533.1</ele>
        <time>2021-08-05T09:45:08Z</time>
      </trkpt>
      <trkpt lat="42.78962" lon="-1.3605">
        <ele>536.6</ele>
        <time>2021-08-05T09:45:11Z</time>
      </trkpt>
      <trkpt lat="42.78984" lon="-1.3602">
        <ele>540.8</ele>
        <time>2021-08-05T09:45:14Z</time>
      </trkpt>
      <trkpt lat="42.78997" lon="-1.36">
        <ele>543.93</ele>
        <time>2021-08-05T09:45:16Z</time>
      </trkpt>
      <trkpt lat="42.79009" lon="-1.35982">
        <ele>547.14</ele>
        <time>2021-08-05T09:45:18Z</time>
      </trkpt>
      <trkpt lat="42.79021" lon="-1.35964">
        <ele>550.46</ele>
        <time>2021-08-05T09:45:20Z</time>
      </trkpt>
      <trkpt lat="42.79031" lon="-1.35948">
        <ele>555.55</ele>
        <time>2021-08-05T09:45:22Z</time>
      </trkpt>
      <trkpt lat="42.79036" lon="-1.35941">
        <ele>555.55</ele>
        <time>2021-08-05T09:45:23Z</time>
      </trkpt>
      <trkpt lat="42.79044" lon="-1.35926">
        <ele>558.86</ele>
        <time>2021-08-05T09:45:25Z</time>
      </trkpt>
      <trkpt lat="42.79046" lon="-1.3592">
        <ele>562.01</ele>
        <time>2021-08-05T09:45:26Z</time>
      </trkpt>
      <trkpt lat="42.79044" lon="-1.35905">
        <ele>566.29</ele>
        <time>2021-08-05T09:45:29Z</time>
      </trkpt>
      <trkpt lat="42.79027" lon="-1.35906">
        <ele>569.76</ele>
        <time>2021-08-05T09:45:32Z</time>
      </trkpt>
      <trkpt lat="42.79004" lon="-1.3592">
        <ele>572.82</ele>
        <time>2021-08-05T09:45:35Z</time>
      </trkpt>
      <trkpt lat="42.78981" lon="-1.35923">
        <ele>575.93</ele>
        <time>2021-08-05T09:45:38Z</time>
      </trkpt>
      <trkpt lat="42.78974" lon="-1.35921">
        <ele>577.04</ele>
        <time>2021-08-05T09:45:39Z</time>
      </trkpt>
      <trkpt lat="42.78928" lon="-1.35911">
        <ele>582.56</ele>
        <time>2021-08-05T09:45:45Z</time>
      </trkpt>
      <trkpt lat="42.78884" lon="-1.35894">
        <ele>585.65</ele>
        <time>2021-08-05T09:45:50Z</time>
      </trkpt>
      <trkpt lat="42.78864" lon="-1.3588">
        <ele>586.76</ele>
        <time>2021-08-05T09:45:52Z</time>
      </trkpt>
      <trkpt lat="42.78846" lon="-1.35863">
        <ele>588</ele>
        <time>2021-08-05T09:45:54Z</time>
      </trkpt>
      <trkpt lat="42.7883" lon="-1.3584">
        <ele>589.84</ele>
        <time>2021-08-05T09:45:57Z</time>
      </trkpt>
      <trkpt lat="42.78846" lon="-1.35817">
        <ele>592.21</ele>
        <time>2021-08-05T09:46:01Z</time>
      </trkpt>
      <trkpt lat="42.78875" lon="-1.35775">
        <ele>596.09</ele>
        <time>2021-08-05T09:46:06Z</time>
      </trkpt>
      <trkpt lat="42.78887" lon="-1.35722">
        <ele>601.09</ele>
        <time>2021-08-05T09:46:11Z</time>
      </trkpt>
      <trkpt lat="42.78875" lon="-1.35693">
        <ele>604.47</ele>
        <time>2021-08-05T09:46:14Z</time>
      </trkpt>
      <trkpt lat="42.78842" lon="-1.35649">
        <ele>609.49</ele>
        <time>2021-08-05T09:46:19Z</time>
      </trkpt>
      <trkpt lat="42.78817" lon="-1.35623">
        <ele>612.69</ele>
        <time>2021-08-05T09:46:22Z</time>
      </trkpt>
      <trkpt lat="42.788" lon="-1.356">
        <ele>615.9</ele>
        <time>2021-08-05T09:46:25Z</time>
      </trkpt>
      <trkpt lat="42.78793" lon="-1.35587">
        <ele>618.09</ele>
        <time>2021-08-05T09:46:27Z</time>
      </trkpt>
      <trkpt lat="42.78802" lon="-1.35544">
        <ele>622.81</ele>
        <time>2021-08-05T09:46:32Z</time>
      </trkpt>
      <trkpt lat="42.78824" lon="-1.35505">
        <ele>626.84</ele>
        <time>2021-08-05T09:46:36Z</time>
      </trkpt>
      <trkpt lat="42.78843" lon="-1.35477">
        <ele>630.4</ele>
        <time>2021-08-05T09:46:39Z</time>
      </trkpt>
      <trkpt lat="42.7886" lon="-1.35456">
        <ele>634.38</ele>
        <time>2021-08-05T09:46:42Z</time>
      </trkpt>
      <trkpt lat="42.78862" lon="-1.35429">
        <ele>639.49</ele>
        <time>2021-08-05T09:46:46Z</time>
      </trkpt>
      <trkpt lat="42.78841" lon="-1.35415">
        <ele>643.27</ele>
        <time>2021-08-05T09:46:49Z</time>
      </trkpt>
      <trkpt lat="42.78805" lon="-1.35378">
        <ele>647.22</ele>
        <time>2021-08-05T09:46:53Z</time>
      </trkpt>
      <trkpt lat="42.78782" lon="-1.35306">
        <ele>650.9</ele>
        <time>2021-08-05T09:46:58Z</time>
      </trkpt>
      <trkpt lat="42.78774" lon="-1.35237">
        <ele>653.96</ele>
        <time>2021-08-05T09:47:04Z</time>
      </trkpt>
      <trkpt lat="42.78787" lon="-1.35172">
        <ele>657.92</ele>
        <time>2021-08-05T09:47:09Z</time>
      </trkpt>
      <trkpt lat="42.788" lon="-1.35149">
        <ele>659.52</ele>
        <time>2021-08-05T09:47:11Z</time>
      </trkpt>
      <trkpt lat="42.78813" lon="-1.35127">
        <ele>661.21</ele>
        <time>2021-08-05T09:47:13Z</time>
      </trkpt>
      <trkpt lat="42.78816" lon="-1.35059">
        <ele>665.22</ele>
        <time>2021-08-05T09:47:18Z</time>
      </trkpt>
      <trkpt lat="42.78795" lon="-1.35016">
        <ele>667.17</ele>
        <time>2021-08-05T09:47:21Z</time>
      </trkpt>
      <trkpt lat="42.78797" lon="-1.34919">
        <ele>667.55</ele>
        <time>2021-08-05T09:47:28Z</time>
      </trkpt>
      <trkpt lat="42.78834" lon="-1.34877">
        <ele>669.7</ele>
        <time>2021-08-05T09:47:38Z</time>
      </trkpt>
      <trkpt lat="42.78858" lon="-1.34851">
        <ele>673.05</ele>
        <time>2021-08-05T09:47:48Z</time>
      </trkpt>
      <trkpt lat="42.78876" lon="-1.34811">
        <ele>676.15</ele>
        <time>2021-08-05T09:47:56Z</time>
      </trkpt>
      <trkpt lat="42.7889" lon="-1.34783">
        <ele>678.16</ele>
        <time>2021-08-05T09:48:00Z</time>
      </trkpt>
      <trkpt lat="42.78924" lon="-1.34748">
        <ele>681.79</ele>
        <time>2021-08-05T09:48:05Z</time>
      </trkpt>
      <trkpt lat="42.78958" lon="-1.34717">
        <ele>685.3</ele>
        <time>2021-08-05T09:48:09Z</time>
      </trkpt>
      <trkpt lat="42.78982" lon="-1.34701">
        <ele>688.62</ele>
        <time>2021-08-05T09:48:12Z</time>
      </trkpt>
      <trkpt lat="42.78995" lon="-1.34693">
        <ele>691.11</ele>
        <time>2021-08-05T09:48:14Z</time>
      </trkpt>
      <trkpt lat="42.79026" lon="-1.3469">
        <ele>696.17</ele>
        <time>2021-08-05T09:48:18Z</time>
      </trkpt>
      <trkpt lat="42.79059" lon="-1.34697">
        <ele>701.32</ele>
        <time>2021-08-05T09:48:22Z</time>
      </trkpt>
      <trkpt lat="42.79071" lon="-1.34701">
        <ele>703.79</ele>
        <time>2021-08-05T09:48:24Z</time>
      </trkpt>
      <trkpt lat="42.79099" lon="-1.34702">
        <ele>708.39</ele>
        <time>2021-08-05T09:48:28Z</time>
      </trkpt>
      <trkpt lat="42.79122" lon="-1.34683">
        <ele>711.19</ele>
        <time>2021-08-05T09:48:31Z</time>
      </trkpt>
      <trkpt lat="42.79138" lon="-1.34667">
        <ele>713.17</ele>
        <time>2021-08-05T09:48:33Z</time>
      </trkpt>
      <trkpt lat="42.79178" lon="-1.3465">
        <ele>715.55</ele>
        <time>2021-08-05T09:48:37Z</time>
      </trkpt>
      <trkpt lat="42.7923" lon="-1.34597">
        <ele>719.06</ele>
        <time>2021-08-05T09:48:44Z</time>
      </trkpt>
      <trkpt lat="42.79241" lon="-1.34565">
        <ele>721.21</ele>
        <time>2021-08-05T09:48:47Z</time>
      </trkpt>
      <trkpt lat="42.7927" lon="-1.34535">
        <ele>725.26</ele>
        <time>2021-08-05T09:48:52Z</time>
      </trkpt>
      <trkpt lat="42.79316" lon="-1.3451">
        <ele>730.29</ele>
        <time>2021-08-05T09:48:58Z</time>
      </trkpt>
      <trkpt lat="42.79325" lon="-1.3451">
        <ele>731.14</ele>
        <time>2021-08-05T09:48:59Z</time>
      </trkpt>
      <trkpt lat="42.7937" lon="-1.34507">
        <ele>735.36</ele>
        <time>2021-08-05T09:49:04Z</time>
      </trkpt>
      <trkpt lat="42.79378" lon="-1.34506">
        <ele>736.21</ele>
        <time>2021-08-05T09:49:05Z</time>
      </trkpt>
      <trkpt lat="42.79415" lon="-1.34513">
        <ele>740.98</ele>
        <time>2021-08-05T09:49:10Z</time>
      </trkpt>
      <trkpt lat="42.79424" lon="-1.34515">
        <ele>742.81</ele>
        <time>2021-08-05T09:49:12Z</time>
      </trkpt>
      <trkpt lat="42.79454" lon="-1.34504">
        <ele>746.8</ele>
        <time>2021-08-05T09:49:17Z</time>
      </trkpt>
      <trkpt lat="42.79513" lon="-1.34461">
        <ele>750.74</ele>
        <time>2021-08-05T09:49:24Z</time>
      </trkpt>
      <trkpt lat="42.79563" lon="-1.34431">
        <ele>754.09</ele>
        <time>2021-08-05T09:49:29Z</time>
      </trkpt>
      <trkpt lat="42.79573" lon="-1.34426">
        <ele>754.9</ele>
        <time>2021-08-05T09:49:30Z</time>
      </trkpt>
      <trkpt lat="42.79614" lon="-1.34425">
        <ele>758.1</ele>
        <time>2021-08-05T09:49:34Z</time>
      </trkpt>
      <trkpt lat="42.79663" lon="-1.3445">
        <ele>762.97</ele>
        <time>2021-08-05T09:49:40Z</time>
      </trkpt>
      <trkpt lat="42.79672" lon="-1.34454">
        <ele>763.79</ele>
        <time>2021-08-05T09:49:41Z</time>
      </trkpt>
      <trkpt lat="42.7972" lon="-1.34464">
        <ele>767.89</ele>
        <time>2021-08-05T09:49:46Z</time>
      </trkpt>
      <trkpt lat="42.79745" lon="-1.34497">
        <ele>771.36</ele>
        <time>2021-08-05T09:49:50Z</time>
      </trkpt>
      <trkpt lat="42.79769" lon="-1.34541">
        <ele>775.36</ele>
        <time>2021-08-05T09:49:55Z</time>
      </trkpt>
      <trkpt lat="42.79794" lon="-1.34572">
        <ele>778.45</ele>
        <time>2021-08-05T09:49:59Z</time>
      </trkpt>
      <trkpt lat="42.79821" lon="-1.34602">
        <ele>781.48</ele>
        <time>2021-08-05T09:50:03Z</time>
      </trkpt>
      <trkpt lat="42.79858" lon="-1.34638">
        <ele>784.85</ele>
        <time>2021-08-05T09:50:08Z</time>
      </trkpt>
      <trkpt lat="42.79865" lon="-1.34646">
        <ele>785.37</ele>
        <time>2021-08-05T09:50:09Z</time>
      </trkpt>
      <trkpt lat="42.79888" lon="-1.34633">
        <ele>788.64</ele>
        <time>2021-08-05T09:50:14Z</time>
      </trkpt>
      <trkpt lat="42.79877" lon="-1.34614">
        <ele>790.07</ele>
        <time>2021-08-05T09:50:16Z</time>
      </trkpt>
      <trkpt lat="42.79859" lon="-1.34555">
        <ele>794.73</ele>
        <time>2021-08-05T09:50:22Z</time>
      </trkpt>
      <trkpt lat="42.79857" lon="-1.34545">
        <ele>794.73</ele>
        <time>2021-08-05T09:50:23Z</time>
      </trkpt>
      <trkpt lat="42.79845" lon="-1.34514">
        <ele>797.08</ele>
        <time>2021-08-05T09:50:26Z</time>
      </trkpt>
      <trkpt lat="42.79829" lon="-1.34436">
        <ele>800.78</ele>
        <time>2021-08-05T09:50:33Z</time>
      </trkpt>
      <trkpt lat="42.79816" lon="-1.34395">
        <ele>802.38</ele>
        <time>2021-08-05T09:50:37Z</time>
      </trkpt>
      <trkpt lat="42.79798" lon="-1.34372">
        <ele>803.82</ele>
        <time>2021-08-05T09:50:40Z</time>
      </trkpt>
      <trkpt lat="42.79788" lon="-1.34357">
        <ele>805.01</ele>
        <time>2021-08-05T09:50:42Z</time>
      </trkpt>
      <trkpt lat="42.79775" lon="-1.34329">
        <ele>807.13</ele>
        <time>2021-08-05T09:50:45Z</time>
      </trkpt>
      <trkpt lat="42.79753" lon="-1.34293">
        <ele>809.56</ele>
        <time>2021-08-05T09:50:49Z</time>
      </trkpt>
      <trkpt lat="42.7972" lon="-1.34274">
        <ele>812.06</ele>
        <time>2021-08-05T09:50:53Z</time>
      </trkpt>
      <trkpt lat="42.79658" lon="-1.34271">
        <ele>815.91</ele>
        <time>2021-08-05T09:51:00Z</time>
      </trkpt>
      <trkpt lat="42.79649" lon="-1.34272">
        <ele>816.48</ele>
        <time>2021-08-05T09:51:01Z</time>
      </trkpt>
      <trkpt lat="42.79618" lon="-1.34279">
        <ele>818.64</ele>
        <time>2021-08-05T09:51:05Z</time>
      </trkpt>
      <trkpt lat="42.79561" lon="-1.34268">
        <ele>822.45</ele>
        <time>2021-08-05T09:51:12Z</time>
      </trkpt>
      <trkpt lat="42.79539" lon="-1.34223">
        <ele>825.25</ele>
        <time>2021-08-05T09:51:18Z</time>
      </trkpt>
      <trkpt lat="42.79547" lon="-1.34201">
        <ele>826.18</ele>
        <time>2021-08-05T09:51:20Z</time>
      </trkpt>
      <trkpt lat="42.79577" lon="-1.34138">
        <ele>830.05</ele>
        <time>2021-08-05T09:51:27Z</time>
      </trkpt>
      <trkpt lat="42.79613" lon="-1.34086">
        <ele>833.55</ele>
        <time>2021-08-05T09:51:33Z</time>
      </trkpt>
      <trkpt lat="42.79619" lon="-1.34077">
        <ele>834.19</ele>
        <time>2021-08-05T09:51:34Z</time>
      </trkpt>
      <trkpt lat="42.79634" lon="-1.34042">
        <ele>836.4</ele>
        <time>2021-08-05T09:51:38Z</time>
      </trkpt>
      <trkpt lat="42.79654" lon="-1.33977">
        <ele>839.46</ele>
        <time>2021-08-05T09:51:44Z</time>
      </trkpt>
      <trkpt lat="42.79695" lon="-1.33924">
        <ele>843.52</ele>
        <time>2021-08-05T09:51:51Z</time>
      </trkpt>
      <trkpt lat="42.79728" lon="-1.33887">
        <ele>846.61</ele>
        <time>2021-08-05T09:51:56Z</time>
      </trkpt>
      <trkpt lat="42.79765" lon="-1.33849">
        <ele>849.87</ele>
        <time>2021-08-05T09:52:02Z</time>
      </trkpt>
      <trkpt lat="42.79776" lon="-1.33837">
        <ele>850.92</ele>
        <time>2021-08-05T09:52:04Z</time>
      </trkpt>
      <trkpt lat="42.79776" lon="-1.33783">
        <ele>854.38</ele>
        <time>2021-08-05T09:52:10Z</time>
      </trkpt>
      <trkpt lat="42.79745" lon="-1.33707">
        <ele>858.16</ele>
        <time>2021-08-05T09:52:18Z</time>
      </trkpt>
      <trkpt lat="42.7972" lon="-1.33647">
        <ele>861.22</ele>
        <time>2021-08-05T09:52:25Z</time>
      </trkpt>
      <trkpt lat="42.79702" lon="-1.33617">
        <ele>863.51</ele>
        <time>2021-08-05T09:52:29Z</time>
      </trkpt>
      <trkpt lat="42.79706" lon="-1.336">
        <ele>867.24</ele>
        <time>2021-08-05T09:52:35Z</time>
      </trkpt>
      <trkpt lat="42.79708" lon="-1.33602">
        <ele>867.78</ele>
        <time>2021-08-05T09:52:36Z</time>
      </trkpt>
      <trkpt lat="42.79737" lon="-1.33637">
        <ele>871.53</ele>
        <time>2021-08-05T09:52:45Z</time>
      </trkpt>
      <trkpt lat="42.7977" lon="-1.33669">
        <ele>874.73</ele>
        <time>2021-08-05T09:52:52Z</time>
      </trkpt>
      <trkpt lat="42.7979" lon="-1.33688">
        <ele>877.78</ele>
        <time>2021-08-05T09:52:57Z</time>
      </trkpt>
      <trkpt lat="42.79808" lon="-1.33704">
        <ele>881.32</ele>
        <time>2021-08-05T09:53:03Z</time>
      </trkpt>
      <trkpt lat="42.79811" lon="-1.33707">
        <ele>882.03</ele>
        <time>2021-08-05T09:53:04Z</time>
      </trkpt>
      <trkpt lat="42.79832" lon="-1.33731">
        <ele>885.65</ele>
        <time>2021-08-05T09:53:10Z</time>
      </trkpt>
      <trkpt lat="42.79847" lon="-1.33753">
        <ele>888.33</ele>
        <time>2021-08-05T09:53:15Z</time>
      </trkpt>
      <trkpt lat="42.79861" lon="-1.3377">
        <ele>890.17</ele>
        <time>2021-08-05T09:53:19Z</time>
      </trkpt>
      <trkpt lat="42.79885" lon="-1.33814">
        <ele>892.98</ele>
        <time>2021-08-05T09:53:27Z</time>
      </trkpt>
      <trkpt lat="42.7989" lon="-1.33862">
        <ele>895.53</ele>
        <time>2021-08-05T09:53:35Z</time>
      </trkpt>
      <trkpt lat="42.79871" lon="-1.33915">
        <ele>898.48</ele>
        <time>2021-08-05T09:53:44Z</time>
      </trkpt>
      <trkpt lat="42.79855" lon="-1.3394">
        <ele>899.38</ele>
        <time>2021-08-05T09:53:48Z</time>
      </trkpt>
      <trkpt lat="42.79846" lon="-1.33955">
        <ele>899.76</ele>
        <time>2021-08-05T09:53:50Z</time>
      </trkpt>
      <trkpt lat="42.79846" lon="-1.34016">
        <ele>901.81</ele>
        <time>2021-08-05T09:53:57Z</time>
      </trkpt>
      <trkpt lat="42.79858" lon="-1.34026">
        <ele>902.74</ele>
        <time>2021-08-05T09:53:59Z</time>
      </trkpt>
      <trkpt lat="42.79908" lon="-1.34059">
        <ele>906.17</ele>
        <time>2021-08-05T09:54:06Z</time>
      </trkpt>
      <trkpt lat="42.79952" lon="-1.34085">
        <ele>909.43</ele>
        <time>2021-08-05T09:54:12Z</time>
      </trkpt>
      <trkpt lat="42.79995" lon="-1.34111">
        <ele>912.71</ele>
        <time>2021-08-05T09:54:18Z</time>
      </trkpt>
      <trkpt lat="42.80022" lon="-1.34127">
        <ele>915.1</ele>
        <time>2021-08-05T09:54:22Z</time>
      </trkpt>
      <trkpt lat="42.80046" lon="-1.34151">
        <ele>916.94</ele>
        <time>2021-08-05T09:54:26Z</time>
      </trkpt>
      <trkpt lat="42.80057" lon="-1.34134">
        <ele>919.8</ele>
        <time>2021-08-05T09:54:32Z</time>
      </trkpt>
      <trkpt lat="42.80053" lon="-1.34127">
        <ele>920.18</ele>
        <time>2021-08-05T09:54:33Z</time>
      </trkpt>
      <trkpt lat="42.80012" lon="-1.34069">
        <ele>923.51</ele>
        <time>2021-08-05T09:54:41Z</time>
      </trkpt>
      <trkpt lat="42.79974" lon="-1.34021">
        <ele>926.92</ele>
        <time>2021-08-05T09:54:48Z</time>
      </trkpt>
      <trkpt lat="42.79954" lon="-1.3396">
        <ele>930.4</ele>
        <time>2021-08-05T09:54:55Z</time>
      </trkpt>
      <trkpt lat="42.79973" lon="-1.33912">
        <ele>933.06</ele>
        <time>2021-08-05T09:55:00Z</time>
      </trkpt>
      <trkpt lat="42.79989" lon="-1.33891">
        <ele>934.44</ele>
        <time>2021-08-05T09:55:03Z</time>
      </trkpt>
      <trkpt lat="42.80003" lon="-1.33839">
        <ele>937.64</ele>
        <time>2021-08-05T09:55:09Z</time>
      </trkpt>
      <trkpt lat="42.80002" lon="-1.33774">
        <ele>941.74</ele>
        <time>2021-08-05T09:55:16Z</time>
      </trkpt>
      <trkpt lat="42.80001" lon="-1.33733">
        <ele>945.04</ele>
        <time>2021-08-05T09:55:21Z</time>
      </trkpt>
      <trkpt lat="42.80002" lon="-1.33699">
        <ele>948.62</ele>
        <time>2021-08-05T09:55:25Z</time>
      </trkpt>
      <trkpt lat="42.80002" lon="-1.33674">
        <ele>950.66</ele>
        <time>2021-08-05T09:55:28Z</time>
      </trkpt>
      <trkpt lat="42.8001" lon="-1.33642">
        <ele>953.4</ele>
        <time>2021-08-05T09:55:32Z</time>
      </trkpt>
      <trkpt lat="42.80025" lon="-1.33609">
        <ele>955.75</ele>
        <time>2021-08-05T09:55:36Z</time>
      </trkpt>
      <trkpt lat="42.80049" lon="-1.33527">
        <ele>959.5</ele>
        <time>2021-08-05T09:55:44Z</time>
      </trkpt>
      <trkpt lat="42.80073" lon="-1.33449">
        <ele>962.61</ele>
        <time>2021-08-05T09:55:52Z</time>
      </trkpt>
      <trkpt lat="42.80099" lon="-1.33399">
        <ele>965.11</ele>
        <time>2021-08-05T09:55:58Z</time>
      </trkpt>
      <trkpt lat="42.80121" lon="-1.3328">
        <ele>968.4</ele>
        <time>2021-08-05T09:56:09Z</time>
      </trkpt>
      <trkpt lat="42.80131" lon="-1.33222">
        <ele>971.89</ele>
        <time>2021-08-05T09:56:15Z</time>
      </trkpt>
      <trkpt lat="42.80141" lon="-1.33185">
        <ele>975.29</ele>
        <time>2021-08-05T09:56:19Z</time>
      </trkpt>
      <trkpt lat="42.80147" lon="-1.33158">
        <ele>978.79</ele>
        <time>2021-08-05T09:56:23Z</time>
      </trkpt>
      <trkpt lat="42.80152" lon="-1.33133">
        <ele>982.27</ele>
        <time>2021-08-05T09:56:27Z</time>
      </trkpt>
      <trkpt lat="42.80155" lon="-1.33113">
        <ele>984.84</ele>
        <time>2021-08-05T09:56:30Z</time>
      </trkpt>
      <trkpt lat="42.80166" lon="-1.33072">
        <ele>988.69</ele>
        <time>2021-08-05T09:56:36Z</time>
      </trkpt>
      <trkpt lat="42.80168" lon="-1.33062">
        <ele>992.15</ele>
        <time>2021-08-05T09:56:42Z</time>
      </trkpt>
      <trkpt lat="42.80167" lon="-1.33066">
        <ele>993.18</ele>
        <time>2021-08-05T09:56:44Z</time>
      </trkpt>
      <trkpt lat="42.80153" lon="-1.33114">
        <ele>993.99</ele>
        <time>2021-08-05T09:56:54Z</time>
      </trkpt>
      <trkpt lat="42.80147" lon="-1.3315">
        <ele>991.17</ele>
        <time>2021-08-05T09:57:03Z</time>
      </trkpt>
      <trkpt lat="42.80142" lon="-1.33187">
        <ele>987.9</ele>
        <time>2021-08-05T09:57:13Z</time>
      </trkpt>
      <trkpt lat="42.80139" lon="-1.33199">
        <ele>984.87</ele>
        <time>2021-08-05T09:57:21Z</time>
      </trkpt>
      <trkpt lat="42.80134" lon="-1.33223">
        <ele>983.06</ele>
        <time>2021-08-05T09:57:28Z</time>
      </trkpt>
      <trkpt lat="42.80126" lon="-1.33255">
        <ele>980.04</ele>
        <time>2021-08-05T09:57:36Z</time>
      </trkpt>
      <trkpt lat="42.80119" lon="-1.33291">
        <ele>976.74</ele>
        <time>2021-08-05T09:57:45Z</time>
      </trkpt>
      <trkpt lat="42.80115" lon="-1.33319">
        <ele>973.63</ele>
        <time>2021-08-05T09:57:53Z</time>
      </trkpt>
      <trkpt lat="42.80107" lon="-1.33364">
        <ele>970.5</ele>
        <time>2021-08-05T09:58:03Z</time>
      </trkpt>
      <trkpt lat="42.80099" lon="-1.33397">
        <ele>968.29</ele>
        <time>2021-08-05T09:58:15Z</time>
      </trkpt>
      <trkpt lat="42.80099" lon="-1.33396">
        <ele>967.49</ele>
        <time>2021-08-05T09:58:43Z</time>
      </trkpt>
      <trkpt lat="42.80099" lon="-1.33426">
        <ele>967.44</ele>
        <time>2021-08-05T09:58:49Z</time>
      </trkpt>
      <trkpt lat="42.80092" lon="-1.33442">
        <ele>966.95</ele>
        <time>2021-08-05T09:58:54Z</time>
      </trkpt>
      <trkpt lat="42.80093" lon="-1.33449">
        <ele>966.94</ele>
        <time>2021-08-05T09:58:56Z</time>
      </trkpt>
      <trkpt lat="42.80096" lon="-1.33453">
        <ele>966.77</ele>
        <time>2021-08-05T09:59:04Z</time>
      </trkpt>
      <trkpt lat="42.80095" lon="-1.33453">
        <ele>966.84</ele>
        <time>2021-08-05T09:59:06Z</time>
      </trkpt>
      <trkpt lat="42.80099" lon="-1.33428">
        <ele>966.93</ele>
        <time>2021-08-05T09:59:15Z</time>
      </trkpt>
      <trkpt lat="42.801" lon="-1.3342">
        <ele>966.88</ele>
        <time>2021-08-05T09:59:17Z</time>
      </trkpt>
      <trkpt lat="42.80101" lon="-1.3339">
        <ele>966.8</ele>
        <time>2021-08-05T09:59:26Z</time>
      </trkpt>
      <trkpt lat="42.80102" lon="-1.33391">
        <ele>966.99</ele>
        <time>2021-08-05T09:59:35Z</time>
      </trkpt>
      <trkpt lat="42.80092" lon="-1.33413">
        <ele>967.13</ele>
        <time>2021-08-05T09:59:43Z</time>
      </trkpt>
      <trkpt lat="42.80094" lon="-1.33438">
        <ele>966.78</ele>
        <time>2021-08-05T09:59:54Z</time>
      </trkpt>
      <trkpt lat="42.801" lon="-1.33399">
        <ele>966.43</ele>
        <time>2021-08-05T10:00:02Z</time>
      </trkpt>
      <trkpt lat="42.801" lon="-1.33387">
        <ele>966.77</ele>
        <time>2021-08-05T10:00:13Z</time>
      </trkpt>
      <trkpt lat="42.80105" lon="-1.33369">
        <ele>967.23</ele>
        <time>2021-08-05T10:00:55Z</time>
      </trkpt>
      <trkpt lat="42.80105" lon="-1.3337">
        <ele>967.14</ele>
        <time>2021-08-05T10:00:59Z</time>
      </trkpt>
      <trkpt lat="42.801" lon="-1.33395">
        <ele>966.82</ele>
        <time>2021-08-05T10:01:14Z</time>
      </trkpt>
      <trkpt lat="42.801" lon="-1.33395">
        <ele>966.83</ele>
        <time>2021-08-05T10:01:15Z</time>
      </trkpt>
      <trkpt lat="42.80102" lon="-1.3339">
        <ele>966.83</ele>
        <time>2021-08-05T10:01:18Z</time>
      </trkpt>
      <trkpt lat="42.80093" lon="-1.33414">
        <ele>966.6</ele>
        <time>2021-08-05T10:01:27Z</time>
      </trkpt>
      <trkpt lat="42.80094" lon="-1.33423">
        <ele>966.82</ele>
        <time>2021-08-05T10:02:11Z</time>
      </trkpt>
      <trkpt lat="42.80094" lon="-1.33441">
        <ele>965.7</ele>
        <time>2021-08-05T10:02:26Z</time>
      </trkpt>
      <trkpt lat="42.80095" lon="-1.33438">
        <ele>965.62</ele>
        <time>2021-08-05T10:02:38Z</time>
      </trkpt>
      <trkpt lat="42.801" lon="-1.33423">
        <ele>965.62</ele>
        <time>2021-08-05T10:02:43Z</time>
      </trkpt>
      <trkpt lat="42.80102" lon="-1.33388">
        <ele>965.95</ele>
        <time>2021-08-05T10:02:52Z</time>
      </trkpt>
      <trkpt lat="42.80094" lon="-1.3342">
        <ele>966.29</ele>
        <time>2021-08-05T10:03:03Z</time>
      </trkpt>
      <trkpt lat="42.80095" lon="-1.33439">
        <ele>965.72</ele>
        <time>2021-08-05T10:03:21Z</time>
      </trkpt>
      <trkpt lat="42.80101" lon="-1.33397">
        <ele>965.61</ele>
        <time>2021-08-05T10:03:30Z</time>
      </trkpt>
      <trkpt lat="42.80101" lon="-1.33391">
        <ele>965.58</ele>
        <time>2021-08-05T10:03:32Z</time>
      </trkpt>
      <trkpt lat="42.80101" lon="-1.33389">
        <ele>966.06</ele>
        <time>2021-08-05T10:03:56Z</time>
      </trkpt>
      <trkpt lat="42.80101" lon="-1.3339">
        <ele>966.06</ele>
        <time>2021-08-05T10:03:59Z</time>
      </trkpt>
      <trkpt lat="42.80101" lon="-1.33396">
        <ele>966.27</ele>
        <time>2021-08-05T10:04:05Z</time>
      </trkpt>
      <trkpt lat="42.80103" lon="-1.33373">
        <ele>966.9</ele>
        <time>2021-08-05T10:04:16Z</time>
      </trkpt>
      <trkpt lat="42.80113" lon="-1.33328">
        <ele>967.73</ele>
        <time>2021-08-05T10:04:26Z</time>
      </trkpt>
      <trkpt lat="42.80125" lon="-1.33252">
        <ele>971.06</ele>
        <time>2021-08-05T10:04:40Z</time>
      </trkpt>
      <trkpt lat="42.80136" lon="-1.33206">
        <ele>974.25</ele>
        <time>2021-08-05T10:04:46Z</time>
      </trkpt>
      <trkpt lat="42.80147" lon="-1.33163">
        <ele>977.78</ele>
        <time>2021-08-05T10:04:51Z</time>
      </trkpt>
      <trkpt lat="42.80153" lon="-1.33125">
        <ele>981.21</ele>
        <time>2021-08-05T10:04:55Z</time>
      </trkpt>
      <trkpt lat="42.80163" lon="-1.33085">
        <ele>984.74</ele>
        <time>2021-08-05T10:04:59Z</time>
      </trkpt>
      <trkpt lat="42.80171" lon="-1.33042">
        <ele>988.32</ele>
        <time>2021-08-05T10:05:03Z</time>
      </trkpt>
      <trkpt lat="42.80175" lon="-1.33019">
        <ele>990.09</ele>
        <time>2021-08-05T10:05:05Z</time>
      </trkpt>
      <trkpt lat="42.80175" lon="-1.32949">
        <ele>994.27</ele>
        <time>2021-08-05T10:05:11Z</time>
      </trkpt>
      <trkpt lat="42.80187" lon="-1.32809">
        <ele>997.45</ele>
        <time>2021-08-05T10:05:23Z</time>
      </trkpt>
      <trkpt lat="42.80181" lon="-1.32686">
        <ele>998.64</ele>
        <time>2021-08-05T10:05:34Z</time>
      </trkpt>
      <trkpt lat="42.8018" lon="-1.32673">
        <ele>998.44</ele>
        <time>2021-08-05T10:05:35Z</time>
      </trkpt>
      <trkpt lat="42.80179" lon="-1.32605">
        <ele>996.87</ele>
        <time>2021-08-05T10:05:40Z</time>
      </trkpt>
      <trkpt lat="42.80148" lon="-1.32441">
        <ele>993.71</ele>
        <time>2021-08-05T10:05:52Z</time>
      </trkpt>
      <trkpt lat="42.80134" lon="-1.32354">
        <ele>991.75</ele>
        <time>2021-08-05T10:05:58Z</time>
      </trkpt>
      <trkpt lat="42.80107" lon="-1.32255">
        <ele>990.12</ele>
        <time>2021-08-05T10:06:05Z</time>
      </trkpt>
      <trkpt lat="42.80096" lon="-1.32152">
        <ele>986.47</ele>
        <time>2021-08-05T10:06:14Z</time>
      </trkpt>
      <trkpt lat="42.80084" lon="-1.32084">
        <ele>983.09</ele>
        <time>2021-08-05T10:06:20Z</time>
      </trkpt>
      <trkpt lat="42.80083" lon="-1.32073">
        <ele>982.39</ele>
        <time>2021-08-05T10:06:21Z</time>
      </trkpt>
      <trkpt lat="42.80085" lon="-1.31986">
        <ele>978.57</ele>
        <time>2021-08-05T10:06:30Z</time>
      </trkpt>
      <trkpt lat="42.80096" lon="-1.31914">
        <ele>979.06</ele>
        <time>2021-08-05T10:06:37Z</time>
      </trkpt>
      <trkpt lat="42.8011" lon="-1.31822">
        <ele>982.81</ele>
        <time>2021-08-05T10:06:45Z</time>
      </trkpt>
      <trkpt lat="42.80122" lon="-1.31746">
        <ele>985.94</ele>
        <time>2021-08-05T10:06:52Z</time>
      </trkpt>
      <trkpt lat="42.80125" lon="-1.31709">
        <ele>987.43</ele>
        <time>2021-08-05T10:06:55Z</time>
      </trkpt>
      <trkpt lat="42.80131" lon="-1.31639">
        <ele>990.46</ele>
        <time>2021-08-05T10:07:02Z</time>
      </trkpt>
      <trkpt lat="42.80138" lon="-1.31586">
        <ele>992.02</ele>
        <time>2021-08-05T10:07:08Z</time>
      </trkpt>
      <trkpt lat="42.80162" lon="-1.31473">
        <ele>995.49</ele>
        <time>2021-08-05T10:07:19Z</time>
      </trkpt>
      <trkpt lat="42.80205" lon="-1.31365">
        <ele>996.44</ele>
        <time>2021-08-05T10:07:30Z</time>
      </trkpt>
      <trkpt lat="42.80221" lon="-1.31335">
        <ele>996.14</ele>
        <time>2021-08-05T10:07:33Z</time>
      </trkpt>
      <trkpt lat="42.80312" lon="-1.31237">
        <ele>995.68</ele>
        <time>2021-08-05T10:07:45Z</time>
      </trkpt>
      <trkpt lat="42.80381" lon="-1.31178">
        <ele>996.23</ele>
        <time>2021-08-05T10:07:54Z</time>
      </trkpt>
      <trkpt lat="42.80436" lon="-1.31096">
        <ele>994.8</ele>
        <time>2021-08-05T10:08:02Z</time>
      </trkpt>
      <trkpt lat="42.80476" lon="-1.31052">
        <ele>993.9</ele>
        <time>2021-08-05T10:08:07Z</time>
      </trkpt>
      <trkpt lat="42.80575" lon="-1.31">
        <ele>992.48</ele>
        <time>2021-08-05T10:08:18Z</time>
      </trkpt>
      <trkpt lat="42.8066" lon="-1.30947">
        <ele>992.78</ele>
        <time>2021-08-05T10:08:27Z</time>
      </trkpt>
      <trkpt lat="42.807" lon="-1.309">
        <ele>991.17</ele>
        <time>2021-08-05T10:08:32Z</time>
      </trkpt>
      <trkpt lat="42.80712" lon="-1.30878">
        <ele>990.24</ele>
        <time>2021-08-05T10:08:34Z</time>
      </trkpt>
      <trkpt lat="42.80705" lon="-1.30804">
        <ele>987.74</ele>
        <time>2021-08-05T10:08:40Z</time>
      </trkpt>
      <trkpt lat="42.80678" lon="-1.30753">
        <ele>988.28</ele>
        <time>2021-08-05T10:08:45Z</time>
      </trkpt>
      <trkpt lat="42.80691" lon="-1.30698">
        <ele>992.08</ele>
        <time>2021-08-05T10:08:51Z</time>
      </trkpt>
      <trkpt lat="42.80709" lon="-1.30654">
        <ele>994.41</ele>
        <time>2021-08-05T10:08:55Z</time>
      </trkpt>
      <trkpt lat="42.80726" lon="-1.30571">
        <ele>997.51</ele>
        <time>2021-08-05T10:09:03Z</time>
      </trkpt>
      <trkpt lat="42.80726" lon="-1.30551">
        <ele>998.74</ele>
        <time>2021-08-05T10:09:05Z</time>
      </trkpt>
      <trkpt lat="42.80726" lon="-1.30531">
        <ele>1000.3</ele>
        <time>2021-08-05T10:09:07Z</time>
      </trkpt>
      <trkpt lat="42.80735" lon="-1.30495">
        <ele>1004.89</ele>
        <time>2021-08-05T10:09:12Z</time>
      </trkpt>
      <trkpt lat="42.8074" lon="-1.30491">
        <ele>1006.68</ele>
        <time>2021-08-05T10:09:14Z</time>
      </trkpt>
      <trkpt lat="42.80759" lon="-1.30481">
        <ele>1008.89</ele>
        <time>2021-08-05T10:09:18Z</time>
      </trkpt>
      <trkpt lat="42.80848" lon="-1.30427">
        <ele>1010.04</ele>
        <time>2021-08-05T10:09:27Z</time>
      </trkpt>
      <trkpt lat="42.80866" lon="-1.30412">
        <ele>1009.89</ele>
        <time>2021-08-05T10:09:29Z</time>
      </trkpt>
      <trkpt lat="42.80946" lon="-1.30372">
        <ele>1009.19</ele>
        <time>2021-08-05T10:09:39Z</time>
      </trkpt>
      <trkpt lat="42.80953" lon="-1.30368">
        <ele>1009.45</ele>
        <time>2021-08-05T10:09:40Z</time>
      </trkpt>
      <trkpt lat="42.81023" lon="-1.30292">
        <ele>1011.52</ele>
        <time>2021-08-05T10:09:50Z</time>
      </trkpt>
      <trkpt lat="42.81078" lon="-1.30165">
        <ele>1011.85</ele>
        <time>2021-08-05T10:09:58Z</time>
      </trkpt>
      <trkpt lat="42.8113" lon="-1.30058">
        <ele>1008.76</ele>
        <time>2021-08-05T10:10:05Z</time>
      </trkpt>
      <trkpt lat="42.81136" lon="-1.30045">
        <ele>1008.19</ele>
        <time>2021-08-05T10:10:06Z</time>
      </trkpt>
      <trkpt lat="42.8118" lon="-1.29984">
        <ele>1004.89</ele>
        <time>2021-08-05T10:10:12Z</time>
      </trkpt>
      <trkpt lat="42.81191" lon="-1.29951">
        <ele>1003.7</ele>
        <time>2021-08-05T10:10:16Z</time>
      </trkpt>
      <trkpt lat="42.81208" lon="-1.29833">
        <ele>1001.95</ele>
        <time>2021-08-05T10:10:25Z</time>
      </trkpt>
      <trkpt lat="42.81225" lon="-1.29678">
        <ele>1001.52</ele>
        <time>2021-08-05T10:10:34Z</time>
      </trkpt>
      <trkpt lat="42.81242" lon="-1.29566">
        <ele>1001.76</ele>
        <time>2021-08-05T10:10:41Z</time>
      </trkpt>
      <trkpt lat="42.81251" lon="-1.29535">
        <ele>1002.5</ele>
        <time>2021-08-05T10:10:44Z</time>
      </trkpt>
      <trkpt lat="42.81264" lon="-1.29506">
        <ele>1002.97</ele>
        <time>2021-08-05T10:10:47Z</time>
      </trkpt>
      <trkpt lat="42.81276" lon="-1.29471">
        <ele>1003.67</ele>
        <time>2021-08-05T10:10:50Z</time>
      </trkpt>
      <trkpt lat="42.81335" lon="-1.29404">
        <ele>1005.77</ele>
        <time>2021-08-05T10:10:58Z</time>
      </trkpt>
      <trkpt lat="42.81377" lon="-1.29411">
        <ele>1007.73</ele>
        <time>2021-08-05T10:11:02Z</time>
      </trkpt>
      <trkpt lat="42.8145" lon="-1.29409">
        <ele>1012.75</ele>
        <time>2021-08-05T10:11:08Z</time>
      </trkpt>
      <trkpt lat="42.81459" lon="-1.29405">
        <ele>1014</ele>
        <time>2021-08-05T10:11:09Z</time>
      </trkpt>
      <trkpt lat="42.81492" lon="-1.29373">
        <ele>1018.23</ele>
        <time>2021-08-05T10:11:13Z</time>
      </trkpt>
      <trkpt lat="42.81509" lon="-1.29324">
        <ele>1019.98</ele>
        <time>2021-08-05T10:11:16Z</time>
      </trkpt>
      <trkpt lat="42.81547" lon="-1.29127">
        <ele>1016.63</ele>
        <time>2021-08-05T10:11:26Z</time>
      </trkpt>
      <trkpt lat="42.8155" lon="-1.29056">
        <ele>1013.54</ele>
        <time>2021-08-05T10:11:29Z</time>
      </trkpt>
      <trkpt lat="42.81558" lon="-1.28981">
        <ele>1010.27</ele>
        <time>2021-08-05T10:11:32Z</time>
      </trkpt>
      <trkpt lat="42.81568" lon="-1.28909">
        <ele>1006.62</ele>
        <time>2021-08-05T10:11:35Z</time>
      </trkpt>
      <trkpt lat="42.81579" lon="-1.28843">
        <ele>1002.88</ele>
        <time>2021-08-05T10:11:38Z</time>
      </trkpt>
      <trkpt lat="42.81597" lon="-1.28787">
        <ele>999.27</ele>
        <time>2021-08-05T10:11:41Z</time>
      </trkpt>
      <trkpt lat="42.81608" lon="-1.28761">
        <ele>996.96</ele>
        <time>2021-08-05T10:11:43Z</time>
      </trkpt>
      <trkpt lat="42.8164" lon="-1.28752">
        <ele>992.05</ele>
        <time>2021-08-05T10:11:47Z</time>
      </trkpt>
      <trkpt lat="42.8166" lon="-1.28759">
        <ele>989.81</ele>
        <time>2021-08-05T10:11:49Z</time>
      </trkpt>
      <trkpt lat="42.81695" lon="-1.28756">
        <ele>987.66</ele>
        <time>2021-08-05T10:11:52Z</time>
      </trkpt>
      <trkpt lat="42.81707" lon="-1.2875">
        <ele>986.61</ele>
        <time>2021-08-05T10:11:53Z</time>
      </trkpt>
      <trkpt lat="42.81749" lon="-1.28723">
        <ele>985.27</ele>
        <time>2021-08-05T10:11:59Z</time>
      </trkpt>
      <trkpt lat="42.81758" lon="-1.28717">
        <ele>984.93</ele>
        <time>2021-08-05T10:12:02Z</time>
      </trkpt>
      <trkpt lat="42.8176" lon="-1.2866">
        <ele>984.91</ele>
        <time>2021-08-05T10:12:08Z</time>
      </trkpt>
      <trkpt lat="42.81715" lon="-1.28492">
        <ele>985.97</ele>
        <time>2021-08-05T10:12:17Z</time>
      </trkpt>
      <trkpt lat="42.81714" lon="-1.28401">
        <ele>984.1</ele>
        <time>2021-08-05T10:12:22Z</time>
      </trkpt>
      <trkpt lat="42.81743" lon="-1.28326">
        <ele>981.16</ele>
        <time>2021-08-05T10:12:26Z</time>
      </trkpt>
      <trkpt lat="42.81794" lon="-1.28256">
        <ele>978.29</ele>
        <time>2021-08-05T10:12:30Z</time>
      </trkpt>
      <trkpt lat="42.81849" lon="-1.28208">
        <ele>977.74</ele>
        <time>2021-08-05T10:12:35Z</time>
      </trkpt>
      <trkpt lat="42.81914" lon="-1.2815">
        <ele>980.9</ele>
        <time>2021-08-05T10:12:43Z</time>
      </trkpt>
      <trkpt lat="42.8194" lon="-1.28127">
        <ele>981.82</ele>
        <time>2021-08-05T10:12:48Z</time>
      </trkpt>
      <trkpt lat="42.81959" lon="-1.28085">
        <ele>981.66</ele>
        <time>2021-08-05T10:12:53Z</time>
      </trkpt>
      <trkpt lat="42.81982" lon="-1.28005">
        <ele>980.81</ele>
        <time>2021-08-05T10:12:58Z</time>
      </trkpt>
      <trkpt lat="42.81983" lon="-1.27939">
        <ele>980.04</ele>
        <time>2021-08-05T10:13:02Z</time>
      </trkpt>
      <trkpt lat="42.81976" lon="-1.27886">
        <ele>979.48</ele>
        <time>2021-08-05T10:13:05Z</time>
      </trkpt>
      <trkpt lat="42.81981" lon="-1.27826">
        <ele>978.64</ele>
        <time>2021-08-05T10:13:09Z</time>
      </trkpt>
      <trkpt lat="42.82002" lon="-1.27803">
        <ele>976.5</ele>
        <time>2021-08-05T10:13:13Z</time>
      </trkpt>
      <trkpt lat="42.82053" lon="-1.27824">
        <ele>972.98</ele>
        <time>2021-08-05T10:13:18Z</time>
      </trkpt>
      <trkpt lat="42.82095" lon="-1.27797">
        <ele>969.57</ele>
        <time>2021-08-05T10:13:24Z</time>
      </trkpt>
      <trkpt lat="42.821" lon="-1.27764">
        <ele>967.88</ele>
        <time>2021-08-05T10:13:27Z</time>
      </trkpt>
      <trkpt lat="42.8214" lon="-1.27736">
        <ele>964.47</ele>
        <time>2021-08-05T10:13:33Z</time>
      </trkpt>
      <trkpt lat="42.82188" lon="-1.27732">
        <ele>961.74</ele>
        <time>2021-08-05T10:13:38Z</time>
      </trkpt>
      <trkpt lat="42.82253" lon="-1.27685">
        <ele>958.2</ele>
        <time>2021-08-05T10:13:46Z</time>
      </trkpt>
      <trkpt lat="42.82297" lon="-1.27704">
        <ele>956.2</ele>
        <time>2021-08-05T10:13:51Z</time>
      </trkpt>
      <trkpt lat="42.82347" lon="-1.27761">
        <ele>954.08</ele>
        <time>2021-08-05T10:13:56Z</time>
      </trkpt>
      <trkpt lat="42.82401" lon="-1.27769">
        <ele>950.63</ele>
        <time>2021-08-05T10:14:01Z</time>
      </trkpt>
      <trkpt lat="42.82424" lon="-1.27766">
        <ele>949.36</ele>
        <time>2021-08-05T10:14:03Z</time>
      </trkpt>
      <trkpt lat="42.82471" lon="-1.27779">
        <ele>946.73</ele>
        <time>2021-08-05T10:14:07Z</time>
      </trkpt>
      <trkpt lat="42.82499" lon="-1.27812">
        <ele>943.72</ele>
        <time>2021-08-05T10:14:11Z</time>
      </trkpt>
      <trkpt lat="42.82529" lon="-1.27874">
        <ele>939.14</ele>
        <time>2021-08-05T10:14:17Z</time>
      </trkpt>
      <trkpt lat="42.82553" lon="-1.27907">
        <ele>936.96</ele>
        <time>2021-08-05T10:14:20Z</time>
      </trkpt>
      <trkpt lat="42.82618" lon="-1.27923">
        <ele>932.55</ele>
        <time>2021-08-05T10:14:26Z</time>
      </trkpt>
      <trkpt lat="42.82642" lon="-1.27898">
        <ele>929.9</ele>
        <time>2021-08-05T10:14:29Z</time>
      </trkpt>
      <trkpt lat="42.82677" lon="-1.27894">
        <ele>925.18</ele>
        <time>2021-08-05T10:14:35Z</time>
      </trkpt>
      <trkpt lat="42.82712" lon="-1.27907">
        <ele>922.12</ele>
        <time>2021-08-05T10:14:39Z</time>
      </trkpt>
      <trkpt lat="42.82797" lon="-1.27895">
        <ele>916.76</ele>
        <time>2021-08-05T10:14:46Z</time>
      </trkpt>
      <trkpt lat="42.8281" lon="-1.27894">
        <ele>914.69</ele>
        <time>2021-08-05T10:14:48Z</time>
      </trkpt>
      <trkpt lat="42.82825" lon="-1.27884">
        <ele>911.75</ele>
        <time>2021-08-05T10:14:51Z</time>
      </trkpt>
      <trkpt lat="42.82861" lon="-1.27904">
        <ele>907.94</ele>
        <time>2021-08-05T10:14:56Z</time>
      </trkpt>
      <trkpt lat="42.8286" lon="-1.27997">
        <ele>904.89</ele>
        <time>2021-08-05T10:15:01Z</time>
      </trkpt>
      <trkpt lat="42.82835" lon="-1.28053">
        <ele>901.87</ele>
        <time>2021-08-05T10:15:05Z</time>
      </trkpt>
      <trkpt lat="42.82844" lon="-1.28117">
        <ele>899.09</ele>
        <time>2021-08-05T10:15:10Z</time>
      </trkpt>
      <trkpt lat="42.8288" lon="-1.2817">
        <ele>896.47</ele>
        <time>2021-08-05T10:15:15Z</time>
      </trkpt>
      <trkpt lat="42.82928" lon="-1.28212">
        <ele>892.35</ele>
        <time>2021-08-05T10:15:20Z</time>
      </trkpt>
      <trkpt lat="42.82983" lon="-1.28257">
        <ele>889.02</ele>
        <time>2021-08-05T10:15:24Z</time>
      </trkpt>
      <trkpt lat="42.83023" lon="-1.28288">
        <ele>885.16</ele>
        <time>2021-08-05T10:15:28Z</time>
      </trkpt>
      <trkpt lat="42.83048" lon="-1.28328">
        <ele>880.78</ele>
        <time>2021-08-05T10:15:32Z</time>
      </trkpt>
      <trkpt lat="42.83072" lon="-1.28362">
        <ele>878.16</ele>
        <time>2021-08-05T10:15:35Z</time>
      </trkpt>
      <trkpt lat="42.83104" lon="-1.28371">
        <ele>873.64</ele>
        <time>2021-08-05T10:15:40Z</time>
      </trkpt>
      <trkpt lat="42.83114" lon="-1.28361">
        <ele>871.42</ele>
        <time>2021-08-05T10:15:43Z</time>
      </trkpt>
      <trkpt lat="42.83125" lon="-1.28347">
        <ele>870.39</ele>
        <time>2021-08-05T10:15:45Z</time>
      </trkpt>
      <trkpt lat="42.83169" lon="-1.28308">
        <ele>868.2</ele>
        <time>2021-08-05T10:15:50Z</time>
      </trkpt>
      <trkpt lat="42.83188" lon="-1.28325">
        <ele>865.39</ele>
        <time>2021-08-05T10:15:55Z</time>
      </trkpt>
      <trkpt lat="42.8319" lon="-1.28349">
        <ele>864.02</ele>
        <time>2021-08-05T10:15:57Z</time>
      </trkpt>
      <trkpt lat="42.83199" lon="-1.28396">
        <ele>862.54</ele>
        <time>2021-08-05T10:16:00Z</time>
      </trkpt>
      <trkpt lat="42.83228" lon="-1.2847">
        <ele>859.17</ele>
        <time>2021-08-05T10:16:05Z</time>
      </trkpt>
      <trkpt lat="42.83237" lon="-1.2851">
        <ele>856.75</ele>
        <time>2021-08-05T10:16:08Z</time>
      </trkpt>
      <trkpt lat="42.83206" lon="-1.2857">
        <ele>852.59</ele>
        <time>2021-08-05T10:16:14Z</time>
      </trkpt>
      <trkpt lat="42.83201" lon="-1.2858">
        <ele>852.03</ele>
        <time>2021-08-05T10:16:15Z</time>
      </trkpt>
      <trkpt lat="42.832" lon="-1.28659">
        <ele>847.91</ele>
        <time>2021-08-05T10:16:22Z</time>
      </trkpt>
      <trkpt lat="42.83214" lon="-1.28677">
        <ele>846.75</ele>
        <time>2021-08-05T10:16:24Z</time>
      </trkpt>
      <trkpt lat="42.83263" lon="-1.28747">
        <ele>843.09</ele>
        <time>2021-08-05T10:16:30Z</time>
      </trkpt>
      <trkpt lat="42.83272" lon="-1.28765">
        <ele>841.67</ele>
        <time>2021-08-05T10:16:32Z</time>
      </trkpt>
      <trkpt lat="42.83296" lon="-1.28837">
        <ele>837.73</ele>
        <time>2021-08-05T10:16:39Z</time>
      </trkpt>
      <trkpt lat="42.83309" lon="-1.28868">
        <ele>834.21</ele>
        <time>2021-08-05T10:16:45Z</time>
      </trkpt>
      <trkpt lat="42.83317" lon="-1.28885">
        <ele>832.69</ele>
        <time>2021-08-05T10:16:48Z</time>
      </trkpt>
      <trkpt lat="42.83334" lon="-1.28916">
        <ele>829.27</ele>
        <time>2021-08-05T10:16:53Z</time>
      </trkpt>
      <trkpt lat="42.83356" lon="-1.28954">
        <ele>826.16</ele>
        <time>2021-08-05T10:17:00Z</time>
      </trkpt>
      <trkpt lat="42.83392" lon="-1.28959">
        <ele>823.57</ele>
        <time>2021-08-05T10:17:08Z</time>
      </trkpt>
      <trkpt lat="42.83396" lon="-1.2895">
        <ele>823.44</ele>
        <time>2021-08-05T10:17:09Z</time>
      </trkpt>
      <trkpt lat="42.83422" lon="-1.28845">
        <ele>820.67</ele>
        <time>2021-08-05T10:17:18Z</time>
      </trkpt>
      <trkpt lat="42.83439" lon="-1.28816">
        <ele>819.25</ele>
        <time>2021-08-05T10:17:23Z</time>
      </trkpt>
      <trkpt lat="42.83454" lon="-1.2879">
        <ele>818.58</ele>
        <time>2021-08-05T10:17:28Z</time>
      </trkpt>
      <trkpt lat="42.8348" lon="-1.28779">
        <ele>818.75</ele>
        <time>2021-08-05T10:17:32Z</time>
      </trkpt>
      <trkpt lat="42.835" lon="-1.28751">
        <ele>820.23</ele>
        <time>2021-08-05T10:17:36Z</time>
      </trkpt>
      <trkpt lat="42.83513" lon="-1.28695">
        <ele>823.9</ele>
        <time>2021-08-05T10:17:42Z</time>
      </trkpt>
      <trkpt lat="42.83529" lon="-1.28666">
        <ele>826.12</ele>
        <time>2021-08-05T10:17:45Z</time>
      </trkpt>
      <trkpt lat="42.83557" lon="-1.28617">
        <ele>830.07</ele>
        <time>2021-08-05T10:17:51Z</time>
      </trkpt>
      <trkpt lat="42.8359" lon="-1.28587">
        <ele>832.59</ele>
        <time>2021-08-05T10:17:55Z</time>
      </trkpt>
      <trkpt lat="42.83604" lon="-1.28508">
        <ele>836.68</ele>
        <time>2021-08-05T10:18:01Z</time>
      </trkpt>
      <trkpt lat="42.8361" lon="-1.2847">
        <ele>838.28</ele>
        <time>2021-08-05T10:18:04Z</time>
      </trkpt>
      <trkpt lat="42.83627" lon="-1.28403">
        <ele>840.81</ele>
        <time>2021-08-05T10:18:10Z</time>
      </trkpt>
      <trkpt lat="42.83635" lon="-1.28372">
        <ele>841.9</ele>
        <time>2021-08-05T10:18:13Z</time>
      </trkpt>
      <trkpt lat="42.83689" lon="-1.2833">
        <ele>843.55</ele>
        <time>2021-08-05T10:18:20Z</time>
      </trkpt>
      <trkpt lat="42.83699" lon="-1.28324">
        <ele>843.85</ele>
        <time>2021-08-05T10:18:21Z</time>
      </trkpt>
      <trkpt lat="42.83721" lon="-1.28297">
        <ele>844.94</ele>
        <time>2021-08-05T10:18:24Z</time>
      </trkpt>
      <trkpt lat="42.83751" lon="-1.28278">
        <ele>847.08</ele>
        <time>2021-08-05T10:18:28Z</time>
      </trkpt>
      <trkpt lat="42.83762" lon="-1.28273">
        <ele>848.47</ele>
        <time>2021-08-05T10:18:30Z</time>
      </trkpt>
      <trkpt lat="42.83767" lon="-1.28278">
        <ele>850.53</ele>
        <time>2021-08-05T10:18:40Z</time>
      </trkpt>
      <trkpt lat="42.83769" lon="-1.2828">
        <ele>850.92</ele>
        <time>2021-08-05T10:18:44Z</time>
      </trkpt>
      <trkpt lat="42.83772" lon="-1.28283">
        <ele>851.26</ele>
        <time>2021-08-05T10:18:50Z</time>
      </trkpt>
      <trkpt lat="42.83773" lon="-1.28283">
        <ele>851.61</ele>
        <time>2021-08-05T10:18:56Z</time>
      </trkpt>
      <trkpt lat="42.83782" lon="-1.28285">
        <ele>852.2</ele>
        <time>2021-08-05T10:19:10Z</time>
      </trkpt>
      <trkpt lat="42.83802" lon="-1.28289">
        <ele>854.91</ele>
        <time>2021-08-05T10:19:31Z</time>
      </trkpt>
      <trkpt lat="42.83802" lon="-1.28289">
        <ele>855.18</ele>
        <time>2021-08-05T10:19:33Z</time>
      </trkpt>
      <trkpt lat="42.83802" lon="-1.28296">
        <ele>855.73</ele>
        <time>2021-08-05T10:19:46Z</time>
      </trkpt>
      <trkpt lat="42.83802" lon="-1.28292">
        <ele>855.77</ele>
        <time>2021-08-05T10:20:00Z</time>
      </trkpt>
      <trkpt lat="42.838" lon="-1.28287">
        <ele>856.47</ele>
        <time>2021-08-05T10:20:17Z</time>
      </trkpt>
      <trkpt lat="42.8379" lon="-1.28286">
        <ele>855.94</ele>
        <time>2021-08-05T10:20:34Z</time>
      </trkpt>
      <trkpt lat="42.83773" lon="-1.28282">
        <ele>852.89</ele>
        <time>2021-08-05T10:20:52Z</time>
      </trkpt>
      <trkpt lat="42.83762" lon="-1.28279">
        <ele>851.65</ele>
        <time>2021-08-05T10:21:04Z</time>
      </trkpt>
      <trkpt lat="42.83733" lon="-1.28291">
        <ele>851.03</ele>
        <time>2021-08-05T10:21:10Z</time>
      </trkpt>
      <trkpt lat="42.83724" lon="-1.28296">
        <ele>850.39</ele>
        <time>2021-08-05T10:21:18Z</time>
      </trkpt>
      <trkpt lat="42.83722" lon="-1.28296">
        <ele>851.04</ele>
        <time>2021-08-05T10:21:36Z</time>
      </trkpt>
      <trkpt lat="42.83722" lon="-1.28296">
        <ele>849.99</ele>
        <time>2021-08-05T10:22:08Z</time>
      </trkpt>
      <trkpt lat="42.83726" lon="-1.28295">
        <ele>849.83</ele>
        <time>2021-08-05T10:22:19Z</time>
      </trkpt>
      <trkpt lat="42.83752" lon="-1.28281">
        <ele>849.81</ele>
        <time>2021-08-05T10:22:31Z</time>
      </trkpt>
      <trkpt lat="42.83763" lon="-1.28276">
        <ele>850.3</ele>
        <time>2021-08-05T10:22:43Z</time>
      </trkpt>
      <trkpt lat="42.83763" lon="-1.28276">
        <ele>851.06</ele>
        <time>2021-08-05T10:23:15Z</time>
      </trkpt>
      <trkpt lat="42.83771" lon="-1.28208">
        <ele>850.07</ele>
        <time>2021-08-05T10:32:11Z</time>
      </trkpt>
      <trkpt lat="42.83761" lon="-1.28271">
        <ele>848.25</ele>
        <time>2021-08-05T10:32:25Z</time>
      </trkpt>
      <trkpt lat="42.83773" lon="-1.28262">
        <ele>847.5</ele>
        <time>2021-08-05T10:32:40Z</time>
      </trkpt>
      <trkpt lat="42.83777" lon="-1.28259">
        <ele>846.99</ele>
        <time>2021-08-05T10:33:14Z</time>
      </trkpt>
      <trkpt lat="42.8379" lon="-1.28245">
        <ele>846.78</ele>
        <time>2021-08-05T10:33:27Z</time>
      </trkpt>
      <trkpt lat="42.83825" lon="-1.28237">
        <ele>846.06</ele>
        <time>2021-08-05T10:33:33Z</time>
      </trkpt>
      <trkpt lat="42.83844" lon="-1.28227">
        <ele>845.6</ele>
        <time>2021-08-05T10:33:36Z</time>
      </trkpt>
      <trkpt lat="42.83872" lon="-1.28165">
        <ele>844.36</ele>
        <time>2021-08-05T10:33:42Z</time>
      </trkpt>
      <trkpt lat="42.83887" lon="-1.2811">
        <ele>843.23</ele>
        <time>2021-08-05T10:33:46Z</time>
      </trkpt>
      <trkpt lat="42.83922" lon="-1.28054">
        <ele>841.46</ele>
        <time>2021-08-05T10:33:51Z</time>
      </trkpt>
      <trkpt lat="42.83943" lon="-1.28002">
        <ele>838.71</ele>
        <time>2021-08-05T10:33:56Z</time>
      </trkpt>
      <trkpt lat="42.83955" lon="-1.2795">
        <ele>833.96</ele>
        <time>2021-08-05T10:34:03Z</time>
      </trkpt>
      <trkpt lat="42.83965" lon="-1.27858">
        <ele>829.79</ele>
        <time>2021-08-05T10:34:11Z</time>
      </trkpt>
      <trkpt lat="42.83957" lon="-1.2779">
        <ele>825.95</ele>
        <time>2021-08-05T10:34:18Z</time>
      </trkpt>
      <trkpt lat="42.83956" lon="-1.2778">
        <ele>825.64</ele>
        <time>2021-08-05T10:34:19Z</time>
      </trkpt>
      <trkpt lat="42.83959" lon="-1.27751">
        <ele>823.73</ele>
        <time>2021-08-05T10:34:24Z</time>
      </trkpt>
      <trkpt lat="42.83999" lon="-1.27661">
        <ele>822.61</ele>
        <time>2021-08-05T10:34:32Z</time>
      </trkpt>
      <trkpt lat="42.84019" lon="-1.27579">
        <ele>824.2</ele>
        <time>2021-08-05T10:34:37Z</time>
      </trkpt>
      <trkpt lat="42.84038" lon="-1.27545">
        <ele>825.4</ele>
        <time>2021-08-05T10:34:40Z</time>
      </trkpt>
      <trkpt lat="42.84033" lon="-1.27498">
        <ele>825.98</ele>
        <time>2021-08-05T10:34:44Z</time>
      </trkpt>
      <trkpt lat="42.84027" lon="-1.2744">
        <ele>825.1</ele>
        <time>2021-08-05T10:34:51Z</time>
      </trkpt>
      <trkpt lat="42.84004" lon="-1.27363">
        <ele>824.58</ele>
        <time>2021-08-05T10:34:59Z</time>
      </trkpt>
      <trkpt lat="42.83972" lon="-1.27265">
        <ele>827.79</ele>
        <time>2021-08-05T10:35:06Z</time>
      </trkpt>
      <trkpt lat="42.83953" lon="-1.27201">
        <ele>830.98</ele>
        <time>2021-08-05T10:35:10Z</time>
      </trkpt>
      <trkpt lat="42.83945" lon="-1.27171">
        <ele>832.9</ele>
        <time>2021-08-05T10:35:12Z</time>
      </trkpt>
      <trkpt lat="42.83934" lon="-1.27068">
        <ele>837.19</ele>
        <time>2021-08-05T10:35:18Z</time>
      </trkpt>
      <trkpt lat="42.83921" lon="-1.27008">
        <ele>840.29</ele>
        <time>2021-08-05T10:35:23Z</time>
      </trkpt>
      <trkpt lat="42.83912" lon="-1.26968">
        <ele>840.97</ele>
        <time>2021-08-05T10:35:27Z</time>
      </trkpt>
      <trkpt lat="42.83885" lon="-1.26944">
        <ele>841.65</ele>
        <time>2021-08-05T10:35:32Z</time>
      </trkpt>
      <trkpt lat="42.8386" lon="-1.26933">
        <ele>842.14</ele>
        <time>2021-08-05T10:35:35Z</time>
      </trkpt>
      <trkpt lat="42.8381" lon="-1.26872">
        <ele>844.8</ele>
        <time>2021-08-05T10:35:42Z</time>
      </trkpt>
      <trkpt lat="42.8382" lon="-1.26836">
        <ele>847.74</ele>
        <time>2021-08-05T10:35:48Z</time>
      </trkpt>
      <trkpt lat="42.83828" lon="-1.26842">
        <ele>848.01</ele>
        <time>2021-08-05T10:35:49Z</time>
      </trkpt>
      <trkpt lat="42.83845" lon="-1.26855">
        <ele>848.48</ele>
        <time>2021-08-05T10:35:51Z</time>
      </trkpt>
      <trkpt lat="42.83887" lon="-1.2684">
        <ele>850.02</ele>
        <time>2021-08-05T10:35:56Z</time>
      </trkpt>
      <trkpt lat="42.83893" lon="-1.26781">
        <ele>852.24</ele>
        <time>2021-08-05T10:36:00Z</time>
      </trkpt>
      <trkpt lat="42.83884" lon="-1.26702">
        <ele>856.58</ele>
        <time>2021-08-05T10:36:05Z</time>
      </trkpt>
      <trkpt lat="42.83881" lon="-1.26645">
        <ele>859.92</ele>
        <time>2021-08-05T10:36:08Z</time>
      </trkpt>
      <trkpt lat="42.83882" lon="-1.26584">
        <ele>863.3</ele>
        <time>2021-08-05T10:36:11Z</time>
      </trkpt>
      <trkpt lat="42.83887" lon="-1.26535">
        <ele>866.97</ele>
        <time>2021-08-05T10:36:14Z</time>
      </trkpt>
      <trkpt lat="42.83888" lon="-1.26507">
        <ele>869.56</ele>
        <time>2021-08-05T10:36:16Z</time>
      </trkpt>
      <trkpt lat="42.83872" lon="-1.26446">
        <ele>874.19</ele>
        <time>2021-08-05T10:36:20Z</time>
      </trkpt>
      <trkpt lat="42.83851" lon="-1.26398">
        <ele>877.78</ele>
        <time>2021-08-05T10:36:23Z</time>
      </trkpt>
      <trkpt lat="42.83826" lon="-1.26352">
        <ele>883.44</ele>
        <time>2021-08-05T10:36:26Z</time>
      </trkpt>
      <trkpt lat="42.83798" lon="-1.26313">
        <ele>887.77</ele>
        <time>2021-08-05T10:36:29Z</time>
      </trkpt>
      <trkpt lat="42.83793" lon="-1.26301">
        <ele>889.31</ele>
        <time>2021-08-05T10:36:30Z</time>
      </trkpt>
      <trkpt lat="42.83777" lon="-1.2624">
        <ele>894.34</ele>
        <time>2021-08-05T10:36:34Z</time>
      </trkpt>
      <trkpt lat="42.83767" lon="-1.26191">
        <ele>897.63</ele>
        <time>2021-08-05T10:36:37Z</time>
      </trkpt>
      <trkpt lat="42.83759" lon="-1.26141">
        <ele>901.17</ele>
        <time>2021-08-05T10:36:41Z</time>
      </trkpt>
      <trkpt lat="42.83764" lon="-1.26091">
        <ele>904.35</ele>
        <time>2021-08-05T10:36:48Z</time>
      </trkpt>
      <trkpt lat="42.83773" lon="-1.2607">
        <ele>904.75</ele>
        <time>2021-08-05T10:36:53Z</time>
      </trkpt>
      <trkpt lat="42.83788" lon="-1.25981">
        <ele>905.23</ele>
        <time>2021-08-05T10:37:03Z</time>
      </trkpt>
      <trkpt lat="42.83789" lon="-1.2597">
        <ele>905.47</ele>
        <time>2021-08-05T10:37:04Z</time>
      </trkpt>
      <trkpt lat="42.8379" lon="-1.25888">
        <ele>907.33</ele>
        <time>2021-08-05T10:37:11Z</time>
      </trkpt>
      <trkpt lat="42.83802" lon="-1.25839">
        <ele>907.99</ele>
        <time>2021-08-05T10:37:15Z</time>
      </trkpt>
      <trkpt lat="42.83827" lon="-1.25726">
        <ele>909.34</ele>
        <time>2021-08-05T10:37:23Z</time>
      </trkpt>
      <trkpt lat="42.83868" lon="-1.25666">
        <ele>911.82</ele>
        <time>2021-08-05T10:37:30Z</time>
      </trkpt>
      <trkpt lat="42.83899" lon="-1.25681">
        <ele>913.22</ele>
        <time>2021-08-05T10:37:34Z</time>
      </trkpt>
      <trkpt lat="42.83961" lon="-1.25762">
        <ele>917.15</ele>
        <time>2021-08-05T10:37:42Z</time>
      </trkpt>
      <trkpt lat="42.83998" lon="-1.25814">
        <ele>920.05</ele>
        <time>2021-08-05T10:37:47Z</time>
      </trkpt>
      <trkpt lat="42.84049" lon="-1.25838">
        <ele>923.76</ele>
        <time>2021-08-05T10:37:53Z</time>
      </trkpt>
      <trkpt lat="42.84091" lon="-1.25795">
        <ele>927.2</ele>
        <time>2021-08-05T10:37:59Z</time>
      </trkpt>
      <trkpt lat="42.841" lon="-1.25758">
        <ele>928.71</ele>
        <time>2021-08-05T10:38:02Z</time>
      </trkpt>
      <trkpt lat="42.84104" lon="-1.25734">
        <ele>930.14</ele>
        <time>2021-08-05T10:38:04Z</time>
      </trkpt>
      <trkpt lat="42.84119" lon="-1.25708">
        <ele>932.7</ele>
        <time>2021-08-05T10:38:08Z</time>
      </trkpt>
      <trkpt lat="42.84153" lon="-1.25668">
        <ele>932.91</ele>
        <time>2021-08-05T10:38:14Z</time>
      </trkpt>
      <trkpt lat="42.8416" lon="-1.25651">
        <ele>932.7</ele>
        <time>2021-08-05T10:38:16Z</time>
      </trkpt>
      <trkpt lat="42.84168" lon="-1.25623">
        <ele>932.31</ele>
        <time>2021-08-05T10:38:19Z</time>
      </trkpt>
      <trkpt lat="42.84185" lon="-1.25586">
        <ele>931.99</ele>
        <time>2021-08-05T10:38:23Z</time>
      </trkpt>
      <trkpt lat="42.84227" lon="-1.25515">
        <ele>930.48</ele>
        <time>2021-08-05T10:38:32Z</time>
      </trkpt>
      <trkpt lat="42.84266" lon="-1.25448">
        <ele>928.73</ele>
        <time>2021-08-05T10:38:40Z</time>
      </trkpt>
      <trkpt lat="42.84272" lon="-1.25437">
        <ele>928.45</ele>
        <time>2021-08-05T10:38:41Z</time>
      </trkpt>
      <trkpt lat="42.84358" lon="-1.25354">
        <ele>928.16</ele>
        <time>2021-08-05T10:38:52Z</time>
      </trkpt>
      <trkpt lat="42.84365" lon="-1.25347">
        <ele>928.6</ele>
        <time>2021-08-05T10:38:53Z</time>
      </trkpt>
      <trkpt lat="42.84394" lon="-1.25299">
        <ele>932.13</ele>
        <time>2021-08-05T10:38:58Z</time>
      </trkpt>
      <trkpt lat="42.8443" lon="-1.25252">
        <ele>936.72</ele>
        <time>2021-08-05T10:39:03Z</time>
      </trkpt>
      <trkpt lat="42.84453" lon="-1.25223">
        <ele>938.86</ele>
        <time>2021-08-05T10:39:06Z</time>
      </trkpt>
      <trkpt lat="42.84497" lon="-1.25192">
        <ele>940.66</ele>
        <time>2021-08-05T10:39:11Z</time>
      </trkpt>
      <trkpt lat="42.84518" lon="-1.2518">
        <ele>940.78</ele>
        <time>2021-08-05T10:39:14Z</time>
      </trkpt>
      <trkpt lat="42.84566" lon="-1.25144">
        <ele>939.63</ele>
        <time>2021-08-05T10:39:21Z</time>
      </trkpt>
      <trkpt lat="42.84603" lon="-1.25135">
        <ele>939.46</ele>
        <time>2021-08-05T10:39:26Z</time>
      </trkpt>
      <trkpt lat="42.84649" lon="-1.25139">
        <ele>938.33</ele>
        <time>2021-08-05T10:39:34Z</time>
      </trkpt>
      <trkpt lat="42.8465" lon="-1.25139">
        <ele>935.42</ele>
        <time>2021-08-05T10:39:49Z</time>
      </trkpt>
      <trkpt lat="42.84648" lon="-1.2514">
        <ele>935.5</ele>
        <time>2021-08-05T10:40:10Z</time>
      </trkpt>
      <trkpt lat="42.8465" lon="-1.2514">
        <ele>936.08</ele>
        <time>2021-08-05T10:40:34Z</time>
      </trkpt>
      <trkpt lat="42.84656" lon="-1.25141">
        <ele>935.28</ele>
        <time>2021-08-05T10:40:45Z</time>
      </trkpt>
      <trkpt lat="42.84656" lon="-1.2514">
        <ele>935.35</ele>
        <time>2021-08-05T10:40:47Z</time>
      </trkpt>
      <trkpt lat="42.84664" lon="-1.2512">
        <ele>935.64</ele>
        <time>2021-08-05T10:40:52Z</time>
      </trkpt>
      <trkpt lat="42.84702" lon="-1.25079">
        <ele>933.74</ele>
        <time>2021-08-05T10:40:59Z</time>
      </trkpt>
      <trkpt lat="42.84734" lon="-1.25058">
        <ele>930.38</ele>
        <time>2021-08-05T10:41:03Z</time>
      </trkpt>
      <trkpt lat="42.84759" lon="-1.25023">
        <ele>925.55</ele>
        <time>2021-08-05T10:41:07Z</time>
      </trkpt>
      <trkpt lat="42.84766" lon="-1.25001">
        <ele>923.27</ele>
        <time>2021-08-05T10:41:09Z</time>
      </trkpt>
      <trkpt lat="42.84788" lon="-1.2495">
        <ele>918.16</ele>
        <time>2021-08-05T10:41:14Z</time>
      </trkpt>
      <trkpt lat="42.848" lon="-1.24935">
        <ele>916.32</ele>
        <time>2021-08-05T10:41:16Z</time>
      </trkpt>
      <trkpt lat="42.84843" lon="-1.24912">
        <ele>911.74</ele>
        <time>2021-08-05T10:41:21Z</time>
      </trkpt>
      <trkpt lat="42.84855" lon="-1.24903">
        <ele>909.54</ele>
        <time>2021-08-05T10:41:23Z</time>
      </trkpt>
      <trkpt lat="42.84867" lon="-1.24889">
        <ele>904.49</ele>
        <time>2021-08-05T10:41:26Z</time>
      </trkpt>
      <trkpt lat="42.84875" lon="-1.24868">
        <ele>900.93</ele>
        <time>2021-08-05T10:41:29Z</time>
      </trkpt>
      <trkpt lat="42.84883" lon="-1.24832">
        <ele>896.08</ele>
        <time>2021-08-05T10:41:33Z</time>
      </trkpt>
      <trkpt lat="42.84888" lon="-1.24806">
        <ele>892.21</ele>
        <time>2021-08-05T10:41:36Z</time>
      </trkpt>
      <trkpt lat="42.84892" lon="-1.24773">
        <ele>889</ele>
        <time>2021-08-05T10:41:39Z</time>
      </trkpt>
      <trkpt lat="42.849" lon="-1.24737">
        <ele>885.92</ele>
        <time>2021-08-05T10:41:42Z</time>
      </trkpt>
      <trkpt lat="42.84904" lon="-1.24669">
        <ele>881.92</ele>
        <time>2021-08-05T10:41:48Z</time>
      </trkpt>
      <trkpt lat="42.84917" lon="-1.24557">
        <ele>879.28</ele>
        <time>2021-08-05T10:41:55Z</time>
      </trkpt>
      <trkpt lat="42.8492" lon="-1.24488">
        <ele>876.81</ele>
        <time>2021-08-05T10:41:59Z</time>
      </trkpt>
      <trkpt lat="42.84925" lon="-1.24445">
        <ele>874.61</ele>
        <time>2021-08-05T10:42:02Z</time>
      </trkpt>
      <trkpt lat="42.84916" lon="-1.24386">
        <ele>871.31</ele>
        <time>2021-08-05T10:42:07Z</time>
      </trkpt>
      <trkpt lat="42.84896" lon="-1.24341">
        <ele>868.37</ele>
        <time>2021-08-05T10:42:11Z</time>
      </trkpt>
      <trkpt lat="42.84846" lon="-1.24283">
        <ele>863.91</ele>
        <time>2021-08-05T10:42:17Z</time>
      </trkpt>
      <trkpt lat="42.8481" lon="-1.24243">
        <ele>860.81</ele>
        <time>2021-08-05T10:42:21Z</time>
      </trkpt>
      <trkpt lat="42.84771" lon="-1.24205">
        <ele>856.82</ele>
        <time>2021-08-05T10:42:25Z</time>
      </trkpt>
      <trkpt lat="42.84742" lon="-1.24182">
        <ele>853.61</ele>
        <time>2021-08-05T10:42:28Z</time>
      </trkpt>
      <trkpt lat="42.84725" lon="-1.24167">
        <ele>851.72</ele>
        <time>2021-08-05T10:42:30Z</time>
      </trkpt>
      <trkpt lat="42.84683" lon="-1.24142">
        <ele>846.82</ele>
        <time>2021-08-05T10:42:34Z</time>
      </trkpt>
      <trkpt lat="42.84672" lon="-1.24135">
        <ele>845.74</ele>
        <time>2021-08-05T10:42:35Z</time>
      </trkpt>
      <trkpt lat="42.84639" lon="-1.24095">
        <ele>842.09</ele>
        <time>2021-08-05T10:42:39Z</time>
      </trkpt>
      <trkpt lat="42.84601" lon="-1.24039">
        <ele>839.13</ele>
        <time>2021-08-05T10:42:44Z</time>
      </trkpt>
      <trkpt lat="42.84508" lon="-1.23943">
        <ele>837.59</ele>
        <time>2021-08-05T10:42:55Z</time>
      </trkpt>
      <trkpt lat="42.84473" lon="-1.23905">
        <ele>836.1</ele>
        <time>2021-08-05T10:43:01Z</time>
      </trkpt>
      <trkpt lat="42.8443" lon="-1.23894">
        <ele>835.35</ele>
        <time>2021-08-05T10:43:08Z</time>
      </trkpt>
      <trkpt lat="42.84375" lon="-1.2388">
        <ele>831.52</ele>
        <time>2021-08-05T10:43:17Z</time>
      </trkpt>
      <trkpt lat="42.84355" lon="-1.23878">
        <ele>828.36</ele>
        <time>2021-08-05T10:43:23Z</time>
      </trkpt>
      <trkpt lat="42.84345" lon="-1.2388">
        <ele>826.37</ele>
        <time>2021-08-05T10:43:29Z</time>
      </trkpt>
      <trkpt lat="42.84299" lon="-1.23863">
        <ele>825.43</ele>
        <time>2021-08-05T10:43:41Z</time>
      </trkpt>
      <trkpt lat="42.84284" lon="-1.23856">
        <ele>824.93</ele>
        <time>2021-08-05T10:43:52Z</time>
      </trkpt>
      <trkpt lat="42.84256" lon="-1.2384">
        <ele>824.46</ele>
        <time>2021-08-05T10:44:10Z</time>
      </trkpt>
      <trkpt lat="42.84224" lon="-1.23814">
        <ele>823.33</ele>
        <time>2021-08-05T10:44:23Z</time>
      </trkpt>
      <trkpt lat="42.84222" lon="-1.23813">
        <ele>822.44</ele>
        <time>2021-08-05T10:44:37Z</time>
      </trkpt>
      <trkpt lat="42.84202" lon="-1.23805">
        <ele>821.28</ele>
        <time>2021-08-05T10:45:21Z</time>
      </trkpt>
      <trkpt lat="42.84183" lon="-1.23801">
        <ele>818.98</ele>
        <time>2021-08-05T10:45:30Z</time>
      </trkpt>
      <trkpt lat="42.84151" lon="-1.2379">
        <ele>815.69</ele>
        <time>2021-08-05T10:45:41Z</time>
      </trkpt>
      <trkpt lat="42.84124" lon="-1.23777">
        <ele>812.37</ele>
        <time>2021-08-05T10:45:50Z</time>
      </trkpt>
      <trkpt lat="42.84091" lon="-1.23767">
        <ele>809.25</ele>
        <time>2021-08-05T10:46:00Z</time>
      </trkpt>
      <trkpt lat="42.84069" lon="-1.23763">
        <ele>805.96</ele>
        <time>2021-08-05T10:46:08Z</time>
      </trkpt>
      <trkpt lat="42.84045" lon="-1.23759">
        <ele>802.65</ele>
        <time>2021-08-05T10:46:15Z</time>
      </trkpt>
      <trkpt lat="42.84038" lon="-1.23757">
        <ele>801.67</ele>
        <time>2021-08-05T10:46:17Z</time>
      </trkpt>
      <trkpt lat="42.84037" lon="-1.23725">
        <ele>797.7</ele>
        <time>2021-08-05T10:46:23Z</time>
      </trkpt>
      <trkpt lat="42.84042" lon="-1.23714">
        <ele>796.17</ele>
        <time>2021-08-05T10:46:25Z</time>
      </trkpt>
      <trkpt lat="42.8406" lon="-1.23682">
        <ele>792.1</ele>
        <time>2021-08-05T10:46:31Z</time>
      </trkpt>
      <trkpt lat="42.84065" lon="-1.23674">
        <ele>791.48</ele>
        <time>2021-08-05T10:46:32Z</time>
      </trkpt>
      <trkpt lat="42.8409" lon="-1.23648">
        <ele>789.28</ele>
        <time>2021-08-05T10:46:37Z</time>
      </trkpt>
      <trkpt lat="42.84096" lon="-1.23644">
        <ele>788.35</ele>
        <time>2021-08-05T10:46:39Z</time>
      </trkpt>
      <trkpt lat="42.84128" lon="-1.23614">
        <ele>787.01</ele>
        <time>2021-08-05T10:46:45Z</time>
      </trkpt>
      <trkpt lat="42.84149" lon="-1.23593">
        <ele>787.46</ele>
        <time>2021-08-05T10:46:53Z</time>
      </trkpt>
      <trkpt lat="42.84146" lon="-1.23587">
        <ele>787.36</ele>
        <time>2021-08-05T10:46:55Z</time>
      </trkpt>
      <trkpt lat="42.84131" lon="-1.23582">
        <ele>786.63</ele>
        <time>2021-08-05T10:46:59Z</time>
      </trkpt>
      <trkpt lat="42.84111" lon="-1.2359">
        <ele>785.65</ele>
        <time>2021-08-05T10:47:03Z</time>
      </trkpt>
      <trkpt lat="42.84085" lon="-1.23608">
        <ele>783.27</ele>
        <time>2021-08-05T10:47:08Z</time>
      </trkpt>
      <trkpt lat="42.84058" lon="-1.23616">
        <ele>779.28</ele>
        <time>2021-08-05T10:47:14Z</time>
      </trkpt>
      <trkpt lat="42.84051" lon="-1.23616">
        <ele>778.63</ele>
        <time>2021-08-05T10:47:15Z</time>
      </trkpt>
      <trkpt lat="42.84024" lon="-1.23614">
        <ele>776.29</ele>
        <time>2021-08-05T10:47:19Z</time>
      </trkpt>
      <trkpt lat="42.84005" lon="-1.2362">
        <ele>773.27</ele>
        <time>2021-08-05T10:47:24Z</time>
      </trkpt>
      <trkpt lat="42.83966" lon="-1.23647">
        <ele>769.52</ele>
        <time>2021-08-05T10:47:32Z</time>
      </trkpt>
      <trkpt lat="42.83954" lon="-1.23655">
        <ele>766.14</ele>
        <time>2021-08-05T10:47:37Z</time>
      </trkpt>
      <trkpt lat="42.83942" lon="-1.23664">
        <ele>764.27</ele>
        <time>2021-08-05T10:47:40Z</time>
      </trkpt>
      <trkpt lat="42.83915" lon="-1.23675">
        <ele>760.75</ele>
        <time>2021-08-05T10:47:46Z</time>
      </trkpt>
      <trkpt lat="42.83883" lon="-1.23682">
        <ele>756.96</ele>
        <time>2021-08-05T10:47:53Z</time>
      </trkpt>
      <trkpt lat="42.83872" lon="-1.23684">
        <ele>755.7</ele>
        <time>2021-08-05T10:47:55Z</time>
      </trkpt>
      <trkpt lat="42.83847" lon="-1.23695">
        <ele>751.76</ele>
        <time>2021-08-05T10:48:00Z</time>
      </trkpt>
      <trkpt lat="42.83837" lon="-1.237">
        <ele>748.66</ele>
        <time>2021-08-05T10:48:03Z</time>
      </trkpt>
      <trkpt lat="42.8382" lon="-1.23714">
        <ele>745.17</ele>
        <time>2021-08-05T10:48:08Z</time>
      </trkpt>
      <trkpt lat="42.838" lon="-1.23726">
        <ele>741.42</ele>
        <time>2021-08-05T10:48:14Z</time>
      </trkpt>
      <trkpt lat="42.83788" lon="-1.2373">
        <ele>738.21</ele>
        <time>2021-08-05T10:48:19Z</time>
      </trkpt>
      <trkpt lat="42.83785" lon="-1.23733">
        <ele>723.1</ele>
      </trkpt>
      <trkpt lat="42.83775" lon="-1.23729">
        <ele>721.1</ele>
      </trkpt>
      <trkpt lat="42.83768" lon="-1.2372">
        <ele>719.6</ele>
      </trkpt>
      <trkpt lat="42.83761" lon="-1.23701">
        <ele>717.8</ele>
      </trkpt>
      <trkpt lat="42.83751" lon="-1.23686">
        <ele>715.6</ele>
      </trkpt>
      <trkpt lat="42.83736" lon="-1.23661">
        <ele>712.1</ele>
      </trkpt>
      <trkpt lat="42.83766" lon="-1.23595">
        <ele>707.6</ele>
      </trkpt>
      <trkpt lat="42.83761" lon="-1.23592">
        <ele>706.8</ele>
      </trkpt>
    </trkseg>
  </trk>
  <trk>
    <name><![CDATA[4x4 Jour 7_5]]></name>
    <trkseg>
      <trkpt lat="42.83779" lon="-1.23602">
        <ele>722.46</ele>
        <time>2021-08-05T12:08:12Z</time>
      </trkpt>
      <trkpt lat="42.83785" lon="-1.23601">
        <ele>722.47</ele>
        <time>2021-08-05T12:08:13Z</time>
      </trkpt>
      <trkpt lat="42.83791" lon="-1.236">
        <ele>722.49</ele>
        <time>2021-08-05T12:08:14Z</time>
      </trkpt>
      <trkpt lat="42.83853" lon="-1.23584">
        <ele>722.47</ele>
        <time>2021-08-05T12:08:21Z</time>
      </trkpt>
      <trkpt lat="42.83908" lon="-1.2351">
        <ele>719.52</ele>
        <time>2021-08-05T12:08:30Z</time>
      </trkpt>
      <trkpt lat="42.83918" lon="-1.23479">
        <ele>718.27</ele>
        <time>2021-08-05T12:08:33Z</time>
      </trkpt>
      <trkpt lat="42.83923" lon="-1.23435">
        <ele>716.67</ele>
        <time>2021-08-05T12:08:37Z</time>
      </trkpt>
      <trkpt lat="42.83924" lon="-1.2341">
        <ele>715.66</ele>
        <time>2021-08-05T12:08:39Z</time>
      </trkpt>
      <trkpt lat="42.83937" lon="-1.23358">
        <ele>713.89</ele>
        <time>2021-08-05T12:08:43Z</time>
      </trkpt>
      <trkpt lat="42.83955" lon="-1.23317">
        <ele>712.09</ele>
        <time>2021-08-05T12:08:47Z</time>
      </trkpt>
      <trkpt lat="42.83984" lon="-1.23302">
        <ele>709.32</ele>
        <time>2021-08-05T12:08:53Z</time>
      </trkpt>
      <trkpt lat="42.84049" lon="-1.23319">
        <ele>708.94</ele>
        <time>2021-08-05T12:09:00Z</time>
      </trkpt>
      <trkpt lat="42.84118" lon="-1.23314">
        <ele>711.91</ele>
        <time>2021-08-05T12:09:07Z</time>
      </trkpt>
      <trkpt lat="42.84174" lon="-1.23338">
        <ele>715.86</ele>
        <time>2021-08-05T12:09:14Z</time>
      </trkpt>
      <trkpt lat="42.84224" lon="-1.23353">
        <ele>717.46</ele>
        <time>2021-08-05T12:09:19Z</time>
      </trkpt>
      <trkpt lat="42.84262" lon="-1.23331">
        <ele>719</ele>
        <time>2021-08-05T12:09:24Z</time>
      </trkpt>
      <trkpt lat="42.84317" lon="-1.23298">
        <ele>720.77</ele>
        <time>2021-08-05T12:09:30Z</time>
      </trkpt>
      <trkpt lat="42.84357" lon="-1.23298">
        <ele>722.1</ele>
        <time>2021-08-05T12:09:34Z</time>
      </trkpt>
      <trkpt lat="42.84394" lon="-1.23316">
        <ele>723.71</ele>
        <time>2021-08-05T12:09:38Z</time>
      </trkpt>
      <trkpt lat="42.84429" lon="-1.23349">
        <ele>725.47</ele>
        <time>2021-08-05T12:09:42Z</time>
      </trkpt>
      <trkpt lat="42.84464" lon="-1.23393">
        <ele>727.97</ele>
        <time>2021-08-05T12:09:47Z</time>
      </trkpt>
      <trkpt lat="42.84489" lon="-1.2339">
        <ele>729.8</ele>
        <time>2021-08-05T12:09:50Z</time>
      </trkpt>
      <trkpt lat="42.84533" lon="-1.23401">
        <ele>732.56</ele>
        <time>2021-08-05T12:09:56Z</time>
      </trkpt>
      <trkpt lat="42.84548" lon="-1.23418">
        <ele>733.45</ele>
        <time>2021-08-05T12:09:58Z</time>
      </trkpt>
      <trkpt lat="42.84593" lon="-1.23473">
        <ele>737.06</ele>
        <time>2021-08-05T12:10:04Z</time>
      </trkpt>
      <trkpt lat="42.84615" lon="-1.23516">
        <ele>739.88</ele>
        <time>2021-08-05T12:10:08Z</time>
      </trkpt>
      <trkpt lat="42.84645" lon="-1.23564">
        <ele>743.82</ele>
        <time>2021-08-05T12:10:13Z</time>
      </trkpt>
      <trkpt lat="42.84651" lon="-1.23572">
        <ele>744.63</ele>
        <time>2021-08-05T12:10:14Z</time>
      </trkpt>
      <trkpt lat="42.84689" lon="-1.23588">
        <ele>748.82</ele>
        <time>2021-08-05T12:10:19Z</time>
      </trkpt>
      <trkpt lat="42.84708" lon="-1.2359">
        <ele>750.53</ele>
        <time>2021-08-05T12:10:21Z</time>
      </trkpt>
      <trkpt lat="42.84735" lon="-1.23602">
        <ele>753.01</ele>
        <time>2021-08-05T12:10:24Z</time>
      </trkpt>
      <trkpt lat="42.84774" lon="-1.23649">
        <ele>757.56</ele>
        <time>2021-08-05T12:10:29Z</time>
      </trkpt>
      <trkpt lat="42.84779" lon="-1.23661">
        <ele>758.52</ele>
        <time>2021-08-05T12:10:30Z</time>
      </trkpt>
      <trkpt lat="42.84809" lon="-1.23724">
        <ele>762.95</ele>
        <time>2021-08-05T12:10:35Z</time>
      </trkpt>
      <trkpt lat="42.84833" lon="-1.23774">
        <ele>766.78</ele>
        <time>2021-08-05T12:10:39Z</time>
      </trkpt>
      <trkpt lat="42.8487" lon="-1.23841">
        <ele>770.47</ele>
        <time>2021-08-05T12:10:44Z</time>
      </trkpt>
      <trkpt lat="42.84884" lon="-1.23865">
        <ele>771.55</ele>
        <time>2021-08-05T12:10:46Z</time>
      </trkpt>
      <trkpt lat="42.84916" lon="-1.23974">
        <ele>775.48</ele>
        <time>2021-08-05T12:10:54Z</time>
      </trkpt>
      <trkpt lat="42.84927" lon="-1.24">
        <ele>776.59</ele>
        <time>2021-08-05T12:10:56Z</time>
      </trkpt>
      <trkpt lat="42.84963" lon="-1.24042">
        <ele>778.39</ele>
        <time>2021-08-05T12:11:00Z</time>
      </trkpt>
      <trkpt lat="42.84992" lon="-1.24072">
        <ele>779.34</ele>
        <time>2021-08-05T12:11:03Z</time>
      </trkpt>
      <trkpt lat="42.85046" lon="-1.24167">
        <ele>782.73</ele>
        <time>2021-08-05T12:11:11Z</time>
      </trkpt>
      <trkpt lat="42.85101" lon="-1.2418">
        <ele>786.7</ele>
        <time>2021-08-05T12:11:17Z</time>
      </trkpt>
      <trkpt lat="42.8519" lon="-1.24185">
        <ele>790.45</ele>
        <time>2021-08-05T12:11:26Z</time>
      </trkpt>
      <trkpt lat="42.85217" lon="-1.24185">
        <ele>792</ele>
        <time>2021-08-05T12:11:29Z</time>
      </trkpt>
      <trkpt lat="42.85236" lon="-1.24179">
        <ele>793.8</ele>
        <time>2021-08-05T12:11:32Z</time>
      </trkpt>
      <trkpt lat="42.85265" lon="-1.24213">
        <ele>797.93</ele>
        <time>2021-08-05T12:11:39Z</time>
      </trkpt>
      <trkpt lat="42.853" lon="-1.2428">
        <ele>802.16</ele>
        <time>2021-08-05T12:11:45Z</time>
      </trkpt>
      <trkpt lat="42.85324" lon="-1.24336">
        <ele>805.64</ele>
        <time>2021-08-05T12:11:49Z</time>
      </trkpt>
      <trkpt lat="42.8533" lon="-1.24405">
        <ele>809.41</ele>
        <time>2021-08-05T12:11:53Z</time>
      </trkpt>
      <trkpt lat="42.85348" lon="-1.24487">
        <ele>814.7</ele>
        <time>2021-08-05T12:11:59Z</time>
      </trkpt>
      <trkpt lat="42.85382" lon="-1.24552">
        <ele>819.17</ele>
        <time>2021-08-05T12:12:04Z</time>
      </trkpt>
      <trkpt lat="42.854" lon="-1.24567">
        <ele>823.76</ele>
        <time>2021-08-05T12:12:09Z</time>
      </trkpt>
      <trkpt lat="42.85392" lon="-1.2453">
        <ele>827.16</ele>
        <time>2021-08-05T12:12:14Z</time>
      </trkpt>
      <trkpt lat="42.85386" lon="-1.2452">
        <ele>827.66</ele>
        <time>2021-08-05T12:12:15Z</time>
      </trkpt>
      <trkpt lat="42.85369" lon="-1.24464">
        <ele>829.68</ele>
        <time>2021-08-05T12:12:19Z</time>
      </trkpt>
      <trkpt lat="42.85369" lon="-1.24397">
        <ele>832.21</ele>
        <time>2021-08-05T12:12:23Z</time>
      </trkpt>
      <trkpt lat="42.8537" lon="-1.24368">
        <ele>833.35</ele>
        <time>2021-08-05T12:12:25Z</time>
      </trkpt>
      <trkpt lat="42.85369" lon="-1.24345">
        <ele>834.56</ele>
        <time>2021-08-05T12:12:28Z</time>
      </trkpt>
      <trkpt lat="42.85382" lon="-1.24376">
        <ele>837.23</ele>
        <time>2021-08-05T12:12:35Z</time>
      </trkpt>
      <trkpt lat="42.85382" lon="-1.24385">
        <ele>837.57</ele>
        <time>2021-08-05T12:12:36Z</time>
      </trkpt>
      <trkpt lat="42.85385" lon="-1.24415">
        <ele>838.83</ele>
        <time>2021-08-05T12:12:39Z</time>
      </trkpt>
      <trkpt lat="42.85419" lon="-1.24497">
        <ele>842.58</ele>
        <time>2021-08-05T12:12:45Z</time>
      </trkpt>
      <trkpt lat="42.85463" lon="-1.24522">
        <ele>846.45</ele>
        <time>2021-08-05T12:12:50Z</time>
      </trkpt>
      <trkpt lat="42.85484" lon="-1.24521">
        <ele>848.06</ele>
        <time>2021-08-05T12:12:52Z</time>
      </trkpt>
      <trkpt lat="42.85511" lon="-1.24551">
        <ele>852.07</ele>
        <time>2021-08-05T12:12:57Z</time>
      </trkpt>
      <trkpt lat="42.85512" lon="-1.24619">
        <ele>855.53</ele>
        <time>2021-08-05T12:13:02Z</time>
      </trkpt>
      <trkpt lat="42.85529" lon="-1.24648">
        <ele>857.71</ele>
        <time>2021-08-05T12:13:05Z</time>
      </trkpt>
      <trkpt lat="42.8556" lon="-1.24686">
        <ele>861.97</ele>
        <time>2021-08-05T12:13:09Z</time>
      </trkpt>
      <trkpt lat="42.85595" lon="-1.24717">
        <ele>865.81</ele>
        <time>2021-08-05T12:13:13Z</time>
      </trkpt>
      <trkpt lat="42.8562" lon="-1.24731">
        <ele>868.94</ele>
        <time>2021-08-05T12:13:16Z</time>
      </trkpt>
      <trkpt lat="42.85639" lon="-1.24739">
        <ele>872.08</ele>
        <time>2021-08-05T12:13:19Z</time>
      </trkpt>
      <trkpt lat="42.85663" lon="-1.24748">
        <ele>875.11</ele>
        <time>2021-08-05T12:13:23Z</time>
      </trkpt>
      <trkpt lat="42.85704" lon="-1.24759">
        <ele>878.46</ele>
        <time>2021-08-05T12:13:31Z</time>
      </trkpt>
      <trkpt lat="42.8575" lon="-1.24767">
        <ele>881.57</ele>
        <time>2021-08-05T12:13:39Z</time>
      </trkpt>
      <trkpt lat="42.85774" lon="-1.24776">
        <ele>882.97</ele>
        <time>2021-08-05T12:13:42Z</time>
      </trkpt>
      <trkpt lat="42.85776" lon="-1.24801">
        <ele>886.34</ele>
        <time>2021-08-05T12:13:48Z</time>
      </trkpt>
      <trkpt lat="42.8577" lon="-1.24804">
        <ele>886.7</ele>
        <time>2021-08-05T12:13:49Z</time>
      </trkpt>
      <trkpt lat="42.85753" lon="-1.24812">
        <ele>887.47</ele>
        <time>2021-08-05T12:13:51Z</time>
      </trkpt>
      <trkpt lat="42.85715" lon="-1.24844">
        <ele>890.12</ele>
        <time>2021-08-05T12:13:57Z</time>
      </trkpt>
      <trkpt lat="42.85704" lon="-1.24893">
        <ele>893.06</ele>
        <time>2021-08-05T12:14:03Z</time>
      </trkpt>
      <trkpt lat="42.85712" lon="-1.24986">
        <ele>896.91</ele>
        <time>2021-08-05T12:14:11Z</time>
      </trkpt>
      <trkpt lat="42.85731" lon="-1.25053">
        <ele>900.69</ele>
        <time>2021-08-05T12:14:17Z</time>
      </trkpt>
      <trkpt lat="42.85745" lon="-1.25098">
        <ele>903.69</ele>
        <time>2021-08-05T12:14:21Z</time>
      </trkpt>
      <trkpt lat="42.85757" lon="-1.2514">
        <ele>906.74</ele>
        <time>2021-08-05T12:14:25Z</time>
      </trkpt>
      <trkpt lat="42.85773" lon="-1.25178">
        <ele>910.15</ele>
        <time>2021-08-05T12:14:29Z</time>
      </trkpt>
      <trkpt lat="42.85787" lon="-1.2522">
        <ele>913.64</ele>
        <time>2021-08-05T12:14:33Z</time>
      </trkpt>
      <trkpt lat="42.85799" lon="-1.25253">
        <ele>916.23</ele>
        <time>2021-08-05T12:14:36Z</time>
      </trkpt>
      <trkpt lat="42.85824" lon="-1.2528">
        <ele>919.18</ele>
        <time>2021-08-05T12:14:40Z</time>
      </trkpt>
      <trkpt lat="42.85847" lon="-1.25319">
        <ele>922.56</ele>
        <time>2021-08-05T12:14:45Z</time>
      </trkpt>
      <trkpt lat="42.85867" lon="-1.25363">
        <ele>926.38</ele>
        <time>2021-08-05T12:14:50Z</time>
      </trkpt>
      <trkpt lat="42.85889" lon="-1.25409">
        <ele>929.66</ele>
        <time>2021-08-05T12:14:55Z</time>
      </trkpt>
      <trkpt lat="42.85897" lon="-1.25426">
        <ele>931.63</ele>
        <time>2021-08-05T12:14:59Z</time>
      </trkpt>
      <trkpt lat="42.85906" lon="-1.25494">
        <ele>934.92</ele>
        <time>2021-08-05T12:15:07Z</time>
      </trkpt>
      <trkpt lat="42.85934" lon="-1.25539">
        <ele>938.79</ele>
        <time>2021-08-05T12:15:14Z</time>
      </trkpt>
      <trkpt lat="42.85963" lon="-1.25549">
        <ele>941.27</ele>
        <time>2021-08-05T12:15:18Z</time>
      </trkpt>
      <trkpt lat="42.86003" lon="-1.2555">
        <ele>944.61</ele>
        <time>2021-08-05T12:15:24Z</time>
      </trkpt>
      <trkpt lat="42.85999" lon="-1.25583">
        <ele>946.84</ele>
        <time>2021-08-05T12:15:28Z</time>
      </trkpt>
      <trkpt lat="42.85989" lon="-1.25618">
        <ele>948.95</ele>
        <time>2021-08-05T12:15:32Z</time>
      </trkpt>
      <trkpt lat="42.85992" lon="-1.25654">
        <ele>950.85</ele>
        <time>2021-08-05T12:15:36Z</time>
      </trkpt>
      <trkpt lat="42.86005" lon="-1.25702">
        <ele>953.7</ele>
        <time>2021-08-05T12:15:41Z</time>
      </trkpt>
      <trkpt lat="42.86009" lon="-1.25748">
        <ele>956.46</ele>
        <time>2021-08-05T12:15:46Z</time>
      </trkpt>
      <trkpt lat="42.86026" lon="-1.25789">
        <ele>958.67</ele>
        <time>2021-08-05T12:15:50Z</time>
      </trkpt>
      <trkpt lat="42.8608" lon="-1.25872">
        <ele>962.22</ele>
        <time>2021-08-05T12:15:59Z</time>
      </trkpt>
      <trkpt lat="42.86095" lon="-1.25888">
        <ele>963.47</ele>
        <time>2021-08-05T12:16:01Z</time>
      </trkpt>
      <trkpt lat="42.86133" lon="-1.25947">
        <ele>967.43</ele>
        <time>2021-08-05T12:16:08Z</time>
      </trkpt>
      <trkpt lat="42.86166" lon="-1.25974">
        <ele>971.1</ele>
        <time>2021-08-05T12:16:13Z</time>
      </trkpt>
      <trkpt lat="42.86204" lon="-1.26006">
        <ele>974.31</ele>
        <time>2021-08-05T12:16:18Z</time>
      </trkpt>
      <trkpt lat="42.86227" lon="-1.26019">
        <ele>976.39</ele>
        <time>2021-08-05T12:16:21Z</time>
      </trkpt>
      <trkpt lat="42.86257" lon="-1.26022">
        <ele>978.82</ele>
        <time>2021-08-05T12:16:25Z</time>
      </trkpt>
      <trkpt lat="42.8632" lon="-1.26044">
        <ele>983.81</ele>
        <time>2021-08-05T12:16:34Z</time>
      </trkpt>
      <trkpt lat="42.86325" lon="-1.26044">
        <ele>984.16</ele>
        <time>2021-08-05T12:16:35Z</time>
      </trkpt>
      <trkpt lat="42.86326" lon="-1.26076">
        <ele>985.42</ele>
        <time>2021-08-05T12:16:42Z</time>
      </trkpt>
      <trkpt lat="42.86313" lon="-1.2609">
        <ele>985.78</ele>
        <time>2021-08-05T12:16:44Z</time>
      </trkpt>
      <trkpt lat="42.863" lon="-1.26102">
        <ele>986.1</ele>
        <time>2021-08-05T12:16:46Z</time>
      </trkpt>
      <trkpt lat="42.86281" lon="-1.26113">
        <ele>986.73</ele>
        <time>2021-08-05T12:16:49Z</time>
      </trkpt>
      <trkpt lat="42.86258" lon="-1.26135">
        <ele>988.05</ele>
        <time>2021-08-05T12:16:53Z</time>
      </trkpt>
      <trkpt lat="42.8623" lon="-1.26187">
        <ele>991.73</ele>
        <time>2021-08-05T12:17:01Z</time>
      </trkpt>
      <trkpt lat="42.86234" lon="-1.26211">
        <ele>993.25</ele>
        <time>2021-08-05T12:17:04Z</time>
      </trkpt>
      <trkpt lat="42.86244" lon="-1.26246">
        <ele>996.95</ele>
        <time>2021-08-05T12:17:11Z</time>
      </trkpt>
      <trkpt lat="42.86247" lon="-1.2625">
        <ele>997.51</ele>
        <time>2021-08-05T12:17:12Z</time>
      </trkpt>
      <trkpt lat="42.86278" lon="-1.26283">
        <ele>1000.94</ele>
        <time>2021-08-05T12:17:19Z</time>
      </trkpt>
      <trkpt lat="42.86273" lon="-1.26308">
        <ele>1004.09</ele>
        <time>2021-08-05T12:17:26Z</time>
      </trkpt>
      <trkpt lat="42.86262" lon="-1.26333">
        <ele>1006.78</ele>
        <time>2021-08-05T12:17:33Z</time>
      </trkpt>
      <trkpt lat="42.86265" lon="-1.26353">
        <ele>1008.47</ele>
        <time>2021-08-05T12:17:37Z</time>
      </trkpt>
      <trkpt lat="42.86244" lon="-1.26373">
        <ele>1010.54</ele>
        <time>2021-08-05T12:17:42Z</time>
      </trkpt>
      <trkpt lat="42.86185" lon="-1.26378">
        <ele>1014.41</ele>
        <time>2021-08-05T12:17:49Z</time>
      </trkpt>
      <trkpt lat="42.86082" lon="-1.26324">
        <ele>1017.55</ele>
        <time>2021-08-05T12:18:01Z</time>
      </trkpt>
      <trkpt lat="42.86075" lon="-1.26343">
        <ele>1014.21</ele>
        <time>2021-08-05T12:18:07Z</time>
      </trkpt>
      <trkpt lat="42.86081" lon="-1.26346">
        <ele>1013.79</ele>
        <time>2021-08-05T12:18:08Z</time>
      </trkpt>
      <trkpt lat="42.86141" lon="-1.26405">
        <ele>1010.07</ele>
        <time>2021-08-05T12:18:18Z</time>
      </trkpt>
      <trkpt lat="42.86184" lon="-1.26449">
        <ele>1006.83</ele>
        <time>2021-08-05T12:18:25Z</time>
      </trkpt>
      <trkpt lat="42.86189" lon="-1.26456">
        <ele>1006.31</ele>
        <time>2021-08-05T12:18:26Z</time>
      </trkpt>
      <trkpt lat="42.8618" lon="-1.26512">
        <ele>1002.29</ele>
        <time>2021-08-05T12:18:32Z</time>
      </trkpt>
      <trkpt lat="42.86165" lon="-1.26542">
        <ele>998.96</ele>
        <time>2021-08-05T12:18:36Z</time>
      </trkpt>
      <trkpt lat="42.86176" lon="-1.2657">
        <ele>996.72</ele>
        <time>2021-08-05T12:18:39Z</time>
      </trkpt>
      <trkpt lat="42.86196" lon="-1.26598">
        <ele>993.74</ele>
        <time>2021-08-05T12:18:43Z</time>
      </trkpt>
      <trkpt lat="42.86179" lon="-1.26633">
        <ele>989.71</ele>
        <time>2021-08-05T12:18:49Z</time>
      </trkpt>
      <trkpt lat="42.8614" lon="-1.26642">
        <ele>986.53</ele>
        <time>2021-08-05T12:18:54Z</time>
      </trkpt>
      <trkpt lat="42.86124" lon="-1.26681">
        <ele>983.19</ele>
        <time>2021-08-05T12:18:59Z</time>
      </trkpt>
      <trkpt lat="42.86125" lon="-1.26691">
        <ele>982.51</ele>
        <time>2021-08-05T12:19:00Z</time>
      </trkpt>
      <trkpt lat="42.86129" lon="-1.26746">
        <ele>978.53</ele>
        <time>2021-08-05T12:19:07Z</time>
      </trkpt>
      <trkpt lat="42.86142" lon="-1.26773">
        <ele>976.13</ele>
        <time>2021-08-05T12:19:11Z</time>
      </trkpt>
      <trkpt lat="42.86151" lon="-1.26784">
        <ele>974.94</ele>
        <time>2021-08-05T12:19:13Z</time>
      </trkpt>
      <trkpt lat="42.86145" lon="-1.26815">
        <ele>972.76</ele>
        <time>2021-08-05T12:19:17Z</time>
      </trkpt>
      <trkpt lat="42.86121" lon="-1.2686">
        <ele>968.71</ele>
        <time>2021-08-05T12:19:23Z</time>
      </trkpt>
      <trkpt lat="42.8611" lon="-1.2688">
        <ele>966.3</ele>
        <time>2021-08-05T12:19:26Z</time>
      </trkpt>
      <trkpt lat="42.8611" lon="-1.26912">
        <ele>962.39</ele>
        <time>2021-08-05T12:19:31Z</time>
      </trkpt>
      <trkpt lat="42.86124" lon="-1.26944">
        <ele>959.35</ele>
        <time>2021-08-05T12:19:35Z</time>
      </trkpt>
      <trkpt lat="42.86153" lon="-1.2699">
        <ele>955.15</ele>
        <time>2021-08-05T12:19:41Z</time>
      </trkpt>
      <trkpt lat="42.86159" lon="-1.26998">
        <ele>954.45</ele>
        <time>2021-08-05T12:19:42Z</time>
      </trkpt>
      <trkpt lat="42.86178" lon="-1.27017">
        <ele>951.64</ele>
        <time>2021-08-05T12:19:45Z</time>
      </trkpt>
      <trkpt lat="42.86224" lon="-1.27049">
        <ele>947.75</ele>
        <time>2021-08-05T12:19:51Z</time>
      </trkpt>
      <trkpt lat="42.8627" lon="-1.27104">
        <ele>944.61</ele>
        <time>2021-08-05T12:19:57Z</time>
      </trkpt>
      <trkpt lat="42.86304" lon="-1.27127">
        <ele>941.77</ele>
        <time>2021-08-05T12:20:01Z</time>
      </trkpt>
      <trkpt lat="42.86351" lon="-1.2714">
        <ele>937.65</ele>
        <time>2021-08-05T12:20:06Z</time>
      </trkpt>
      <trkpt lat="42.8636" lon="-1.2714">
        <ele>936.84</ele>
        <time>2021-08-05T12:20:07Z</time>
      </trkpt>
      <trkpt lat="42.86401" lon="-1.27126">
        <ele>932.82</ele>
        <time>2021-08-05T12:20:12Z</time>
      </trkpt>
      <trkpt lat="42.86413" lon="-1.27114">
        <ele>931.1</ele>
        <time>2021-08-05T12:20:14Z</time>
      </trkpt>
      <trkpt lat="42.86451" lon="-1.27133">
        <ele>925.72</ele>
        <time>2021-08-05T12:20:21Z</time>
      </trkpt>
      <trkpt lat="42.86471" lon="-1.27158">
        <ele>923.76</ele>
        <time>2021-08-05T12:20:24Z</time>
      </trkpt>
      <trkpt lat="42.86517" lon="-1.2721">
        <ele>919.85</ele>
        <time>2021-08-05T12:20:30Z</time>
      </trkpt>
      <trkpt lat="42.86558" lon="-1.27258">
        <ele>916.22</ele>
        <time>2021-08-05T12:20:35Z</time>
      </trkpt>
      <trkpt lat="42.86577" lon="-1.27281">
        <ele>913.93</ele>
        <time>2021-08-05T12:20:38Z</time>
      </trkpt>
      <trkpt lat="42.86608" lon="-1.27286">
        <ele>909.91</ele>
        <time>2021-08-05T12:20:43Z</time>
      </trkpt>
      <trkpt lat="42.86639" lon="-1.27267">
        <ele>906.23</ele>
        <time>2021-08-05T12:20:48Z</time>
      </trkpt>
      <trkpt lat="42.86651" lon="-1.27308">
        <ele>902.11</ele>
        <time>2021-08-05T12:20:54Z</time>
      </trkpt>
      <trkpt lat="42.86647" lon="-1.27321">
        <ele>901.47</ele>
        <time>2021-08-05T12:20:55Z</time>
      </trkpt>
      <trkpt lat="42.86627" lon="-1.27385">
        <ele>897.39</ele>
        <time>2021-08-05T12:21:01Z</time>
      </trkpt>
      <trkpt lat="42.86638" lon="-1.2744">
        <ele>893.22</ele>
        <time>2021-08-05T12:21:07Z</time>
      </trkpt>
      <trkpt lat="42.86685" lon="-1.27473">
        <ele>889.75</ele>
        <time>2021-08-05T12:21:12Z</time>
      </trkpt>
      <trkpt lat="42.86693" lon="-1.27481">
        <ele>888.9</ele>
        <time>2021-08-05T12:21:13Z</time>
      </trkpt>
      <trkpt lat="42.86716" lon="-1.2751">
        <ele>886.35</ele>
        <time>2021-08-05T12:21:16Z</time>
      </trkpt>
      <trkpt lat="42.86733" lon="-1.2754">
        <ele>884.13</ele>
        <time>2021-08-05T12:21:19Z</time>
      </trkpt>
      <trkpt lat="42.8675" lon="-1.2756">
        <ele>881.42</ele>
        <time>2021-08-05T12:21:22Z</time>
      </trkpt>
      <trkpt lat="42.86785" lon="-1.27564">
        <ele>877.39</ele>
        <time>2021-08-05T12:21:26Z</time>
      </trkpt>
      <trkpt lat="42.86817" lon="-1.2757">
        <ele>874.78</ele>
        <time>2021-08-05T12:21:29Z</time>
      </trkpt>
      <trkpt lat="42.86852" lon="-1.27598">
        <ele>870.89</ele>
        <time>2021-08-05T12:21:33Z</time>
      </trkpt>
      <trkpt lat="42.86865" lon="-1.27613">
        <ele>869.01</ele>
        <time>2021-08-05T12:21:35Z</time>
      </trkpt>
      <trkpt lat="42.86904" lon="-1.27625">
        <ele>864.44</ele>
        <time>2021-08-05T12:21:40Z</time>
      </trkpt>
      <trkpt lat="42.8695" lon="-1.27639">
        <ele>858.71</ele>
        <time>2021-08-05T12:21:46Z</time>
      </trkpt>
      <trkpt lat="42.86959" lon="-1.27641">
        <ele>857.86</ele>
        <time>2021-08-05T12:21:47Z</time>
      </trkpt>
      <trkpt lat="42.87002" lon="-1.27653">
        <ele>853.31</ele>
        <time>2021-08-05T12:21:52Z</time>
      </trkpt>
      <trkpt lat="42.87028" lon="-1.27663">
        <ele>850.66</ele>
        <time>2021-08-05T12:21:55Z</time>
      </trkpt>
      <trkpt lat="42.87069" lon="-1.277">
        <ele>846.2</ele>
        <time>2021-08-05T12:22:00Z</time>
      </trkpt>
      <trkpt lat="42.87101" lon="-1.27725">
        <ele>843.13</ele>
        <time>2021-08-05T12:22:04Z</time>
      </trkpt>
      <trkpt lat="42.87132" lon="-1.27747">
        <ele>839.97</ele>
        <time>2021-08-05T12:22:08Z</time>
      </trkpt>
      <trkpt lat="42.87168" lon="-1.27764">
        <ele>835.68</ele>
        <time>2021-08-05T12:22:13Z</time>
      </trkpt>
      <trkpt lat="42.87193" lon="-1.2777">
        <ele>833.31</ele>
        <time>2021-08-05T12:22:16Z</time>
      </trkpt>
      <trkpt lat="42.87225" lon="-1.27794">
        <ele>830.54</ele>
        <time>2021-08-05T12:22:20Z</time>
      </trkpt>
      <trkpt lat="42.87241" lon="-1.27809">
        <ele>829.15</ele>
        <time>2021-08-05T12:22:22Z</time>
      </trkpt>
      <trkpt lat="42.87274" lon="-1.27828">
        <ele>826.41</ele>
        <time>2021-08-05T12:22:26Z</time>
      </trkpt>
      <trkpt lat="42.87315" lon="-1.27886">
        <ele>822.86</ele>
        <time>2021-08-05T12:22:34Z</time>
      </trkpt>
      <trkpt lat="42.87362" lon="-1.27901">
        <ele>820.32</ele>
        <time>2021-08-05T12:22:40Z</time>
      </trkpt>
      <trkpt lat="42.8738" lon="-1.27912">
        <ele>819.66</ele>
        <time>2021-08-05T12:22:42Z</time>
      </trkpt>
      <trkpt lat="42.87422" lon="-1.27918">
        <ele>819.15</ele>
        <time>2021-08-05T12:22:46Z</time>
      </trkpt>
      <trkpt lat="42.87479" lon="-1.27938">
        <ele>818.91</ele>
        <time>2021-08-05T12:22:52Z</time>
      </trkpt>
      <trkpt lat="42.87504" lon="-1.2798">
        <ele>818.36</ele>
        <time>2021-08-05T12:22:56Z</time>
      </trkpt>
      <trkpt lat="42.87517" lon="-1.28001">
        <ele>818.06</ele>
        <time>2021-08-05T12:22:58Z</time>
      </trkpt>
      <trkpt lat="42.87561" lon="-1.28026">
        <ele>814.83</ele>
        <time>2021-08-05T12:23:05Z</time>
      </trkpt>
      <trkpt lat="42.8759" lon="-1.28044">
        <ele>811.79</ele>
        <time>2021-08-05T12:23:10Z</time>
      </trkpt>
      <trkpt lat="42.87598" lon="-1.2806">
        <ele>810.42</ele>
        <time>2021-08-05T12:23:12Z</time>
      </trkpt>
      <trkpt lat="42.87631" lon="-1.28125">
        <ele>806.39</ele>
        <time>2021-08-05T12:23:20Z</time>
      </trkpt>
      <trkpt lat="42.87628" lon="-1.28122">
        <ele>805.09</ele>
        <time>2021-08-05T12:23:28Z</time>
      </trkpt>
      <trkpt lat="42.87643" lon="-1.28136">
        <ele>804.65</ele>
        <time>2021-08-05T12:23:43Z</time>
      </trkpt>
      <trkpt lat="42.87657" lon="-1.28165">
        <ele>806.16</ele>
        <time>2021-08-05T12:23:52Z</time>
      </trkpt>
      <trkpt lat="42.87667" lon="-1.28196">
        <ele>806.33</ele>
        <time>2021-08-05T12:23:56Z</time>
      </trkpt>
      <trkpt lat="42.8768" lon="-1.28224">
        <ele>805.45</ele>
        <time>2021-08-05T12:24:00Z</time>
      </trkpt>
      <trkpt lat="42.8769" lon="-1.28249">
        <ele>804.15</ele>
        <time>2021-08-05T12:24:04Z</time>
      </trkpt>
      <trkpt lat="42.87721" lon="-1.28317">
        <ele>801.25</ele>
        <time>2021-08-05T12:24:12Z</time>
      </trkpt>
      <trkpt lat="42.87779" lon="-1.28357">
        <ele>799.05</ele>
        <time>2021-08-05T12:24:19Z</time>
      </trkpt>
      <trkpt lat="42.87801" lon="-1.28364">
        <ele>798.88</ele>
        <time>2021-08-05T12:24:21Z</time>
      </trkpt>
      <trkpt lat="42.87838" lon="-1.284">
        <ele>798.68</ele>
        <time>2021-08-05T12:24:25Z</time>
      </trkpt>
      <trkpt lat="42.87857" lon="-1.28426">
        <ele>798.55</ele>
        <time>2021-08-05T12:24:27Z</time>
      </trkpt>
      <trkpt lat="42.87884" lon="-1.28497">
        <ele>797.78</ele>
        <time>2021-08-05T12:24:31Z</time>
      </trkpt>
      <trkpt lat="42.8791" lon="-1.28549">
        <ele>796.71</ele>
        <time>2021-08-05T12:24:34Z</time>
      </trkpt>
      <trkpt lat="42.8794" lon="-1.287">
        <ele>793.68</ele>
        <time>2021-08-05T12:24:41Z</time>
      </trkpt>
      <trkpt lat="42.87957" lon="-1.28796">
        <ele>790.25</ele>
        <time>2021-08-05T12:24:45Z</time>
      </trkpt>
      <trkpt lat="42.87977" lon="-1.28882">
        <ele>786.72</ele>
        <time>2021-08-05T12:24:49Z</time>
      </trkpt>
      <trkpt lat="42.87982" lon="-1.28899">
        <ele>785.83</ele>
        <time>2021-08-05T12:24:50Z</time>
      </trkpt>
      <trkpt lat="42.88022" lon="-1.28943">
        <ele>781.93</ele>
        <time>2021-08-05T12:24:54Z</time>
      </trkpt>
      <trkpt lat="42.88142" lon="-1.2906">
        <ele>777.94</ele>
        <time>2021-08-05T12:25:03Z</time>
      </trkpt>
      <trkpt lat="42.88184" lon="-1.29128">
        <ele>775.83</ele>
        <time>2021-08-05T12:25:07Z</time>
      </trkpt>
      <trkpt lat="42.88244" lon="-1.29178">
        <ele>771.92</ele>
        <time>2021-08-05T12:25:12Z</time>
      </trkpt>
      <trkpt lat="42.88266" lon="-1.29201">
        <ele>769.92</ele>
        <time>2021-08-05T12:25:14Z</time>
      </trkpt>
      <trkpt lat="42.8829" lon="-1.29274">
        <ele>765.73</ele>
        <time>2021-08-05T12:25:18Z</time>
      </trkpt>
      <trkpt lat="42.88298" lon="-1.29326">
        <ele>761.63</ele>
        <time>2021-08-05T12:25:21Z</time>
      </trkpt>
      <trkpt lat="42.88329" lon="-1.2937">
        <ele>755.9</ele>
        <time>2021-08-05T12:25:25Z</time>
      </trkpt>
      <trkpt lat="42.88373" lon="-1.29435">
        <ele>749.25</ele>
        <time>2021-08-05T12:25:30Z</time>
      </trkpt>
      <trkpt lat="42.88401" lon="-1.29479">
        <ele>745.41</ele>
        <time>2021-08-05T12:25:33Z</time>
      </trkpt>
      <trkpt lat="42.88426" lon="-1.29498">
        <ele>742.78</ele>
        <time>2021-08-05T12:25:35Z</time>
      </trkpt>
      <trkpt lat="42.88465" lon="-1.29526">
        <ele>739.48</ele>
        <time>2021-08-05T12:25:38Z</time>
      </trkpt>
      <trkpt lat="42.88499" lon="-1.29586">
        <ele>735.98</ele>
        <time>2021-08-05T12:25:42Z</time>
      </trkpt>
      <trkpt lat="42.88513" lon="-1.2962">
        <ele>734.48</ele>
        <time>2021-08-05T12:25:44Z</time>
      </trkpt>
      <trkpt lat="42.88575" lon="-1.29708">
        <ele>730.29</ele>
        <time>2021-08-05T12:25:50Z</time>
      </trkpt>
      <trkpt lat="42.88625" lon="-1.2977">
        <ele>726.93</ele>
        <time>2021-08-05T12:25:54Z</time>
      </trkpt>
      <trkpt lat="42.88655" lon="-1.29827">
        <ele>723.82</ele>
        <time>2021-08-05T12:25:57Z</time>
      </trkpt>
      <trkpt lat="42.88662" lon="-1.29845">
        <ele>722.74</ele>
        <time>2021-08-05T12:25:58Z</time>
      </trkpt>
      <trkpt lat="42.88667" lon="-1.29917">
        <ele>717.52</ele>
        <time>2021-08-05T12:26:02Z</time>
      </trkpt>
      <trkpt lat="42.88683" lon="-1.2998">
        <ele>711.84</ele>
        <time>2021-08-05T12:26:06Z</time>
      </trkpt>
      <trkpt lat="42.88717" lon="-1.30008">
        <ele>707.98</ele>
        <time>2021-08-05T12:26:09Z</time>
      </trkpt>
      <trkpt lat="42.88744" lon="-1.30029">
        <ele>704.18</ele>
        <time>2021-08-05T12:26:12Z</time>
      </trkpt>
      <trkpt lat="42.88744" lon="-1.30058">
        <ele>699.91</ele>
        <time>2021-08-05T12:26:16Z</time>
      </trkpt>
      <trkpt lat="42.88716" lon="-1.30042">
        <ele>696.6</ele>
        <time>2021-08-05T12:26:20Z</time>
      </trkpt>
      <trkpt lat="42.88706" lon="-1.30036">
        <ele>695.26</ele>
        <time>2021-08-05T12:26:21Z</time>
      </trkpt>
      <trkpt lat="42.88676" lon="-1.30002">
        <ele>693.24</ele>
        <time>2021-08-05T12:26:25Z</time>
      </trkpt>
      <trkpt lat="42.88648" lon="-1.30005">
        <ele>690.8</ele>
        <time>2021-08-05T12:26:30Z</time>
      </trkpt>
      <trkpt lat="42.88672" lon="-1.30038">
        <ele>688.9</ele>
        <time>2021-08-05T12:26:34Z</time>
      </trkpt>
      <trkpt lat="42.88735" lon="-1.30098">
        <ele>685.19</ele>
        <time>2021-08-05T12:26:40Z</time>
      </trkpt>
      <trkpt lat="42.88801" lon="-1.3014">
        <ele>680.3</ele>
        <time>2021-08-05T12:26:45Z</time>
      </trkpt>
      <trkpt lat="42.88839" lon="-1.3017">
        <ele>676.7</ele>
        <time>2021-08-05T12:26:48Z</time>
      </trkpt>
      <trkpt lat="42.88873" lon="-1.30201">
        <ele>672.54</ele>
        <time>2021-08-05T12:26:51Z</time>
      </trkpt>
      <trkpt lat="42.88898" lon="-1.30235">
        <ele>668.37</ele>
        <time>2021-08-05T12:26:54Z</time>
      </trkpt>
      <trkpt lat="42.88936" lon="-1.30261">
        <ele>663.02</ele>
        <time>2021-08-05T12:26:58Z</time>
      </trkpt>
      <trkpt lat="42.8897" lon="-1.30245">
        <ele>659.48</ele>
        <time>2021-08-05T12:27:01Z</time>
      </trkpt>
      <trkpt lat="42.8902" lon="-1.30218">
        <ele>655.35</ele>
        <time>2021-08-05T12:27:05Z</time>
      </trkpt>
      <trkpt lat="42.89046" lon="-1.30203">
        <ele>653.37</ele>
        <time>2021-08-05T12:27:07Z</time>
      </trkpt>
      <trkpt lat="42.89098" lon="-1.30194">
        <ele>649.21</ele>
        <time>2021-08-05T12:27:11Z</time>
      </trkpt>
      <trkpt lat="42.89139" lon="-1.30194">
        <ele>645.97</ele>
        <time>2021-08-05T12:27:14Z</time>
      </trkpt>
      <trkpt lat="42.89187" lon="-1.30213">
        <ele>641.72</ele>
        <time>2021-08-05T12:27:18Z</time>
      </trkpt>
      <trkpt lat="42.89226" lon="-1.30228">
        <ele>638.58</ele>
        <time>2021-08-05T12:27:21Z</time>
      </trkpt>
      <trkpt lat="42.89253" lon="-1.30236">
        <ele>636.65</ele>
        <time>2021-08-05T12:27:23Z</time>
      </trkpt>
      <trkpt lat="42.89312" lon="-1.30271">
        <ele>631.79</ele>
        <time>2021-08-05T12:27:28Z</time>
      </trkpt>
      <trkpt lat="42.89332" lon="-1.30283">
        <ele>629.85</ele>
        <time>2021-08-05T12:27:30Z</time>
      </trkpt>
      <trkpt lat="42.89365" lon="-1.30321">
        <ele>627.01</ele>
        <time>2021-08-05T12:27:34Z</time>
      </trkpt>
      <trkpt lat="42.89391" lon="-1.3037">
        <ele>624.48</ele>
        <time>2021-08-05T12:27:38Z</time>
      </trkpt>
      <trkpt lat="42.89404" lon="-1.3039">
        <ele>623.22</ele>
        <time>2021-08-05T12:27:40Z</time>
      </trkpt>
      <trkpt lat="42.89458" lon="-1.30424">
        <ele>619.22</ele>
        <time>2021-08-05T12:27:48Z</time>
      </trkpt>
      <trkpt lat="42.89463" lon="-1.30425">
        <ele>618.9</ele>
        <time>2021-08-05T12:27:49Z</time>
      </trkpt>
      <trkpt lat="42.89468" lon="-1.30422">
        <ele>618.54</ele>
        <time>2021-08-05T12:27:50Z</time>
      </trkpt>
      <trkpt lat="42.89473" lon="-1.30418">
        <ele>618.19</ele>
        <time>2021-08-05T12:27:51Z</time>
      </trkpt>
      <trkpt lat="42.89477" lon="-1.30412">
        <ele>617.89</ele>
        <time>2021-08-05T12:27:52Z</time>
      </trkpt>
      <trkpt lat="42.8948" lon="-1.30407">
        <ele>617.57</ele>
        <time>2021-08-05T12:27:53Z</time>
      </trkpt>
      <trkpt lat="42.89485" lon="-1.30398">
        <ele>616.98</ele>
        <time>2021-08-05T12:27:55Z</time>
      </trkpt>
      <trkpt lat="42.89509" lon="-1.3038">
        <ele>615.83</ele>
        <time>2021-08-05T12:28:01Z</time>
      </trkpt>
      <trkpt lat="42.89524" lon="-1.30372">
        <ele>616.01</ele>
        <time>2021-08-05T12:28:11Z</time>
      </trkpt>
      <trkpt lat="42.8953" lon="-1.30365">
        <ele>616.32</ele>
        <time>2021-08-05T12:28:28Z</time>
      </trkpt>
      <trkpt lat="42.89526" lon="-1.30347">
        <ele>616.59</ele>
        <time>2021-08-05T12:28:32Z</time>
      </trkpt>
      <trkpt lat="42.89519" lon="-1.30328">
        <ele>616.91</ele>
        <time>2021-08-05T12:28:35Z</time>
      </trkpt>
      <trkpt lat="42.89493" lon="-1.30223">
        <ele>617.76</ele>
        <time>2021-08-05T12:28:48Z</time>
      </trkpt>
      <trkpt lat="42.89496" lon="-1.30122">
        <ele>618.46</ele>
        <time>2021-08-05T12:29:00Z</time>
      </trkpt>
      <trkpt lat="42.89524" lon="-1.30013">
        <ele>620.67</ele>
        <time>2021-08-05T12:29:10Z</time>
      </trkpt>
      <trkpt lat="42.89562" lon="-1.29886">
        <ele>623.78</ele>
        <time>2021-08-05T12:29:19Z</time>
      </trkpt>
      <trkpt lat="42.89596" lon="-1.29823">
        <ele>625.43</ele>
        <time>2021-08-05T12:29:23Z</time>
      </trkpt>
      <trkpt lat="42.89698" lon="-1.29707">
        <ele>628.6</ele>
        <time>2021-08-05T12:29:31Z</time>
      </trkpt>
      <trkpt lat="42.89789" lon="-1.2969">
        <ele>631.24</ele>
        <time>2021-08-05T12:29:36Z</time>
      </trkpt>
      <trkpt lat="42.8981" lon="-1.29695">
        <ele>631.24</ele>
        <time>2021-08-05T12:29:37Z</time>
      </trkpt>
      <trkpt lat="42.89851" lon="-1.29705">
        <ele>632.07</ele>
        <time>2021-08-05T12:29:39Z</time>
      </trkpt>
      <trkpt lat="42.89938" lon="-1.29666">
        <ele>633.04</ele>
        <time>2021-08-05T12:29:44Z</time>
      </trkpt>
      <trkpt lat="42.89963" lon="-1.29623">
        <ele>633.07</ele>
        <time>2021-08-05T12:29:46Z</time>
      </trkpt>
      <trkpt lat="42.90074" lon="-1.29512">
        <ele>632.09</ele>
        <time>2021-08-05T12:29:53Z</time>
      </trkpt>
      <trkpt lat="42.90254" lon="-1.2944">
        <ele>633.87</ele>
        <time>2021-08-05T12:30:03Z</time>
      </trkpt>
      <trkpt lat="42.90344" lon="-1.29469">
        <ele>636.45</ele>
        <time>2021-08-05T12:30:09Z</time>
      </trkpt>
      <trkpt lat="42.90366" lon="-1.29502">
        <ele>637.25</ele>
        <time>2021-08-05T12:30:11Z</time>
      </trkpt>
      <trkpt lat="42.90438" lon="-1.29601">
        <ele>639.56</ele>
        <time>2021-08-05T12:30:17Z</time>
      </trkpt>
      <trkpt lat="42.90491" lon="-1.29714">
        <ele>640.92</ele>
        <time>2021-08-05T12:30:23Z</time>
      </trkpt>
      <trkpt lat="42.90577" lon="-1.29772">
        <ele>641.56</ele>
        <time>2021-08-05T12:30:29Z</time>
      </trkpt>
      <trkpt lat="42.9067" lon="-1.29798">
        <ele>641.88</ele>
        <time>2021-08-05T12:30:35Z</time>
      </trkpt>
      <trkpt lat="42.90783" lon="-1.29788">
        <ele>642.09</ele>
        <time>2021-08-05T12:30:42Z</time>
      </trkpt>
      <trkpt lat="42.90909" lon="-1.29745">
        <ele>643.38</ele>
        <time>2021-08-05T12:30:50Z</time>
      </trkpt>
      <trkpt lat="42.91011" lon="-1.29752">
        <ele>645.53</ele>
        <time>2021-08-05T12:30:56Z</time>
      </trkpt>
      <trkpt lat="42.91125" lon="-1.29828">
        <ele>648.21</ele>
        <time>2021-08-05T12:31:03Z</time>
      </trkpt>
      <trkpt lat="42.91208" lon="-1.2982">
        <ele>650.35</ele>
        <time>2021-08-05T12:31:08Z</time>
      </trkpt>
      <trkpt lat="42.91328" lon="-1.29754">
        <ele>654.21</ele>
        <time>2021-08-05T12:31:16Z</time>
      </trkpt>
      <trkpt lat="42.91375" lon="-1.29742">
        <ele>655.4</ele>
        <time>2021-08-05T12:31:19Z</time>
      </trkpt>
      <trkpt lat="42.91509" lon="-1.29641">
        <ele>657.86</ele>
        <time>2021-08-05T12:31:28Z</time>
      </trkpt>
      <trkpt lat="42.91523" lon="-1.29629">
        <ele>658.03</ele>
        <time>2021-08-05T12:31:29Z</time>
      </trkpt>
      <trkpt lat="42.91598" lon="-1.295">
        <ele>659.54</ele>
        <time>2021-08-05T12:31:36Z</time>
      </trkpt>
      <trkpt lat="42.91636" lon="-1.29384">
        <ele>660.39</ele>
        <time>2021-08-05T12:31:43Z</time>
      </trkpt>
      <trkpt lat="42.91641" lon="-1.29371">
        <ele>660.47</ele>
        <time>2021-08-05T12:31:44Z</time>
      </trkpt>
      <trkpt lat="42.91674" lon="-1.29328">
        <ele>661.18</ele>
        <time>2021-08-05T12:31:48Z</time>
      </trkpt>
      <trkpt lat="42.91699" lon="-1.29285">
        <ele>661.63</ele>
        <time>2021-08-05T12:31:51Z</time>
      </trkpt>
      <trkpt lat="42.91718" lon="-1.29238">
        <ele>662.39</ele>
        <time>2021-08-05T12:31:54Z</time>
      </trkpt>
      <trkpt lat="42.91729" lon="-1.29209">
        <ele>662.72</ele>
        <time>2021-08-05T12:31:56Z</time>
      </trkpt>
      <trkpt lat="42.91711" lon="-1.29085">
        <ele>664.14</ele>
        <time>2021-08-05T12:32:03Z</time>
      </trkpt>
      <trkpt lat="42.91697" lon="-1.29006">
        <ele>665.95</ele>
        <time>2021-08-05T12:32:08Z</time>
      </trkpt>
      <trkpt lat="42.91699" lon="-1.28992">
        <ele>666.34</ele>
        <time>2021-08-05T12:32:09Z</time>
      </trkpt>
      <trkpt lat="42.91702" lon="-1.2898">
        <ele>666.76</ele>
        <time>2021-08-05T12:32:10Z</time>
      </trkpt>
      <trkpt lat="42.91706" lon="-1.28969">
        <ele>667.21</ele>
        <time>2021-08-05T12:32:11Z</time>
      </trkpt>
      <trkpt lat="42.91712" lon="-1.28958">
        <ele>667.63</ele>
        <time>2021-08-05T12:32:12Z</time>
      </trkpt>
      <trkpt lat="42.9172" lon="-1.2895">
        <ele>668.08</ele>
        <time>2021-08-05T12:32:13Z</time>
      </trkpt>
      <trkpt lat="42.91733" lon="-1.28948">
        <ele>668.6</ele>
        <time>2021-08-05T12:32:14Z</time>
      </trkpt>
      <trkpt lat="42.91744" lon="-1.28946">
        <ele>669.11</ele>
        <time>2021-08-05T12:32:15Z</time>
      </trkpt>
      <trkpt lat="42.91755" lon="-1.2895">
        <ele>669.63</ele>
        <time>2021-08-05T12:32:16Z</time>
      </trkpt>
      <trkpt lat="42.91764" lon="-1.28955">
        <ele>670.11</ele>
        <time>2021-08-05T12:32:17Z</time>
      </trkpt>
      <trkpt lat="42.91771" lon="-1.28962">
        <ele>670.54</ele>
        <time>2021-08-05T12:32:18Z</time>
      </trkpt>
      <trkpt lat="42.91777" lon="-1.28975">
        <ele>670.98</ele>
        <time>2021-08-05T12:32:19Z</time>
      </trkpt>
      <trkpt lat="42.91782" lon="-1.28988">
        <ele>671.37</ele>
        <time>2021-08-05T12:32:20Z</time>
      </trkpt>
      <trkpt lat="42.91787" lon="-1.29001">
        <ele>671.72</ele>
        <time>2021-08-05T12:32:21Z</time>
      </trkpt>
      <trkpt lat="42.91793" lon="-1.29016">
        <ele>672.12</ele>
        <time>2021-08-05T12:32:22Z</time>
      </trkpt>
      <trkpt lat="42.91815" lon="-1.29051">
        <ele>673.09</ele>
        <time>2021-08-05T12:32:25Z</time>
      </trkpt>
      <trkpt lat="42.91838" lon="-1.29064">
        <ele>674.3</ele>
        <time>2021-08-05T12:32:28Z</time>
      </trkpt>
      <trkpt lat="42.91853" lon="-1.29085">
        <ele>675.86</ele>
        <time>2021-08-05T12:32:31Z</time>
      </trkpt>
      <trkpt lat="42.91899" lon="-1.29082">
        <ele>677.94</ele>
        <time>2021-08-05T12:32:37Z</time>
      </trkpt>
      <trkpt lat="42.91967" lon="-1.29072">
        <ele>681.03</ele>
        <time>2021-08-05T12:32:43Z</time>
      </trkpt>
      <trkpt lat="42.92072" lon="-1.29098">
        <ele>685.35</ele>
        <time>2021-08-05T12:32:49Z</time>
      </trkpt>
      <trkpt lat="42.92148" lon="-1.29126">
        <ele>689.41</ele>
        <time>2021-08-05T12:32:53Z</time>
      </trkpt>
      <trkpt lat="42.92209" lon="-1.29129">
        <ele>691.25</ele>
        <time>2021-08-05T12:32:56Z</time>
      </trkpt>
      <trkpt lat="42.92266" lon="-1.29128">
        <ele>694.77</ele>
        <time>2021-08-05T12:32:59Z</time>
      </trkpt>
      <trkpt lat="42.92298" lon="-1.29135">
        <ele>696.32</ele>
        <time>2021-08-05T12:33:01Z</time>
      </trkpt>
      <trkpt lat="42.92359" lon="-1.29089">
        <ele>699.72</ele>
        <time>2021-08-05T12:33:07Z</time>
      </trkpt>
      <trkpt lat="42.92367" lon="-1.29006">
        <ele>702.05</ele>
        <time>2021-08-05T12:33:11Z</time>
      </trkpt>
      <trkpt lat="42.92375" lon="-1.28987">
        <ele>702.81</ele>
        <time>2021-08-05T12:33:12Z</time>
      </trkpt>
      <trkpt lat="42.92436" lon="-1.28866">
        <ele>707.3</ele>
        <time>2021-08-05T12:33:18Z</time>
      </trkpt>
      <trkpt lat="42.92472" lon="-1.28777">
        <ele>710.76</ele>
        <time>2021-08-05T12:33:22Z</time>
      </trkpt>
      <trkpt lat="42.92555" lon="-1.28736">
        <ele>714.28</ele>
        <time>2021-08-05T12:33:27Z</time>
      </trkpt>
      <trkpt lat="42.92597" lon="-1.28742">
        <ele>715.55</ele>
        <time>2021-08-05T12:33:29Z</time>
      </trkpt>
      <trkpt lat="42.92705" lon="-1.28776">
        <ele>719.8</ele>
        <time>2021-08-05T12:33:34Z</time>
      </trkpt>
      <trkpt lat="42.92787" lon="-1.28811">
        <ele>723.31</ele>
        <time>2021-08-05T12:33:38Z</time>
      </trkpt>
      <trkpt lat="42.92824" lon="-1.28828">
        <ele>725.01</ele>
        <time>2021-08-05T12:33:40Z</time>
      </trkpt>
      <trkpt lat="42.92924" lon="-1.28823">
        <ele>729.18</ele>
        <time>2021-08-05T12:33:45Z</time>
      </trkpt>
      <trkpt lat="42.92981" lon="-1.28817">
        <ele>731.89</ele>
        <time>2021-08-05T12:33:48Z</time>
      </trkpt>
      <trkpt lat="42.93058" lon="-1.28863">
        <ele>736.32</ele>
        <time>2021-08-05T12:33:53Z</time>
      </trkpt>
      <trkpt lat="42.93076" lon="-1.28905">
        <ele>738.14</ele>
        <time>2021-08-05T12:33:55Z</time>
      </trkpt>
      <trkpt lat="42.93116" lon="-1.28988">
        <ele>741.91</ele>
        <time>2021-08-05T12:33:59Z</time>
      </trkpt>
      <trkpt lat="42.9313" lon="-1.29049">
        <ele>744.64</ele>
        <time>2021-08-05T12:34:02Z</time>
      </trkpt>
      <trkpt lat="42.93152" lon="-1.29069">
        <ele>747.66</ele>
        <time>2021-08-05T12:34:07Z</time>
      </trkpt>
      <trkpt lat="42.93163" lon="-1.29042">
        <ele>748.12</ele>
        <time>2021-08-05T12:34:08Z</time>
      </trkpt>
      <trkpt lat="42.93175" lon="-1.29005">
        <ele>749.01</ele>
        <time>2021-08-05T12:34:10Z</time>
      </trkpt>
      <trkpt lat="42.93195" lon="-1.28855">
        <ele>752.72</ele>
        <time>2021-08-05T12:34:16Z</time>
      </trkpt>
      <trkpt lat="42.93198" lon="-1.28828">
        <ele>753.54</ele>
        <time>2021-08-05T12:34:17Z</time>
      </trkpt>
      <trkpt lat="42.93192" lon="-1.28754">
        <ele>755.85</ele>
        <time>2021-08-05T12:34:20Z</time>
      </trkpt>
      <trkpt lat="42.93202" lon="-1.28669">
        <ele>759.18</ele>
        <time>2021-08-05T12:34:24Z</time>
      </trkpt>
      <trkpt lat="42.93293" lon="-1.28645">
        <ele>763.57</ele>
        <time>2021-08-05T12:34:29Z</time>
      </trkpt>
      <trkpt lat="42.93314" lon="-1.28652">
        <ele>763.57</ele>
        <time>2021-08-05T12:34:30Z</time>
      </trkpt>
      <trkpt lat="42.93334" lon="-1.28658">
        <ele>765.21</ele>
        <time>2021-08-05T12:34:31Z</time>
      </trkpt>
      <trkpt lat="42.93386" lon="-1.28679">
        <ele>766.91</ele>
        <time>2021-08-05T12:34:34Z</time>
      </trkpt>
      <trkpt lat="42.93402" lon="-1.28687">
        <ele>768.44</ele>
        <time>2021-08-05T12:34:35Z</time>
      </trkpt>
      <trkpt lat="42.93477" lon="-1.28757">
        <ele>771.92</ele>
        <time>2021-08-05T12:34:40Z</time>
      </trkpt>
      <trkpt lat="42.93539" lon="-1.28819">
        <ele>774.93</ele>
        <time>2021-08-05T12:34:44Z</time>
      </trkpt>
      <trkpt lat="42.93631" lon="-1.28845">
        <ele>779.56</ele>
        <time>2021-08-05T12:34:50Z</time>
      </trkpt>
      <trkpt lat="42.93694" lon="-1.28839">
        <ele>782.97</ele>
        <time>2021-08-05T12:34:55Z</time>
      </trkpt>
      <trkpt lat="42.93705" lon="-1.28826">
        <ele>783.5</ele>
        <time>2021-08-05T12:34:56Z</time>
      </trkpt>
      <trkpt lat="42.9373" lon="-1.288">
        <ele>784.77</ele>
        <time>2021-08-05T12:34:58Z</time>
      </trkpt>
      <trkpt lat="42.93745" lon="-1.28791">
        <ele>785.53</ele>
        <time>2021-08-05T12:34:59Z</time>
      </trkpt>
      <trkpt lat="42.93761" lon="-1.28787">
        <ele>786.34</ele>
        <time>2021-08-05T12:35:00Z</time>
      </trkpt>
      <trkpt lat="42.93776" lon="-1.28787">
        <ele>787.13</ele>
        <time>2021-08-05T12:35:01Z</time>
      </trkpt>
      <trkpt lat="42.93835" lon="-1.28721">
        <ele>791.6</ele>
        <time>2021-08-05T12:35:07Z</time>
      </trkpt>
      <trkpt lat="42.93873" lon="-1.28606">
        <ele>795.68</ele>
        <time>2021-08-05T12:35:12Z</time>
      </trkpt>
      <trkpt lat="42.93899" lon="-1.28503">
        <ele>799.36</ele>
        <time>2021-08-05T12:35:16Z</time>
      </trkpt>
      <trkpt lat="42.93913" lon="-1.28416">
        <ele>802.52</ele>
        <time>2021-08-05T12:35:19Z</time>
      </trkpt>
      <trkpt lat="42.9393" lon="-1.28326">
        <ele>805.65</ele>
        <time>2021-08-05T12:35:22Z</time>
      </trkpt>
      <trkpt lat="42.9394" lon="-1.28236">
        <ele>808.82</ele>
        <time>2021-08-05T12:35:25Z</time>
      </trkpt>
      <trkpt lat="42.93951" lon="-1.28129">
        <ele>812.67</ele>
        <time>2021-08-05T12:35:29Z</time>
      </trkpt>
      <trkpt lat="42.93978" lon="-1.28031">
        <ele>816.25</ele>
        <time>2021-08-05T12:35:33Z</time>
      </trkpt>
      <trkpt lat="42.94006" lon="-1.27966">
        <ele>819.85</ele>
        <time>2021-08-05T12:35:37Z</time>
      </trkpt>
      <trkpt lat="42.94063" lon="-1.27954">
        <ele>823.04</ele>
        <time>2021-08-05T12:35:43Z</time>
      </trkpt>
      <trkpt lat="42.94123" lon="-1.28034">
        <ele>824.52</ele>
        <time>2021-08-05T12:35:49Z</time>
      </trkpt>
      <trkpt lat="42.94126" lon="-1.28071">
        <ele>824.46</ele>
        <time>2021-08-05T12:35:51Z</time>
      </trkpt>
      <trkpt lat="42.94125" lon="-1.28112">
        <ele>823.86</ele>
        <time>2021-08-05T12:35:54Z</time>
      </trkpt>
      <trkpt lat="42.94134" lon="-1.28112">
        <ele>821.78</ele>
        <time>2021-08-05T12:36:00Z</time>
      </trkpt>
      <trkpt lat="42.94137" lon="-1.28023">
        <ele>820.56</ele>
        <time>2021-08-05T12:36:06Z</time>
      </trkpt>
      <trkpt lat="42.94138" lon="-1.28004">
        <ele>820.42</ele>
        <time>2021-08-05T12:36:07Z</time>
      </trkpt>
      <trkpt lat="42.94132" lon="-1.2795">
        <ele>819.82</ele>
        <time>2021-08-05T12:36:10Z</time>
      </trkpt>
      <trkpt lat="42.94141" lon="-1.27885">
        <ele>818.15</ele>
        <time>2021-08-05T12:36:14Z</time>
      </trkpt>
      <trkpt lat="42.94184" lon="-1.27836">
        <ele>814.32</ele>
        <time>2021-08-05T12:36:18Z</time>
      </trkpt>
      <trkpt lat="42.94221" lon="-1.27806">
        <ele>812.19</ele>
        <time>2021-08-05T12:36:21Z</time>
      </trkpt>
      <trkpt lat="42.94247" lon="-1.27755">
        <ele>809.63</ele>
        <time>2021-08-05T12:36:24Z</time>
      </trkpt>
      <trkpt lat="42.94259" lon="-1.2772">
        <ele>808.06</ele>
        <time>2021-08-05T12:36:26Z</time>
      </trkpt>
      <trkpt lat="42.94241" lon="-1.27636">
        <ele>803.9</ele>
        <time>2021-08-05T12:36:31Z</time>
      </trkpt>
      <trkpt lat="42.94231" lon="-1.27621">
        <ele>803.04</ele>
        <time>2021-08-05T12:36:32Z</time>
      </trkpt>
      <trkpt lat="42.94163" lon="-1.27538">
        <ele>798.39</ele>
        <time>2021-08-05T12:36:37Z</time>
      </trkpt>
      <trkpt lat="42.9414" lon="-1.27519">
        <ele>796.28</ele>
        <time>2021-08-05T12:36:39Z</time>
      </trkpt>
      <trkpt lat="42.94136" lon="-1.27486">
        <ele>791.58</ele>
        <time>2021-08-05T12:36:43Z</time>
      </trkpt>
      <trkpt lat="42.94177" lon="-1.27436">
        <ele>787.95</ele>
        <time>2021-08-05T12:36:47Z</time>
      </trkpt>
      <trkpt lat="42.9419" lon="-1.27425">
        <ele>787.17</ele>
        <time>2021-08-05T12:36:48Z</time>
      </trkpt>
      <trkpt lat="42.94256" lon="-1.27341">
        <ele>782.98</ele>
        <time>2021-08-05T12:36:54Z</time>
      </trkpt>
      <trkpt lat="42.94268" lon="-1.2723">
        <ele>778.88</ele>
        <time>2021-08-05T12:36:59Z</time>
      </trkpt>
      <trkpt lat="42.9427" lon="-1.27144">
        <ele>774.96</ele>
        <time>2021-08-05T12:37:03Z</time>
      </trkpt>
      <trkpt lat="42.94278" lon="-1.27101">
        <ele>772.82</ele>
        <time>2021-08-05T12:37:05Z</time>
      </trkpt>
      <trkpt lat="42.94279" lon="-1.27014">
        <ele>768.42</ele>
        <time>2021-08-05T12:37:09Z</time>
      </trkpt>
      <trkpt lat="42.94278" lon="-1.26973">
        <ele>766.29</ele>
        <time>2021-08-05T12:37:11Z</time>
      </trkpt>
      <trkpt lat="42.94303" lon="-1.26912">
        <ele>761.53</ele>
        <time>2021-08-05T12:37:15Z</time>
      </trkpt>
      <trkpt lat="42.94364" lon="-1.26896">
        <ele>757.22</ele>
        <time>2021-08-05T12:37:19Z</time>
      </trkpt>
      <trkpt lat="42.94419" lon="-1.26916">
        <ele>754.09</ele>
        <time>2021-08-05T12:37:22Z</time>
      </trkpt>
      <trkpt lat="42.9446" lon="-1.26915">
        <ele>750.73</ele>
        <time>2021-08-05T12:37:25Z</time>
      </trkpt>
      <trkpt lat="42.94495" lon="-1.26888">
        <ele>746.91</ele>
        <time>2021-08-05T12:37:28Z</time>
      </trkpt>
      <trkpt lat="42.94509" lon="-1.26882">
        <ele>745.75</ele>
        <time>2021-08-05T12:37:29Z</time>
      </trkpt>
      <trkpt lat="42.94581" lon="-1.26816">
        <ele>739.7</ele>
        <time>2021-08-05T12:37:35Z</time>
      </trkpt>
      <trkpt lat="42.94592" lon="-1.26728">
        <ele>736.07</ele>
        <time>2021-08-05T12:37:39Z</time>
      </trkpt>
      <trkpt lat="42.94582" lon="-1.26676">
        <ele>734.2</ele>
        <time>2021-08-05T12:37:41Z</time>
      </trkpt>
      <trkpt lat="42.94566" lon="-1.26579">
        <ele>729.7</ele>
        <time>2021-08-05T12:37:46Z</time>
      </trkpt>
      <trkpt lat="42.94564" lon="-1.26567">
        <ele>728.65</ele>
        <time>2021-08-05T12:37:47Z</time>
      </trkpt>
      <trkpt lat="42.94553" lon="-1.26546">
        <ele>725.25</ele>
        <time>2021-08-05T12:37:50Z</time>
      </trkpt>
      <trkpt lat="42.9455" lon="-1.26544">
        <ele>723.23</ele>
        <time>2021-08-05T12:37:52Z</time>
      </trkpt>
      <trkpt lat="42.94558" lon="-1.26535">
        <ele>719.2</ele>
        <time>2021-08-05T12:37:58Z</time>
      </trkpt>
      <trkpt lat="42.94557" lon="-1.26534">
        <ele>717.43</ele>
        <time>2021-08-05T12:38:24Z</time>
      </trkpt>
      <trkpt lat="42.94561" lon="-1.26537">
        <ele>718.3</ele>
        <time>2021-08-05T12:42:08Z</time>
      </trkpt>
      <trkpt lat="42.94579" lon="-1.26568">
        <ele>719.13</ele>
        <time>2021-08-05T12:42:35Z</time>
      </trkpt>
      <trkpt lat="42.94576" lon="-1.26571">
        <ele>719.12</ele>
        <time>2021-08-05T12:42:37Z</time>
      </trkpt>
      <trkpt lat="42.94574" lon="-1.26581">
        <ele>718.9</ele>
        <time>2021-08-05T12:43:04Z</time>
      </trkpt>
      <trkpt lat="42.94569" lon="-1.26575">
        <ele>719.5</ele>
        <time>2021-08-05T12:43:31Z</time>
      </trkpt>
      <trkpt lat="42.94568" lon="-1.2657">
        <ele>718.75</ele>
        <time>2021-08-05T12:43:57Z</time>
      </trkpt>
      <trkpt lat="42.94551" lon="-1.26557">
        <ele>718.12</ele>
        <time>2021-08-05T12:44:21Z</time>
      </trkpt>
      <trkpt lat="42.94553" lon="-1.26551">
        <ele>718.25</ele>
        <time>2021-08-05T12:44:32Z</time>
      </trkpt>
      <trkpt lat="42.94539" lon="-1.26547">
        <ele>719.05</ele>
        <time>2021-08-05T12:47:38Z</time>
      </trkpt>
      <trkpt lat="42.94558" lon="-1.26556">
        <ele>717.66</ele>
        <time>2021-08-05T12:47:44Z</time>
      </trkpt>
      <trkpt lat="42.94563" lon="-1.26553">
        <ele>717.02</ele>
        <time>2021-08-05T12:47:48Z</time>
      </trkpt>
      <trkpt lat="42.94527" lon="-1.26514">
        <ele>716.69</ele>
        <time>2021-08-05T12:47:52Z</time>
      </trkpt>
      <trkpt lat="42.94462" lon="-1.26425">
        <ele>715.33</ele>
        <time>2021-08-05T12:48:04Z</time>
      </trkpt>
      <trkpt lat="42.9445" lon="-1.26409">
        <ele>714.71</ele>
        <time>2021-08-05T12:48:12Z</time>
      </trkpt>
      <trkpt lat="42.94435" lon="-1.2638">
        <ele>714.75</ele>
        <time>2021-08-05T12:48:25Z</time>
      </trkpt>
      <trkpt lat="42.94411" lon="-1.26354">
        <ele>715.37</ele>
        <time>2021-08-05T12:48:34Z</time>
      </trkpt>
      <trkpt lat="42.94393" lon="-1.26331">
        <ele>715.89</ele>
        <time>2021-08-05T12:48:41Z</time>
      </trkpt>
      <trkpt lat="42.944" lon="-1.26345">
        <ele>716.35</ele>
        <time>2021-08-05T12:48:50Z</time>
      </trkpt>
      <trkpt lat="42.944" lon="-1.26345">
        <ele>716.78</ele>
        <time>2021-08-05T12:49:16Z</time>
      </trkpt>
      <trkpt lat="42.94403" lon="-1.26361">
        <ele>717.29</ele>
        <time>2021-08-05T12:58:20Z</time>
      </trkpt>
      <trkpt lat="42.944" lon="-1.26367">
        <ele>717.29</ele>
        <time>2021-08-05T12:58:21Z</time>
      </trkpt>
      <trkpt lat="42.94395" lon="-1.26361">
        <ele>716.69</ele>
        <time>2021-08-05T12:58:27Z</time>
      </trkpt>
      <trkpt lat="42.94423" lon="-1.26393">
        <ele>715.45</ele>
        <time>2021-08-05T12:58:36Z</time>
      </trkpt>
      <trkpt lat="42.94431" lon="-1.26387">
        <ele>715.14</ele>
        <time>2021-08-05T12:58:47Z</time>
      </trkpt>
      <trkpt lat="42.9443" lon="-1.26382">
        <ele>715.26</ele>
        <time>2021-08-05T12:58:49Z</time>
      </trkpt>
      <trkpt lat="42.94404" lon="-1.2634">
        <ele>716.52</ele>
        <time>2021-08-05T12:58:57Z</time>
      </trkpt>
      <trkpt lat="42.94402" lon="-1.26334">
        <ele>718.82</ele>
        <time>2021-08-05T12:59:06Z</time>
      </trkpt>
      <trkpt lat="42.94399" lon="-1.26327">
        <ele>719.48</ele>
        <time>2021-08-05T12:59:13Z</time>
      </trkpt>
      <trkpt lat="42.94347" lon="-1.2624">
        <ele>722.28</ele>
        <time>2021-08-05T12:59:23Z</time>
      </trkpt>
      <trkpt lat="42.94344" lon="-1.26229">
        <ele>722.75</ele>
        <time>2021-08-05T12:59:24Z</time>
      </trkpt>
      <trkpt lat="42.94339" lon="-1.26205">
        <ele>723.92</ele>
        <time>2021-08-05T12:59:26Z</time>
      </trkpt>
      <trkpt lat="42.94341" lon="-1.2619">
        <ele>724.51</ele>
        <time>2021-08-05T12:59:27Z</time>
      </trkpt>
      <trkpt lat="42.94364" lon="-1.26133">
        <ele>727.23</ele>
        <time>2021-08-05T12:59:31Z</time>
      </trkpt>
      <trkpt lat="42.94404" lon="-1.26041">
        <ele>729.45</ele>
        <time>2021-08-05T12:59:39Z</time>
      </trkpt>
      <trkpt lat="42.94405" lon="-1.2604">
        <ele>728.94</ele>
        <time>2021-08-05T12:59:53Z</time>
      </trkpt>
      <trkpt lat="42.94405" lon="-1.2604">
        <ele>728.95</ele>
        <time>2021-08-05T12:59:54Z</time>
      </trkpt>
      <trkpt lat="42.94414" lon="-1.26068">
        <ele>729.26</ele>
        <time>2021-08-05T13:00:01Z</time>
      </trkpt>
      <trkpt lat="42.94408" lon="-1.26076">
        <ele>729.44</ele>
        <time>2021-08-05T13:00:02Z</time>
      </trkpt>
      <trkpt lat="42.94364" lon="-1.26178">
        <ele>732.89</ele>
        <time>2021-08-05T13:00:11Z</time>
      </trkpt>
      <trkpt lat="42.94362" lon="-1.26188">
        <ele>733.5</ele>
        <time>2021-08-05T13:00:12Z</time>
      </trkpt>
      <trkpt lat="42.94387" lon="-1.2622">
        <ele>736.23</ele>
        <time>2021-08-05T13:00:17Z</time>
      </trkpt>
      <trkpt lat="42.94408" lon="-1.26219">
        <ele>737.38</ele>
        <time>2021-08-05T13:00:19Z</time>
      </trkpt>
      <trkpt lat="42.94473" lon="-1.26218">
        <ele>741.79</ele>
        <time>2021-08-05T13:00:25Z</time>
      </trkpt>
      <trkpt lat="42.94495" lon="-1.26218">
        <ele>743.49</ele>
        <time>2021-08-05T13:00:27Z</time>
      </trkpt>
      <trkpt lat="42.94529" lon="-1.2619">
        <ele>747.73</ele>
        <time>2021-08-05T13:00:32Z</time>
      </trkpt>
      <trkpt lat="42.94551" lon="-1.26182">
        <ele>751.71</ele>
        <time>2021-08-05T13:00:36Z</time>
      </trkpt>
      <trkpt lat="42.94559" lon="-1.26211">
        <ele>753.64</ele>
        <time>2021-08-05T13:00:39Z</time>
      </trkpt>
      <trkpt lat="42.94579" lon="-1.26266">
        <ele>756.83</ele>
        <time>2021-08-05T13:00:44Z</time>
      </trkpt>
      <trkpt lat="42.946" lon="-1.26265">
        <ele>760.17</ele>
        <time>2021-08-05T13:00:50Z</time>
      </trkpt>
      <trkpt lat="42.94584" lon="-1.26196">
        <ele>763.7</ele>
        <time>2021-08-05T13:00:56Z</time>
      </trkpt>
      <trkpt lat="42.94584" lon="-1.26182">
        <ele>764.38</ele>
        <time>2021-08-05T13:00:57Z</time>
      </trkpt>
      <trkpt lat="42.9458" lon="-1.26137">
        <ele>766.52</ele>
        <time>2021-08-05T13:01:00Z</time>
      </trkpt>
      <trkpt lat="42.94542" lon="-1.2609">
        <ele>769.58</ele>
        <time>2021-08-05T13:01:04Z</time>
      </trkpt>
      <trkpt lat="42.94521" lon="-1.26071">
        <ele>771.48</ele>
        <time>2021-08-05T13:01:06Z</time>
      </trkpt>
      <trkpt lat="42.945" lon="-1.26011">
        <ele>776.23</ele>
        <time>2021-08-05T13:01:11Z</time>
      </trkpt>
      <trkpt lat="42.94525" lon="-1.25978">
        <ele>779.92</ele>
        <time>2021-08-05T13:01:15Z</time>
      </trkpt>
      <trkpt lat="42.94565" lon="-1.26">
        <ele>783.36</ele>
        <time>2021-08-05T13:01:19Z</time>
      </trkpt>
      <trkpt lat="42.94587" lon="-1.26042">
        <ele>786.09</ele>
        <time>2021-08-05T13:01:22Z</time>
      </trkpt>
      <trkpt lat="42.94601" lon="-1.26074">
        <ele>787.97</ele>
        <time>2021-08-05T13:01:24Z</time>
      </trkpt>
      <trkpt lat="42.94616" lon="-1.26102">
        <ele>789.94</ele>
        <time>2021-08-05T13:01:26Z</time>
      </trkpt>
      <trkpt lat="42.94639" lon="-1.26167">
        <ele>794.09</ele>
        <time>2021-08-05T13:01:30Z</time>
      </trkpt>
      <trkpt lat="42.94654" lon="-1.26217">
        <ele>797.41</ele>
        <time>2021-08-05T13:01:33Z</time>
      </trkpt>
      <trkpt lat="42.94674" lon="-1.2626">
        <ele>800.53</ele>
        <time>2021-08-05T13:01:36Z</time>
      </trkpt>
      <trkpt lat="42.94723" lon="-1.26297">
        <ele>805.54</ele>
        <time>2021-08-05T13:01:41Z</time>
      </trkpt>
      <trkpt lat="42.94756" lon="-1.26309">
        <ele>808.81</ele>
        <time>2021-08-05T13:01:44Z</time>
      </trkpt>
      <trkpt lat="42.94782" lon="-1.26337">
        <ele>811.99</ele>
        <time>2021-08-05T13:01:47Z</time>
      </trkpt>
      <trkpt lat="42.94799" lon="-1.26356">
        <ele>813.93</ele>
        <time>2021-08-05T13:01:49Z</time>
      </trkpt>
      <trkpt lat="42.94853" lon="-1.26381">
        <ele>818.5</ele>
        <time>2021-08-05T13:01:54Z</time>
      </trkpt>
      <trkpt lat="42.94897" lon="-1.26407">
        <ele>821.65</ele>
        <time>2021-08-05T13:01:58Z</time>
      </trkpt>
      <trkpt lat="42.94964" lon="-1.2644">
        <ele>825.15</ele>
        <time>2021-08-05T13:02:03Z</time>
      </trkpt>
      <trkpt lat="42.95037" lon="-1.26473">
        <ele>828.56</ele>
        <time>2021-08-05T13:02:08Z</time>
      </trkpt>
      <trkpt lat="42.95113" lon="-1.26511">
        <ele>832.32</ele>
        <time>2021-08-05T13:02:13Z</time>
      </trkpt>
      <trkpt lat="42.9516" lon="-1.26538">
        <ele>836.07</ele>
        <time>2021-08-05T13:02:17Z</time>
      </trkpt>
      <trkpt lat="42.9519" lon="-1.2656">
        <ele>839.24</ele>
        <time>2021-08-05T13:02:21Z</time>
      </trkpt>
      <trkpt lat="42.95212" lon="-1.26583">
        <ele>842.19</ele>
        <time>2021-08-05T13:02:25Z</time>
      </trkpt>
      <trkpt lat="42.95232" lon="-1.26613">
        <ele>845.92</ele>
        <time>2021-08-05T13:02:33Z</time>
      </trkpt>
      <trkpt lat="42.95255" lon="-1.26625">
        <ele>847.89</ele>
        <time>2021-08-05T13:02:41Z</time>
      </trkpt>
      <trkpt lat="42.95264" lon="-1.2665">
        <ele>848.36</ele>
        <time>2021-08-05T13:02:45Z</time>
      </trkpt>
      <trkpt lat="42.9527" lon="-1.26667">
        <ele>848.33</ele>
        <time>2021-08-05T13:02:48Z</time>
      </trkpt>
      <trkpt lat="42.95264" lon="-1.26683">
        <ele>848.27</ele>
        <time>2021-08-05T13:02:52Z</time>
      </trkpt>
      <trkpt lat="42.95258" lon="-1.26693">
        <ele>848.51</ele>
        <time>2021-08-05T13:02:56Z</time>
      </trkpt>
      <trkpt lat="42.95279" lon="-1.26692">
        <ele>849.83</ele>
        <time>2021-08-05T13:03:03Z</time>
      </trkpt>
      <trkpt lat="42.95307" lon="-1.26665">
        <ele>851.85</ele>
        <time>2021-08-05T13:03:08Z</time>
      </trkpt>
      <trkpt lat="42.95301" lon="-1.26629">
        <ele>854.76</ele>
        <time>2021-08-05T13:03:14Z</time>
      </trkpt>
      <trkpt lat="42.95291" lon="-1.26611">
        <ele>855.99</ele>
        <time>2021-08-05T13:03:17Z</time>
      </trkpt>
      <trkpt lat="42.95292" lon="-1.26579">
        <ele>858.86</ele>
        <time>2021-08-05T13:03:24Z</time>
      </trkpt>
      <trkpt lat="42.95303" lon="-1.26591">
        <ele>861.12</ele>
        <time>2021-08-05T13:03:29Z</time>
      </trkpt>
      <trkpt lat="42.95309" lon="-1.26596">
        <ele>861.98</ele>
        <time>2021-08-05T13:03:31Z</time>
      </trkpt>
      <trkpt lat="42.95322" lon="-1.26605">
        <ele>863.29</ele>
        <time>2021-08-05T13:03:34Z</time>
      </trkpt>
      <trkpt lat="42.95331" lon="-1.2661">
        <ele>864.19</ele>
        <time>2021-08-05T13:03:36Z</time>
      </trkpt>
      <trkpt lat="42.95334" lon="-1.26614">
        <ele>864.68</ele>
        <time>2021-08-05T13:03:37Z</time>
      </trkpt>
      <trkpt lat="42.95337" lon="-1.26618">
        <ele>865.18</ele>
        <time>2021-08-05T13:03:38Z</time>
      </trkpt>
      <trkpt lat="42.95339" lon="-1.26622">
        <ele>865.67</ele>
        <time>2021-08-05T13:03:39Z</time>
      </trkpt>
      <trkpt lat="42.95341" lon="-1.26627">
        <ele>866.08</ele>
        <time>2021-08-05T13:03:40Z</time>
      </trkpt>
      <trkpt lat="42.95366" lon="-1.26657">
        <ele>868.17</ele>
        <time>2021-08-05T13:03:46Z</time>
      </trkpt>
      <trkpt lat="42.95391" lon="-1.26675">
        <ele>871.17</ele>
        <time>2021-08-05T13:03:55Z</time>
      </trkpt>
      <trkpt lat="42.95378" lon="-1.26693">
        <ele>872.5</ele>
        <time>2021-08-05T13:03:59Z</time>
      </trkpt>
      <trkpt lat="42.95368" lon="-1.26703">
        <ele>873.27</ele>
        <time>2021-08-05T13:04:01Z</time>
      </trkpt>
      <trkpt lat="42.9534" lon="-1.26739">
        <ele>876.96</ele>
        <time>2021-08-05T13:04:08Z</time>
      </trkpt>
      <trkpt lat="42.95335" lon="-1.26743">
        <ele>877.55</ele>
        <time>2021-08-05T13:04:09Z</time>
      </trkpt>
      <trkpt lat="42.95331" lon="-1.26785">
        <ele>881.55</ele>
        <time>2021-08-05T13:04:15Z</time>
      </trkpt>
      <trkpt lat="42.9535" lon="-1.26815">
        <ele>884.23</ele>
        <time>2021-08-05T13:04:19Z</time>
      </trkpt>
      <trkpt lat="42.95376" lon="-1.26843">
        <ele>887.67</ele>
        <time>2021-08-05T13:04:23Z</time>
      </trkpt>
      <trkpt lat="42.95382" lon="-1.26847">
        <ele>888.64</ele>
        <time>2021-08-05T13:04:24Z</time>
      </trkpt>
      <trkpt lat="42.95389" lon="-1.26848">
        <ele>889.63</ele>
        <time>2021-08-05T13:04:25Z</time>
      </trkpt>
      <trkpt lat="42.95395" lon="-1.26845">
        <ele>890.67</ele>
        <time>2021-08-05T13:04:26Z</time>
      </trkpt>
      <trkpt lat="42.95399" lon="-1.26837">
        <ele>891.69</ele>
        <time>2021-08-05T13:04:27Z</time>
      </trkpt>
      <trkpt lat="42.95402" lon="-1.26813">
        <ele>893.59</ele>
        <time>2021-08-05T13:04:29Z</time>
      </trkpt>
      <trkpt lat="42.95422" lon="-1.26779">
        <ele>898.92</ele>
        <time>2021-08-05T13:04:34Z</time>
      </trkpt>
      <trkpt lat="42.95461" lon="-1.26767">
        <ele>903.12</ele>
        <time>2021-08-05T13:04:38Z</time>
      </trkpt>
      <trkpt lat="42.95471" lon="-1.26765">
        <ele>904.1</ele>
        <time>2021-08-05T13:04:39Z</time>
      </trkpt>
      <trkpt lat="42.95507" lon="-1.26718">
        <ele>908.51</ele>
        <time>2021-08-05T13:04:44Z</time>
      </trkpt>
      <trkpt lat="42.9551" lon="-1.26677">
        <ele>911.44</ele>
        <time>2021-08-05T13:04:47Z</time>
      </trkpt>
      <trkpt lat="42.9551" lon="-1.26629">
        <ele>914.22</ele>
        <time>2021-08-05T13:04:50Z</time>
      </trkpt>
      <trkpt lat="42.95487" lon="-1.26568">
        <ele>918.28</ele>
        <time>2021-08-05T13:04:54Z</time>
      </trkpt>
      <trkpt lat="42.95472" lon="-1.26545">
        <ele>920.47</ele>
        <time>2021-08-05T13:04:56Z</time>
      </trkpt>
      <trkpt lat="42.95456" lon="-1.26518">
        <ele>923.57</ele>
        <time>2021-08-05T13:04:59Z</time>
      </trkpt>
      <trkpt lat="42.95477" lon="-1.26507">
        <ele>928.24</ele>
        <time>2021-08-05T13:05:04Z</time>
      </trkpt>
      <trkpt lat="42.95516" lon="-1.26544">
        <ele>931.76</ele>
        <time>2021-08-05T13:05:08Z</time>
      </trkpt>
      <trkpt lat="42.95541" lon="-1.26594">
        <ele>935.42</ele>
        <time>2021-08-05T13:05:12Z</time>
      </trkpt>
      <trkpt lat="42.95546" lon="-1.26624">
        <ele>937.6</ele>
        <time>2021-08-05T13:05:14Z</time>
      </trkpt>
      <trkpt lat="42.95559" lon="-1.2669">
        <ele>941.84</ele>
        <time>2021-08-05T13:05:18Z</time>
      </trkpt>
      <trkpt lat="42.95577" lon="-1.26739">
        <ele>945.29</ele>
        <time>2021-08-05T13:05:21Z</time>
      </trkpt>
      <trkpt lat="42.95592" lon="-1.26791">
        <ele>948.83</ele>
        <time>2021-08-05T13:05:24Z</time>
      </trkpt>
      <trkpt lat="42.95596" lon="-1.26824">
        <ele>951.3</ele>
        <time>2021-08-05T13:05:26Z</time>
      </trkpt>
      <trkpt lat="42.95589" lon="-1.26885">
        <ele>955.93</ele>
        <time>2021-08-05T13:05:30Z</time>
      </trkpt>
      <trkpt lat="42.95614" lon="-1.26941">
        <ele>960.02</ele>
        <time>2021-08-05T13:05:34Z</time>
      </trkpt>
      <trkpt lat="42.95633" lon="-1.26967">
        <ele>963.62</ele>
        <time>2021-08-05T13:05:36Z</time>
      </trkpt>
      <trkpt lat="42.95673" lon="-1.2702">
        <ele>968.79</ele>
        <time>2021-08-05T13:05:40Z</time>
      </trkpt>
      <trkpt lat="42.95709" lon="-1.27052">
        <ele>972.65</ele>
        <time>2021-08-05T13:05:43Z</time>
      </trkpt>
      <trkpt lat="42.95743" lon="-1.27083">
        <ele>976.46</ele>
        <time>2021-08-05T13:05:46Z</time>
      </trkpt>
      <trkpt lat="42.95779" lon="-1.27116">
        <ele>980.26</ele>
        <time>2021-08-05T13:05:49Z</time>
      </trkpt>
      <trkpt lat="42.95813" lon="-1.2715">
        <ele>983.93</ele>
        <time>2021-08-05T13:05:52Z</time>
      </trkpt>
      <trkpt lat="42.95843" lon="-1.27184">
        <ele>987.88</ele>
        <time>2021-08-05T13:05:55Z</time>
      </trkpt>
      <trkpt lat="42.95871" lon="-1.27225">
        <ele>991.88</ele>
        <time>2021-08-05T13:05:58Z</time>
      </trkpt>
      <trkpt lat="42.95891" lon="-1.27259">
        <ele>995.84</ele>
        <time>2021-08-05T13:06:01Z</time>
      </trkpt>
      <trkpt lat="42.95903" lon="-1.27281">
        <ele>998.32</ele>
        <time>2021-08-05T13:06:03Z</time>
      </trkpt>
      <trkpt lat="42.95939" lon="-1.27315">
        <ele>1002.59</ele>
        <time>2021-08-05T13:06:07Z</time>
      </trkpt>
      <trkpt lat="42.95978" lon="-1.27323">
        <ele>1005.76</ele>
        <time>2021-08-05T13:06:11Z</time>
      </trkpt>
      <trkpt lat="42.95989" lon="-1.27321">
        <ele>1006.47</ele>
        <time>2021-08-05T13:06:12Z</time>
      </trkpt>
      <trkpt lat="42.96044" lon="-1.27307">
        <ele>1008.23</ele>
        <time>2021-08-05T13:06:17Z</time>
      </trkpt>
      <trkpt lat="42.96085" lon="-1.27274">
        <ele>1007.89</ele>
        <time>2021-08-05T13:06:22Z</time>
      </trkpt>
      <trkpt lat="42.9612" lon="-1.27253">
        <ele>1006.6</ele>
        <time>2021-08-05T13:06:27Z</time>
      </trkpt>
      <trkpt lat="42.96157" lon="-1.27242">
        <ele>1004.82</ele>
        <time>2021-08-05T13:06:31Z</time>
      </trkpt>
      <trkpt lat="42.96181" lon="-1.27224">
        <ele>1003.36</ele>
        <time>2021-08-05T13:06:34Z</time>
      </trkpt>
      <trkpt lat="42.96206" lon="-1.27215">
        <ele>1001.85</ele>
        <time>2021-08-05T13:06:37Z</time>
      </trkpt>
      <trkpt lat="42.96235" lon="-1.27191">
        <ele>999.77</ele>
        <time>2021-08-05T13:06:41Z</time>
      </trkpt>
      <trkpt lat="42.96289" lon="-1.27206">
        <ele>996.08</ele>
        <time>2021-08-05T13:06:48Z</time>
      </trkpt>
      <trkpt lat="42.96306" lon="-1.27229">
        <ele>995.19</ele>
        <time>2021-08-05T13:06:50Z</time>
      </trkpt>
      <trkpt lat="42.96343" lon="-1.27296">
        <ele>992.58</ele>
        <time>2021-08-05T13:06:55Z</time>
      </trkpt>
      <trkpt lat="42.96397" lon="-1.27302">
        <ele>988.8</ele>
        <time>2021-08-05T13:07:01Z</time>
      </trkpt>
      <trkpt lat="42.96418" lon="-1.27241">
        <ele>985.82</ele>
        <time>2021-08-05T13:07:06Z</time>
      </trkpt>
      <trkpt lat="42.96444" lon="-1.27186">
        <ele>982.64</ele>
        <time>2021-08-05T13:07:11Z</time>
      </trkpt>
      <trkpt lat="42.96482" lon="-1.2708">
        <ele>978.3</ele>
        <time>2021-08-05T13:07:19Z</time>
      </trkpt>
      <trkpt lat="42.96483" lon="-1.27058">
        <ele>977.69</ele>
        <time>2021-08-05T13:07:21Z</time>
      </trkpt>
      <trkpt lat="42.96513" lon="-1.27005">
        <ele>977.08</ele>
        <time>2021-08-05T13:07:27Z</time>
      </trkpt>
      <trkpt lat="42.96621" lon="-1.26899">
        <ele>973.63</ele>
        <time>2021-08-05T13:07:38Z</time>
      </trkpt>
      <trkpt lat="42.96628" lon="-1.26891">
        <ele>973.17</ele>
        <time>2021-08-05T13:07:39Z</time>
      </trkpt>
      <trkpt lat="42.96651" lon="-1.26909">
        <ele>971.02</ele>
        <time>2021-08-05T13:07:44Z</time>
      </trkpt>
      <trkpt lat="42.96653" lon="-1.26937">
        <ele>970.32</ele>
        <time>2021-08-05T13:07:46Z</time>
      </trkpt>
      <trkpt lat="42.96661" lon="-1.27044">
        <ele>966.37</ele>
        <time>2021-08-05T13:07:53Z</time>
      </trkpt>
      <trkpt lat="42.96663" lon="-1.27071">
        <ele>964.96</ele>
        <time>2021-08-05T13:07:55Z</time>
      </trkpt>
      <trkpt lat="42.96698" lon="-1.271">
        <ele>960.44</ele>
        <time>2021-08-05T13:08:00Z</time>
      </trkpt>
      <trkpt lat="42.96738" lon="-1.27078">
        <ele>957.25</ele>
        <time>2021-08-05T13:08:04Z</time>
      </trkpt>
      <trkpt lat="42.9676" lon="-1.27049">
        <ele>954.75</ele>
        <time>2021-08-05T13:08:07Z</time>
      </trkpt>
      <trkpt lat="42.96798" lon="-1.27029">
        <ele>948.97</ele>
        <time>2021-08-05T13:08:13Z</time>
      </trkpt>
      <trkpt lat="42.96822" lon="-1.27059">
        <ele>946.6</ele>
        <time>2021-08-05T13:08:16Z</time>
      </trkpt>
      <trkpt lat="42.96856" lon="-1.27128">
        <ele>942.61</ele>
        <time>2021-08-05T13:08:21Z</time>
      </trkpt>
      <trkpt lat="42.96862" lon="-1.27144">
        <ele>941.77</ele>
        <time>2021-08-05T13:08:22Z</time>
      </trkpt>
      <trkpt lat="42.96881" lon="-1.27222">
        <ele>936.96</ele>
        <time>2021-08-05T13:08:27Z</time>
      </trkpt>
      <trkpt lat="42.96867" lon="-1.27251">
        <ele>932.33</ele>
        <time>2021-08-05T13:08:31Z</time>
      </trkpt>
      <trkpt lat="42.96832" lon="-1.27254">
        <ele>928.48</ele>
        <time>2021-08-05T13:08:35Z</time>
      </trkpt>
      <trkpt lat="42.96825" lon="-1.27276">
        <ele>926.65</ele>
        <time>2021-08-05T13:08:37Z</time>
      </trkpt>
      <trkpt lat="42.96805" lon="-1.27348">
        <ele>922.6</ele>
        <time>2021-08-05T13:08:42Z</time>
      </trkpt>
      <trkpt lat="42.96798" lon="-1.27411">
        <ele>918.91</ele>
        <time>2021-08-05T13:08:46Z</time>
      </trkpt>
      <trkpt lat="42.96782" lon="-1.27464">
        <ele>914.8</ele>
        <time>2021-08-05T13:08:50Z</time>
      </trkpt>
      <trkpt lat="42.96765" lon="-1.27487">
        <ele>912.62</ele>
        <time>2021-08-05T13:08:52Z</time>
      </trkpt>
      <trkpt lat="42.9673" lon="-1.2752">
        <ele>907.02</ele>
        <time>2021-08-05T13:08:56Z</time>
      </trkpt>
      <trkpt lat="42.96721" lon="-1.2753">
        <ele>904.61</ele>
        <time>2021-08-05T13:08:58Z</time>
      </trkpt>
      <trkpt lat="42.96732" lon="-1.27546">
        <ele>900.02</ele>
        <time>2021-08-05T13:09:03Z</time>
      </trkpt>
      <trkpt lat="42.96738" lon="-1.27544">
        <ele>899.32</ele>
        <time>2021-08-05T13:09:04Z</time>
      </trkpt>
      <trkpt lat="42.96782" lon="-1.27534">
        <ele>897.17</ele>
        <time>2021-08-05T13:09:08Z</time>
      </trkpt>
      <trkpt lat="42.96857" lon="-1.27537">
        <ele>894.1</ele>
        <time>2021-08-05T13:09:13Z</time>
      </trkpt>
      <trkpt lat="42.96929" lon="-1.27512">
        <ele>889.79</ele>
        <time>2021-08-05T13:09:18Z</time>
      </trkpt>
      <trkpt lat="42.96964" lon="-1.27499">
        <ele>886.41</ele>
        <time>2021-08-05T13:09:21Z</time>
      </trkpt>
      <trkpt lat="42.96974" lon="-1.27497">
        <ele>885.18</ele>
        <time>2021-08-05T13:09:22Z</time>
      </trkpt>
      <trkpt lat="42.97019" lon="-1.27497">
        <ele>880.15</ele>
        <time>2021-08-05T13:09:26Z</time>
      </trkpt>
      <trkpt lat="42.97056" lon="-1.27493">
        <ele>876.65</ele>
        <time>2021-08-05T13:09:29Z</time>
      </trkpt>
      <trkpt lat="42.97089" lon="-1.27492">
        <ele>873.4</ele>
        <time>2021-08-05T13:09:32Z</time>
      </trkpt>
      <trkpt lat="42.97127" lon="-1.2753">
        <ele>869.19</ele>
        <time>2021-08-05T13:09:36Z</time>
      </trkpt>
      <trkpt lat="42.97135" lon="-1.27546">
        <ele>868.14</ele>
        <time>2021-08-05T13:09:37Z</time>
      </trkpt>
      <trkpt lat="42.97171" lon="-1.2761">
        <ele>863.75</ele>
        <time>2021-08-05T13:09:41Z</time>
      </trkpt>
      <trkpt lat="42.97193" lon="-1.27663">
        <ele>860.21</ele>
        <time>2021-08-05T13:09:44Z</time>
      </trkpt>
      <trkpt lat="42.97214" lon="-1.27713">
        <ele>856.52</ele>
        <time>2021-08-05T13:09:47Z</time>
      </trkpt>
      <trkpt lat="42.97221" lon="-1.27729">
        <ele>855.17</ele>
        <time>2021-08-05T13:09:48Z</time>
      </trkpt>
      <trkpt lat="42.97235" lon="-1.27783">
        <ele>850.99</ele>
        <time>2021-08-05T13:09:51Z</time>
      </trkpt>
      <trkpt lat="42.97242" lon="-1.27829">
        <ele>846.37</ele>
        <time>2021-08-05T13:09:54Z</time>
      </trkpt>
      <trkpt lat="42.97229" lon="-1.27878">
        <ele>840.44</ele>
        <time>2021-08-05T13:09:58Z</time>
      </trkpt>
      <trkpt lat="42.97214" lon="-1.27886">
        <ele>837.87</ele>
        <time>2021-08-05T13:10:00Z</time>
      </trkpt>
      <trkpt lat="42.97196" lon="-1.27886">
        <ele>832.03</ele>
        <time>2021-08-05T13:10:05Z</time>
      </trkpt>
      <trkpt lat="42.97193" lon="-1.27884">
        <ele>828.4</ele>
        <time>2021-08-05T13:10:09Z</time>
      </trkpt>
      <trkpt lat="42.97191" lon="-1.27887">
        <ele>825.27</ele>
        <time>2021-08-05T13:10:15Z</time>
      </trkpt>
      <trkpt lat="42.97191" lon="-1.27887">
        <ele>822.26</ele>
        <time>2021-08-05T13:10:33Z</time>
      </trkpt>
      <trkpt lat="42.97202" lon="-1.27894">
        <ele>821.51</ele>
        <time>2021-08-05T13:10:50Z</time>
      </trkpt>
      <trkpt lat="42.97236" lon="-1.27912">
        <ele>820.31</ele>
        <time>2021-08-05T13:11:05Z</time>
      </trkpt>
      <trkpt lat="42.97242" lon="-1.27915">
        <ele>819.44</ele>
        <time>2021-08-05T13:11:15Z</time>
      </trkpt>
      <trkpt lat="42.97252" lon="-1.27909">
        <ele>818.2</ele>
        <time>2021-08-05T13:11:29Z</time>
      </trkpt>
      <trkpt lat="42.97256" lon="-1.27907">
        <ele>817.57</ele>
        <time>2021-08-05T13:11:42Z</time>
      </trkpt>
      <trkpt lat="42.97265" lon="-1.27905">
        <ele>816.81</ele>
        <time>2021-08-05T13:12:03Z</time>
      </trkpt>
      <trkpt lat="42.9727" lon="-1.27902">
        <ele>815.9</ele>
        <time>2021-08-05T13:12:32Z</time>
      </trkpt>
      <trkpt lat="42.97261" lon="-1.27921">
        <ele>815.18</ele>
        <time>2021-08-05T13:13:03Z</time>
      </trkpt>
      <trkpt lat="42.97263" lon="-1.27926">
        <ele>815.77</ele>
        <time>2021-08-05T13:13:27Z</time>
      </trkpt>
      <trkpt lat="42.97269" lon="-1.27928">
        <ele>816.26</ele>
        <time>2021-08-05T13:13:46Z</time>
      </trkpt>
      <trkpt lat="42.97276" lon="-1.27929">
        <ele>817.79</ele>
        <time>2021-08-05T13:14:48Z</time>
      </trkpt>
      <trkpt lat="42.97268" lon="-1.27916">
        <ele>817.79</ele>
        <time>2021-08-05T13:14:49Z</time>
      </trkpt>
      <trkpt lat="42.97255" lon="-1.27931">
        <ele>817.79</ele>
        <time>2021-08-05T13:15:13Z</time>
      </trkpt>
      <trkpt lat="42.97255" lon="-1.27933">
        <ele>817.79</ele>
        <time>2021-08-05T13:15:41Z</time>
      </trkpt>
      <trkpt lat="42.97274" lon="-1.27908">
        <ele>818.75</ele>
        <time>2021-08-05T14:00:20Z</time>
      </trkpt>
      <trkpt lat="42.97271" lon="-1.27912">
        <ele>818.75</ele>
        <time>2021-08-05T14:00:31Z</time>
      </trkpt>
      <trkpt lat="42.97276" lon="-1.27897">
        <ele>817.1</ele>
        <time>2021-08-05T14:00:38Z</time>
      </trkpt>
      <trkpt lat="42.97308" lon="-1.27865">
        <ele>815.87</ele>
        <time>2021-08-05T14:00:49Z</time>
      </trkpt>
      <trkpt lat="42.97328" lon="-1.27849">
        <ele>812.87</ele>
        <time>2021-08-05T14:01:04Z</time>
      </trkpt>
      <trkpt lat="42.97334" lon="-1.27839">
        <ele>811.83</ele>
        <time>2021-08-05T14:01:19Z</time>
      </trkpt>
      <trkpt lat="42.97349" lon="-1.27827">
        <ele>811.08</ele>
        <time>2021-08-05T14:01:41Z</time>
      </trkpt>
      <trkpt lat="42.97356" lon="-1.27817">
        <ele>811.69</ele>
        <time>2021-08-05T14:02:25Z</time>
      </trkpt>
      <trkpt lat="42.97367" lon="-1.27803">
        <ele>810.7</ele>
        <time>2021-08-05T14:02:40Z</time>
      </trkpt>
      <trkpt lat="42.97378" lon="-1.2779">
        <ele>810.1</ele>
        <time>2021-08-05T14:03:02Z</time>
      </trkpt>
      <trkpt lat="42.9738" lon="-1.27779">
        <ele>809.96</ele>
        <time>2021-08-05T14:03:31Z</time>
      </trkpt>
      <trkpt lat="42.97381" lon="-1.27775">
        <ele>810</ele>
        <time>2021-08-05T14:03:34Z</time>
      </trkpt>
      <trkpt lat="42.97389" lon="-1.27742">
        <ele>810.49</ele>
        <time>2021-08-05T14:03:44Z</time>
      </trkpt>
      <trkpt lat="42.97404" lon="-1.27726">
        <ele>811.08</ele>
        <time>2021-08-05T14:03:48Z</time>
      </trkpt>
      <trkpt lat="42.97419" lon="-1.27715">
        <ele>811.98</ele>
        <time>2021-08-05T14:03:51Z</time>
      </trkpt>
      <trkpt lat="42.97494" lon="-1.27702">
        <ele>814.63</ele>
        <time>2021-08-05T14:04:01Z</time>
      </trkpt>
      <trkpt lat="42.97551" lon="-1.27691">
        <ele>815.46</ele>
        <time>2021-08-05T14:04:12Z</time>
      </trkpt>
      <trkpt lat="42.97594" lon="-1.2768">
        <ele>818.05</ele>
        <time>2021-08-05T14:04:25Z</time>
      </trkpt>
      <trkpt lat="42.97598" lon="-1.27681">
        <ele>820.26</ele>
        <time>2021-08-05T14:04:39Z</time>
      </trkpt>
      <trkpt lat="42.97604" lon="-1.27682">
        <ele>820.87</ele>
        <time>2021-08-05T14:04:53Z</time>
      </trkpt>
      <trkpt lat="42.97619" lon="-1.27686">
        <ele>821.02</ele>
        <time>2021-08-05T14:04:56Z</time>
      </trkpt>
      <trkpt lat="42.97635" lon="-1.27687">
        <ele>821.23</ele>
        <time>2021-08-05T14:04:58Z</time>
      </trkpt>
      <trkpt lat="42.97674" lon="-1.27693">
        <ele>821.7</ele>
        <time>2021-08-05T14:05:02Z</time>
      </trkpt>
      <trkpt lat="42.97702" lon="-1.27709">
        <ele>822.08</ele>
        <time>2021-08-05T14:05:05Z</time>
      </trkpt>
      <trkpt lat="42.97748" lon="-1.27734">
        <ele>822.87</ele>
        <time>2021-08-05T14:05:11Z</time>
      </trkpt>
      <trkpt lat="42.97761" lon="-1.27758">
        <ele>823.22</ele>
        <time>2021-08-05T14:05:13Z</time>
      </trkpt>
      <trkpt lat="42.97826" lon="-1.27837">
        <ele>824.83</ele>
        <time>2021-08-05T14:05:20Z</time>
      </trkpt>
      <trkpt lat="42.97866" lon="-1.27838">
        <ele>825.85</ele>
        <time>2021-08-05T14:05:24Z</time>
      </trkpt>
      <trkpt lat="42.9796" lon="-1.27832">
        <ele>827.62</ele>
        <time>2021-08-05T14:05:34Z</time>
      </trkpt>
      <trkpt lat="42.98006" lon="-1.27855">
        <ele>828.5</ele>
        <time>2021-08-05T14:05:38Z</time>
      </trkpt>
      <trkpt lat="42.98027" lon="-1.27873">
        <ele>828.99</ele>
        <time>2021-08-05T14:05:40Z</time>
      </trkpt>
      <trkpt lat="42.98055" lon="-1.27927">
        <ele>829.81</ele>
        <time>2021-08-05T14:05:44Z</time>
      </trkpt>
      <trkpt lat="42.98114" lon="-1.27985">
        <ele>831.24</ele>
        <time>2021-08-05T14:05:50Z</time>
      </trkpt>
      <trkpt lat="42.98121" lon="-1.27998">
        <ele>831.58</ele>
        <time>2021-08-05T14:05:51Z</time>
      </trkpt>
      <trkpt lat="42.98142" lon="-1.28042">
        <ele>832.5</ele>
        <time>2021-08-05T14:05:54Z</time>
      </trkpt>
      <trkpt lat="42.98174" lon="-1.28145">
        <ele>834.95</ele>
        <time>2021-08-05T14:06:02Z</time>
      </trkpt>
      <trkpt lat="42.98206" lon="-1.28191">
        <ele>838.3</ele>
        <time>2021-08-05T14:06:09Z</time>
      </trkpt>
      <trkpt lat="42.98221" lon="-1.2822">
        <ele>841.9</ele>
        <time>2021-08-05T14:06:16Z</time>
      </trkpt>
      <trkpt lat="42.98222" lon="-1.28225">
        <ele>843.4</ele>
        <time>2021-08-05T14:06:22Z</time>
      </trkpt>
      <trkpt lat="42.98226" lon="-1.28192">
        <ele>844.46</ele>
        <time>2021-08-05T14:06:29Z</time>
      </trkpt>
      <trkpt lat="42.98214" lon="-1.28157">
        <ele>845.99</ele>
        <time>2021-08-05T14:06:33Z</time>
      </trkpt>
      <trkpt lat="42.9821" lon="-1.28129">
        <ele>847.04</ele>
        <time>2021-08-05T14:06:36Z</time>
      </trkpt>
      <trkpt lat="42.9823" lon="-1.28115">
        <ele>851</ele>
        <time>2021-08-05T14:06:43Z</time>
      </trkpt>
      <trkpt lat="42.98263" lon="-1.28124">
        <ele>853.45</ele>
        <time>2021-08-05T14:06:48Z</time>
      </trkpt>
      <trkpt lat="42.98327" lon="-1.28114">
        <ele>857</ele>
        <time>2021-08-05T14:06:54Z</time>
      </trkpt>
      <trkpt lat="42.98362" lon="-1.28102">
        <ele>859.3</ele>
        <time>2021-08-05T14:06:57Z</time>
      </trkpt>
      <trkpt lat="42.98409" lon="-1.28059">
        <ele>863.5</ele>
        <time>2021-08-05T14:07:01Z</time>
      </trkpt>
      <trkpt lat="42.98476" lon="-1.28003">
        <ele>869.36</ele>
        <time>2021-08-05T14:07:07Z</time>
      </trkpt>
      <trkpt lat="42.98511" lon="-1.27961">
        <ele>873.88</ele>
        <time>2021-08-05T14:07:11Z</time>
      </trkpt>
      <trkpt lat="42.98536" lon="-1.27927">
        <ele>877.13</ele>
        <time>2021-08-05T14:07:14Z</time>
      </trkpt>
      <trkpt lat="42.98557" lon="-1.27907">
        <ele>879.13</ele>
        <time>2021-08-05T14:07:16Z</time>
      </trkpt>
      <trkpt lat="42.98585" lon="-1.27875">
        <ele>881.79</ele>
        <time>2021-08-05T14:07:19Z</time>
      </trkpt>
      <trkpt lat="42.98606" lon="-1.27821">
        <ele>884.99</ele>
        <time>2021-08-05T14:07:23Z</time>
      </trkpt>
      <trkpt lat="42.98609" lon="-1.27798">
        <ele>886.59</ele>
        <time>2021-08-05T14:07:25Z</time>
      </trkpt>
      <trkpt lat="42.9862" lon="-1.27787">
        <ele>890.82</ele>
        <time>2021-08-05T14:07:30Z</time>
      </trkpt>
      <trkpt lat="42.98621" lon="-1.27806">
        <ele>893.62</ele>
        <time>2021-08-05T14:07:34Z</time>
      </trkpt>
      <trkpt lat="42.98621" lon="-1.27864">
        <ele>897.8</ele>
        <time>2021-08-05T14:07:40Z</time>
      </trkpt>
      <trkpt lat="42.98607" lon="-1.27901">
        <ele>900.68</ele>
        <time>2021-08-05T14:07:44Z</time>
      </trkpt>
      <trkpt lat="42.98607" lon="-1.27985">
        <ele>904.75</ele>
        <time>2021-08-05T14:07:50Z</time>
      </trkpt>
      <trkpt lat="42.98625" lon="-1.28054">
        <ele>907.48</ele>
        <time>2021-08-05T14:07:54Z</time>
      </trkpt>
      <trkpt lat="42.9863" lon="-1.28088">
        <ele>908.91</ele>
        <time>2021-08-05T14:07:56Z</time>
      </trkpt>
      <trkpt lat="42.98657" lon="-1.28165">
        <ele>911.5</ele>
        <time>2021-08-05T14:08:01Z</time>
      </trkpt>
      <trkpt lat="42.9868" lon="-1.28234">
        <ele>912.72</ele>
        <time>2021-08-05T14:08:05Z</time>
      </trkpt>
      <trkpt lat="42.98703" lon="-1.28278">
        <ele>912.29</ele>
        <time>2021-08-05T14:08:09Z</time>
      </trkpt>
      <trkpt lat="42.9875" lon="-1.28329">
        <ele>910.28</ele>
        <time>2021-08-05T14:08:16Z</time>
      </trkpt>
      <trkpt lat="42.98801" lon="-1.28335">
        <ele>910.28</ele>
        <time>2021-08-05T14:08:22Z</time>
      </trkpt>
      <trkpt lat="42.9886" lon="-1.28328">
        <ele>912.18</ele>
        <time>2021-08-05T14:08:29Z</time>
      </trkpt>
      <trkpt lat="42.98882" lon="-1.2833">
        <ele>914.55</ele>
        <time>2021-08-05T14:08:35Z</time>
      </trkpt>
      <trkpt lat="42.98873" lon="-1.28303">
        <ele>918.04</ele>
        <time>2021-08-05T14:08:41Z</time>
      </trkpt>
      <trkpt lat="42.98845" lon="-1.2829">
        <ele>922.42</ele>
        <time>2021-08-05T14:08:48Z</time>
      </trkpt>
      <trkpt lat="42.98835" lon="-1.28286">
        <ele>924.29</ele>
        <time>2021-08-05T14:08:51Z</time>
      </trkpt>
      <trkpt lat="42.9885" lon="-1.28263">
        <ele>927.95</ele>
        <time>2021-08-05T14:08:57Z</time>
      </trkpt>
      <trkpt lat="42.98863" lon="-1.28257">
        <ele>929.07</ele>
        <time>2021-08-05T14:08:59Z</time>
      </trkpt>
      <trkpt lat="42.98904" lon="-1.28215">
        <ele>933.36</ele>
        <time>2021-08-05T14:09:06Z</time>
      </trkpt>
      <trkpt lat="42.98922" lon="-1.28183">
        <ele>936.25</ele>
        <time>2021-08-05T14:09:10Z</time>
      </trkpt>
      <trkpt lat="42.98954" lon="-1.28131">
        <ele>940.43</ele>
        <time>2021-08-05T14:09:16Z</time>
      </trkpt>
      <trkpt lat="42.98989" lon="-1.28104">
        <ele>944.24</ele>
        <time>2021-08-05T14:09:21Z</time>
      </trkpt>
      <trkpt lat="42.99025" lon="-1.28076">
        <ele>948.32</ele>
        <time>2021-08-05T14:09:27Z</time>
      </trkpt>
      <trkpt lat="42.99055" lon="-1.28025">
        <ele>952.13</ele>
        <time>2021-08-05T14:09:33Z</time>
      </trkpt>
      <trkpt lat="42.99064" lon="-1.28007">
        <ele>953.55</ele>
        <time>2021-08-05T14:09:35Z</time>
      </trkpt>
      <trkpt lat="42.99088" lon="-1.27987">
        <ele>956.18</ele>
        <time>2021-08-05T14:09:39Z</time>
      </trkpt>
      <trkpt lat="42.99102" lon="-1.27981">
        <ele>957.37</ele>
        <time>2021-08-05T14:09:41Z</time>
      </trkpt>
      <trkpt lat="42.99143" lon="-1.27944">
        <ele>960.87</ele>
        <time>2021-08-05T14:09:47Z</time>
      </trkpt>
      <trkpt lat="42.99171" lon="-1.2789">
        <ele>964.4</ele>
        <time>2021-08-05T14:09:53Z</time>
      </trkpt>
      <trkpt lat="42.99221" lon="-1.27821">
        <ele>968.2</ele>
        <time>2021-08-05T14:10:01Z</time>
      </trkpt>
      <trkpt lat="42.99266" lon="-1.27751">
        <ele>971.77</ele>
        <time>2021-08-05T14:10:08Z</time>
      </trkpt>
      <trkpt lat="42.993" lon="-1.27681">
        <ele>975.12</ele>
        <time>2021-08-05T14:10:14Z</time>
      </trkpt>
      <trkpt lat="42.99329" lon="-1.27625">
        <ele>978.43</ele>
        <time>2021-08-05T14:10:20Z</time>
      </trkpt>
      <trkpt lat="42.99344" lon="-1.27606">
        <ele>980</ele>
        <time>2021-08-05T14:10:27Z</time>
      </trkpt>
      <trkpt lat="42.99371" lon="-1.27564">
        <ele>980.47</ele>
        <time>2021-08-05T14:10:39Z</time>
      </trkpt>
      <trkpt lat="42.99397" lon="-1.27525">
        <ele>981.11</ele>
        <time>2021-08-05T14:10:48Z</time>
      </trkpt>
      <trkpt lat="42.99417" lon="-1.27521">
        <ele>982.98</ele>
        <time>2021-08-05T14:10:57Z</time>
      </trkpt>
      <trkpt lat="42.99452" lon="-1.27523">
        <ele>985.68</ele>
        <time>2021-08-05T14:11:09Z</time>
      </trkpt>
      <trkpt lat="42.99457" lon="-1.27523">
        <ele>985.91</ele>
        <time>2021-08-05T14:11:10Z</time>
      </trkpt>
      <trkpt lat="42.99465" lon="-1.27543">
        <ele>988.56</ele>
        <time>2021-08-05T14:11:17Z</time>
      </trkpt>
      <trkpt lat="42.99455" lon="-1.27558">
        <ele>989.81</ele>
        <time>2021-08-05T14:11:20Z</time>
      </trkpt>
      <trkpt lat="42.99463" lon="-1.27626">
        <ele>993.11</ele>
        <time>2021-08-05T14:11:29Z</time>
      </trkpt>
      <trkpt lat="42.99468" lon="-1.27634">
        <ele>993.39</ele>
        <time>2021-08-05T14:11:30Z</time>
      </trkpt>
      <trkpt lat="42.99479" lon="-1.27651">
        <ele>994.05</ele>
        <time>2021-08-05T14:11:32Z</time>
      </trkpt>
      <trkpt lat="42.99563" lon="-1.27724">
        <ele>997.18</ele>
        <time>2021-08-05T14:11:43Z</time>
      </trkpt>
      <trkpt lat="42.99567" lon="-1.27733">
        <ele>997.74</ele>
        <time>2021-08-05T14:11:45Z</time>
      </trkpt>
      <trkpt lat="42.99539" lon="-1.27753">
        <ele>998.74</ele>
        <time>2021-08-05T14:11:49Z</time>
      </trkpt>
      <trkpt lat="42.99495" lon="-1.27775">
        <ele>1000.56</ele>
        <time>2021-08-05T14:11:55Z</time>
      </trkpt>
      <trkpt lat="42.99485" lon="-1.2783">
        <ele>1004.01</ele>
        <time>2021-08-05T14:12:02Z</time>
      </trkpt>
      <trkpt lat="42.99528" lon="-1.27855">
        <ele>1006.72</ele>
        <time>2021-08-05T14:12:07Z</time>
      </trkpt>
      <trkpt lat="42.99574" lon="-1.27876">
        <ele>1009.26</ele>
        <time>2021-08-05T14:12:12Z</time>
      </trkpt>
      <trkpt lat="42.99605" lon="-1.27958">
        <ele>1013.02</ele>
        <time>2021-08-05T14:12:19Z</time>
      </trkpt>
      <trkpt lat="42.99598" lon="-1.27997">
        <ele>1014.22</ele>
        <time>2021-08-05T14:12:22Z</time>
      </trkpt>
      <trkpt lat="42.99589" lon="-1.2804">
        <ele>1016</ele>
        <time>2021-08-05T14:12:26Z</time>
      </trkpt>
      <trkpt lat="42.99608" lon="-1.28078">
        <ele>1017.59</ele>
        <time>2021-08-05T14:12:32Z</time>
      </trkpt>
      <trkpt lat="42.99635" lon="-1.28071">
        <ele>1017.95</ele>
        <time>2021-08-05T14:12:35Z</time>
      </trkpt>
      <trkpt lat="42.99774" lon="-1.28021">
        <ele>1019.49</ele>
        <time>2021-08-05T14:12:46Z</time>
      </trkpt>
      <trkpt lat="42.99811" lon="-1.27997">
        <ele>1020.65</ele>
        <time>2021-08-05T14:12:49Z</time>
      </trkpt>
      <trkpt lat="42.99891" lon="-1.27874">
        <ele>1023.69</ele>
        <time>2021-08-05T14:12:58Z</time>
      </trkpt>
      <trkpt lat="42.99951" lon="-1.27766">
        <ele>1026.76</ele>
        <time>2021-08-05T14:13:06Z</time>
      </trkpt>
      <trkpt lat="43.00048" lon="-1.27667">
        <ele>1029.36</ele>
        <time>2021-08-05T14:13:17Z</time>
      </trkpt>
      <trkpt lat="43.00088" lon="-1.27647">
        <ele>1031.5</ele>
        <time>2021-08-05T14:13:23Z</time>
      </trkpt>
      <trkpt lat="43.00091" lon="-1.27644">
        <ele>1031.9</ele>
        <time>2021-08-05T14:13:24Z</time>
      </trkpt>
      <trkpt lat="43.00093" lon="-1.2764">
        <ele>1032.28</ele>
        <time>2021-08-05T14:13:25Z</time>
      </trkpt>
      <trkpt lat="43.00094" lon="-1.27635">
        <ele>1032.65</ele>
        <time>2021-08-05T14:13:26Z</time>
      </trkpt>
      <trkpt lat="43.00095" lon="-1.27628">
        <ele>1033.01</ele>
        <time>2021-08-05T14:13:27Z</time>
      </trkpt>
      <trkpt lat="43.00096" lon="-1.27621">
        <ele>1033.32</ele>
        <time>2021-08-05T14:13:28Z</time>
      </trkpt>
      <trkpt lat="43.00119" lon="-1.27529">
        <ele>1033.98</ele>
        <time>2021-08-05T14:13:38Z</time>
      </trkpt>
      <trkpt lat="43.00169" lon="-1.27483">
        <ele>1030.61</ele>
        <time>2021-08-05T14:13:45Z</time>
      </trkpt>
      <trkpt lat="43.00203" lon="-1.27472">
        <ele>1027.94</ele>
        <time>2021-08-05T14:13:49Z</time>
      </trkpt>
      <trkpt lat="43.0024" lon="-1.27479">
        <ele>1024.22</ele>
        <time>2021-08-05T14:13:55Z</time>
      </trkpt>
      <trkpt lat="43.00252" lon="-1.27449">
        <ele>1020.83</ele>
        <time>2021-08-05T14:14:00Z</time>
      </trkpt>
      <trkpt lat="43.00244" lon="-1.27348">
        <ele>1017.22</ele>
        <time>2021-08-05T14:14:07Z</time>
      </trkpt>
      <trkpt lat="43.0025" lon="-1.27232">
        <ele>1013.47</ele>
        <time>2021-08-05T14:14:14Z</time>
      </trkpt>
      <trkpt lat="43.00255" lon="-1.27161">
        <ele>1010.02</ele>
        <time>2021-08-05T14:14:18Z</time>
      </trkpt>
      <trkpt lat="43.00261" lon="-1.27109">
        <ele>1007.58</ele>
        <time>2021-08-05T14:14:21Z</time>
      </trkpt>
      <trkpt lat="43.00284" lon="-1.2703">
        <ele>1003.06</ele>
        <time>2021-08-05T14:14:26Z</time>
      </trkpt>
      <trkpt lat="43.00291" lon="-1.27007">
        <ele>1001.32</ele>
        <time>2021-08-05T14:14:28Z</time>
      </trkpt>
      <trkpt lat="43.00316" lon="-1.26977">
        <ele>997.59</ele>
        <time>2021-08-05T14:14:33Z</time>
      </trkpt>
      <trkpt lat="43.00334" lon="-1.26931">
        <ele>993.99</ele>
        <time>2021-08-05T14:14:40Z</time>
      </trkpt>
      <trkpt lat="43.00346" lon="-1.26797">
        <ele>990.52</ele>
        <time>2021-08-05T14:14:50Z</time>
      </trkpt>
      <trkpt lat="43.0036" lon="-1.2673">
        <ele>987.52</ele>
        <time>2021-08-05T14:14:55Z</time>
      </trkpt>
      <trkpt lat="43.00374" lon="-1.2668">
        <ele>985.27</ele>
        <time>2021-08-05T14:14:59Z</time>
      </trkpt>
      <trkpt lat="43.00409" lon="-1.26631">
        <ele>981.11</ele>
        <time>2021-08-05T14:15:05Z</time>
      </trkpt>
      <trkpt lat="43.00434" lon="-1.26613">
        <ele>978.58</ele>
        <time>2021-08-05T14:15:08Z</time>
      </trkpt>
      <trkpt lat="43.00452" lon="-1.26593">
        <ele>974.6</ele>
        <time>2021-08-05T14:15:11Z</time>
      </trkpt>
      <trkpt lat="43.00456" lon="-1.26586">
        <ele>974.6</ele>
        <time>2021-08-05T14:15:12Z</time>
      </trkpt>
      <trkpt lat="43.00459" lon="-1.2656">
        <ele>970.58</ele>
        <time>2021-08-05T14:15:15Z</time>
      </trkpt>
      <trkpt lat="43.00453" lon="-1.2654">
        <ele>968.94</ele>
        <time>2021-08-05T14:15:17Z</time>
      </trkpt>
      <trkpt lat="43.00443" lon="-1.26509">
        <ele>966.74</ele>
        <time>2021-08-05T14:15:20Z</time>
      </trkpt>
      <trkpt lat="43.00445" lon="-1.26466">
        <ele>963.62</ele>
        <time>2021-08-05T14:15:24Z</time>
      </trkpt>
      <trkpt lat="43.00456" lon="-1.26409">
        <ele>959.82</ele>
        <time>2021-08-05T14:15:29Z</time>
      </trkpt>
      <trkpt lat="43.00449" lon="-1.26351">
        <ele>954.96</ele>
        <time>2021-08-05T14:15:34Z</time>
      </trkpt>
      <trkpt lat="43.00449" lon="-1.26301">
        <ele>949.6</ele>
        <time>2021-08-05T14:15:39Z</time>
      </trkpt>
      <trkpt lat="43.00463" lon="-1.2627">
        <ele>946.48</ele>
        <time>2021-08-05T14:15:42Z</time>
      </trkpt>
      <trkpt lat="43.00474" lon="-1.26237">
        <ele>943.33</ele>
        <time>2021-08-05T14:15:45Z</time>
      </trkpt>
      <trkpt lat="43.00476" lon="-1.26225">
        <ele>942.33</ele>
        <time>2021-08-05T14:15:46Z</time>
      </trkpt>
      <trkpt lat="43.00484" lon="-1.26181">
        <ele>938.23</ele>
        <time>2021-08-05T14:15:50Z</time>
      </trkpt>
      <trkpt lat="43.00487" lon="-1.26154">
        <ele>934.9</ele>
        <time>2021-08-05T14:15:53Z</time>
      </trkpt>
      <trkpt lat="43.00489" lon="-1.26128">
        <ele>930.99</ele>
        <time>2021-08-05T14:15:57Z</time>
      </trkpt>
      <trkpt lat="43.00492" lon="-1.26109">
        <ele>927.61</ele>
        <time>2021-08-05T14:16:01Z</time>
      </trkpt>
      <trkpt lat="43.005" lon="-1.2609">
        <ele>924.4</ele>
        <time>2021-08-05T14:16:06Z</time>
      </trkpt>
      <trkpt lat="43.00503" lon="-1.26079">
        <ele>923.51</ele>
        <time>2021-08-05T14:16:08Z</time>
      </trkpt>
      <trkpt lat="43.00504" lon="-1.26072">
        <ele>923.06</ele>
        <time>2021-08-05T14:16:09Z</time>
      </trkpt>
      <trkpt lat="43.00511" lon="-1.2603">
        <ele>919.84</ele>
        <time>2021-08-05T14:16:17Z</time>
      </trkpt>
      <trkpt lat="43.00524" lon="-1.26011">
        <ele>917.09</ele>
        <time>2021-08-05T14:16:26Z</time>
      </trkpt>
      <trkpt lat="43.00538" lon="-1.25979">
        <ele>915.69</ele>
        <time>2021-08-05T14:16:33Z</time>
      </trkpt>
      <trkpt lat="43.00548" lon="-1.25954">
        <ele>915.33</ele>
        <time>2021-08-05T14:16:37Z</time>
      </trkpt>
      <trkpt lat="43.0057" lon="-1.25925">
        <ele>914.93</ele>
        <time>2021-08-05T14:16:42Z</time>
      </trkpt>
      <trkpt lat="43.00649" lon="-1.25875">
        <ele>913.47</ele>
        <time>2021-08-05T14:16:52Z</time>
      </trkpt>
      <trkpt lat="43.00759" lon="-1.25876">
        <ele>911.74</ele>
        <time>2021-08-05T14:17:03Z</time>
      </trkpt>
      <trkpt lat="43.00838" lon="-1.25842">
        <ele>911.64</ele>
        <time>2021-08-05T14:17:13Z</time>
      </trkpt>
      <trkpt lat="43.00854" lon="-1.25836">
        <ele>911.61</ele>
        <time>2021-08-05T14:17:15Z</time>
      </trkpt>
      <trkpt lat="43.00894" lon="-1.25772">
        <ele>911.16</ele>
        <time>2021-08-05T14:17:22Z</time>
      </trkpt>
      <trkpt lat="43.00897" lon="-1.2576">
        <ele>911.11</ele>
        <time>2021-08-05T14:17:23Z</time>
      </trkpt>
      <trkpt lat="43.00932" lon="-1.25708">
        <ele>910.84</ele>
        <time>2021-08-05T14:17:30Z</time>
      </trkpt>
      <trkpt lat="43.00946" lon="-1.25699">
        <ele>910.68</ele>
        <time>2021-08-05T14:17:32Z</time>
      </trkpt>
      <trkpt lat="43.0098" lon="-1.25639">
        <ele>908.79</ele>
        <time>2021-08-05T14:17:42Z</time>
      </trkpt>
      <trkpt lat="43.01028" lon="-1.25545">
        <ele>905.9</ele>
        <time>2021-08-05T14:17:52Z</time>
      </trkpt>
      <trkpt lat="43.01034" lon="-1.25531">
        <ele>904.93</ele>
        <time>2021-08-05T14:17:54Z</time>
      </trkpt>
      <trkpt lat="43.01037" lon="-1.25493">
        <ele>903.3</ele>
        <time>2021-08-05T14:17:58Z</time>
      </trkpt>
      <trkpt lat="43.0103" lon="-1.2545">
        <ele>901.9</ele>
        <time>2021-08-05T14:18:02Z</time>
      </trkpt>
      <trkpt lat="43.01027" lon="-1.25429">
        <ele>901.12</ele>
        <time>2021-08-05T14:18:04Z</time>
      </trkpt>
      <trkpt lat="43.01045" lon="-1.2537">
        <ele>899.59</ele>
        <time>2021-08-05T14:18:09Z</time>
      </trkpt>
      <trkpt lat="43.01069" lon="-1.25284">
        <ele>897.84</ele>
        <time>2021-08-05T14:18:15Z</time>
      </trkpt>
      <trkpt lat="43.0105" lon="-1.25225">
        <ele>896.53</ele>
        <time>2021-08-05T14:18:20Z</time>
      </trkpt>
      <trkpt lat="43.01043" lon="-1.25207">
        <ele>896.29</ele>
        <time>2021-08-05T14:18:22Z</time>
      </trkpt>
      <trkpt lat="43.01057" lon="-1.25146">
        <ele>896.14</ele>
        <time>2021-08-05T14:18:30Z</time>
      </trkpt>
      <trkpt lat="43.01073" lon="-1.25135">
        <ele>895.66</ele>
        <time>2021-08-05T14:18:32Z</time>
      </trkpt>
      <trkpt lat="43.01101" lon="-1.25099">
        <ele>890.48</ele>
        <time>2021-08-05T14:18:37Z</time>
      </trkpt>
      <trkpt lat="43.01101" lon="-1.25065">
        <ele>887.46</ele>
        <time>2021-08-05T14:18:41Z</time>
      </trkpt>
      <trkpt lat="43.01106" lon="-1.25046">
        <ele>886.36</ele>
        <time>2021-08-05T14:18:43Z</time>
      </trkpt>
      <trkpt lat="43.01168" lon="-1.24943">
        <ele>883.54</ele>
        <time>2021-08-05T14:18:55Z</time>
      </trkpt>
      <trkpt lat="43.01175" lon="-1.24937">
        <ele>883.07</ele>
        <time>2021-08-05T14:18:56Z</time>
      </trkpt>
      <trkpt lat="43.01189" lon="-1.24896">
        <ele>880.37</ele>
        <time>2021-08-05T14:19:02Z</time>
      </trkpt>
      <trkpt lat="43.01194" lon="-1.2488">
        <ele>879.49</ele>
        <time>2021-08-05T14:19:07Z</time>
      </trkpt>
      <trkpt lat="43.01197" lon="-1.24788">
        <ele>880.07</ele>
        <time>2021-08-05T14:19:15Z</time>
      </trkpt>
      <trkpt lat="43.01199" lon="-1.24686">
        <ele>879.26</ele>
        <time>2021-08-05T14:19:23Z</time>
      </trkpt>
      <trkpt lat="43.01206" lon="-1.2465">
        <ele>877.62</ele>
        <time>2021-08-05T14:19:27Z</time>
      </trkpt>
      <trkpt lat="43.01204" lon="-1.24631">
        <ele>876.14</ele>
        <time>2021-08-05T14:19:29Z</time>
      </trkpt>
      <trkpt lat="43.01164" lon="-1.24588">
        <ele>873.13</ele>
        <time>2021-08-05T14:19:35Z</time>
      </trkpt>
      <trkpt lat="43.01151" lon="-1.24568">
        <ele>872.78</ele>
        <time>2021-08-05T14:19:37Z</time>
      </trkpt>
      <trkpt lat="43.01128" lon="-1.245">
        <ele>872.73</ele>
        <time>2021-08-05T14:19:43Z</time>
      </trkpt>
      <trkpt lat="43.01096" lon="-1.24454">
        <ele>872.56</ele>
        <time>2021-08-05T14:19:48Z</time>
      </trkpt>
      <trkpt lat="43.01084" lon="-1.24442">
        <ele>872.33</ele>
        <time>2021-08-05T14:19:50Z</time>
      </trkpt>
      <trkpt lat="43.01067" lon="-1.24385">
        <ele>870.91</ele>
        <time>2021-08-05T14:19:56Z</time>
      </trkpt>
      <trkpt lat="43.01063" lon="-1.243">
        <ele>867.54</ele>
        <time>2021-08-05T14:20:04Z</time>
      </trkpt>
      <trkpt lat="43.01066" lon="-1.24232">
        <ele>864.19</ele>
        <time>2021-08-05T14:20:10Z</time>
      </trkpt>
      <trkpt lat="43.01067" lon="-1.24222">
        <ele>863.5</ele>
        <time>2021-08-05T14:20:11Z</time>
      </trkpt>
      <trkpt lat="43.01075" lon="-1.24184">
        <ele>861.33</ele>
        <time>2021-08-05T14:20:15Z</time>
      </trkpt>
      <trkpt lat="43.01038" lon="-1.24123">
        <ele>860.34</ele>
        <time>2021-08-05T14:20:22Z</time>
      </trkpt>
      <trkpt lat="43.01006" lon="-1.24088">
        <ele>859.67</ele>
        <time>2021-08-05T14:20:27Z</time>
      </trkpt>
      <trkpt lat="43.00983" lon="-1.24039">
        <ele>858.58</ele>
        <time>2021-08-05T14:20:32Z</time>
      </trkpt>
      <trkpt lat="43.00997" lon="-1.23978">
        <ele>855.81</ele>
        <time>2021-08-05T14:20:39Z</time>
      </trkpt>
      <trkpt lat="43.01029" lon="-1.23959">
        <ele>854.91</ele>
        <time>2021-08-05T14:20:44Z</time>
      </trkpt>
      <trkpt lat="43.01063" lon="-1.23957">
        <ele>854.92</ele>
        <time>2021-08-05T14:20:48Z</time>
      </trkpt>
      <trkpt lat="43.01098" lon="-1.23928">
        <ele>855.96</ele>
        <time>2021-08-05T14:20:53Z</time>
      </trkpt>
      <trkpt lat="43.01107" lon="-1.2391">
        <ele>856.65</ele>
        <time>2021-08-05T14:20:55Z</time>
      </trkpt>
      <trkpt lat="43.01116" lon="-1.23867">
        <ele>858.08</ele>
        <time>2021-08-05T14:20:59Z</time>
      </trkpt>
      <trkpt lat="43.01121" lon="-1.23798">
        <ele>861.15</ele>
        <time>2021-08-05T14:21:05Z</time>
      </trkpt>
      <trkpt lat="43.01126" lon="-1.23755">
        <ele>863.74</ele>
        <time>2021-08-05T14:21:11Z</time>
      </trkpt>
      <trkpt lat="43.01107" lon="-1.23657">
        <ele>866.42</ele>
        <time>2021-08-05T14:21:20Z</time>
      </trkpt>
      <trkpt lat="43.01115" lon="-1.23528">
        <ele>867.87</ele>
        <time>2021-08-05T14:21:29Z</time>
      </trkpt>
      <trkpt lat="43.01117" lon="-1.2341">
        <ele>864.84</ele>
        <time>2021-08-05T14:21:37Z</time>
      </trkpt>
      <trkpt lat="43.01121" lon="-1.23308">
        <ele>861.43</ele>
        <time>2021-08-05T14:21:45Z</time>
      </trkpt>
      <trkpt lat="43.01122" lon="-1.23229">
        <ele>857.68</ele>
        <time>2021-08-05T14:21:51Z</time>
      </trkpt>
      <trkpt lat="43.01118" lon="-1.2318">
        <ele>854.18</ele>
        <time>2021-08-05T14:21:55Z</time>
      </trkpt>
      <trkpt lat="43.01113" lon="-1.23144">
        <ele>850.88</ele>
        <time>2021-08-05T14:21:58Z</time>
      </trkpt>
      <trkpt lat="43.01107" lon="-1.23107">
        <ele>847.64</ele>
        <time>2021-08-05T14:22:01Z</time>
      </trkpt>
      <trkpt lat="43.01102" lon="-1.23068">
        <ele>844.39</ele>
        <time>2021-08-05T14:22:04Z</time>
      </trkpt>
      <trkpt lat="43.01097" lon="-1.23035">
        <ele>841.13</ele>
        <time>2021-08-05T14:22:07Z</time>
      </trkpt>
      <trkpt lat="43.01093" lon="-1.23017">
        <ele>839.07</ele>
        <time>2021-08-05T14:22:09Z</time>
      </trkpt>
      <trkpt lat="43.01092" lon="-1.23002">
        <ele>837.03</ele>
        <time>2021-08-05T14:22:11Z</time>
      </trkpt>
      <trkpt lat="43.0107" lon="-1.2298">
        <ele>832.57</ele>
        <time>2021-08-05T14:22:16Z</time>
      </trkpt>
      <trkpt lat="43.01063" lon="-1.22977">
        <ele>831.88</ele>
        <time>2021-08-05T14:22:17Z</time>
      </trkpt>
      <trkpt lat="43.01037" lon="-1.2297">
        <ele>829.52</ele>
        <time>2021-08-05T14:22:22Z</time>
      </trkpt>
      <trkpt lat="43.01019" lon="-1.22952">
        <ele>828.15</ele>
        <time>2021-08-05T14:22:27Z</time>
      </trkpt>
      <trkpt lat="43.01014" lon="-1.22936">
        <ele>826.68</ele>
        <time>2021-08-05T14:22:34Z</time>
      </trkpt>
      <trkpt lat="43.00999" lon="-1.22904">
        <ele>826.74</ele>
        <time>2021-08-05T14:22:43Z</time>
      </trkpt>
      <trkpt lat="43.00995" lon="-1.229">
        <ele>827.32</ele>
        <time>2021-08-05T14:22:46Z</time>
      </trkpt>
      <trkpt lat="43.00972" lon="-1.22843">
        <ele>830.49</ele>
        <time>2021-08-05T14:22:57Z</time>
      </trkpt>
      <trkpt lat="43.00952" lon="-1.22786">
        <ele>832</ele>
        <time>2021-08-05T14:23:09Z</time>
      </trkpt>
      <trkpt lat="43.00951" lon="-1.2276">
        <ele>831.97</ele>
        <time>2021-08-05T14:23:22Z</time>
      </trkpt>
      <trkpt lat="43.0095" lon="-1.22761">
        <ele>832.51</ele>
        <time>2021-08-05T14:23:44Z</time>
      </trkpt>
      <trkpt lat="43.00951" lon="-1.22764">
        <ele>832.53</ele>
        <time>2021-08-05T14:23:46Z</time>
      </trkpt>
      <trkpt lat="43.00962" lon="-1.22813">
        <ele>833.01</ele>
        <time>2021-08-05T14:23:58Z</time>
      </trkpt>
      <trkpt lat="43.00987" lon="-1.22879">
        <ele>833.3</ele>
        <time>2021-08-05T14:24:07Z</time>
      </trkpt>
      <trkpt lat="43.01004" lon="-1.22901">
        <ele>833.17</ele>
        <time>2021-08-05T14:24:11Z</time>
      </trkpt>
      <trkpt lat="43.0109" lon="-1.22934">
        <ele>833.88</ele>
        <time>2021-08-05T14:24:20Z</time>
      </trkpt>
      <trkpt lat="43.01135" lon="-1.22911">
        <ele>834.35</ele>
        <time>2021-08-05T14:24:24Z</time>
      </trkpt>
      <trkpt lat="43.01181" lon="-1.22836">
        <ele>835.51</ele>
        <time>2021-08-05T14:24:30Z</time>
      </trkpt>
      <trkpt lat="43.01247" lon="-1.22811">
        <ele>837.06</ele>
        <time>2021-08-05T14:24:36Z</time>
      </trkpt>
      <trkpt lat="43.01261" lon="-1.22812">
        <ele>837.2</ele>
        <time>2021-08-05T14:24:37Z</time>
      </trkpt>
      <trkpt lat="43.0129" lon="-1.22821">
        <ele>837.4</ele>
        <time>2021-08-05T14:24:39Z</time>
      </trkpt>
      <trkpt lat="43.0141" lon="-1.22905">
        <ele>838.92</ele>
        <time>2021-08-05T14:24:48Z</time>
      </trkpt>
      <trkpt lat="43.01501" lon="-1.22924">
        <ele>841.28</ele>
        <time>2021-08-05T14:24:54Z</time>
      </trkpt>
      <trkpt lat="43.01561" lon="-1.22888">
        <ele>842.55</ele>
        <time>2021-08-05T14:24:59Z</time>
      </trkpt>
      <trkpt lat="43.01588" lon="-1.22872">
        <ele>843.04</ele>
        <time>2021-08-05T14:25:01Z</time>
      </trkpt>
      <trkpt lat="43.01667" lon="-1.22874">
        <ele>844.56</ele>
        <time>2021-08-05T14:25:07Z</time>
      </trkpt>
      <trkpt lat="43.01755" lon="-1.22909">
        <ele>845.09</ele>
        <time>2021-08-05T14:25:14Z</time>
      </trkpt>
      <trkpt lat="43.01816" lon="-1.22918">
        <ele>846.29</ele>
        <time>2021-08-05T14:25:19Z</time>
      </trkpt>
      <trkpt lat="43.0187" lon="-1.22982">
        <ele>848.32</ele>
        <time>2021-08-05T14:25:25Z</time>
      </trkpt>
      <trkpt lat="43.01876" lon="-1.22999">
        <ele>848.58</ele>
        <time>2021-08-05T14:25:26Z</time>
      </trkpt>
      <trkpt lat="43.01891" lon="-1.23046">
        <ele>849.49</ele>
        <time>2021-08-05T14:25:29Z</time>
      </trkpt>
      <trkpt lat="43.01936" lon="-1.23086">
        <ele>850.59</ele>
        <time>2021-08-05T14:25:35Z</time>
      </trkpt>
      <trkpt lat="43.01972" lon="-1.2309">
        <ele>852.45</ele>
        <time>2021-08-05T14:25:39Z</time>
      </trkpt>
      <trkpt lat="43.0203" lon="-1.23066">
        <ele>856.83</ele>
        <time>2021-08-05T14:25:45Z</time>
      </trkpt>
      <trkpt lat="43.02082" lon="-1.23036">
        <ele>860.36</ele>
        <time>2021-08-05T14:25:49Z</time>
      </trkpt>
      <trkpt lat="43.02096" lon="-1.23029">
        <ele>861.17</ele>
        <time>2021-08-05T14:25:50Z</time>
      </trkpt>
      <trkpt lat="43.02172" lon="-1.23013">
        <ele>865.94</ele>
        <time>2021-08-05T14:25:55Z</time>
      </trkpt>
      <trkpt lat="43.02216" lon="-1.23014">
        <ele>869.3</ele>
        <time>2021-08-05T14:25:58Z</time>
      </trkpt>
      <trkpt lat="43.02257" lon="-1.23018">
        <ele>872.63</ele>
        <time>2021-08-05T14:26:01Z</time>
      </trkpt>
      <trkpt lat="43.02271" lon="-1.23022">
        <ele>873.69</ele>
        <time>2021-08-05T14:26:02Z</time>
      </trkpt>
      <trkpt lat="43.0232" lon="-1.23054">
        <ele>877</ele>
        <time>2021-08-05T14:26:06Z</time>
      </trkpt>
      <trkpt lat="43.02397" lon="-1.23062">
        <ele>881.45</ele>
        <time>2021-08-05T14:26:12Z</time>
      </trkpt>
      <trkpt lat="43.02438" lon="-1.23015">
        <ele>884.64</ele>
        <time>2021-08-05T14:26:16Z</time>
      </trkpt>
      <trkpt lat="43.02445" lon="-1.22999">
        <ele>885.54</ele>
        <time>2021-08-05T14:26:17Z</time>
      </trkpt>
      <trkpt lat="43.02488" lon="-1.22919">
        <ele>889.26</ele>
        <time>2021-08-05T14:26:22Z</time>
      </trkpt>
      <trkpt lat="43.02532" lon="-1.22887">
        <ele>890.66</ele>
        <time>2021-08-05T14:26:26Z</time>
      </trkpt>
      <trkpt lat="43.02586" lon="-1.2288">
        <ele>892.02</ele>
        <time>2021-08-05T14:26:30Z</time>
      </trkpt>
      <trkpt lat="43.02647" lon="-1.22936">
        <ele>895.54</ele>
        <time>2021-08-05T14:26:37Z</time>
      </trkpt>
      <trkpt lat="43.02684" lon="-1.2296">
        <ele>898.4</ele>
        <time>2021-08-05T14:26:42Z</time>
      </trkpt>
      <trkpt lat="43.02698" lon="-1.22946">
        <ele>899.89</ele>
        <time>2021-08-05T14:26:44Z</time>
      </trkpt>
      <trkpt lat="43.02737" lon="-1.22904">
        <ele>905.38</ele>
        <time>2021-08-05T14:26:49Z</time>
      </trkpt>
      <trkpt lat="43.02746" lon="-1.22896">
        <ele>906.37</ele>
        <time>2021-08-05T14:26:50Z</time>
      </trkpt>
      <trkpt lat="43.0277" lon="-1.2286">
        <ele>909.58</ele>
        <time>2021-08-05T14:26:53Z</time>
      </trkpt>
      <trkpt lat="43.02812" lon="-1.22815">
        <ele>914.34</ele>
        <time>2021-08-05T14:26:57Z</time>
      </trkpt>
      <trkpt lat="43.02824" lon="-1.22807">
        <ele>915.72</ele>
        <time>2021-08-05T14:26:58Z</time>
      </trkpt>
      <trkpt lat="43.02847" lon="-1.22791">
        <ele>918.76</ele>
        <time>2021-08-05T14:27:00Z</time>
      </trkpt>
      <trkpt lat="43.02884" lon="-1.22785">
        <ele>923.35</ele>
        <time>2021-08-05T14:27:03Z</time>
      </trkpt>
      <trkpt lat="43.02925" lon="-1.22778">
        <ele>927.82</ele>
        <time>2021-08-05T14:27:06Z</time>
      </trkpt>
      <trkpt lat="43.02951" lon="-1.22765">
        <ele>930.96</ele>
        <time>2021-08-05T14:27:08Z</time>
      </trkpt>
      <trkpt lat="43.02978" lon="-1.22767">
        <ele>934.03</ele>
        <time>2021-08-05T14:27:10Z</time>
      </trkpt>
      <trkpt lat="43.03006" lon="-1.22774">
        <ele>937.11</ele>
        <time>2021-08-05T14:27:12Z</time>
      </trkpt>
      <trkpt lat="43.0304" lon="-1.22768">
        <ele>942.81</ele>
        <time>2021-08-05T14:27:16Z</time>
      </trkpt>
      <trkpt lat="43.03058" lon="-1.22763">
        <ele>946.92</ele>
        <time>2021-08-05T14:27:19Z</time>
      </trkpt>
      <trkpt lat="43.03086" lon="-1.22754">
        <ele>950.28</ele>
        <time>2021-08-05T14:27:22Z</time>
      </trkpt>
      <trkpt lat="43.03117" lon="-1.22743">
        <ele>953.68</ele>
        <time>2021-08-05T14:27:25Z</time>
      </trkpt>
      <trkpt lat="43.03127" lon="-1.2274">
        <ele>954.86</ele>
        <time>2021-08-05T14:27:26Z</time>
      </trkpt>
      <trkpt lat="43.03171" lon="-1.22738">
        <ele>959.71</ele>
        <time>2021-08-05T14:27:30Z</time>
      </trkpt>
      <trkpt lat="43.03202" lon="-1.22733">
        <ele>963.44</ele>
        <time>2021-08-05T14:27:33Z</time>
      </trkpt>
      <trkpt lat="43.0321" lon="-1.22731">
        <ele>964.65</ele>
        <time>2021-08-05T14:27:34Z</time>
      </trkpt>
      <trkpt lat="43.03234" lon="-1.2271">
        <ele>968.97</ele>
        <time>2021-08-05T14:27:38Z</time>
      </trkpt>
      <trkpt lat="43.03238" lon="-1.22702">
        <ele>969.71</ele>
        <time>2021-08-05T14:27:39Z</time>
      </trkpt>
      <trkpt lat="43.03267" lon="-1.22644">
        <ele>974.05</ele>
        <time>2021-08-05T14:27:45Z</time>
      </trkpt>
      <trkpt lat="43.03291" lon="-1.22612">
        <ele>977.69</ele>
        <time>2021-08-05T14:27:49Z</time>
      </trkpt>
      <trkpt lat="43.03307" lon="-1.22584">
        <ele>981.75</ele>
        <time>2021-08-05T14:27:53Z</time>
      </trkpt>
      <trkpt lat="43.03315" lon="-1.22571">
        <ele>983.78</ele>
        <time>2021-08-05T14:27:55Z</time>
      </trkpt>
      <trkpt lat="43.03341" lon="-1.22537">
        <ele>987.71</ele>
        <time>2021-08-05T14:28:00Z</time>
      </trkpt>
      <trkpt lat="43.0337" lon="-1.22498">
        <ele>991.04</ele>
        <time>2021-08-05T14:28:04Z</time>
      </trkpt>
      <trkpt lat="43.03393" lon="-1.22464">
        <ele>994.04</ele>
        <time>2021-08-05T14:28:07Z</time>
      </trkpt>
      <trkpt lat="43.03435" lon="-1.22429">
        <ele>998.56</ele>
        <time>2021-08-05T14:28:11Z</time>
      </trkpt>
      <trkpt lat="43.03474" lon="-1.22402">
        <ele>1002.08</ele>
        <time>2021-08-05T14:28:14Z</time>
      </trkpt>
      <trkpt lat="43.03516" lon="-1.22378">
        <ele>1005.78</ele>
        <time>2021-08-05T14:28:17Z</time>
      </trkpt>
      <trkpt lat="43.03564" lon="-1.22371">
        <ele>1010.93</ele>
        <time>2021-08-05T14:28:21Z</time>
      </trkpt>
      <trkpt lat="43.03579" lon="-1.22392">
        <ele>1013.68</ele>
        <time>2021-08-05T14:28:23Z</time>
      </trkpt>
      <trkpt lat="43.03588" lon="-1.22419">
        <ele>1016.21</ele>
        <time>2021-08-05T14:28:25Z</time>
      </trkpt>
      <trkpt lat="43.03605" lon="-1.22432">
        <ele>1020.52</ele>
        <time>2021-08-05T14:28:28Z</time>
      </trkpt>
      <trkpt lat="43.03615" lon="-1.22402">
        <ele>1023.39</ele>
        <time>2021-08-05T14:28:31Z</time>
      </trkpt>
      <trkpt lat="43.03646" lon="-1.22324">
        <ele>1029.21</ele>
        <time>2021-08-05T14:28:37Z</time>
      </trkpt>
      <trkpt lat="43.03687" lon="-1.22331">
        <ele>1033.15</ele>
        <time>2021-08-05T14:28:41Z</time>
      </trkpt>
      <trkpt lat="43.03744" lon="-1.22361">
        <ele>1038.64</ele>
        <time>2021-08-05T14:28:46Z</time>
      </trkpt>
      <trkpt lat="43.03774" lon="-1.22371">
        <ele>1042.16</ele>
        <time>2021-08-05T14:28:49Z</time>
      </trkpt>
      <trkpt lat="43.03783" lon="-1.22373">
        <ele>1043.36</ele>
        <time>2021-08-05T14:28:50Z</time>
      </trkpt>
      <trkpt lat="43.03808" lon="-1.22374">
        <ele>1048.21</ele>
        <time>2021-08-05T14:28:54Z</time>
      </trkpt>
      <trkpt lat="43.03821" lon="-1.22361">
        <ele>1051.87</ele>
        <time>2021-08-05T14:28:58Z</time>
      </trkpt>
      <trkpt lat="43.03827" lon="-1.22339">
        <ele>1053.5</ele>
        <time>2021-08-05T14:29:01Z</time>
      </trkpt>
      <trkpt lat="43.03856" lon="-1.22215">
        <ele>1054.18</ele>
        <time>2021-08-05T14:29:11Z</time>
      </trkpt>
      <trkpt lat="43.03881" lon="-1.22164">
        <ele>1052.74</ele>
        <time>2021-08-05T14:29:15Z</time>
      </trkpt>
      <trkpt lat="43.03865" lon="-1.22116">
        <ele>1050.5</ele>
        <time>2021-08-05T14:29:20Z</time>
      </trkpt>
      <trkpt lat="43.03786" lon="-1.22055">
        <ele>1047.02</ele>
        <time>2021-08-05T14:29:27Z</time>
      </trkpt>
      <trkpt lat="43.03726" lon="-1.22014">
        <ele>1043.41</ele>
        <time>2021-08-05T14:29:32Z</time>
      </trkpt>
      <trkpt lat="43.03677" lon="-1.21976">
        <ele>1040.01</ele>
        <time>2021-08-05T14:29:36Z</time>
      </trkpt>
      <trkpt lat="43.0363" lon="-1.21936">
        <ele>1036.41</ele>
        <time>2021-08-05T14:29:40Z</time>
      </trkpt>
      <trkpt lat="43.03605" lon="-1.21919">
        <ele>1033.71</ele>
        <time>2021-08-05T14:29:43Z</time>
      </trkpt>
      <trkpt lat="43.03612" lon="-1.219">
        <ele>1029.14</ele>
        <time>2021-08-05T14:29:48Z</time>
      </trkpt>
      <trkpt lat="43.03621" lon="-1.21902">
        <ele>1028.5</ele>
        <time>2021-08-05T14:29:49Z</time>
      </trkpt>
      <trkpt lat="43.03693" lon="-1.21915">
        <ele>1024.67</ele>
        <time>2021-08-05T14:29:54Z</time>
      </trkpt>
      <trkpt lat="43.03748" lon="-1.21922">
        <ele>1021.18</ele>
        <time>2021-08-05T14:29:58Z</time>
      </trkpt>
      <trkpt lat="43.03806" lon="-1.21932">
        <ele>1017.64</ele>
        <time>2021-08-05T14:30:02Z</time>
      </trkpt>
      <trkpt lat="43.03867" lon="-1.21933">
        <ele>1012.74</ele>
        <time>2021-08-05T14:30:06Z</time>
      </trkpt>
      <trkpt lat="43.03914" lon="-1.21926">
        <ele>1009.31</ele>
        <time>2021-08-05T14:30:09Z</time>
      </trkpt>
      <trkpt lat="43.03944" lon="-1.21917">
        <ele>1007.02</ele>
        <time>2021-08-05T14:30:11Z</time>
      </trkpt>
      <trkpt lat="43.04" lon="-1.21917">
        <ele>1002.47</ele>
        <time>2021-08-05T14:30:15Z</time>
      </trkpt>
      <trkpt lat="43.04015" lon="-1.21917">
        <ele>1001.31</ele>
        <time>2021-08-05T14:30:16Z</time>
      </trkpt>
      <trkpt lat="43.04063" lon="-1.21894">
        <ele>997.03</ele>
        <time>2021-08-05T14:30:20Z</time>
      </trkpt>
      <trkpt lat="43.04074" lon="-1.21883">
        <ele>996</ele>
        <time>2021-08-05T14:30:21Z</time>
      </trkpt>
      <trkpt lat="43.0412" lon="-1.21839">
        <ele>992.43</ele>
        <time>2021-08-05T14:30:25Z</time>
      </trkpt>
      <trkpt lat="43.0414" lon="-1.21827">
        <ele>991.16</ele>
        <time>2021-08-05T14:30:27Z</time>
      </trkpt>
      <trkpt lat="43.04159" lon="-1.21823">
        <ele>990.49</ele>
        <time>2021-08-05T14:30:29Z</time>
      </trkpt>
      <trkpt lat="43.04182" lon="-1.21822">
        <ele>990.35</ele>
        <time>2021-08-05T14:30:32Z</time>
      </trkpt>
      <trkpt lat="43.04206" lon="-1.21772">
        <ele>992.21</ele>
        <time>2021-08-05T14:30:39Z</time>
      </trkpt>
      <trkpt lat="43.04207" lon="-1.21763">
        <ele>992.71</ele>
        <time>2021-08-05T14:30:40Z</time>
      </trkpt>
      <trkpt lat="43.04225" lon="-1.21713">
        <ele>996.8</ele>
        <time>2021-08-05T14:30:46Z</time>
      </trkpt>
      <trkpt lat="43.04249" lon="-1.21667">
        <ele>999.94</ele>
        <time>2021-08-05T14:30:52Z</time>
      </trkpt>
      <trkpt lat="43.04288" lon="-1.21627">
        <ele>1001.02</ele>
        <time>2021-08-05T14:30:57Z</time>
      </trkpt>
      <trkpt lat="43.04412" lon="-1.21543">
        <ele>1000.24</ele>
        <time>2021-08-05T14:31:08Z</time>
      </trkpt>
      <trkpt lat="43.0455" lon="-1.21455">
        <ele>997.21</ele>
        <time>2021-08-05T14:31:19Z</time>
      </trkpt>
      <trkpt lat="43.04633" lon="-1.2141">
        <ele>995.66</ele>
        <time>2021-08-05T14:31:27Z</time>
      </trkpt>
      <trkpt lat="43.04756" lon="-1.21343">
        <ele>994.81</ele>
        <time>2021-08-05T14:31:39Z</time>
      </trkpt>
      <trkpt lat="43.04818" lon="-1.2131">
        <ele>994.97</ele>
        <time>2021-08-05T14:31:47Z</time>
      </trkpt>
      <trkpt lat="43.04844" lon="-1.21264">
        <ele>994.45</ele>
        <time>2021-08-05T14:31:53Z</time>
      </trkpt>
      <trkpt lat="43.04865" lon="-1.21243">
        <ele>994.23</ele>
        <time>2021-08-05T14:31:56Z</time>
      </trkpt>
      <trkpt lat="43.04938" lon="-1.21177">
        <ele>994.3</ele>
        <time>2021-08-05T14:32:07Z</time>
      </trkpt>
    </trkseg>
  </trk>
  <trk>
    <name><![CDATA[4x4 Jour 7_6]]></name>
    <trkseg>
      <trkpt lat="43.04979" lon="-1.21173">
        <ele>998.44</ele>
        <time>2021-08-05T14:54:11Z</time>
      </trkpt>
      <trkpt lat="43.05007" lon="-1.21176">
        <ele>997.02</ele>
        <time>2021-08-05T14:54:14Z</time>
      </trkpt>
      <trkpt lat="43.05092" lon="-1.21158">
        <ele>998.38</ele>
        <time>2021-08-05T14:54:25Z</time>
      </trkpt>
      <trkpt lat="43.0516" lon="-1.21187">
        <ele>1001.28</ele>
        <time>2021-08-05T14:54:35Z</time>
      </trkpt>
      <trkpt lat="43.05207" lon="-1.21209">
        <ele>1000.54</ele>
        <time>2021-08-05T14:54:44Z</time>
      </trkpt>
      <trkpt lat="43.05296" lon="-1.21251">
        <ele>998.09</ele>
        <time>2021-08-05T14:54:57Z</time>
      </trkpt>
      <trkpt lat="43.05327" lon="-1.21266">
        <ele>996.79</ele>
        <time>2021-08-05T14:55:01Z</time>
      </trkpt>
      <trkpt lat="43.05394" lon="-1.21338">
        <ele>993.18</ele>
        <time>2021-08-05T14:55:11Z</time>
      </trkpt>
      <trkpt lat="43.054" lon="-1.21345">
        <ele>992.79</ele>
        <time>2021-08-05T14:55:12Z</time>
      </trkpt>
      <trkpt lat="43.05414" lon="-1.21378">
        <ele>990.97</ele>
        <time>2021-08-05T14:55:16Z</time>
      </trkpt>
      <trkpt lat="43.05415" lon="-1.21436">
        <ele>987.67</ele>
        <time>2021-08-05T14:55:23Z</time>
      </trkpt>
      <trkpt lat="43.05421" lon="-1.21456">
        <ele>984.09</ele>
        <time>2021-08-05T14:55:31Z</time>
      </trkpt>
      <trkpt lat="43.05436" lon="-1.21446">
        <ele>983.09</ele>
        <time>2021-08-05T14:55:35Z</time>
      </trkpt>
      <trkpt lat="43.05495" lon="-1.21381">
        <ele>981.72</ele>
        <time>2021-08-05T14:55:42Z</time>
      </trkpt>
      <trkpt lat="43.05554" lon="-1.21381">
        <ele>979.35</ele>
        <time>2021-08-05T14:55:47Z</time>
      </trkpt>
      <trkpt lat="43.05604" lon="-1.21391">
        <ele>976.14</ele>
        <time>2021-08-05T14:55:51Z</time>
      </trkpt>
      <trkpt lat="43.05643" lon="-1.21399">
        <ele>972.38</ele>
        <time>2021-08-05T14:55:55Z</time>
      </trkpt>
      <trkpt lat="43.0566" lon="-1.21404">
        <ele>968.86</ele>
        <time>2021-08-05T14:55:58Z</time>
      </trkpt>
      <trkpt lat="43.05677" lon="-1.21409">
        <ele>965.81</ele>
        <time>2021-08-05T14:56:01Z</time>
      </trkpt>
      <trkpt lat="43.05704" lon="-1.21414">
        <ele>962.29</ele>
        <time>2021-08-05T14:56:05Z</time>
      </trkpt>
      <trkpt lat="43.05724" lon="-1.21417">
        <ele>958.72</ele>
        <time>2021-08-05T14:56:08Z</time>
      </trkpt>
      <trkpt lat="43.05773" lon="-1.21426">
        <ele>955.58</ele>
        <time>2021-08-05T14:56:15Z</time>
      </trkpt>
      <trkpt lat="43.05791" lon="-1.21432">
        <ele>954.02</ele>
        <time>2021-08-05T14:56:18Z</time>
      </trkpt>
      <trkpt lat="43.05817" lon="-1.21404">
        <ele>949.81</ele>
        <time>2021-08-05T14:56:25Z</time>
      </trkpt>
      <trkpt lat="43.05815" lon="-1.21387">
        <ele>948.78</ele>
        <time>2021-08-05T14:56:27Z</time>
      </trkpt>
      <trkpt lat="43.05813" lon="-1.21369">
        <ele>948.12</ele>
        <time>2021-08-05T14:56:29Z</time>
      </trkpt>
      <trkpt lat="43.05836" lon="-1.21321">
        <ele>945.34</ele>
        <time>2021-08-05T14:56:36Z</time>
      </trkpt>
      <trkpt lat="43.05855" lon="-1.21296">
        <ele>944</ele>
        <time>2021-08-05T14:56:39Z</time>
      </trkpt>
      <trkpt lat="43.0588" lon="-1.21254">
        <ele>940.59</ele>
        <time>2021-08-05T14:56:44Z</time>
      </trkpt>
      <trkpt lat="43.05884" lon="-1.212">
        <ele>937.51</ele>
        <time>2021-08-05T14:56:51Z</time>
      </trkpt>
      <trkpt lat="43.05863" lon="-1.21136">
        <ele>932.63</ele>
        <time>2021-08-05T14:56:58Z</time>
      </trkpt>
      <trkpt lat="43.05861" lon="-1.2108">
        <ele>929.38</ele>
        <time>2021-08-05T14:57:03Z</time>
      </trkpt>
      <trkpt lat="43.05863" lon="-1.21057">
        <ele>928.05</ele>
        <time>2021-08-05T14:57:05Z</time>
      </trkpt>
      <trkpt lat="43.05859" lon="-1.21013">
        <ele>925.31</ele>
        <time>2021-08-05T14:57:09Z</time>
      </trkpt>
      <trkpt lat="43.05874" lon="-1.2097">
        <ele>921.83</ele>
        <time>2021-08-05T14:57:14Z</time>
      </trkpt>
      <trkpt lat="43.05887" lon="-1.20954">
        <ele>920.53</ele>
        <time>2021-08-05T14:57:16Z</time>
      </trkpt>
      <trkpt lat="43.05925" lon="-1.20929">
        <ele>917.96</ele>
        <time>2021-08-05T14:57:20Z</time>
      </trkpt>
      <trkpt lat="43.05969" lon="-1.20906">
        <ele>914.53</ele>
        <time>2021-08-05T14:57:25Z</time>
      </trkpt>
      <trkpt lat="43.0599" lon="-1.20959">
        <ele>911.09</ele>
        <time>2021-08-05T14:57:30Z</time>
      </trkpt>
      <trkpt lat="43.06001" lon="-1.21034">
        <ele>908.09</ele>
        <time>2021-08-05T14:57:34Z</time>
      </trkpt>
      <trkpt lat="43.06008" lon="-1.211">
        <ele>906.04</ele>
        <time>2021-08-05T14:57:37Z</time>
      </trkpt>
      <trkpt lat="43.06037" lon="-1.21151">
        <ele>901.64</ele>
        <time>2021-08-05T14:57:41Z</time>
      </trkpt>
      <trkpt lat="43.06063" lon="-1.21158">
        <ele>898.99</ele>
        <time>2021-08-05T14:57:43Z</time>
      </trkpt>
      <trkpt lat="43.06109" lon="-1.21192">
        <ele>894.19</ele>
        <time>2021-08-05T14:57:47Z</time>
      </trkpt>
      <trkpt lat="43.06125" lon="-1.21232">
        <ele>890.38</ele>
        <time>2021-08-05T14:57:50Z</time>
      </trkpt>
      <trkpt lat="43.0612" lon="-1.21272">
        <ele>886.74</ele>
        <time>2021-08-05T14:57:53Z</time>
      </trkpt>
      <trkpt lat="43.06109" lon="-1.21312">
        <ele>883.11</ele>
        <time>2021-08-05T14:57:56Z</time>
      </trkpt>
      <trkpt lat="43.06102" lon="-1.21358">
        <ele>879.88</ele>
        <time>2021-08-05T14:57:59Z</time>
      </trkpt>
      <trkpt lat="43.06097" lon="-1.21373">
        <ele>879.03</ele>
        <time>2021-08-05T14:58:00Z</time>
      </trkpt>
      <trkpt lat="43.061" lon="-1.21466">
        <ele>873.69</ele>
        <time>2021-08-05T14:58:06Z</time>
      </trkpt>
      <trkpt lat="43.0613" lon="-1.21501">
        <ele>870</ele>
        <time>2021-08-05T14:58:09Z</time>
      </trkpt>
      <trkpt lat="43.06159" lon="-1.21552">
        <ele>865.35</ele>
        <time>2021-08-05T14:58:13Z</time>
      </trkpt>
      <trkpt lat="43.06195" lon="-1.21565">
        <ele>860.39</ele>
        <time>2021-08-05T14:58:17Z</time>
      </trkpt>
      <trkpt lat="43.06214" lon="-1.21551">
        <ele>858.07</ele>
        <time>2021-08-05T14:58:19Z</time>
      </trkpt>
      <trkpt lat="43.06276" lon="-1.2152">
        <ele>853.08</ele>
        <time>2021-08-05T14:58:24Z</time>
      </trkpt>
      <trkpt lat="43.06314" lon="-1.21499">
        <ele>849.91</ele>
        <time>2021-08-05T14:58:27Z</time>
      </trkpt>
      <trkpt lat="43.06338" lon="-1.2149">
        <ele>847.82</ele>
        <time>2021-08-05T14:58:29Z</time>
      </trkpt>
      <trkpt lat="43.06366" lon="-1.21495">
        <ele>843.2</ele>
        <time>2021-08-05T14:58:32Z</time>
      </trkpt>
      <trkpt lat="43.06379" lon="-1.21515">
        <ele>840.94</ele>
        <time>2021-08-05T14:58:34Z</time>
      </trkpt>
      <trkpt lat="43.06416" lon="-1.21594">
        <ele>836.38</ele>
        <time>2021-08-05T14:58:39Z</time>
      </trkpt>
      <trkpt lat="43.06452" lon="-1.21662">
        <ele>832.22</ele>
        <time>2021-08-05T14:58:43Z</time>
      </trkpt>
      <trkpt lat="43.06482" lon="-1.21717">
        <ele>828.77</ele>
        <time>2021-08-05T14:58:46Z</time>
      </trkpt>
      <trkpt lat="43.06509" lon="-1.2177">
        <ele>824.58</ele>
        <time>2021-08-05T14:58:49Z</time>
      </trkpt>
      <trkpt lat="43.06527" lon="-1.21807">
        <ele>821.45</ele>
        <time>2021-08-05T14:58:51Z</time>
      </trkpt>
      <trkpt lat="43.06554" lon="-1.21861">
        <ele>817.19</ele>
        <time>2021-08-05T14:58:54Z</time>
      </trkpt>
      <trkpt lat="43.06568" lon="-1.21898">
        <ele>814.05</ele>
        <time>2021-08-05T14:58:56Z</time>
      </trkpt>
      <trkpt lat="43.06582" lon="-1.21932">
        <ele>810.78</ele>
        <time>2021-08-05T14:58:58Z</time>
      </trkpt>
      <trkpt lat="43.06597" lon="-1.21962">
        <ele>807.71</ele>
        <time>2021-08-05T14:59:00Z</time>
      </trkpt>
      <trkpt lat="43.06623" lon="-1.22007">
        <ele>803.39</ele>
        <time>2021-08-05T14:59:03Z</time>
      </trkpt>
      <trkpt lat="43.0665" lon="-1.22056">
        <ele>799.11</ele>
        <time>2021-08-05T14:59:06Z</time>
      </trkpt>
      <trkpt lat="43.06677" lon="-1.22111">
        <ele>795.29</ele>
        <time>2021-08-05T14:59:09Z</time>
      </trkpt>
      <trkpt lat="43.06702" lon="-1.22163">
        <ele>791.04</ele>
        <time>2021-08-05T14:59:12Z</time>
      </trkpt>
      <trkpt lat="43.06712" lon="-1.22195">
        <ele>787.93</ele>
        <time>2021-08-05T14:59:14Z</time>
      </trkpt>
      <trkpt lat="43.06717" lon="-1.22218">
        <ele>784.86</ele>
        <time>2021-08-05T14:59:16Z</time>
      </trkpt>
      <trkpt lat="43.06718" lon="-1.22225">
        <ele>783.33</ele>
        <time>2021-08-05T14:59:17Z</time>
      </trkpt>
      <trkpt lat="43.06727" lon="-1.22221">
        <ele>778.17</ele>
        <time>2021-08-05T14:59:21Z</time>
      </trkpt>
      <trkpt lat="43.06725" lon="-1.22203">
        <ele>776.38</ele>
        <time>2021-08-05T14:59:23Z</time>
      </trkpt>
      <trkpt lat="43.06708" lon="-1.22099">
        <ele>772.69</ele>
        <time>2021-08-05T14:59:29Z</time>
      </trkpt>
      <trkpt lat="43.06698" lon="-1.22014">
        <ele>769.67</ele>
        <time>2021-08-05T14:59:33Z</time>
      </trkpt>
      <trkpt lat="43.06686" lon="-1.21942">
        <ele>765.54</ele>
        <time>2021-08-05T14:59:37Z</time>
      </trkpt>
      <trkpt lat="43.06678" lon="-1.21885">
        <ele>761.89</ele>
        <time>2021-08-05T14:59:40Z</time>
      </trkpt>
      <trkpt lat="43.06667" lon="-1.21833">
        <ele>757.76</ele>
        <time>2021-08-05T14:59:43Z</time>
      </trkpt>
      <trkpt lat="43.06658" lon="-1.21779">
        <ele>753.65</ele>
        <time>2021-08-05T14:59:46Z</time>
      </trkpt>
      <trkpt lat="43.06652" lon="-1.21724">
        <ele>749.67</ele>
        <time>2021-08-05T14:59:49Z</time>
      </trkpt>
      <trkpt lat="43.0665" lon="-1.21668">
        <ele>745.49</ele>
        <time>2021-08-05T14:59:52Z</time>
      </trkpt>
      <trkpt lat="43.06644" lon="-1.21612">
        <ele>741.23</ele>
        <time>2021-08-05T14:59:55Z</time>
      </trkpt>
      <trkpt lat="43.06638" lon="-1.21582">
        <ele>738.12</ele>
        <time>2021-08-05T14:59:57Z</time>
      </trkpt>
      <trkpt lat="43.06628" lon="-1.21537">
        <ele>733.68</ele>
        <time>2021-08-05T15:00:00Z</time>
      </trkpt>
      <trkpt lat="43.06622" lon="-1.21488">
        <ele>729.46</ele>
        <time>2021-08-05T15:00:03Z</time>
      </trkpt>
      <trkpt lat="43.06619" lon="-1.21458">
        <ele>726.66</ele>
        <time>2021-08-05T15:00:05Z</time>
      </trkpt>
      <trkpt lat="43.06625" lon="-1.21399">
        <ele>721.46</ele>
        <time>2021-08-05T15:00:09Z</time>
      </trkpt>
      <trkpt lat="43.0663" lon="-1.21369">
        <ele>717.53</ele>
        <time>2021-08-05T15:00:11Z</time>
      </trkpt>
      <trkpt lat="43.06637" lon="-1.21336">
        <ele>713.83</ele>
        <time>2021-08-05T15:00:14Z</time>
      </trkpt>
      <trkpt lat="43.06638" lon="-1.21323">
        <ele>711.29</ele>
        <time>2021-08-05T15:00:16Z</time>
      </trkpt>
      <trkpt lat="43.06639" lon="-1.21302">
        <ele>708.36</ele>
        <time>2021-08-05T15:00:19Z</time>
      </trkpt>
      <trkpt lat="43.06626" lon="-1.21255">
        <ele>704.91</ele>
        <time>2021-08-05T15:00:23Z</time>
      </trkpt>
      <trkpt lat="43.066" lon="-1.21177">
        <ele>701.2</ele>
        <time>2021-08-05T15:00:28Z</time>
      </trkpt>
      <trkpt lat="43.06593" lon="-1.21164">
        <ele>700.23</ele>
        <time>2021-08-05T15:00:29Z</time>
      </trkpt>
      <trkpt lat="43.06557" lon="-1.21126">
        <ele>696.04</ele>
        <time>2021-08-05T15:00:33Z</time>
      </trkpt>
      <trkpt lat="43.06536" lon="-1.21077">
        <ele>692.01</ele>
        <time>2021-08-05T15:00:37Z</time>
      </trkpt>
      <trkpt lat="43.06524" lon="-1.21034">
        <ele>688.74</ele>
        <time>2021-08-05T15:00:40Z</time>
      </trkpt>
      <trkpt lat="43.06501" lon="-1.20989">
        <ele>685.42</ele>
        <time>2021-08-05T15:00:43Z</time>
      </trkpt>
      <trkpt lat="43.06486" lon="-1.20964">
        <ele>683</ele>
        <time>2021-08-05T15:00:45Z</time>
      </trkpt>
      <trkpt lat="43.06463" lon="-1.20943">
        <ele>679.04</ele>
        <time>2021-08-05T15:00:48Z</time>
      </trkpt>
      <trkpt lat="43.06455" lon="-1.20894">
        <ele>674.55</ele>
        <time>2021-08-05T15:00:52Z</time>
      </trkpt>
      <trkpt lat="43.06454" lon="-1.20805">
        <ele>669.6</ele>
        <time>2021-08-05T15:00:57Z</time>
      </trkpt>
      <trkpt lat="43.06453" lon="-1.20786">
        <ele>668.57</ele>
        <time>2021-08-05T15:00:58Z</time>
      </trkpt>
      <trkpt lat="43.06441" lon="-1.20713">
        <ele>663.9</ele>
        <time>2021-08-05T15:01:02Z</time>
      </trkpt>
      <trkpt lat="43.06428" lon="-1.20657">
        <ele>660.25</ele>
        <time>2021-08-05T15:01:05Z</time>
      </trkpt>
      <trkpt lat="43.06414" lon="-1.20599">
        <ele>656.69</ele>
        <time>2021-08-05T15:01:08Z</time>
      </trkpt>
      <trkpt lat="43.064" lon="-1.20542">
        <ele>652.48</ele>
        <time>2021-08-05T15:01:11Z</time>
      </trkpt>
      <trkpt lat="43.0639" lon="-1.20488">
        <ele>648.23</ele>
        <time>2021-08-05T15:01:14Z</time>
      </trkpt>
      <trkpt lat="43.06383" lon="-1.20432">
        <ele>643.79</ele>
        <time>2021-08-05T15:01:17Z</time>
      </trkpt>
      <trkpt lat="43.06371" lon="-1.20377">
        <ele>639.31</ele>
        <time>2021-08-05T15:01:20Z</time>
      </trkpt>
      <trkpt lat="43.0636" lon="-1.20343">
        <ele>636.28</ele>
        <time>2021-08-05T15:01:22Z</time>
      </trkpt>
      <trkpt lat="43.06356" lon="-1.20325">
        <ele>634.86</ele>
        <time>2021-08-05T15:01:23Z</time>
      </trkpt>
      <trkpt lat="43.06349" lon="-1.20256">
        <ele>629.02</ele>
        <time>2021-08-05T15:01:27Z</time>
      </trkpt>
      <trkpt lat="43.06335" lon="-1.20216">
        <ele>624.69</ele>
        <time>2021-08-05T15:01:30Z</time>
      </trkpt>
      <trkpt lat="43.06317" lon="-1.20179">
        <ele>619.59</ele>
        <time>2021-08-05T15:01:34Z</time>
      </trkpt>
      <trkpt lat="43.06325" lon="-1.20165">
        <ele>615.99</ele>
        <time>2021-08-05T15:01:38Z</time>
      </trkpt>
      <trkpt lat="43.06336" lon="-1.20225">
        <ele>612.75</ele>
        <time>2021-08-05T15:01:43Z</time>
      </trkpt>
      <trkpt lat="43.06339" lon="-1.20238">
        <ele>612.2</ele>
        <time>2021-08-05T15:01:44Z</time>
      </trkpt>
      <trkpt lat="43.06357" lon="-1.20294">
        <ele>610.36</ele>
        <time>2021-08-05T15:01:48Z</time>
      </trkpt>
      <trkpt lat="43.06405" lon="-1.20378">
        <ele>605.58</ele>
        <time>2021-08-05T15:01:54Z</time>
      </trkpt>
      <trkpt lat="43.06428" lon="-1.2042">
        <ele>602.4</ele>
        <time>2021-08-05T15:01:57Z</time>
      </trkpt>
      <trkpt lat="43.0645" lon="-1.20465">
        <ele>598.87</ele>
        <time>2021-08-05T15:02:00Z</time>
      </trkpt>
      <trkpt lat="43.06471" lon="-1.20515">
        <ele>595.48</ele>
        <time>2021-08-05T15:02:03Z</time>
      </trkpt>
      <trkpt lat="43.06486" lon="-1.20566">
        <ele>592.06</ele>
        <time>2021-08-05T15:02:06Z</time>
      </trkpt>
      <trkpt lat="43.06491" lon="-1.20583">
        <ele>590.85</ele>
        <time>2021-08-05T15:02:07Z</time>
      </trkpt>
      <trkpt lat="43.06528" lon="-1.20644">
        <ele>586.23</ele>
        <time>2021-08-05T15:02:11Z</time>
      </trkpt>
      <trkpt lat="43.06558" lon="-1.20686">
        <ele>582.37</ele>
        <time>2021-08-05T15:02:14Z</time>
      </trkpt>
      <trkpt lat="43.06586" lon="-1.20728">
        <ele>578.29</ele>
        <time>2021-08-05T15:02:17Z</time>
      </trkpt>
      <trkpt lat="43.06611" lon="-1.20766">
        <ele>573.99</ele>
        <time>2021-08-05T15:02:20Z</time>
      </trkpt>
      <trkpt lat="43.0662" lon="-1.20775">
        <ele>572.57</ele>
        <time>2021-08-05T15:02:21Z</time>
      </trkpt>
      <trkpt lat="43.06659" lon="-1.20809">
        <ele>567.51</ele>
        <time>2021-08-05T15:02:25Z</time>
      </trkpt>
      <trkpt lat="43.06677" lon="-1.20829">
        <ele>564.97</ele>
        <time>2021-08-05T15:02:27Z</time>
      </trkpt>
      <trkpt lat="43.06709" lon="-1.20886">
        <ele>559.75</ele>
        <time>2021-08-05T15:02:31Z</time>
      </trkpt>
      <trkpt lat="43.06736" lon="-1.20926">
        <ele>556</ele>
        <time>2021-08-05T15:02:34Z</time>
      </trkpt>
      <trkpt lat="43.06766" lon="-1.20959">
        <ele>552.28</ele>
        <time>2021-08-05T15:02:37Z</time>
      </trkpt>
      <trkpt lat="43.06791" lon="-1.2098">
        <ele>548.53</ele>
        <time>2021-08-05T15:02:40Z</time>
      </trkpt>
      <trkpt lat="43.06798" lon="-1.20986">
        <ele>547.26</ele>
        <time>2021-08-05T15:02:41Z</time>
      </trkpt>
      <trkpt lat="43.06814" lon="-1.21031">
        <ele>542.88</ele>
        <time>2021-08-05T15:02:45Z</time>
      </trkpt>
      <trkpt lat="43.06822" lon="-1.21053">
        <ele>540.88</ele>
        <time>2021-08-05T15:02:47Z</time>
      </trkpt>
      <trkpt lat="43.06857" lon="-1.21075">
        <ele>536.44</ele>
        <time>2021-08-05T15:02:51Z</time>
      </trkpt>
      <trkpt lat="43.06893" lon="-1.21095">
        <ele>532.06</ele>
        <time>2021-08-05T15:02:55Z</time>
      </trkpt>
      <trkpt lat="43.06914" lon="-1.21143">
        <ele>526.6</ele>
        <time>2021-08-05T15:02:59Z</time>
      </trkpt>
      <trkpt lat="43.06925" lon="-1.21188">
        <ele>522.76</ele>
        <time>2021-08-05T15:03:02Z</time>
      </trkpt>
      <trkpt lat="43.06959" lon="-1.21259">
        <ele>516.07</ele>
        <time>2021-08-05T15:03:07Z</time>
      </trkpt>
      <trkpt lat="43.06972" lon="-1.21295">
        <ele>512.68</ele>
        <time>2021-08-05T15:03:10Z</time>
      </trkpt>
      <trkpt lat="43.06976" lon="-1.21304">
        <ele>511.74</ele>
        <time>2021-08-05T15:03:11Z</time>
      </trkpt>
      <trkpt lat="43.07004" lon="-1.21303">
        <ele>507.78</ele>
        <time>2021-08-05T15:03:17Z</time>
      </trkpt>
      <trkpt lat="43.06994" lon="-1.21258">
        <ele>506.18</ele>
        <time>2021-08-05T15:03:22Z</time>
      </trkpt>
      <trkpt lat="43.06988" lon="-1.21183">
        <ele>504.3</ele>
        <time>2021-08-05T15:03:29Z</time>
      </trkpt>
      <trkpt lat="43.07016" lon="-1.21112">
        <ele>500.37</ele>
        <time>2021-08-05T15:03:37Z</time>
      </trkpt>
      <trkpt lat="43.06999" lon="-1.21082">
        <ele>497.7</ele>
        <time>2021-08-05T15:03:41Z</time>
      </trkpt>
      <trkpt lat="43.06987" lon="-1.21065">
        <ele>496.6</ele>
        <time>2021-08-05T15:03:43Z</time>
      </trkpt>
      <trkpt lat="43.06965" lon="-1.21003">
        <ele>493.57</ele>
        <time>2021-08-05T15:03:48Z</time>
      </trkpt>
      <trkpt lat="43.06946" lon="-1.20968">
        <ele>491.61</ele>
        <time>2021-08-05T15:03:51Z</time>
      </trkpt>
      <trkpt lat="43.06939" lon="-1.20918">
        <ele>488.76</ele>
        <time>2021-08-05T15:03:55Z</time>
      </trkpt>
      <trkpt lat="43.06932" lon="-1.20849">
        <ele>485.59</ele>
        <time>2021-08-05T15:04:00Z</time>
      </trkpt>
      <trkpt lat="43.06926" lon="-1.20803">
        <ele>483.29</ele>
        <time>2021-08-05T15:04:03Z</time>
      </trkpt>
      <trkpt lat="43.06895" lon="-1.20727">
        <ele>478.41</ele>
        <time>2021-08-05T15:04:08Z</time>
      </trkpt>
      <trkpt lat="43.06878" lon="-1.20666">
        <ele>474.79</ele>
        <time>2021-08-05T15:04:12Z</time>
      </trkpt>
      <trkpt lat="43.06852" lon="-1.2059">
        <ele>469.66</ele>
        <time>2021-08-05T15:04:18Z</time>
      </trkpt>
      <trkpt lat="43.06844" lon="-1.20548">
        <ele>467.51</ele>
        <time>2021-08-05T15:04:21Z</time>
      </trkpt>
      <trkpt lat="43.06828" lon="-1.20466">
        <ele>463.18</ele>
        <time>2021-08-05T15:04:26Z</time>
      </trkpt>
      <trkpt lat="43.06825" lon="-1.20453">
        <ele>462.13</ele>
        <time>2021-08-05T15:04:27Z</time>
      </trkpt>
      <trkpt lat="43.06822" lon="-1.20399">
        <ele>457.83</ele>
        <time>2021-08-05T15:04:31Z</time>
      </trkpt>
      <trkpt lat="43.06822" lon="-1.20363">
        <ele>455.02</ele>
        <time>2021-08-05T15:04:34Z</time>
      </trkpt>
      <trkpt lat="43.06845" lon="-1.20339">
        <ele>451.77</ele>
        <time>2021-08-05T15:04:38Z</time>
      </trkpt>
      <trkpt lat="43.069" lon="-1.20317">
        <ele>448.2</ele>
        <time>2021-08-05T15:04:43Z</time>
      </trkpt>
      <trkpt lat="43.06919" lon="-1.20283">
        <ele>443.85</ele>
        <time>2021-08-05T15:04:48Z</time>
      </trkpt>
      <trkpt lat="43.06882" lon="-1.20271">
        <ele>440.47</ele>
        <time>2021-08-05T15:04:52Z</time>
      </trkpt>
      <trkpt lat="43.06857" lon="-1.20269">
        <ele>439.31</ele>
        <time>2021-08-05T15:04:54Z</time>
      </trkpt>
      <trkpt lat="43.06799" lon="-1.20211">
        <ele>436.56</ele>
        <time>2021-08-05T15:05:01Z</time>
      </trkpt>
      <trkpt lat="43.06799" lon="-1.20195">
        <ele>435.93</ele>
        <time>2021-08-05T15:05:02Z</time>
      </trkpt>
      <trkpt lat="43.068" lon="-1.2016">
        <ele>434.55</ele>
        <time>2021-08-05T15:05:04Z</time>
      </trkpt>
      <trkpt lat="43.06825" lon="-1.20075">
        <ele>430.09</ele>
        <time>2021-08-05T15:05:09Z</time>
      </trkpt>
      <trkpt lat="43.06836" lon="-1.20041">
        <ele>428.03</ele>
        <time>2021-08-05T15:05:11Z</time>
      </trkpt>
      <trkpt lat="43.0685" lon="-1.19985">
        <ele>423.68</ele>
        <time>2021-08-05T15:05:15Z</time>
      </trkpt>
      <trkpt lat="43.06851" lon="-1.19955">
        <ele>419.64</ele>
        <time>2021-08-05T15:05:18Z</time>
      </trkpt>
      <trkpt lat="43.06836" lon="-1.19935">
        <ele>415.66</ele>
        <time>2021-08-05T15:05:21Z</time>
      </trkpt>
      <trkpt lat="43.06836" lon="-1.19904">
        <ele>412.63</ele>
        <time>2021-08-05T15:05:24Z</time>
      </trkpt>
      <trkpt lat="43.0684" lon="-1.19892">
        <ele>411.7</ele>
        <time>2021-08-05T15:05:25Z</time>
      </trkpt>
      <trkpt lat="43.06851" lon="-1.19864">
        <ele>410.09</ele>
        <time>2021-08-05T15:05:27Z</time>
      </trkpt>
      <trkpt lat="43.0685" lon="-1.19793">
        <ele>405.63</ele>
        <time>2021-08-05T15:05:32Z</time>
      </trkpt>
      <trkpt lat="43.06832" lon="-1.19779">
        <ele>403.57</ele>
        <time>2021-08-05T15:05:34Z</time>
      </trkpt>
      <trkpt lat="43.0682" lon="-1.19735">
        <ele>398.11</ele>
        <time>2021-08-05T15:05:39Z</time>
      </trkpt>
      <trkpt lat="43.06825" lon="-1.19721">
        <ele>397.18</ele>
        <time>2021-08-05T15:05:40Z</time>
      </trkpt>
      <trkpt lat="43.06843" lon="-1.19649">
        <ele>393.57</ele>
        <time>2021-08-05T15:05:44Z</time>
      </trkpt>
      <trkpt lat="43.06844" lon="-1.19612">
        <ele>391.68</ele>
        <time>2021-08-05T15:05:46Z</time>
      </trkpt>
      <trkpt lat="43.06845" lon="-1.1957">
        <ele>387.99</ele>
        <time>2021-08-05T15:05:49Z</time>
      </trkpt>
      <trkpt lat="43.06847" lon="-1.19558">
        <ele>386.66</ele>
        <time>2021-08-05T15:05:50Z</time>
      </trkpt>
      <trkpt lat="43.06853" lon="-1.19548">
        <ele>385.32</ele>
        <time>2021-08-05T15:05:51Z</time>
      </trkpt>
      <trkpt lat="43.06859" lon="-1.19536">
        <ele>384.06</ele>
        <time>2021-08-05T15:05:52Z</time>
      </trkpt>
      <trkpt lat="43.06891" lon="-1.1945">
        <ele>378.49</ele>
        <time>2021-08-05T15:05:58Z</time>
      </trkpt>
      <trkpt lat="43.06913" lon="-1.1939">
        <ele>375.3</ele>
        <time>2021-08-05T15:06:03Z</time>
      </trkpt>
      <trkpt lat="43.06916" lon="-1.19379">
        <ele>374.58</ele>
        <time>2021-08-05T15:06:04Z</time>
      </trkpt>
      <trkpt lat="43.0696" lon="-1.19337">
        <ele>371.87</ele>
        <time>2021-08-05T15:06:10Z</time>
      </trkpt>
      <trkpt lat="43.07024" lon="-1.19334">
        <ele>370.49</ele>
        <time>2021-08-05T15:06:16Z</time>
      </trkpt>
      <trkpt lat="43.0704" lon="-1.19355">
        <ele>369.82</ele>
        <time>2021-08-05T15:06:18Z</time>
      </trkpt>
      <trkpt lat="43.071" lon="-1.19385">
        <ele>368.31</ele>
        <time>2021-08-05T15:06:25Z</time>
      </trkpt>
      <trkpt lat="43.07135" lon="-1.19323">
        <ele>365.54</ele>
        <time>2021-08-05T15:06:31Z</time>
      </trkpt>
      <trkpt lat="43.07154" lon="-1.19256">
        <ele>362.89</ele>
        <time>2021-08-05T15:06:37Z</time>
      </trkpt>
      <trkpt lat="43.07189" lon="-1.19235">
        <ele>361.6</ele>
        <time>2021-08-05T15:06:41Z</time>
      </trkpt>
      <trkpt lat="43.07233" lon="-1.19215">
        <ele>361.15</ele>
        <time>2021-08-05T15:06:45Z</time>
      </trkpt>
      <trkpt lat="43.07299" lon="-1.19224">
        <ele>361.66</ele>
        <time>2021-08-05T15:06:52Z</time>
      </trkpt>
      <trkpt lat="43.07322" lon="-1.1918">
        <ele>362.84</ele>
        <time>2021-08-05T15:06:57Z</time>
      </trkpt>
      <trkpt lat="43.07303" lon="-1.19159">
        <ele>362.67</ele>
        <time>2021-08-05T15:06:59Z</time>
      </trkpt>
      <trkpt lat="43.07268" lon="-1.19127">
        <ele>361.19</ele>
        <time>2021-08-05T15:07:02Z</time>
      </trkpt>
      <trkpt lat="43.07245" lon="-1.19085">
        <ele>357.96</ele>
        <time>2021-08-05T15:07:05Z</time>
      </trkpt>
      <trkpt lat="43.07262" lon="-1.19037">
        <ele>352.26</ele>
        <time>2021-08-05T15:07:09Z</time>
      </trkpt>
      <trkpt lat="43.07277" lon="-1.18984">
        <ele>348.87</ele>
        <time>2021-08-05T15:07:12Z</time>
      </trkpt>
      <trkpt lat="43.07298" lon="-1.18905">
        <ele>346.82</ele>
        <time>2021-08-05T15:07:16Z</time>
      </trkpt>
      <trkpt lat="43.07324" lon="-1.18849">
        <ele>346.37</ele>
        <time>2021-08-05T15:07:19Z</time>
      </trkpt>
      <trkpt lat="43.07388" lon="-1.18808">
        <ele>345.91</ele>
        <time>2021-08-05T15:07:24Z</time>
      </trkpt>
      <trkpt lat="43.07413" lon="-1.18823">
        <ele>345</ele>
        <time>2021-08-05T15:07:29Z</time>
      </trkpt>
      <trkpt lat="43.07427" lon="-1.18861">
        <ele>342.87</ele>
        <time>2021-08-05T15:07:34Z</time>
      </trkpt>
      <trkpt lat="43.07432" lon="-1.18888">
        <ele>342.4</ele>
        <time>2021-08-05T15:07:36Z</time>
      </trkpt>
      <trkpt lat="43.07489" lon="-1.18928">
        <ele>341.96</ele>
        <time>2021-08-05T15:07:42Z</time>
      </trkpt>
      <trkpt lat="43.07503" lon="-1.18926">
        <ele>342.09</ele>
        <time>2021-08-05T15:07:43Z</time>
      </trkpt>
      <trkpt lat="43.07598" lon="-1.18925">
        <ele>345.05</ele>
        <time>2021-08-05T15:07:50Z</time>
      </trkpt>
      <trkpt lat="43.07676" lon="-1.18976">
        <ele>348.46</ele>
        <time>2021-08-05T15:07:57Z</time>
      </trkpt>
      <trkpt lat="43.07768" lon="-1.19001">
        <ele>349.83</ele>
        <time>2021-08-05T15:08:06Z</time>
      </trkpt>
      <trkpt lat="43.07839" lon="-1.19037">
        <ele>346.61</ele>
        <time>2021-08-05T15:08:14Z</time>
      </trkpt>
      <trkpt lat="43.07885" lon="-1.19074">
        <ele>343.19</ele>
        <time>2021-08-05T15:08:20Z</time>
      </trkpt>
      <trkpt lat="43.07912" lon="-1.19095">
        <ele>339.85</ele>
        <time>2021-08-05T15:08:24Z</time>
      </trkpt>
      <trkpt lat="43.07923" lon="-1.19103">
        <ele>337.66</ele>
        <time>2021-08-05T15:08:26Z</time>
      </trkpt>
      <trkpt lat="43.07962" lon="-1.19102">
        <ele>331.85</ele>
        <time>2021-08-05T15:08:31Z</time>
      </trkpt>
      <trkpt lat="43.07976" lon="-1.19101">
        <ele>329.94</ele>
        <time>2021-08-05T15:08:33Z</time>
      </trkpt>
      <trkpt lat="43.07991" lon="-1.191">
        <ele>328.3</ele>
        <time>2021-08-05T15:08:35Z</time>
      </trkpt>
      <trkpt lat="43.08022" lon="-1.19085">
        <ele>326.43</ele>
        <time>2021-08-05T15:08:39Z</time>
      </trkpt>
      <trkpt lat="43.08115" lon="-1.19064">
        <ele>323.23</ele>
        <time>2021-08-05T15:08:48Z</time>
      </trkpt>
      <trkpt lat="43.08188" lon="-1.19107">
        <ele>321.46</ele>
        <time>2021-08-05T15:08:54Z</time>
      </trkpt>
      <trkpt lat="43.08307" lon="-1.19191">
        <ele>321.15</ele>
        <time>2021-08-05T15:09:02Z</time>
      </trkpt>
      <trkpt lat="43.08365" lon="-1.19208">
        <ele>322.36</ele>
        <time>2021-08-05T15:09:06Z</time>
      </trkpt>
      <trkpt lat="43.08447" lon="-1.19216">
        <ele>325.15</ele>
        <time>2021-08-05T15:09:11Z</time>
      </trkpt>
      <trkpt lat="43.08476" lon="-1.19229">
        <ele>325.93</ele>
        <time>2021-08-05T15:09:13Z</time>
      </trkpt>
      <trkpt lat="43.085" lon="-1.19238">
        <ele>326.11</ele>
        <time>2021-08-05T15:09:15Z</time>
      </trkpt>
      <trkpt lat="43.08584" lon="-1.19315">
        <ele>324.24</ele>
        <time>2021-08-05T15:09:22Z</time>
      </trkpt>
      <trkpt lat="43.08636" lon="-1.19368">
        <ele>321.13</ele>
        <time>2021-08-05T15:09:26Z</time>
      </trkpt>
      <trkpt lat="43.08687" lon="-1.1941">
        <ele>317.43</ele>
        <time>2021-08-05T15:09:30Z</time>
      </trkpt>
      <trkpt lat="43.0875" lon="-1.19452">
        <ele>315.15</ele>
        <time>2021-08-05T15:09:36Z</time>
      </trkpt>
      <trkpt lat="43.08828" lon="-1.1945">
        <ele>317.71</ele>
        <time>2021-08-05T15:09:42Z</time>
      </trkpt>
      <trkpt lat="43.08858" lon="-1.19441">
        <ele>319.23</ele>
        <time>2021-08-05T15:09:44Z</time>
      </trkpt>
      <trkpt lat="43.08936" lon="-1.1944">
        <ele>323.06</ele>
        <time>2021-08-05T15:09:49Z</time>
      </trkpt>
      <trkpt lat="43.08977" lon="-1.19447">
        <ele>324.59</ele>
        <time>2021-08-05T15:09:52Z</time>
      </trkpt>
      <trkpt lat="43.09025" lon="-1.1948">
        <ele>324.88</ele>
        <time>2021-08-05T15:09:57Z</time>
      </trkpt>
      <trkpt lat="43.09074" lon="-1.19503">
        <ele>323.42</ele>
        <time>2021-08-05T15:10:01Z</time>
      </trkpt>
      <trkpt lat="43.09128" lon="-1.19535">
        <ele>319.7</ele>
        <time>2021-08-05T15:10:05Z</time>
      </trkpt>
      <trkpt lat="43.0914" lon="-1.19545">
        <ele>318.72</ele>
        <time>2021-08-05T15:10:06Z</time>
      </trkpt>
      <trkpt lat="43.09161" lon="-1.19566">
        <ele>316.53</ele>
        <time>2021-08-05T15:10:08Z</time>
      </trkpt>
      <trkpt lat="43.09195" lon="-1.19585">
        <ele>313.28</ele>
        <time>2021-08-05T15:10:11Z</time>
      </trkpt>
      <trkpt lat="43.0925" lon="-1.19587">
        <ele>309.23</ele>
        <time>2021-08-05T15:10:15Z</time>
      </trkpt>
      <trkpt lat="43.09305" lon="-1.19591">
        <ele>305.36</ele>
        <time>2021-08-05T15:10:19Z</time>
      </trkpt>
      <trkpt lat="43.09359" lon="-1.19608">
        <ele>301.72</ele>
        <time>2021-08-05T15:10:23Z</time>
      </trkpt>
      <trkpt lat="43.09382" lon="-1.19612">
        <ele>299.86</ele>
        <time>2021-08-05T15:10:25Z</time>
      </trkpt>
      <trkpt lat="43.09437" lon="-1.19638">
        <ele>295.92</ele>
        <time>2021-08-05T15:10:30Z</time>
      </trkpt>
      <trkpt lat="43.09449" lon="-1.19645">
        <ele>295.3</ele>
        <time>2021-08-05T15:10:31Z</time>
      </trkpt>
      <trkpt lat="43.09491" lon="-1.19699">
        <ele>293.73</ele>
        <time>2021-08-05T15:10:35Z</time>
      </trkpt>
      <trkpt lat="43.09579" lon="-1.19774">
        <ele>293.19</ele>
        <time>2021-08-05T15:10:43Z</time>
      </trkpt>
      <trkpt lat="43.09734" lon="-1.19835">
        <ele>292.01</ele>
        <time>2021-08-05T15:10:54Z</time>
      </trkpt>
      <trkpt lat="43.09786" lon="-1.1985">
        <ele>288.64</ele>
        <time>2021-08-05T15:11:01Z</time>
      </trkpt>
      <trkpt lat="43.09861" lon="-1.19849">
        <ele>285.91</ele>
        <time>2021-08-05T15:11:08Z</time>
      </trkpt>
      <trkpt lat="43.09899" lon="-1.19818">
        <ele>283.83</ele>
        <time>2021-08-05T15:11:17Z</time>
      </trkpt>
      <trkpt lat="43.09976" lon="-1.19769">
        <ele>282.61</ele>
        <time>2021-08-05T15:11:29Z</time>
      </trkpt>
      <trkpt lat="43.10065" lon="-1.19723">
        <ele>282.57</ele>
        <time>2021-08-05T15:11:38Z</time>
      </trkpt>
      <trkpt lat="43.10145" lon="-1.19664">
        <ele>281.15</ele>
        <time>2021-08-05T15:11:48Z</time>
      </trkpt>
      <trkpt lat="43.1018" lon="-1.19612">
        <ele>280.96</ele>
        <time>2021-08-05T15:11:54Z</time>
      </trkpt>
      <trkpt lat="43.10188" lon="-1.19604">
        <ele>281.11</ele>
        <time>2021-08-05T15:11:55Z</time>
      </trkpt>
      <trkpt lat="43.10256" lon="-1.19558">
        <ele>283.29</ele>
        <time>2021-08-05T15:12:03Z</time>
      </trkpt>
      <trkpt lat="43.103" lon="-1.1956">
        <ele>283.54</ele>
        <time>2021-08-05T15:12:08Z</time>
      </trkpt>
      <trkpt lat="43.10359" lon="-1.19595">
        <ele>281.32</ele>
        <time>2021-08-05T15:12:15Z</time>
      </trkpt>
      <trkpt lat="43.10388" lon="-1.19595">
        <ele>278.99</ele>
        <time>2021-08-05T15:12:20Z</time>
      </trkpt>
      <trkpt lat="43.10434" lon="-1.19574">
        <ele>278.31</ele>
        <time>2021-08-05T15:12:32Z</time>
      </trkpt>
      <trkpt lat="43.10471" lon="-1.19581">
        <ele>278.37</ele>
        <time>2021-08-05T15:12:38Z</time>
      </trkpt>
      <trkpt lat="43.10487" lon="-1.19591">
        <ele>278.29</ele>
        <time>2021-08-05T15:12:40Z</time>
      </trkpt>
      <trkpt lat="43.10547" lon="-1.1961">
        <ele>278.57</ele>
        <time>2021-08-05T15:12:48Z</time>
      </trkpt>
      <trkpt lat="43.10581" lon="-1.19632">
        <ele>279.95</ele>
        <time>2021-08-05T15:12:54Z</time>
      </trkpt>
      <trkpt lat="43.10595" lon="-1.19646">
        <ele>280.8</ele>
        <time>2021-08-05T15:12:57Z</time>
      </trkpt>
      <trkpt lat="43.10631" lon="-1.19682">
        <ele>284.2</ele>
        <time>2021-08-05T15:13:05Z</time>
      </trkpt>
      <trkpt lat="43.10648" lon="-1.1971">
        <ele>285.77</ele>
        <time>2021-08-05T15:13:08Z</time>
      </trkpt>
      <trkpt lat="43.10708" lon="-1.19797">
        <ele>289.45</ele>
        <time>2021-08-05T15:13:16Z</time>
      </trkpt>
      <trkpt lat="43.10799" lon="-1.19921">
        <ele>291.22</ele>
        <time>2021-08-05T15:13:27Z</time>
      </trkpt>
      <trkpt lat="43.10855" lon="-1.20008">
        <ele>291.79</ele>
        <time>2021-08-05T15:13:34Z</time>
      </trkpt>
      <trkpt lat="43.10894" lon="-1.20047">
        <ele>291.44</ele>
        <time>2021-08-05T15:13:38Z</time>
      </trkpt>
      <trkpt lat="43.10934" lon="-1.20115">
        <ele>289.56</ele>
        <time>2021-08-05T15:13:43Z</time>
      </trkpt>
      <trkpt lat="43.10963" lon="-1.20173">
        <ele>288.11</ele>
        <time>2021-08-05T15:13:48Z</time>
      </trkpt>
      <trkpt lat="43.11051" lon="-1.20266">
        <ele>286.24</ele>
        <time>2021-08-05T15:13:58Z</time>
      </trkpt>
      <trkpt lat="43.11078" lon="-1.20287">
        <ele>285.55</ele>
        <time>2021-08-05T15:14:00Z</time>
      </trkpt>
      <trkpt lat="43.11198" lon="-1.20415">
        <ele>282.46</ele>
        <time>2021-08-05T15:14:09Z</time>
      </trkpt>
      <trkpt lat="43.11211" lon="-1.20428">
        <ele>282.07</ele>
        <time>2021-08-05T15:14:10Z</time>
      </trkpt>
      <trkpt lat="43.11257" lon="-1.20499">
        <ele>279.74</ele>
        <time>2021-08-05T15:14:15Z</time>
      </trkpt>
      <trkpt lat="43.11282" lon="-1.20586">
        <ele>277.37</ele>
        <time>2021-08-05T15:14:21Z</time>
      </trkpt>
      <trkpt lat="43.1129" lon="-1.20642">
        <ele>276.95</ele>
        <time>2021-08-05T15:14:25Z</time>
      </trkpt>
      <trkpt lat="43.11347" lon="-1.20726">
        <ele>276.54</ele>
        <time>2021-08-05T15:14:32Z</time>
      </trkpt>
      <trkpt lat="43.11367" lon="-1.20741">
        <ele>276.01</ele>
        <time>2021-08-05T15:14:34Z</time>
      </trkpt>
      <trkpt lat="43.11423" lon="-1.20823">
        <ele>274.34</ele>
        <time>2021-08-05T15:14:41Z</time>
      </trkpt>
      <trkpt lat="43.11441" lon="-1.2092">
        <ele>275.43</ele>
        <time>2021-08-05T15:14:46Z</time>
      </trkpt>
      <trkpt lat="43.11434" lon="-1.2105">
        <ele>279.35</ele>
        <time>2021-08-05T15:14:52Z</time>
      </trkpt>
      <trkpt lat="43.11432" lon="-1.21069">
        <ele>279.73</ele>
        <time>2021-08-05T15:14:53Z</time>
      </trkpt>
      <trkpt lat="43.11441" lon="-1.21157">
        <ele>280.05</ele>
        <time>2021-08-05T15:14:58Z</time>
      </trkpt>
      <trkpt lat="43.11474" lon="-1.21222">
        <ele>278.28</ele>
        <time>2021-08-05T15:15:02Z</time>
      </trkpt>
      <trkpt lat="43.11513" lon="-1.21272">
        <ele>275.91</ele>
        <time>2021-08-05T15:15:05Z</time>
      </trkpt>
      <trkpt lat="43.11557" lon="-1.2131">
        <ele>274.05</ele>
        <time>2021-08-05T15:15:08Z</time>
      </trkpt>
      <trkpt lat="43.11634" lon="-1.21338">
        <ele>271.7</ele>
        <time>2021-08-05T15:15:13Z</time>
      </trkpt>
      <trkpt lat="43.11664" lon="-1.21348">
        <ele>271.42</ele>
        <time>2021-08-05T15:15:15Z</time>
      </trkpt>
      <trkpt lat="43.11726" lon="-1.21433">
        <ele>268.66</ele>
        <time>2021-08-05T15:15:21Z</time>
      </trkpt>
      <trkpt lat="43.11782" lon="-1.21518">
        <ele>266.29</ele>
        <time>2021-08-05T15:15:26Z</time>
      </trkpt>
      <trkpt lat="43.11834" lon="-1.21564">
        <ele>265.59</ele>
        <time>2021-08-05T15:15:30Z</time>
      </trkpt>
      <trkpt lat="43.11889" lon="-1.21585">
        <ele>265.99</ele>
        <time>2021-08-05T15:15:34Z</time>
      </trkpt>
      <trkpt lat="43.11954" lon="-1.2159">
        <ele>266.5</ele>
        <time>2021-08-05T15:15:38Z</time>
      </trkpt>
      <trkpt lat="43.12119" lon="-1.21555">
        <ele>267.42</ele>
        <time>2021-08-05T15:15:47Z</time>
      </trkpt>
      <trkpt lat="43.12243" lon="-1.21525">
        <ele>266.49</ele>
        <time>2021-08-05T15:15:54Z</time>
      </trkpt>
      <trkpt lat="43.1226" lon="-1.21522">
        <ele>266.07</ele>
        <time>2021-08-05T15:15:55Z</time>
      </trkpt>
      <trkpt lat="43.12322" lon="-1.2149">
        <ele>263.93</ele>
        <time>2021-08-05T15:15:59Z</time>
      </trkpt>
      <trkpt lat="43.12406" lon="-1.21412">
        <ele>260.64</ele>
        <time>2021-08-05T15:16:05Z</time>
      </trkpt>
      <trkpt lat="43.12451" lon="-1.21385">
        <ele>259.66</ele>
        <time>2021-08-05T15:16:08Z</time>
      </trkpt>
      <trkpt lat="43.12531" lon="-1.21339">
        <ele>258.33</ele>
        <time>2021-08-05T15:16:14Z</time>
      </trkpt>
      <trkpt lat="43.12631" lon="-1.21336">
        <ele>257.03</ele>
        <time>2021-08-05T15:16:20Z</time>
      </trkpt>
      <trkpt lat="43.12708" lon="-1.21389">
        <ele>256</ele>
        <time>2021-08-05T15:16:25Z</time>
      </trkpt>
      <trkpt lat="43.12781" lon="-1.21422">
        <ele>255.89</ele>
        <time>2021-08-05T15:16:29Z</time>
      </trkpt>
      <trkpt lat="43.12818" lon="-1.21428">
        <ele>256.06</ele>
        <time>2021-08-05T15:16:31Z</time>
      </trkpt>
      <trkpt lat="43.12862" lon="-1.21447">
        <ele>256.34</ele>
        <time>2021-08-05T15:16:34Z</time>
      </trkpt>
      <trkpt lat="43.12901" lon="-1.21463">
        <ele>256.76</ele>
        <time>2021-08-05T15:16:37Z</time>
      </trkpt>
      <trkpt lat="43.12984" lon="-1.21537">
        <ele>258.09</ele>
        <time>2021-08-05T15:16:43Z</time>
      </trkpt>
      <trkpt lat="43.1314" lon="-1.21644">
        <ele>260.26</ele>
        <time>2021-08-05T15:16:52Z</time>
      </trkpt>
      <trkpt lat="43.13288" lon="-1.21734">
        <ele>259.31</ele>
        <time>2021-08-05T15:17:00Z</time>
      </trkpt>
      <trkpt lat="43.13353" lon="-1.21823">
        <ele>255.35</ele>
        <time>2021-08-05T15:17:06Z</time>
      </trkpt>
      <trkpt lat="43.13386" lon="-1.21866">
        <ele>251.58</ele>
        <time>2021-08-05T15:17:10Z</time>
      </trkpt>
      <trkpt lat="43.13397" lon="-1.21879">
        <ele>249.12</ele>
        <time>2021-08-05T15:17:12Z</time>
      </trkpt>
      <trkpt lat="43.13429" lon="-1.219">
        <ele>245.38</ele>
        <time>2021-08-05T15:17:16Z</time>
      </trkpt>
      <trkpt lat="43.1347" lon="-1.21951">
        <ele>243.18</ele>
        <time>2021-08-05T15:17:22Z</time>
      </trkpt>
      <trkpt lat="43.13514" lon="-1.22054">
        <ele>241.97</ele>
        <time>2021-08-05T15:17:32Z</time>
      </trkpt>
      <trkpt lat="43.13528" lon="-1.22077">
        <ele>241.01</ele>
        <time>2021-08-05T15:17:35Z</time>
      </trkpt>
      <trkpt lat="43.13552" lon="-1.2213">
        <ele>238.52</ele>
        <time>2021-08-05T15:17:45Z</time>
      </trkpt>
      <trkpt lat="43.13554" lon="-1.22135">
        <ele>237.92</ele>
        <time>2021-08-05T15:17:48Z</time>
      </trkpt>
      <trkpt lat="43.13545" lon="-1.22133">
        <ele>236.7</ele>
        <time>2021-08-05T15:17:57Z</time>
      </trkpt>
      <trkpt lat="43.13546" lon="-1.22128">
        <ele>236.38</ele>
        <time>2021-08-05T15:18:03Z</time>
      </trkpt>
      <trkpt lat="43.13542" lon="-1.22109">
        <ele>236.48</ele>
        <time>2021-08-05T15:18:07Z</time>
      </trkpt>
      <trkpt lat="43.13535" lon="-1.22095">
        <ele>236.56</ele>
        <time>2021-08-05T15:18:09Z</time>
      </trkpt>
      <trkpt lat="43.13517" lon="-1.22063">
        <ele>236.94</ele>
        <time>2021-08-05T15:18:13Z</time>
      </trkpt>
      <trkpt lat="43.13504" lon="-1.22042">
        <ele>237.49</ele>
        <time>2021-08-05T15:18:21Z</time>
      </trkpt>
      <trkpt lat="43.13504" lon="-1.22039">
        <ele>237.1</ele>
        <time>2021-08-05T15:18:31Z</time>
      </trkpt>
      <trkpt lat="43.13524" lon="-1.22042">
        <ele>237.06</ele>
        <time>2021-08-05T15:18:36Z</time>
      </trkpt>
      <trkpt lat="43.13547" lon="-1.22059">
        <ele>237.61</ele>
        <time>2021-08-05T15:18:39Z</time>
      </trkpt>
      <trkpt lat="43.13586" lon="-1.22073">
        <ele>238.51</ele>
        <time>2021-08-05T15:18:43Z</time>
      </trkpt>
      <trkpt lat="43.13682" lon="-1.22081">
        <ele>239.39</ele>
        <time>2021-08-05T15:18:52Z</time>
      </trkpt>
      <trkpt lat="43.13722" lon="-1.22072">
        <ele>238.83</ele>
        <time>2021-08-05T15:18:56Z</time>
      </trkpt>
      <trkpt lat="43.13775" lon="-1.22046">
        <ele>237.51</ele>
        <time>2021-08-05T15:19:03Z</time>
      </trkpt>
      <trkpt lat="43.13781" lon="-1.22045">
        <ele>237.29</ele>
        <time>2021-08-05T15:19:04Z</time>
      </trkpt>
      <trkpt lat="43.13788" lon="-1.22047">
        <ele>237.14</ele>
        <time>2021-08-05T15:19:05Z</time>
      </trkpt>
      <trkpt lat="43.13798" lon="-1.22057">
        <ele>237</ele>
        <time>2021-08-05T15:19:07Z</time>
      </trkpt>
      <trkpt lat="43.13804" lon="-1.22064">
        <ele>237.01</ele>
        <time>2021-08-05T15:19:10Z</time>
      </trkpt>
      <trkpt lat="43.13822" lon="-1.22066">
        <ele>237.91</ele>
        <time>2021-08-05T15:19:14Z</time>
      </trkpt>
      <trkpt lat="43.13855" lon="-1.22061">
        <ele>239.59</ele>
        <time>2021-08-05T15:19:18Z</time>
      </trkpt>
      <trkpt lat="43.13907" lon="-1.22032">
        <ele>244.49</ele>
        <time>2021-08-05T15:19:23Z</time>
      </trkpt>
      <trkpt lat="43.13941" lon="-1.22016">
        <ele>248.51</ele>
        <time>2021-08-05T15:19:26Z</time>
      </trkpt>
      <trkpt lat="43.13996" lon="-1.22034">
        <ele>254.13</ele>
        <time>2021-08-05T15:19:30Z</time>
      </trkpt>
      <trkpt lat="43.14028" lon="-1.22071">
        <ele>258.52</ele>
        <time>2021-08-05T15:19:33Z</time>
      </trkpt>
      <trkpt lat="43.14051" lon="-1.22091">
        <ele>261.66</ele>
        <time>2021-08-05T15:19:35Z</time>
      </trkpt>
      <trkpt lat="43.14077" lon="-1.22096">
        <ele>264.78</ele>
        <time>2021-08-05T15:19:37Z</time>
      </trkpt>
      <trkpt lat="43.14109" lon="-1.2207">
        <ele>269.17</ele>
        <time>2021-08-05T15:19:40Z</time>
      </trkpt>
      <trkpt lat="43.14124" lon="-1.22022">
        <ele>272.79</ele>
        <time>2021-08-05T15:19:43Z</time>
      </trkpt>
      <trkpt lat="43.14161" lon="-1.21984">
        <ele>277.36</ele>
        <time>2021-08-05T15:19:49Z</time>
      </trkpt>
      <trkpt lat="43.14188" lon="-1.22008">
        <ele>279.03</ele>
        <time>2021-08-05T15:19:52Z</time>
      </trkpt>
      <trkpt lat="43.14206" lon="-1.21994">
        <ele>283.4</ele>
        <time>2021-08-05T15:19:58Z</time>
      </trkpt>
      <trkpt lat="43.14216" lon="-1.21972">
        <ele>286.98</ele>
        <time>2021-08-05T15:20:01Z</time>
      </trkpt>
      <trkpt lat="43.14243" lon="-1.2197">
        <ele>290.1</ele>
        <time>2021-08-05T15:20:04Z</time>
      </trkpt>
      <trkpt lat="43.14255" lon="-1.21974">
        <ele>291.15</ele>
        <time>2021-08-05T15:20:05Z</time>
      </trkpt>
      <trkpt lat="43.14281" lon="-1.2198">
        <ele>293.32</ele>
        <time>2021-08-05T15:20:07Z</time>
      </trkpt>
      <trkpt lat="43.14328" lon="-1.21971">
        <ele>297.91</ele>
        <time>2021-08-05T15:20:11Z</time>
      </trkpt>
      <trkpt lat="43.14385" lon="-1.21941">
        <ele>300.72</ele>
        <time>2021-08-05T15:20:15Z</time>
      </trkpt>
      <trkpt lat="43.14494" lon="-1.21924">
        <ele>300.79</ele>
        <time>2021-08-05T15:20:22Z</time>
      </trkpt>
      <trkpt lat="43.1459" lon="-1.21891">
        <ele>301.26</ele>
        <time>2021-08-05T15:20:29Z</time>
      </trkpt>
      <trkpt lat="43.1465" lon="-1.21823">
        <ele>299.62</ele>
        <time>2021-08-05T15:20:37Z</time>
      </trkpt>
      <trkpt lat="43.14658" lon="-1.21815">
        <ele>296.16</ele>
        <time>2021-08-05T15:20:42Z</time>
      </trkpt>
      <trkpt lat="43.14663" lon="-1.21809">
        <ele>295.72</ele>
        <time>2021-08-05T15:20:43Z</time>
      </trkpt>
      <trkpt lat="43.14669" lon="-1.21799">
        <ele>295.32</ele>
        <time>2021-08-05T15:20:44Z</time>
      </trkpt>
      <trkpt lat="43.14672" lon="-1.21786">
        <ele>295</ele>
        <time>2021-08-05T15:20:45Z</time>
      </trkpt>
      <trkpt lat="43.14675" lon="-1.21771">
        <ele>294.74</ele>
        <time>2021-08-05T15:20:46Z</time>
      </trkpt>
      <trkpt lat="43.14676" lon="-1.21758">
        <ele>294.5</ele>
        <time>2021-08-05T15:20:47Z</time>
      </trkpt>
      <trkpt lat="43.14678" lon="-1.21746">
        <ele>294.22</ele>
        <time>2021-08-05T15:20:48Z</time>
      </trkpt>
      <trkpt lat="43.14679" lon="-1.21737">
        <ele>293.85</ele>
        <time>2021-08-05T15:20:49Z</time>
      </trkpt>
      <trkpt lat="43.14681" lon="-1.21732">
        <ele>293.34</ele>
        <time>2021-08-05T15:20:50Z</time>
      </trkpt>
      <trkpt lat="43.1469" lon="-1.21724">
        <ele>291.64</ele>
        <time>2021-08-05T15:20:53Z</time>
      </trkpt>
      <trkpt lat="43.14723" lon="-1.21646">
        <ele>288.95</ele>
        <time>2021-08-05T15:20:59Z</time>
      </trkpt>
      <trkpt lat="43.14726" lon="-1.21587">
        <ele>285.76</ele>
        <time>2021-08-05T15:21:03Z</time>
      </trkpt>
      <trkpt lat="43.14725" lon="-1.21534">
        <ele>282.19</ele>
        <time>2021-08-05T15:21:06Z</time>
      </trkpt>
      <trkpt lat="43.14732" lon="-1.21493">
        <ele>279.71</ele>
        <time>2021-08-05T15:21:08Z</time>
      </trkpt>
      <trkpt lat="43.14725" lon="-1.21406">
        <ele>274.4</ele>
        <time>2021-08-05T15:21:12Z</time>
      </trkpt>
      <trkpt lat="43.14729" lon="-1.2137">
        <ele>271.39</ele>
        <time>2021-08-05T15:21:14Z</time>
      </trkpt>
      <trkpt lat="43.14743" lon="-1.21335">
        <ele>268.03</ele>
        <time>2021-08-05T15:21:16Z</time>
      </trkpt>
      <trkpt lat="43.14765" lon="-1.21301">
        <ele>265.01</ele>
        <time>2021-08-05T15:21:18Z</time>
      </trkpt>
      <trkpt lat="43.14787" lon="-1.2127">
        <ele>262.64</ele>
        <time>2021-08-05T15:21:20Z</time>
      </trkpt>
      <trkpt lat="43.1481" lon="-1.2118">
        <ele>258.54</ele>
        <time>2021-08-05T15:21:26Z</time>
      </trkpt>
      <trkpt lat="43.14802" lon="-1.21135">
        <ele>258.48</ele>
        <time>2021-08-05T15:21:29Z</time>
      </trkpt>
      <trkpt lat="43.14787" lon="-1.21075">
        <ele>260.98</ele>
        <time>2021-08-05T15:21:36Z</time>
      </trkpt>
      <trkpt lat="43.14784" lon="-1.21066">
        <ele>262.26</ele>
        <time>2021-08-05T15:21:39Z</time>
      </trkpt>
      <trkpt lat="43.1478" lon="-1.21054">
        <ele>262.51</ele>
        <time>2021-08-05T15:21:41Z</time>
      </trkpt>
      <trkpt lat="43.14742" lon="-1.2099">
        <ele>261.39</ele>
        <time>2021-08-05T15:21:48Z</time>
      </trkpt>
      <trkpt lat="43.14744" lon="-1.2097">
        <ele>260.68</ele>
        <time>2021-08-05T15:21:49Z</time>
      </trkpt>
      <trkpt lat="43.14744" lon="-1.20847">
        <ele>256.8</ele>
        <time>2021-08-05T15:21:55Z</time>
      </trkpt>
      <trkpt lat="43.14726" lon="-1.20734">
        <ele>253.84</ele>
        <time>2021-08-05T15:22:02Z</time>
      </trkpt>
      <trkpt lat="43.14724" lon="-1.20722">
        <ele>253.34</ele>
        <time>2021-08-05T15:22:03Z</time>
      </trkpt>
      <trkpt lat="43.14729" lon="-1.20675">
        <ele>251.94</ele>
        <time>2021-08-05T15:22:07Z</time>
      </trkpt>
      <trkpt lat="43.14735" lon="-1.20658">
        <ele>251.75</ele>
        <time>2021-08-05T15:22:09Z</time>
      </trkpt>
      <trkpt lat="43.14738" lon="-1.20612">
        <ele>252.18</ele>
        <time>2021-08-05T15:22:14Z</time>
      </trkpt>
      <trkpt lat="43.14728" lon="-1.20524">
        <ele>252.6</ele>
        <time>2021-08-05T15:22:19Z</time>
      </trkpt>
      <trkpt lat="43.14671" lon="-1.20363">
        <ele>250.09</ele>
        <time>2021-08-05T15:22:28Z</time>
      </trkpt>
      <trkpt lat="43.14631" lon="-1.20246">
        <ele>249.66</ele>
        <time>2021-08-05T15:22:36Z</time>
      </trkpt>
      <trkpt lat="43.14631" lon="-1.20169">
        <ele>249.24</ele>
        <time>2021-08-05T15:22:41Z</time>
      </trkpt>
      <trkpt lat="43.14636" lon="-1.2013">
        <ele>249.09</ele>
        <time>2021-08-05T15:22:43Z</time>
      </trkpt>
      <trkpt lat="43.14623" lon="-1.19959">
        <ele>251.5</ele>
        <time>2021-08-05T15:22:51Z</time>
      </trkpt>
      <trkpt lat="43.14611" lon="-1.19866">
        <ele>254.45</ele>
        <time>2021-08-05T15:22:55Z</time>
      </trkpt>
      <trkpt lat="43.14616" lon="-1.19754">
        <ele>259.23</ele>
        <time>2021-08-05T15:23:00Z</time>
      </trkpt>
      <trkpt lat="43.14603" lon="-1.19687">
        <ele>263.84</ele>
        <time>2021-08-05T15:23:04Z</time>
      </trkpt>
      <trkpt lat="43.14595" lon="-1.19677">
        <ele>265.05</ele>
        <time>2021-08-05T15:23:05Z</time>
      </trkpt>
      <trkpt lat="43.14567" lon="-1.19644">
        <ele>269.39</ele>
        <time>2021-08-05T15:23:09Z</time>
      </trkpt>
      <trkpt lat="43.1454" lon="-1.19616">
        <ele>272.96</ele>
        <time>2021-08-05T15:23:13Z</time>
      </trkpt>
      <trkpt lat="43.14526" lon="-1.19601">
        <ele>274.85</ele>
        <time>2021-08-05T15:23:15Z</time>
      </trkpt>
      <trkpt lat="43.14504" lon="-1.19589">
        <ele>278.7</ele>
        <time>2021-08-05T15:23:19Z</time>
      </trkpt>
      <trkpt lat="43.14499" lon="-1.19584">
        <ele>279.84</ele>
        <time>2021-08-05T15:23:21Z</time>
      </trkpt>
      <trkpt lat="43.14509" lon="-1.19564">
        <ele>282.17</ele>
        <time>2021-08-05T15:23:25Z</time>
      </trkpt>
      <trkpt lat="43.14543" lon="-1.19522">
        <ele>285.72</ele>
        <time>2021-08-05T15:23:31Z</time>
      </trkpt>
      <trkpt lat="43.14547" lon="-1.19519">
        <ele>286.2</ele>
        <time>2021-08-05T15:23:32Z</time>
      </trkpt>
      <trkpt lat="43.14552" lon="-1.19516">
        <ele>286.58</ele>
        <time>2021-08-05T15:23:33Z</time>
      </trkpt>
      <trkpt lat="43.14559" lon="-1.19514">
        <ele>287</ele>
        <time>2021-08-05T15:23:34Z</time>
      </trkpt>
      <trkpt lat="43.14575" lon="-1.19506">
        <ele>287.76</ele>
        <time>2021-08-05T15:23:36Z</time>
      </trkpt>
      <trkpt lat="43.14636" lon="-1.19475">
        <ele>287.89</ele>
        <time>2021-08-05T15:23:42Z</time>
      </trkpt>
      <trkpt lat="43.14721" lon="-1.1947">
        <ele>284.45</ele>
        <time>2021-08-05T15:23:50Z</time>
      </trkpt>
      <trkpt lat="43.14742" lon="-1.19464">
        <ele>282.66</ele>
        <time>2021-08-05T15:23:53Z</time>
      </trkpt>
      <trkpt lat="43.14768" lon="-1.19463">
        <ele>280.74</ele>
        <time>2021-08-05T15:23:57Z</time>
      </trkpt>
      <trkpt lat="43.14798" lon="-1.19457">
        <ele>279.54</ele>
        <time>2021-08-05T15:24:00Z</time>
      </trkpt>
      <trkpt lat="43.14822" lon="-1.19447">
        <ele>279.21</ele>
        <time>2021-08-05T15:24:02Z</time>
      </trkpt>
      <trkpt lat="43.14835" lon="-1.19437">
        <ele>279.01</ele>
        <time>2021-08-05T15:24:03Z</time>
      </trkpt>
      <trkpt lat="43.14857" lon="-1.19405">
        <ele>278.34</ele>
        <time>2021-08-05T15:24:05Z</time>
      </trkpt>
      <trkpt lat="43.14961" lon="-1.19247">
        <ele>274.95</ele>
        <time>2021-08-05T15:24:13Z</time>
      </trkpt>
      <trkpt lat="43.15037" lon="-1.19178">
        <ele>273.13</ele>
        <time>2021-08-05T15:24:18Z</time>
      </trkpt>
      <trkpt lat="43.15102" lon="-1.19041">
        <ele>271.33</ele>
        <time>2021-08-05T15:24:26Z</time>
      </trkpt>
      <trkpt lat="43.15125" lon="-1.19011">
        <ele>271.33</ele>
        <time>2021-08-05T15:24:28Z</time>
      </trkpt>
      <trkpt lat="43.15165" lon="-1.18977">
        <ele>271.23</ele>
        <time>2021-08-05T15:24:31Z</time>
      </trkpt>
      <trkpt lat="43.15191" lon="-1.18958">
        <ele>270.59</ele>
        <time>2021-08-05T15:24:33Z</time>
      </trkpt>
      <trkpt lat="43.15201" lon="-1.18944">
        <ele>270.13</ele>
        <time>2021-08-05T15:24:34Z</time>
      </trkpt>
      <trkpt lat="43.1521" lon="-1.18928">
        <ele>269.56</ele>
        <time>2021-08-05T15:24:35Z</time>
      </trkpt>
      <trkpt lat="43.15216" lon="-1.18909">
        <ele>268.88</ele>
        <time>2021-08-05T15:24:36Z</time>
      </trkpt>
      <trkpt lat="43.15222" lon="-1.18889">
        <ele>268.08</ele>
        <time>2021-08-05T15:24:37Z</time>
      </trkpt>
      <trkpt lat="43.1525" lon="-1.18783">
        <ele>263.67</ele>
        <time>2021-08-05T15:24:42Z</time>
      </trkpt>
      <trkpt lat="43.15265" lon="-1.18725">
        <ele>260.63</ele>
        <time>2021-08-05T15:24:45Z</time>
      </trkpt>
      <trkpt lat="43.1531" lon="-1.18685">
        <ele>256.43</ele>
        <time>2021-08-05T15:24:49Z</time>
      </trkpt>
      <trkpt lat="43.15335" lon="-1.18685">
        <ele>254.95</ele>
        <time>2021-08-05T15:24:51Z</time>
      </trkpt>
      <trkpt lat="43.1538" lon="-1.18657">
        <ele>252.52</ele>
        <time>2021-08-05T15:24:56Z</time>
      </trkpt>
      <trkpt lat="43.15378" lon="-1.18592">
        <ele>252.86</ele>
        <time>2021-08-05T15:25:00Z</time>
      </trkpt>
      <trkpt lat="43.15423" lon="-1.18565">
        <ele>255.97</ele>
        <time>2021-08-05T15:25:05Z</time>
      </trkpt>
      <trkpt lat="43.15471" lon="-1.18531">
        <ele>259.79</ele>
        <time>2021-08-05T15:25:10Z</time>
      </trkpt>
      <trkpt lat="43.15482" lon="-1.18532">
        <ele>260.66</ele>
        <time>2021-08-05T15:25:11Z</time>
      </trkpt>
      <trkpt lat="43.15499" lon="-1.18533">
        <ele>262.04</ele>
        <time>2021-08-05T15:25:13Z</time>
      </trkpt>
      <trkpt lat="43.15509" lon="-1.1853">
        <ele>263.97</ele>
        <time>2021-08-05T15:25:17Z</time>
      </trkpt>
      <trkpt lat="43.15516" lon="-1.1853">
        <ele>264.77</ele>
        <time>2021-08-05T15:25:20Z</time>
      </trkpt>
      <trkpt lat="43.15559" lon="-1.18578">
        <ele>265.68</ele>
        <time>2021-08-05T15:25:26Z</time>
      </trkpt>
      <trkpt lat="43.15658" lon="-1.18676">
        <ele>266.34</ele>
        <time>2021-08-05T15:25:33Z</time>
      </trkpt>
      <trkpt lat="43.15812" lon="-1.18826">
        <ele>266.39</ele>
        <time>2021-08-05T15:25:41Z</time>
      </trkpt>
      <trkpt lat="43.15972" lon="-1.18969">
        <ele>264.53</ele>
        <time>2021-08-05T15:25:49Z</time>
      </trkpt>
      <trkpt lat="43.16068" lon="-1.19057">
        <ele>261.22</ele>
        <time>2021-08-05T15:25:55Z</time>
      </trkpt>
      <trkpt lat="43.16214" lon="-1.19189">
        <ele>258.78</ele>
        <time>2021-08-05T15:26:04Z</time>
      </trkpt>
      <trkpt lat="43.1632" lon="-1.19259">
        <ele>255.9</ele>
        <time>2021-08-05T15:26:11Z</time>
      </trkpt>
      <trkpt lat="43.16406" lon="-1.19312">
        <ele>252.8</ele>
        <time>2021-08-05T15:26:18Z</time>
      </trkpt>
      <trkpt lat="43.16449" lon="-1.19337">
        <ele>249.54</ele>
        <time>2021-08-05T15:26:23Z</time>
      </trkpt>
      <trkpt lat="43.16519" lon="-1.19376">
        <ele>246.97</ele>
        <time>2021-08-05T15:26:34Z</time>
      </trkpt>
      <trkpt lat="43.16535" lon="-1.19383">
        <ele>248.15</ele>
        <time>2021-08-05T15:26:43Z</time>
      </trkpt>
      <trkpt lat="43.1654" lon="-1.19381">
        <ele>248.45</ele>
        <time>2021-08-05T15:26:46Z</time>
      </trkpt>
      <trkpt lat="43.16546" lon="-1.1936">
        <ele>248.76</ele>
        <time>2021-08-05T15:26:50Z</time>
      </trkpt>
      <trkpt lat="43.16557" lon="-1.19267">
        <ele>249.37</ele>
        <time>2021-08-05T15:26:57Z</time>
      </trkpt>
      <trkpt lat="43.16582" lon="-1.19076">
        <ele>250.8</ele>
        <time>2021-08-05T15:27:05Z</time>
      </trkpt>
      <trkpt lat="43.16607" lon="-1.18897">
        <ele>253.09</ele>
        <time>2021-08-05T15:27:13Z</time>
      </trkpt>
      <trkpt lat="43.16619" lon="-1.18813">
        <ele>254.71</ele>
        <time>2021-08-05T15:27:18Z</time>
      </trkpt>
      <trkpt lat="43.16671" lon="-1.18763">
        <ele>257.14</ele>
        <time>2021-08-05T15:27:24Z</time>
      </trkpt>
      <trkpt lat="43.1671" lon="-1.18778">
        <ele>257.45</ele>
        <time>2021-08-05T15:27:27Z</time>
      </trkpt>
      <trkpt lat="43.16821" lon="-1.18826">
        <ele>254.03</ele>
        <time>2021-08-05T15:27:35Z</time>
      </trkpt>
      <trkpt lat="43.16877" lon="-1.18846">
        <ele>250.74</ele>
        <time>2021-08-05T15:27:40Z</time>
      </trkpt>
      <trkpt lat="43.169" lon="-1.18851">
        <ele>247.45</ele>
        <time>2021-08-05T15:27:45Z</time>
      </trkpt>
      <trkpt lat="43.16911" lon="-1.18852">
        <ele>245.49</ele>
        <time>2021-08-05T15:27:50Z</time>
      </trkpt>
      <trkpt lat="43.16937" lon="-1.18809">
        <ele>244.12</ele>
        <time>2021-08-05T15:27:56Z</time>
      </trkpt>
      <trkpt lat="43.16962" lon="-1.18766">
        <ele>243.64</ele>
        <time>2021-08-05T15:27:59Z</time>
      </trkpt>
      <trkpt lat="43.1708" lon="-1.1865">
        <ele>242.54</ele>
        <time>2021-08-05T15:28:08Z</time>
      </trkpt>
      <trkpt lat="43.1725" lon="-1.18511">
        <ele>242.58</ele>
        <time>2021-08-05T15:28:20Z</time>
      </trkpt>
      <trkpt lat="43.17432" lon="-1.18363">
        <ele>240.37</ele>
        <time>2021-08-05T15:28:33Z</time>
      </trkpt>
      <trkpt lat="43.17595" lon="-1.18238">
        <ele>239.86</ele>
        <time>2021-08-05T15:28:44Z</time>
      </trkpt>
      <trkpt lat="43.17717" lon="-1.18139">
        <ele>242.87</ele>
        <time>2021-08-05T15:28:52Z</time>
      </trkpt>
      <trkpt lat="43.17781" lon="-1.18086">
        <ele>246.26</ele>
        <time>2021-08-05T15:28:57Z</time>
      </trkpt>
      <trkpt lat="43.17844" lon="-1.18036">
        <ele>249.86</ele>
        <time>2021-08-05T15:29:02Z</time>
      </trkpt>
      <trkpt lat="43.17915" lon="-1.17979">
        <ele>253.44</ele>
        <time>2021-08-05T15:29:07Z</time>
      </trkpt>
      <trkpt lat="43.18061" lon="-1.17861">
        <ele>254.38</ele>
        <time>2021-08-05T15:29:16Z</time>
      </trkpt>
      <trkpt lat="43.18163" lon="-1.17778">
        <ele>251.34</ele>
        <time>2021-08-05T15:29:22Z</time>
      </trkpt>
      <trkpt lat="43.18273" lon="-1.17669">
        <ele>249.24</ele>
        <time>2021-08-05T15:29:29Z</time>
      </trkpt>
      <trkpt lat="43.18313" lon="-1.1756">
        <ele>248.69</ele>
        <time>2021-08-05T15:29:34Z</time>
      </trkpt>
      <trkpt lat="43.18363" lon="-1.17273">
        <ele>246.82</ele>
        <time>2021-08-05T15:29:46Z</time>
      </trkpt>
      <trkpt lat="43.18446" lon="-1.17139">
        <ele>246.33</ele>
        <time>2021-08-05T15:29:53Z</time>
      </trkpt>
      <trkpt lat="43.18594" lon="-1.17014">
        <ele>245.65</ele>
        <time>2021-08-05T15:30:04Z</time>
      </trkpt>
      <trkpt lat="43.18701" lon="-1.16925">
        <ele>248.7</ele>
        <time>2021-08-05T15:30:15Z</time>
      </trkpt>
      <trkpt lat="43.18746" lon="-1.16887">
        <ele>251.71</ele>
        <time>2021-08-05T15:30:20Z</time>
      </trkpt>
      <trkpt lat="43.18791" lon="-1.16848">
        <ele>255.33</ele>
        <time>2021-08-05T15:30:25Z</time>
      </trkpt>
      <trkpt lat="43.18842" lon="-1.16803">
        <ele>259.1</ele>
        <time>2021-08-05T15:30:30Z</time>
      </trkpt>
      <trkpt lat="43.18883" lon="-1.16759">
        <ele>262.66</ele>
        <time>2021-08-05T15:30:35Z</time>
      </trkpt>
      <trkpt lat="43.18936" lon="-1.16697">
        <ele>265.93</ele>
        <time>2021-08-05T15:30:41Z</time>
      </trkpt>
      <trkpt lat="43.19029" lon="-1.16596">
        <ele>269.01</ele>
        <time>2021-08-05T15:30:51Z</time>
      </trkpt>
      <trkpt lat="43.19115" lon="-1.1651">
        <ele>272.38</ele>
        <time>2021-08-05T15:31:01Z</time>
      </trkpt>
      <trkpt lat="43.19158" lon="-1.16499">
        <ele>274.07</ele>
        <time>2021-08-05T15:31:05Z</time>
      </trkpt>
      <trkpt lat="43.19249" lon="-1.1649">
        <ele>277.53</ele>
        <time>2021-08-05T15:31:12Z</time>
      </trkpt>
      <trkpt lat="43.19333" lon="-1.1643">
        <ele>277.72</ele>
        <time>2021-08-05T15:31:18Z</time>
      </trkpt>
      <trkpt lat="43.19413" lon="-1.16306">
        <ele>273.51</ele>
        <time>2021-08-05T15:31:24Z</time>
      </trkpt>
      <trkpt lat="43.19449" lon="-1.16235">
        <ele>270.03</ele>
        <time>2021-08-05T15:31:27Z</time>
      </trkpt>
      <trkpt lat="43.19484" lon="-1.16164">
        <ele>266.26</ele>
        <time>2021-08-05T15:31:30Z</time>
      </trkpt>
      <trkpt lat="43.19519" lon="-1.16093">
        <ele>262.78</ele>
        <time>2021-08-05T15:31:33Z</time>
      </trkpt>
      <trkpt lat="43.19551" lon="-1.16024">
        <ele>260.1</ele>
        <time>2021-08-05T15:31:36Z</time>
      </trkpt>
      <trkpt lat="43.19657" lon="-1.158">
        <ele>263.37</ele>
        <time>2021-08-05T15:31:46Z</time>
      </trkpt>
      <trkpt lat="43.19708" lon="-1.15695">
        <ele>266.43</ele>
        <time>2021-08-05T15:31:51Z</time>
      </trkpt>
      <trkpt lat="43.19773" lon="-1.15504">
        <ele>269.22</ele>
        <time>2021-08-05T15:32:00Z</time>
      </trkpt>
      <trkpt lat="43.19794" lon="-1.15347">
        <ele>272.61</ele>
        <time>2021-08-05T15:32:07Z</time>
      </trkpt>
      <trkpt lat="43.19832" lon="-1.15204">
        <ele>275.95</ele>
        <time>2021-08-05T15:32:14Z</time>
      </trkpt>
      <trkpt lat="43.19882" lon="-1.15117">
        <ele>278.22</ele>
        <time>2021-08-05T15:32:19Z</time>
      </trkpt>
      <trkpt lat="43.19953" lon="-1.15062">
        <ele>279.01</ele>
        <time>2021-08-05T15:32:24Z</time>
      </trkpt>
      <trkpt lat="43.20103" lon="-1.14977">
        <ele>275.9</ele>
        <time>2021-08-05T15:32:33Z</time>
      </trkpt>
      <trkpt lat="43.20289" lon="-1.14805">
        <ele>274.55</ele>
        <time>2021-08-05T15:32:45Z</time>
      </trkpt>
      <trkpt lat="43.20372" lon="-1.14707">
        <ele>277.67</ele>
        <time>2021-08-05T15:32:51Z</time>
      </trkpt>
      <trkpt lat="43.20444" lon="-1.14613">
        <ele>280.27</ele>
        <time>2021-08-05T15:32:56Z</time>
      </trkpt>
      <trkpt lat="43.20596" lon="-1.14388">
        <ele>280.63</ele>
        <time>2021-08-05T15:33:07Z</time>
      </trkpt>
      <trkpt lat="43.20741" lon="-1.14149">
        <ele>283.18</ele>
        <time>2021-08-05T15:33:18Z</time>
      </trkpt>
      <trkpt lat="43.20815" lon="-1.14053">
        <ele>286.25</ele>
        <time>2021-08-05T15:33:23Z</time>
      </trkpt>
      <trkpt lat="43.20875" lon="-1.13974">
        <ele>289.41</ele>
        <time>2021-08-05T15:33:27Z</time>
      </trkpt>
      <trkpt lat="43.20935" lon="-1.13896">
        <ele>293.42</ele>
        <time>2021-08-05T15:33:31Z</time>
      </trkpt>
      <trkpt lat="43.20992" lon="-1.13821">
        <ele>297.19</ele>
        <time>2021-08-05T15:33:35Z</time>
      </trkpt>
      <trkpt lat="43.21046" lon="-1.13749">
        <ele>300.42</ele>
        <time>2021-08-05T15:33:39Z</time>
      </trkpt>
      <trkpt lat="43.21101" lon="-1.13678">
        <ele>303.69</ele>
        <time>2021-08-05T15:33:43Z</time>
      </trkpt>
      <trkpt lat="43.21149" lon="-1.13632">
        <ele>305.35</ele>
        <time>2021-08-05T15:33:46Z</time>
      </trkpt>
      <trkpt lat="43.21261" lon="-1.13515">
        <ele>303.07</ele>
        <time>2021-08-05T15:33:53Z</time>
      </trkpt>
      <trkpt lat="43.21299" lon="-1.13451">
        <ele>300</ele>
        <time>2021-08-05T15:33:56Z</time>
      </trkpt>
      <trkpt lat="43.21335" lon="-1.13382">
        <ele>296.29</ele>
        <time>2021-08-05T15:33:59Z</time>
      </trkpt>
      <trkpt lat="43.21345" lon="-1.13356">
        <ele>294.96</ele>
        <time>2021-08-05T15:34:00Z</time>
      </trkpt>
      <trkpt lat="43.21362" lon="-1.13243">
        <ele>289.33</ele>
        <time>2021-08-05T15:34:04Z</time>
      </trkpt>
      <trkpt lat="43.21359" lon="-1.1313">
        <ele>283.67</ele>
        <time>2021-08-05T15:34:08Z</time>
      </trkpt>
      <trkpt lat="43.21356" lon="-1.13048">
        <ele>279.31</ele>
        <time>2021-08-05T15:34:11Z</time>
      </trkpt>
      <trkpt lat="43.21359" lon="-1.12994">
        <ele>276.27</ele>
        <time>2021-08-05T15:34:13Z</time>
      </trkpt>
      <trkpt lat="43.21369" lon="-1.1294">
        <ele>273.33</ele>
        <time>2021-08-05T15:34:15Z</time>
      </trkpt>
      <trkpt lat="43.21396" lon="-1.12867">
        <ele>268.78</ele>
        <time>2021-08-05T15:34:18Z</time>
      </trkpt>
      <trkpt lat="43.21429" lon="-1.12799">
        <ele>264.42</ele>
        <time>2021-08-05T15:34:21Z</time>
      </trkpt>
      <trkpt lat="43.21458" lon="-1.12732">
        <ele>260.01</ele>
        <time>2021-08-05T15:34:24Z</time>
      </trkpt>
      <trkpt lat="43.21485" lon="-1.12661">
        <ele>255.55</ele>
        <time>2021-08-05T15:34:27Z</time>
      </trkpt>
      <trkpt lat="43.21514" lon="-1.12591">
        <ele>251.16</ele>
        <time>2021-08-05T15:34:30Z</time>
      </trkpt>
      <trkpt lat="43.2157" lon="-1.12511">
        <ele>245.74</ele>
        <time>2021-08-05T15:34:34Z</time>
      </trkpt>
      <trkpt lat="43.21635" lon="-1.12447">
        <ele>240.91</ele>
        <time>2021-08-05T15:34:38Z</time>
      </trkpt>
      <trkpt lat="43.21681" lon="-1.124">
        <ele>237.87</ele>
        <time>2021-08-05T15:34:41Z</time>
      </trkpt>
      <trkpt lat="43.2174" lon="-1.12341">
        <ele>234.51</ele>
        <time>2021-08-05T15:34:45Z</time>
      </trkpt>
      <trkpt lat="43.21815" lon="-1.12265">
        <ele>231.28</ele>
        <time>2021-08-05T15:34:50Z</time>
      </trkpt>
      <trkpt lat="43.21878" lon="-1.12202">
        <ele>228.02</ele>
        <time>2021-08-05T15:34:54Z</time>
      </trkpt>
      <trkpt lat="43.21941" lon="-1.12133">
        <ele>224.95</ele>
        <time>2021-08-05T15:34:58Z</time>
      </trkpt>
      <trkpt lat="43.22016" lon="-1.12039">
        <ele>221.51</ele>
        <time>2021-08-05T15:35:03Z</time>
      </trkpt>
      <trkpt lat="43.22114" lon="-1.11891">
        <ele>218.51</ele>
        <time>2021-08-05T15:35:10Z</time>
      </trkpt>
      <trkpt lat="43.22226" lon="-1.11688">
        <ele>215.44</ele>
        <time>2021-08-05T15:35:19Z</time>
      </trkpt>
      <trkpt lat="43.22429" lon="-1.11302">
        <ele>212.91</ele>
        <time>2021-08-05T15:35:37Z</time>
      </trkpt>
      <trkpt lat="43.22578" lon="-1.11001">
        <ele>210.42</ele>
        <time>2021-08-05T15:35:50Z</time>
      </trkpt>
      <trkpt lat="43.22717" lon="-1.10742">
        <ele>207.39</ele>
        <time>2021-08-05T15:36:01Z</time>
      </trkpt>
      <trkpt lat="43.22897" lon="-1.10402">
        <ele>207.17</ele>
        <time>2021-08-05T15:36:15Z</time>
      </trkpt>
      <trkpt lat="43.23009" lon="-1.10204">
        <ele>208.85</ele>
        <time>2021-08-05T15:36:24Z</time>
      </trkpt>
      <trkpt lat="43.23061" lon="-1.1011">
        <ele>212.22</ele>
        <time>2021-08-05T15:36:29Z</time>
      </trkpt>
      <trkpt lat="43.23171" lon="-1.09901">
        <ele>213.89</ele>
        <time>2021-08-05T15:36:41Z</time>
      </trkpt>
      <trkpt lat="43.23228" lon="-1.09792">
        <ele>210.54</ele>
        <time>2021-08-05T15:36:47Z</time>
      </trkpt>
      <trkpt lat="43.23261" lon="-1.09725">
        <ele>206.93</ele>
        <time>2021-08-05T15:36:51Z</time>
      </trkpt>
      <trkpt lat="43.23292" lon="-1.09673">
        <ele>203.61</ele>
        <time>2021-08-05T15:36:56Z</time>
      </trkpt>
      <trkpt lat="43.23298" lon="-1.09666">
        <ele>203.39</ele>
        <time>2021-08-05T15:36:57Z</time>
      </trkpt>
      <trkpt lat="43.23303" lon="-1.0966">
        <ele>203.27</ele>
        <time>2021-08-05T15:36:58Z</time>
      </trkpt>
      <trkpt lat="43.23323" lon="-1.09608">
        <ele>203.53</ele>
        <time>2021-08-05T15:37:04Z</time>
      </trkpt>
      <trkpt lat="43.23382" lon="-1.09495">
        <ele>206.16</ele>
        <time>2021-08-05T15:37:13Z</time>
      </trkpt>
      <trkpt lat="43.23474" lon="-1.09323">
        <ele>206.05</ele>
        <time>2021-08-05T15:37:22Z</time>
      </trkpt>
      <trkpt lat="43.23548" lon="-1.09183">
        <ele>203.52</ele>
        <time>2021-08-05T15:37:30Z</time>
      </trkpt>
      <trkpt lat="43.23651" lon="-1.08988">
        <ele>200.1</ele>
        <time>2021-08-05T15:37:40Z</time>
      </trkpt>
      <trkpt lat="43.23707" lon="-1.08883">
        <ele>197.06</ele>
        <time>2021-08-05T15:37:45Z</time>
      </trkpt>
      <trkpt lat="43.2382" lon="-1.08681">
        <ele>196.44</ele>
        <time>2021-08-05T15:37:56Z</time>
      </trkpt>
      <trkpt lat="43.23952" lon="-1.08429">
        <ele>195.25</ele>
        <time>2021-08-05T15:38:09Z</time>
      </trkpt>
      <trkpt lat="43.24039" lon="-1.0823">
        <ele>194.71</ele>
        <time>2021-08-05T15:38:16Z</time>
      </trkpt>
      <trkpt lat="43.24154" lon="-1.08018">
        <ele>194.58</ele>
        <time>2021-08-05T15:38:23Z</time>
      </trkpt>
      <trkpt lat="43.24256" lon="-1.07837">
        <ele>191.63</ele>
        <time>2021-08-05T15:38:31Z</time>
      </trkpt>
      <trkpt lat="43.24366" lon="-1.07637">
        <ele>188.52</ele>
        <time>2021-08-05T15:38:40Z</time>
      </trkpt>
      <trkpt lat="43.24437" lon="-1.07504">
        <ele>185.3</ele>
        <time>2021-08-05T15:38:46Z</time>
      </trkpt>
      <trkpt lat="43.24494" lon="-1.07386">
        <ele>181.65</ele>
        <time>2021-08-05T15:38:51Z</time>
      </trkpt>
      <trkpt lat="43.24567" lon="-1.07236">
        <ele>178.56</ele>
        <time>2021-08-05T15:38:57Z</time>
      </trkpt>
      <trkpt lat="43.24747" lon="-1.06907">
        <ele>177.9</ele>
        <time>2021-08-05T15:39:10Z</time>
      </trkpt>
      <trkpt lat="43.2488" lon="-1.06672">
        <ele>178.03</ele>
        <time>2021-08-05T15:39:20Z</time>
      </trkpt>
      <trkpt lat="43.25021" lon="-1.06443">
        <ele>174.73</ele>
        <time>2021-08-05T15:39:30Z</time>
      </trkpt>
      <trkpt lat="43.25066" lon="-1.06341">
        <ele>171.32</ele>
        <time>2021-08-05T15:39:34Z</time>
      </trkpt>
      <trkpt lat="43.25104" lon="-1.06201">
        <ele>168.3</ele>
        <time>2021-08-05T15:39:39Z</time>
      </trkpt>
      <trkpt lat="43.25149" lon="-1.05905">
        <ele>168.03</ele>
        <time>2021-08-05T15:39:49Z</time>
      </trkpt>
      <trkpt lat="43.25159" lon="-1.05789">
        <ele>171.22</ele>
        <time>2021-08-05T15:39:53Z</time>
      </trkpt>
      <trkpt lat="43.25167" lon="-1.05704">
        <ele>175.43</ele>
        <time>2021-08-05T15:39:56Z</time>
      </trkpt>
      <trkpt lat="43.25175" lon="-1.05649">
        <ele>177.61</ele>
        <time>2021-08-05T15:39:58Z</time>
      </trkpt>
      <trkpt lat="43.25207" lon="-1.05519">
        <ele>181.79</ele>
        <time>2021-08-05T15:40:03Z</time>
      </trkpt>
      <trkpt lat="43.25228" lon="-1.05444">
        <ele>182.52</ele>
        <time>2021-08-05T15:40:06Z</time>
      </trkpt>
      <trkpt lat="43.25214" lon="-1.05287">
        <ele>180.92</ele>
        <time>2021-08-05T15:40:12Z</time>
      </trkpt>
      <trkpt lat="43.25136" lon="-1.05112">
        <ele>176.88</ele>
        <time>2021-08-05T15:40:19Z</time>
      </trkpt>
      <trkpt lat="43.25115" lon="-1.04978">
        <ele>172.99</ele>
        <time>2021-08-05T15:40:24Z</time>
      </trkpt>
      <trkpt lat="43.25121" lon="-1.04922">
        <ele>171.61</ele>
        <time>2021-08-05T15:40:26Z</time>
      </trkpt>
      <trkpt lat="43.25157" lon="-1.04762">
        <ele>169.15</ele>
        <time>2021-08-05T15:40:32Z</time>
      </trkpt>
      <trkpt lat="43.25246" lon="-1.04608">
        <ele>167.84</ele>
        <time>2021-08-05T15:40:39Z</time>
      </trkpt>
      <trkpt lat="43.25376" lon="-1.04484">
        <ele>164.39</ele>
        <time>2021-08-05T15:40:46Z</time>
      </trkpt>
      <trkpt lat="43.25523" lon="-1.04388">
        <ele>161.01</ele>
        <time>2021-08-05T15:40:53Z</time>
      </trkpt>
      <trkpt lat="43.25563" lon="-1.04362">
        <ele>160.25</ele>
        <time>2021-08-05T15:40:55Z</time>
      </trkpt>
      <trkpt lat="43.25659" lon="-1.04307">
        <ele>159.37</ele>
        <time>2021-08-05T15:41:00Z</time>
      </trkpt>
      <trkpt lat="43.25741" lon="-1.04227">
        <ele>155.19</ele>
        <time>2021-08-05T15:41:05Z</time>
      </trkpt>
      <trkpt lat="43.25813" lon="-1.04153">
        <ele>151.81</ele>
        <time>2021-08-05T15:41:10Z</time>
      </trkpt>
      <trkpt lat="43.25954" lon="-1.0409">
        <ele>150.36</ele>
        <time>2021-08-05T15:41:18Z</time>
      </trkpt>
      <trkpt lat="43.26147" lon="-1.04026">
        <ele>150.4</ele>
        <time>2021-08-05T15:41:27Z</time>
      </trkpt>
      <trkpt lat="43.26452" lon="-1.0393">
        <ele>147.24</ele>
        <time>2021-08-05T15:41:42Z</time>
      </trkpt>
      <trkpt lat="43.2666" lon="-1.0384">
        <ele>144.77</ele>
        <time>2021-08-05T15:41:52Z</time>
      </trkpt>
      <trkpt lat="43.26811" lon="-1.03688">
        <ele>143.79</ele>
        <time>2021-08-05T15:42:01Z</time>
      </trkpt>
      <trkpt lat="43.26846" lon="-1.03586">
        <ele>143.45</ele>
        <time>2021-08-05T15:42:05Z</time>
      </trkpt>
      <trkpt lat="43.26855" lon="-1.03533">
        <ele>144.01</ele>
        <time>2021-08-05T15:42:07Z</time>
      </trkpt>
      <trkpt lat="43.26909" lon="-1.03424">
        <ele>147.17</ele>
        <time>2021-08-05T15:42:12Z</time>
      </trkpt>
      <trkpt lat="43.26997" lon="-1.03301">
        <ele>150.97</ele>
        <time>2021-08-05T15:42:18Z</time>
      </trkpt>
      <trkpt lat="43.27135" lon="-1.03154">
        <ele>151.53</ele>
        <time>2021-08-05T15:42:26Z</time>
      </trkpt>
      <trkpt lat="43.27247" lon="-1.03054">
        <ele>148.06</ele>
        <time>2021-08-05T15:42:32Z</time>
      </trkpt>
      <trkpt lat="43.27325" lon="-1.02971">
        <ele>144.56</ele>
        <time>2021-08-05T15:42:37Z</time>
      </trkpt>
      <trkpt lat="43.27376" lon="-1.02915">
        <ele>141.43</ele>
        <time>2021-08-05T15:42:41Z</time>
      </trkpt>
      <trkpt lat="43.27476" lon="-1.02843">
        <ele>138.19</ele>
        <time>2021-08-05T15:42:48Z</time>
      </trkpt>
      <trkpt lat="43.27552" lon="-1.02777">
        <ele>137.58</ele>
        <time>2021-08-05T15:42:53Z</time>
      </trkpt>
      <trkpt lat="43.276" lon="-1.02683">
        <ele>137.57</ele>
        <time>2021-08-05T15:42:57Z</time>
      </trkpt>
      <trkpt lat="43.27626" lon="-1.0252">
        <ele>138.52</ele>
        <time>2021-08-05T15:43:03Z</time>
      </trkpt>
      <trkpt lat="43.27619" lon="-1.02444">
        <ele>139.34</ele>
        <time>2021-08-05T15:43:06Z</time>
      </trkpt>
      <trkpt lat="43.2766" lon="-1.0231">
        <ele>141.31</ele>
        <time>2021-08-05T15:43:12Z</time>
      </trkpt>
      <trkpt lat="43.27705" lon="-1.02274">
        <ele>141.77</ele>
        <time>2021-08-05T15:43:15Z</time>
      </trkpt>
      <trkpt lat="43.2782" lon="-1.02213">
        <ele>138.91</ele>
        <time>2021-08-05T15:43:24Z</time>
      </trkpt>
      <trkpt lat="43.27934" lon="-1.02143">
        <ele>135.92</ele>
        <time>2021-08-05T15:43:33Z</time>
      </trkpt>
      <trkpt lat="43.28047" lon="-1.02046">
        <ele>135.47</ele>
        <time>2021-08-05T15:43:42Z</time>
      </trkpt>
      <trkpt lat="43.28158" lon="-1.01902">
        <ele>135.65</ele>
        <time>2021-08-05T15:43:51Z</time>
      </trkpt>
      <trkpt lat="43.2819" lon="-1.0184">
        <ele>135.55</ele>
        <time>2021-08-05T15:43:54Z</time>
      </trkpt>
      <trkpt lat="43.28233" lon="-1.01629">
        <ele>135.04</ele>
        <time>2021-08-05T15:44:02Z</time>
      </trkpt>
      <trkpt lat="43.28244" lon="-1.01524">
        <ele>134.68</ele>
        <time>2021-08-05T15:44:06Z</time>
      </trkpt>
      <trkpt lat="43.28312" lon="-1.01422">
        <ele>134.68</ele>
        <time>2021-08-05T15:44:12Z</time>
      </trkpt>
      <trkpt lat="43.28383" lon="-1.01426">
        <ele>136.48</ele>
        <time>2021-08-05T15:44:16Z</time>
      </trkpt>
      <trkpt lat="43.28401" lon="-1.01436">
        <ele>136.92</ele>
        <time>2021-08-05T15:44:17Z</time>
      </trkpt>
      <trkpt lat="43.28515" lon="-1.01511">
        <ele>137.17</ele>
        <time>2021-08-05T15:44:23Z</time>
      </trkpt>
      <trkpt lat="43.28571" lon="-1.01584">
        <ele>135.22</ele>
        <time>2021-08-05T15:44:27Z</time>
      </trkpt>
      <trkpt lat="43.28605" lon="-1.01657">
        <ele>134.5</ele>
        <time>2021-08-05T15:44:30Z</time>
      </trkpt>
      <trkpt lat="43.28692" lon="-1.01742">
        <ele>133.24</ele>
        <time>2021-08-05T15:44:35Z</time>
      </trkpt>
      <trkpt lat="43.28893" lon="-1.01809">
        <ele>132.57</ele>
        <time>2021-08-05T15:44:44Z</time>
      </trkpt>
      <trkpt lat="43.29064" lon="-1.01784">
        <ele>130.94</ele>
        <time>2021-08-05T15:44:51Z</time>
      </trkpt>
      <trkpt lat="43.2935" lon="-1.01742">
        <ele>132.72</ele>
        <time>2021-08-05T15:45:02Z</time>
      </trkpt>
      <trkpt lat="43.2947" lon="-1.01731">
        <ele>136.06</ele>
        <time>2021-08-05T15:45:07Z</time>
      </trkpt>
      <trkpt lat="43.29614" lon="-1.01689">
        <ele>139.14</ele>
        <time>2021-08-05T15:45:13Z</time>
      </trkpt>
      <trkpt lat="43.29775" lon="-1.01673">
        <ele>138.99</ele>
        <time>2021-08-05T15:45:20Z</time>
      </trkpt>
      <trkpt lat="43.29944" lon="-1.01678">
        <ele>135.84</ele>
        <time>2021-08-05T15:45:28Z</time>
      </trkpt>
      <trkpt lat="43.30059" lon="-1.01602">
        <ele>132.22</ele>
        <time>2021-08-05T15:45:34Z</time>
      </trkpt>
      <trkpt lat="43.30151" lon="-1.01517">
        <ele>128.54</ele>
        <time>2021-08-05T15:45:39Z</time>
      </trkpt>
      <trkpt lat="43.30239" lon="-1.01418">
        <ele>125.27</ele>
        <time>2021-08-05T15:45:44Z</time>
      </trkpt>
      <trkpt lat="43.30295" lon="-1.01322">
        <ele>122.2</ele>
        <time>2021-08-05T15:45:48Z</time>
      </trkpt>
      <trkpt lat="43.30343" lon="-1.0123">
        <ele>119.05</ele>
        <time>2021-08-05T15:45:52Z</time>
      </trkpt>
      <trkpt lat="43.30433" lon="-1.01116">
        <ele>115.81</ele>
        <time>2021-08-05T15:45:58Z</time>
      </trkpt>
      <trkpt lat="43.30554" lon="-1.00992">
        <ele>113.94</ele>
        <time>2021-08-05T15:46:06Z</time>
      </trkpt>
      <trkpt lat="43.30619" lon="-1.00975">
        <ele>113.48</ele>
        <time>2021-08-05T15:46:10Z</time>
      </trkpt>
      <trkpt lat="43.3067" lon="-1.00973">
        <ele>113.22</ele>
        <time>2021-08-05T15:46:13Z</time>
      </trkpt>
      <trkpt lat="43.3074" lon="-1.00941">
        <ele>113.28</ele>
        <time>2021-08-05T15:46:17Z</time>
      </trkpt>
      <trkpt lat="43.30936" lon="-1.00799">
        <ele>115.8</ele>
        <time>2021-08-05T15:46:28Z</time>
      </trkpt>
      <trkpt lat="43.31071" lon="-1.00748">
        <ele>116.82</ele>
        <time>2021-08-05T15:46:35Z</time>
      </trkpt>
      <trkpt lat="43.31179" lon="-1.00784">
        <ele>117.54</ele>
        <time>2021-08-05T15:46:41Z</time>
      </trkpt>
      <trkpt lat="43.31255" lon="-1.00897">
        <ele>118.17</ele>
        <time>2021-08-05T15:46:47Z</time>
      </trkpt>
      <trkpt lat="43.31263" lon="-1.00921">
        <ele>118.26</ele>
        <time>2021-08-05T15:46:48Z</time>
      </trkpt>
      <trkpt lat="43.31348" lon="-1.01223">
        <ele>117.45</ele>
        <time>2021-08-05T15:47:02Z</time>
      </trkpt>
      <trkpt lat="43.31376" lon="-1.01326">
        <ele>116.55</ele>
        <time>2021-08-05T15:47:08Z</time>
      </trkpt>
      <trkpt lat="43.31426" lon="-1.01369">
        <ele>113.52</ele>
        <time>2021-08-05T15:47:15Z</time>
      </trkpt>
      <trkpt lat="43.31512" lon="-1.01367">
        <ele>111.54</ele>
        <time>2021-08-05T15:47:22Z</time>
      </trkpt>
      <trkpt lat="43.31647" lon="-1.01329">
        <ele>108.59</ele>
        <time>2021-08-05T15:47:29Z</time>
      </trkpt>
      <trkpt lat="43.31756" lon="-1.0135">
        <ele>106.5</ele>
        <time>2021-08-05T15:47:34Z</time>
      </trkpt>
      <trkpt lat="43.32043" lon="-1.01528">
        <ele>108.12</ele>
        <time>2021-08-05T15:47:47Z</time>
      </trkpt>
      <trkpt lat="43.32162" lon="-1.01701">
        <ele>109.53</ele>
        <time>2021-08-05T15:47:54Z</time>
      </trkpt>
      <trkpt lat="43.32259" lon="-1.01957">
        <ele>108.85</ele>
        <time>2021-08-05T15:48:02Z</time>
      </trkpt>
      <trkpt lat="43.32329" lon="-1.02144">
        <ele>107.03</ele>
        <time>2021-08-05T15:48:08Z</time>
      </trkpt>
      <trkpt lat="43.32431" lon="-1.02261">
        <ele>105.53</ele>
        <time>2021-08-05T15:48:14Z</time>
      </trkpt>
      <trkpt lat="43.32543" lon="-1.02308">
        <ele>108.7</ele>
        <time>2021-08-05T15:48:21Z</time>
      </trkpt>
      <trkpt lat="43.32553" lon="-1.02312">
        <ele>109.19</ele>
        <time>2021-08-05T15:48:22Z</time>
      </trkpt>
      <trkpt lat="43.32583" lon="-1.02306">
        <ele>110.64</ele>
        <time>2021-08-05T15:48:29Z</time>
      </trkpt>
      <trkpt lat="43.32636" lon="-1.02284">
        <ele>111.29</ele>
        <time>2021-08-05T15:48:35Z</time>
      </trkpt>
      <trkpt lat="43.32642" lon="-1.02269">
        <ele>111.35</ele>
        <time>2021-08-05T15:48:36Z</time>
      </trkpt>
      <trkpt lat="43.32647" lon="-1.02253">
        <ele>111.4</ele>
        <time>2021-08-05T15:48:37Z</time>
      </trkpt>
      <trkpt lat="43.32699" lon="-1.02114">
        <ele>112.85</ele>
        <time>2021-08-05T15:48:44Z</time>
      </trkpt>
      <trkpt lat="43.3272" lon="-1.02066">
        <ele>113.32</ele>
        <time>2021-08-05T15:48:46Z</time>
      </trkpt>
      <trkpt lat="43.32851" lon="-1.01913">
        <ele>113.51</ele>
        <time>2021-08-05T15:48:54Z</time>
      </trkpt>
      <trkpt lat="43.32962" lon="-1.01755">
        <ele>110.48</ele>
        <time>2021-08-05T15:49:01Z</time>
      </trkpt>
      <trkpt lat="43.33018" lon="-1.0167">
        <ele>109.51</ele>
        <time>2021-08-05T15:49:05Z</time>
      </trkpt>
      <trkpt lat="43.33113" lon="-1.01609">
        <ele>109.77</ele>
        <time>2021-08-05T15:49:10Z</time>
      </trkpt>
      <trkpt lat="43.33294" lon="-1.01538">
        <ele>113.34</ele>
        <time>2021-08-05T15:49:19Z</time>
      </trkpt>
      <trkpt lat="43.33404" lon="-1.0149">
        <ele>116.48</ele>
        <time>2021-08-05T15:49:25Z</time>
      </trkpt>
      <trkpt lat="43.33517" lon="-1.01441">
        <ele>119.77</ele>
        <time>2021-08-05T15:49:31Z</time>
      </trkpt>
      <trkpt lat="43.33638" lon="-1.01391">
        <ele>122.98</ele>
        <time>2021-08-05T15:49:37Z</time>
      </trkpt>
      <trkpt lat="43.33779" lon="-1.01337">
        <ele>126.95</ele>
        <time>2021-08-05T15:49:44Z</time>
      </trkpt>
      <trkpt lat="43.33925" lon="-1.01281">
        <ele>129.95</ele>
        <time>2021-08-05T15:49:51Z</time>
      </trkpt>
      <trkpt lat="43.3412" lon="-1.01164">
        <ele>131.38</ele>
        <time>2021-08-05T15:50:01Z</time>
      </trkpt>
      <trkpt lat="43.34283" lon="-1.0099">
        <ele>129.31</ele>
        <time>2021-08-05T15:50:11Z</time>
      </trkpt>
      <trkpt lat="43.3444" lon="-1.00782">
        <ele>126.16</ele>
        <time>2021-08-05T15:50:22Z</time>
      </trkpt>
      <trkpt lat="43.34591" lon="-1.00583">
        <ele>126.63</ele>
        <time>2021-08-05T15:50:33Z</time>
      </trkpt>
      <trkpt lat="43.34669" lon="-1.0044">
        <ele>130.1</ele>
        <time>2021-08-05T15:50:40Z</time>
      </trkpt>
      <trkpt lat="43.34688" lon="-1.00362">
        <ele>131.83</ele>
        <time>2021-08-05T15:50:43Z</time>
      </trkpt>
      <trkpt lat="43.34691" lon="-1.00223">
        <ele>135.72</ele>
        <time>2021-08-05T15:50:48Z</time>
      </trkpt>
      <trkpt lat="43.34674" lon="-1.00054">
        <ele>139.23</ele>
        <time>2021-08-05T15:50:54Z</time>
      </trkpt>
      <trkpt lat="43.34652" lon="-0.99848">
        <ele>142.24</ele>
        <time>2021-08-05T15:51:01Z</time>
      </trkpt>
      <trkpt lat="43.34647" lon="-0.99675">
        <ele>145.35</ele>
        <time>2021-08-05T15:51:07Z</time>
      </trkpt>
      <trkpt lat="43.34667" lon="-0.99532">
        <ele>148.38</ele>
        <time>2021-08-05T15:51:12Z</time>
      </trkpt>
      <trkpt lat="43.34697" lon="-0.99391">
        <ele>151.99</ele>
        <time>2021-08-05T15:51:17Z</time>
      </trkpt>
      <trkpt lat="43.34734" lon="-0.9922">
        <ele>155.16</ele>
        <time>2021-08-05T15:51:23Z</time>
      </trkpt>
      <trkpt lat="43.34741" lon="-0.99191">
        <ele>155.43</ele>
        <time>2021-08-05T15:51:24Z</time>
      </trkpt>
      <trkpt lat="43.34779" lon="-0.98924">
        <ele>158.01</ele>
        <time>2021-08-05T15:51:33Z</time>
      </trkpt>
      <trkpt lat="43.3478" lon="-0.9864">
        <ele>161.39</ele>
        <time>2021-08-05T15:51:42Z</time>
      </trkpt>
      <trkpt lat="43.34783" lon="-0.98371">
        <ele>164.74</ele>
        <time>2021-08-05T15:51:51Z</time>
      </trkpt>
      <trkpt lat="43.34785" lon="-0.98221">
        <ele>167.74</ele>
        <time>2021-08-05T15:51:56Z</time>
      </trkpt>
      <trkpt lat="43.34786" lon="-0.98079">
        <ele>171.16</ele>
        <time>2021-08-05T15:52:01Z</time>
      </trkpt>
      <trkpt lat="43.34795" lon="-0.97952">
        <ele>174.76</ele>
        <time>2021-08-05T15:52:06Z</time>
      </trkpt>
      <trkpt lat="43.34832" lon="-0.97838">
        <ele>178.2</ele>
        <time>2021-08-05T15:52:11Z</time>
      </trkpt>
      <trkpt lat="43.34894" lon="-0.97737">
        <ele>181.34</ele>
        <time>2021-08-05T15:52:16Z</time>
      </trkpt>
      <trkpt lat="43.3506" lon="-0.9751">
        <ele>183.29</ele>
        <time>2021-08-05T15:52:27Z</time>
      </trkpt>
      <trkpt lat="43.35265" lon="-0.97249">
        <ele>184.99</ele>
        <time>2021-08-05T15:52:41Z</time>
      </trkpt>
      <trkpt lat="43.35352" lon="-0.9721">
        <ele>188.22</ele>
        <time>2021-08-05T15:52:46Z</time>
      </trkpt>
      <trkpt lat="43.35473" lon="-0.97167">
        <ele>191.4</ele>
        <time>2021-08-05T15:52:53Z</time>
      </trkpt>
      <trkpt lat="43.35695" lon="-0.97057">
        <ele>188.07</ele>
        <time>2021-08-05T15:53:06Z</time>
      </trkpt>
      <trkpt lat="43.3577" lon="-0.97016">
        <ele>184.18</ele>
        <time>2021-08-05T15:53:10Z</time>
      </trkpt>
      <trkpt lat="43.35826" lon="-0.96977">
        <ele>180.23</ele>
        <time>2021-08-05T15:53:13Z</time>
      </trkpt>
      <trkpt lat="43.35881" lon="-0.96932">
        <ele>175.97</ele>
        <time>2021-08-05T15:53:16Z</time>
      </trkpt>
      <trkpt lat="43.35931" lon="-0.96888">
        <ele>171.45</ele>
        <time>2021-08-05T15:53:19Z</time>
      </trkpt>
      <trkpt lat="43.35964" lon="-0.96863">
        <ele>168.19</ele>
        <time>2021-08-05T15:53:21Z</time>
      </trkpt>
      <trkpt lat="43.36018" lon="-0.96832">
        <ele>163.93</ele>
        <time>2021-08-05T15:53:24Z</time>
      </trkpt>
      <trkpt lat="43.36082" lon="-0.96804">
        <ele>159.96</ele>
        <time>2021-08-05T15:53:27Z</time>
      </trkpt>
      <trkpt lat="43.36154" lon="-0.96775">
        <ele>156.6</ele>
        <time>2021-08-05T15:53:30Z</time>
      </trkpt>
      <trkpt lat="43.36228" lon="-0.96746">
        <ele>153.16</ele>
        <time>2021-08-05T15:53:33Z</time>
      </trkpt>
      <trkpt lat="43.36298" lon="-0.96715">
        <ele>150.14</ele>
        <time>2021-08-05T15:53:36Z</time>
      </trkpt>
      <trkpt lat="43.36354" lon="-0.96676">
        <ele>146.94</ele>
        <time>2021-08-05T15:53:39Z</time>
      </trkpt>
      <trkpt lat="43.36402" lon="-0.96628">
        <ele>143.85</ele>
        <time>2021-08-05T15:53:42Z</time>
      </trkpt>
      <trkpt lat="43.36459" lon="-0.9656">
        <ele>140.64</ele>
        <time>2021-08-05T15:53:46Z</time>
      </trkpt>
      <trkpt lat="43.36519" lon="-0.96471">
        <ele>137.14</ele>
        <time>2021-08-05T15:53:51Z</time>
      </trkpt>
      <trkpt lat="43.3661" lon="-0.96318">
        <ele>133.97</ele>
        <time>2021-08-05T15:53:59Z</time>
      </trkpt>
      <trkpt lat="43.36705" lon="-0.96139">
        <ele>132.09</ele>
        <time>2021-08-05T15:54:06Z</time>
      </trkpt>
      <trkpt lat="43.3683" lon="-0.95915">
        <ele>129.82</ele>
        <time>2021-08-05T15:54:15Z</time>
      </trkpt>
      <trkpt lat="43.36959" lon="-0.95786">
        <ele>127.41</ele>
        <time>2021-08-05T15:54:22Z</time>
      </trkpt>
      <trkpt lat="43.37168" lon="-0.95636">
        <ele>124.36</ele>
        <time>2021-08-05T15:54:33Z</time>
      </trkpt>
      <trkpt lat="43.37279" lon="-0.95505">
        <ele>121.84</ele>
        <time>2021-08-05T15:54:40Z</time>
      </trkpt>
      <trkpt lat="43.37403" lon="-0.95269">
        <ele>119.81</ele>
        <time>2021-08-05T15:54:51Z</time>
      </trkpt>
      <trkpt lat="43.37557" lon="-0.94987">
        <ele>119.28</ele>
        <time>2021-08-05T15:55:05Z</time>
      </trkpt>
      <trkpt lat="43.37649" lon="-0.94928">
        <ele>118.9</ele>
        <time>2021-08-05T15:55:11Z</time>
      </trkpt>
      <trkpt lat="43.37794" lon="-0.94898">
        <ele>118.05</ele>
        <time>2021-08-05T15:55:19Z</time>
      </trkpt>
      <trkpt lat="43.37885" lon="-0.9492">
        <ele>116.99</ele>
        <time>2021-08-05T15:55:24Z</time>
      </trkpt>
      <trkpt lat="43.37956" lon="-0.9496">
        <ele>114.54</ele>
        <time>2021-08-05T15:55:28Z</time>
      </trkpt>
      <trkpt lat="43.38031" lon="-0.94974">
        <ele>110.64</ele>
        <time>2021-08-05T15:55:32Z</time>
      </trkpt>
      <trkpt lat="43.3809" lon="-0.94972">
        <ele>107.45</ele>
        <time>2021-08-05T15:55:36Z</time>
      </trkpt>
      <trkpt lat="43.3813" lon="-0.94972">
        <ele>105.66</ele>
        <time>2021-08-05T15:55:40Z</time>
      </trkpt>
      <trkpt lat="43.38221" lon="-0.94952">
        <ele>106.34</ele>
        <time>2021-08-05T15:55:48Z</time>
      </trkpt>
      <trkpt lat="43.38282" lon="-0.94908">
        <ele>109.62</ele>
        <time>2021-08-05T15:55:56Z</time>
      </trkpt>
      <trkpt lat="43.38333" lon="-0.94868">
        <ele>112.87</ele>
        <time>2021-08-05T15:56:04Z</time>
      </trkpt>
      <trkpt lat="43.38385" lon="-0.94829">
        <ele>115.26</ele>
        <time>2021-08-05T15:56:11Z</time>
      </trkpt>
      <trkpt lat="43.38394" lon="-0.94825">
        <ele>115.59</ele>
        <time>2021-08-05T15:56:12Z</time>
      </trkpt>
      <trkpt lat="43.38479" lon="-0.94782">
        <ele>117.02</ele>
        <time>2021-08-05T15:56:21Z</time>
      </trkpt>
      <trkpt lat="43.38549" lon="-0.94694">
        <ele>116.73</ele>
        <time>2021-08-05T15:56:35Z</time>
      </trkpt>
      <trkpt lat="43.38634" lon="-0.94605">
        <ele>116.86</ele>
        <time>2021-08-05T15:56:49Z</time>
      </trkpt>
      <trkpt lat="43.38737" lon="-0.94528">
        <ele>117.15</ele>
        <time>2021-08-05T15:57:04Z</time>
      </trkpt>
      <trkpt lat="43.3883" lon="-0.9447">
        <ele>117.29</ele>
        <time>2021-08-05T15:57:17Z</time>
      </trkpt>
      <trkpt lat="43.38892" lon="-0.94431">
        <ele>117.04</ele>
        <time>2021-08-05T15:57:29Z</time>
      </trkpt>
      <trkpt lat="43.38909" lon="-0.9442">
        <ele>116.6</ele>
        <time>2021-08-05T15:57:42Z</time>
      </trkpt>
      <trkpt lat="43.38916" lon="-0.9441">
        <ele>116.62</ele>
        <time>2021-08-05T15:57:45Z</time>
      </trkpt>
      <trkpt lat="43.38928" lon="-0.94377">
        <ele>116.68</ele>
        <time>2021-08-05T15:57:53Z</time>
      </trkpt>
    </trkseg>
  </trk>
</gpx>